GFSGL_sfc_wetblb_000.txt.gz
Wetbulb
56.47 56.05 59.41 59.05 57.99 56.71 57.47 57.11 56.89 56.79 57.24 58.15 58.85 59.27 59.39 59.75 60.06 61.30 61.48 61.72 61.42 61.55 61.46 61.90 61.18 61.84 62.00 61.66 62.00 62.42 60.78 61.35 58.73 60.54 62.16 62.99 62.39 62.16 62.09 61.90 62.24 61.53 60.44
56.31 56.44 58.90 59.63 58.32 57.20 57.47 57.09 57.32 57.12 57.77 58.42 59.56 59.61 59.72 59.64 60.13 60.45 60.93 61.66 61.46 61.11 61.28 61.44 60.67 61.25 61.51 61.16 61.91 61.22 61.22 61.75 60.38 58.33 60.30 60.77 61.18 61.28 60.52 60.13 60.50 60.30 60.20
55.64 55.34 58.03 58.36 57.57 57.29 56.89 57.35 57.26 57.66 58.09 59.23 59.91 59.90 59.58 60.02 59.84 59.68 59.98 60.32 61.33 61.44 61.85 61.17 60.93 61.39 61.09 61.16 61.41 61.06 61.22 61.54 61.11 60.11 59.05 60.20 60.26 60.22 58.85 58.96 58.10 58.00 57.83
54.62 56.80 57.28 57.46 57.75 57.30 57.79 57.86 57.85 58.75 58.81 59.50 60.11 60.16 60.22 60.31 59.95 59.47 59.72 60.26 61.48 61.54 61.30 61.24 61.65 61.20 60.89 60.87 60.89 60.57 60.91 60.66 60.43 59.89 58.95 57.65 58.35 58.23 59.19 58.49 58.14 58.14 57.21
53.96 57.11 56.82 56.75 57.62 57.75 58.00 58.22 58.49 59.14 59.39 60.01 60.43 60.41 60.57 60.37 59.96 59.55 59.81 60.25 61.28 61.19 61.24 61.06 61.42 60.54 59.04 60.02 61.13 60.57 60.92 59.95 59.73 58.77 57.63 57.06 56.64 57.39 58.03 57.32 57.54 56.38 56.63
53.59 56.84 57.11 56.86 57.60 57.73 57.75 57.97 58.20 58.45 59.14 60.08 60.43 60.46 60.37 60.94 49.45 53.44 58.36 60.09 61.51 61.41 60.29 60.16 60.01 57.82 56.12 54.58 55.50 55.90 59.06 60.15 58.55 59.10 57.74 57.56 57.24 58.08 55.64 56.36 55.69 55.99 54.42
53.46 57.15 57.00 56.97 57.61 56.84 57.27 57.32 57.03 57.18 58.13 58.95 58.96 59.90 60.25 58.91 47.09 49.63 53.26 61.23 61.07 60.75 60.35 60.92 61.16 60.08 59.68 59.39 53.83 53.77 54.28 54.34 55.69 59.58 58.88 58.69 57.47 57.58 56.63 54.98 55.21 55.50 55.93
52.74 56.22 56.54 56.76 57.19 56.50 56.61 56.38 54.97 55.52 56.91 57.15 56.93 58.71 59.07 56.56 47.09 47.82 52.53 60.79 60.84 61.34 61.35 61.28 61.23 61.00 58.91 60.13 60.39 60.04 60.16 59.99 59.69 59.57 60.04 59.55 60.38 58.85 59.09 57.98 57.18 56.62 55.62
52.78 54.74 55.38 56.01 56.48 55.95 55.83 54.98 54.31 54.66 54.52 55.30 55.88 58.26 58.61 56.70 45.64 46.37 56.82 61.19 60.57 60.95 61.52 60.45 60.85 60.79 48.11 51.23 60.24 58.38 55.10 54.29 48.20 49.99 49.33 47.79 47.36 48.28 53.60 57.73 57.11 58.06 56.52
52.99 54.30 54.32 56.09 56.45 55.67 55.16 54.36 54.14 54.29 54.60 54.28 54.73 57.35 54.65 57.48 44.92 46.55 56.12 60.26 59.15 58.93 59.28 59.15 52.68 56.72 45.64 48.47 57.00 55.25 54.29 53.20 52.82 50.53 50.68 50.35 51.14 50.73 49.12 59.73 58.24 56.59 52.03
54.42 54.16 53.57 55.78 55.75 55.89 55.09 54.57 54.04 53.31 53.52 53.09 52.97 53.14 55.67 56.18 53.45 44.92 49.45 59.62 58.45 57.59 58.15 57.58 58.27 48.53 45.01 43.59 48.32 54.88 53.71 51.71 48.04 49.93 50.36 51.61 52.87 53.62 53.88 55.79 57.37 55.12 52.13
54.17 54.01 53.06 53.95 56.76 55.82 55.62 54.76 54.05 53.02 52.40 51.61 51.31 50.78 50.91 53.05 49.05 44.88 45.83 51.06 52.09 57.71 57.22 56.89 55.26 43.96 43.18 42.51 47.35 45.56 42.61 47.14 53.43 53.24 53.05 53.09 52.88 52.33 52.08 52.12 53.21 53.07 53.47
53.56 53.50 52.56 52.27 56.75 55.92 55.65 54.42 53.47 53.08 52.18 51.46 51.60 51.52 51.17 49.59 49.44 45.70 44.06 44.45 46.70 56.13 56.98 52.53 43.77 41.40 41.22 43.27 42.72 41.65 42.42 53.43 54.98 54.59 54.11 53.56 52.72 51.06 50.44 50.15 51.02 50.42 49.07
53.05 52.70 52.05 51.32 54.21 56.28 56.59 56.08 54.84 53.21 52.51 52.30 52.06 51.96 51.88 50.08 49.00 49.03 51.17 49.65 45.98 49.68 47.05 46.51 44.07 43.84 43.02 45.40 45.49 45.34 50.78 54.71 55.61 54.92 53.28 50.85 49.22 49.03 48.48 49.82 48.35 47.83 46.35
52.79 52.57 51.92 52.01 53.23 56.20 56.54 55.88 56.60 56.34 54.16 53.95 53.58 53.52 52.04 51.38 50.54 45.89 48.52 51.54 52.70 49.00 45.99 46.75 46.93 47.31 46.55 46.10 46.27 47.60 49.97 53.46 54.03 51.19 50.26 48.76 48.38 48.12 47.40 48.69 48.48 47.60 45.66
51.63 51.17 51.31 52.10 52.27 55.77 55.76 52.69 41.11 44.87 46.85 44.56 45.13 51.88 54.14 48.92 43.62 40.91 39.73 41.07 40.76 39.96 47.90 47.90 48.19 48.15 48.36 47.20 46.31 46.02 48.72 51.57 53.08 51.07 49.83 49.40 48.46 48.06 47.28 47.10 47.83 45.92 42.06
52.58 51.36 50.49 51.16 53.02 54.84 56.13 55.57 54.67 49.36 43.84 44.02 44.16 44.61 45.73 48.83 41.59 40.50 38.98 37.87 38.35 41.77 51.89 48.78 49.49 49.27 49.80 49.39 48.01 47.34 48.40 51.81 51.06 50.28 49.56 48.90 48.33 47.92 46.34 46.33 45.48 43.61 41.97
53.55 46.02 51.03 52.21 53.72 55.16 55.98 56.46 56.84 55.95 54.86 54.37 42.99 45.98 42.28 42.18 41.00 39.42 37.34 39.83 43.59 44.08 49.03 50.32 49.80 49.31 48.99 49.13 48.88 48.24 49.68 49.64 50.23 49.04 48.04 48.05 48.36 46.91 46.29 44.73 42.69 41.11 40.33
53.58 52.18 52.89 52.84 54.42 54.36 56.35 56.41 56.34 56.57 56.26 53.92 47.47 42.59 40.24 39.60 39.13 37.22 38.02 50.16 47.89 47.05 47.88 48.73 50.27 49.93 47.95 47.50 48.25 49.15 50.47 49.59 49.07 48.14 47.31 47.26 47.29 47.16 45.88 43.85 42.00 38.29 38.01
54.82 48.79 49.98 53.40 54.48 55.33 55.85 55.80 55.56 55.15 55.04 54.15 51.86 53.42 43.63 44.83 47.77 46.41 44.01 47.34 49.21 49.25 48.68 48.95 50.06 49.92 49.07 47.12 45.84 47.20 49.14 47.29 47.25 47.42 47.02 46.69 46.67 46.86 45.52 43.32 42.32 41.72 41.77
55.94 52.92 49.67 54.36 54.91 55.66 55.96 55.72 55.60 55.41 54.97 54.35 54.55 51.40 40.60 50.20 50.98 50.32 48.14 47.37 49.48 50.58 50.34 49.88 50.12 50.68 50.29 49.14 47.95 47.21 48.32 48.15 48.16 47.26 46.24 45.32 45.10 45.22 44.10 42.43 41.79 41.06 40.41
56.48 54.38 53.62 54.82 55.53 55.70 55.77 56.25 55.83 55.61 55.35 54.67 54.89 50.51 36.61 49.33 51.32 50.88 50.70 50.10 50.46 51.61 52.19 51.84 51.57 50.86 51.10 50.88 49.63 48.20 47.99 48.05 47.95 46.86 45.68 44.82 43.26 42.03 42.01 40.37 39.27 38.37 37.61
56.73 54.98 54.14 54.99 55.42 51.18 53.71 55.84 55.98 55.82 55.79 55.53 55.47 52.17 45.62 49.05 51.07 51.37 51.16 51.43 51.33 51.59 51.62 50.47 51.12 51.34 52.62 52.31 52.27 50.85 49.13 48.05 47.51 47.04 44.60 43.81 42.25 40.48 39.44 39.09 38.44 36.42 36.56
57.01 55.94 54.76 54.49 54.35 54.55 54.91 55.04 55.43 50.18 55.69 55.76 55.04 54.38 52.35 50.77 50.92 51.56 52.03 52.12 51.47 52.03 52.45 50.63 50.74 51.04 51.25 51.78 51.97 51.29 51.85 50.64 49.39 47.77 45.65 43.29 41.02 39.06 39.34 38.10 37.10 35.44 34.54
57.11 56.19 55.52 54.80 54.17 53.76 54.06 54.75 54.89 55.11 54.82 54.55 54.78 54.93 55.44 53.12 51.59 51.83 52.18 51.75 51.28 51.12 50.86 51.04 50.92 50.98 50.95 51.07 50.74 50.12 41.06 38.14 46.13 42.41 44.89 43.22 40.83 39.97 38.96 37.86 36.26 34.13 32.58
57.50 56.34 56.06 55.82 55.05 54.71 54.36 53.89 54.23 54.71 54.45 54.27 53.61 54.39 55.07 54.76 54.28 52.40 51.72 51.05 50.74 50.87 50.72 50.54 50.47 50.33 49.61 49.46 48.10 39.57 36.42 36.94 39.83 39.98 43.50 42.33 40.70 39.68 38.45 36.64 34.98 33.39 32.05

GFSGL_sfc_wetblb_003.txt.gz
Wetbulb
63.63 64.63 65.08 65.07 63.88 63.24 63.00 62.56 62.17 62.55 62.52 62.11 62.54 62.96 63.41 64.23 65.08 64.73 63.77 62.78 62.91 63.97 64.88 62.81 63.18 65.59 64.74 65.41 65.87 63.87 63.67 61.63 58.99 60.67 62.19 62.87 62.34 62.45 62.63 62.91 63.94 62.94 61.94
63.76 63.67 64.65 65.17 63.91 62.94 63.13 63.03 62.79 62.32 62.56 62.34 63.29 63.03 63.10 63.86 64.65 64.04 62.55 61.87 61.80 62.13 62.35 62.09 62.34 64.30 64.83 65.66 66.07 64.85 65.25 62.45 60.41 58.99 60.74 61.13 60.94 61.91 61.88 62.53 62.09 62.19 62.72
62.94 63.13 64.96 64.53 64.41 64.00 63.25 62.96 63.05 62.86 62.96 63.22 63.82 63.41 63.58 63.75 64.23 64.23 63.81 62.52 62.43 62.68 63.46 62.47 63.27 63.16 64.03 64.87 65.00 64.98 64.79 62.34 62.09 60.59 59.72 60.88 60.68 60.97 61.03 61.54 61.02 61.31 61.08
62.23 62.58 64.01 64.10 63.96 63.70 63.29 63.14 63.13 63.53 63.29 64.20 64.41 63.74 63.93 63.81 63.45 63.79 63.34 62.50 62.76 63.02 63.40 63.60 63.81 63.22 64.51 64.17 63.14 64.04 64.99 62.21 62.05 59.70 59.42 58.78 59.17 59.83 59.89 58.46 57.93 60.82 58.96
61.79 62.79 63.27 63.85 63.45 63.55 63.52 63.20 63.70 64.01 64.05 64.10 64.15 63.93 64.03 63.62 62.84 63.43 63.38 62.53 63.33 62.82 64.07 64.02 64.52 62.67 59.79 60.04 64.01 61.94 63.42 62.20 60.05 58.93 58.15 57.57 57.47 57.65 57.82 60.50 59.77 59.62 59.94
61.79 62.62 62.56 62.73 62.55 63.24 63.22 63.57 63.67 63.82 64.13 64.26 63.65 63.34 63.42 62.75 49.41 53.84 60.29 62.50 63.71 64.02 63.74 63.98 63.84 60.78 57.09 54.81 55.14 55.94 60.29 61.53 59.48 58.56 58.27 57.45 58.22 60.76 61.07 60.25 59.42 58.09 56.04
61.09 62.73 62.21 62.46 62.25 62.65 63.03 63.15 63.03 63.28 64.09 64.24 63.94 63.74 63.63 63.08 47.78 49.05 53.18 63.04 63.14 63.73 64.55 63.94 63.12 62.62 61.89 62.84 54.18 53.91 54.29 53.34 56.46 62.21 62.74 61.59 61.26 62.19 61.81 61.47 60.85 59.74 59.44
60.49 62.32 62.17 62.38 62.05 62.66 62.72 62.49 62.47 63.09 63.74 63.61 63.76 64.12 63.92 62.03 46.33 47.42 51.41 62.72 62.35 62.54 64.63 64.72 64.03 64.45 63.06 63.32 62.67 62.70 62.04 62.15 63.35 64.96 65.85 65.45 65.48 64.90 64.10 62.71 61.96 61.50 61.42
59.44 61.83 62.11 62.42 61.96 62.35 62.46 62.25 61.62 62.59 62.95 62.59 62.96 63.54 63.42 61.01 45.97 46.88 56.70 61.24 61.67 62.39 63.80 64.56 64.37 63.39 48.96 51.74 62.07 62.47 63.31 61.24 50.86 47.72 48.72 50.17 49.96 51.34 57.32 61.02 59.12 59.64 58.78
59.44 61.11 62.02 62.24 62.72 62.64 63.21 62.18 61.96 63.23 62.62 61.68 62.25 63.88 58.23 60.89 44.88 46.33 57.04 63.38 62.20 62.50 61.76 60.84 53.10 58.95 45.06 50.56 64.43 63.53 61.78 60.96 61.66 61.66 61.56 55.54 55.41 53.86 51.29 64.06 62.01 60.63 59.82
60.69 60.75 61.85 62.26 63.21 63.51 63.43 62.23 61.61 61.80 61.18 60.88 60.98 62.12 62.89 61.06 57.41 45.25 49.96 60.66 62.11 62.39 61.84 62.46 61.94 44.52 44.16 47.08 50.81 61.88 59.72 60.54 56.28 62.82 61.66 61.20 61.12 60.87 61.21 62.89 63.96 62.96 60.12
60.83 60.14 61.14 62.17 62.54 62.41 62.86 61.99 61.59 61.91 60.70 60.12 59.78 60.34 61.73 62.64 52.92 45.17 45.97 52.51 54.75 61.13 61.44 61.55 59.66 45.75 44.16 44.50 51.69 41.26 43.06 52.21 60.58 60.10 59.83 59.81 60.07 59.78 59.73 60.87 60.57 60.70 61.29
60.43 60.23 60.81 60.92 62.00 62.51 62.40 61.64 60.38 61.43 60.38 59.48 59.43 59.69 59.44 60.84 61.90 47.02 44.70 46.15 49.21 62.10 62.58 55.37 44.31 42.76 42.40 46.97 43.31 41.46 44.15 59.10 60.79 60.40 59.43 58.08 58.61 58.35 58.10 57.60 57.57 56.61 55.29
60.45 60.49 60.53 60.11 61.29 62.17 62.22 61.87 61.11 59.86 59.72 58.80 59.20 59.73 59.42 59.57 61.22 62.21 60.49 57.66 47.70 56.15 49.86 53.55 49.03 48.96 45.14 51.65 53.04 51.74 60.19 60.14 60.21 59.84 59.69 58.89 57.46 56.99 56.21 55.65 53.60 52.37 50.39
60.67 60.37 59.86 59.78 60.35 61.74 62.42 61.72 61.54 62.52 59.71 60.10 59.58 59.88 60.17 59.37 59.37 55.81 57.97 61.43 62.08 56.61 54.75 56.62 57.58 58.63 58.95 58.92 58.81 58.75 58.69 59.35 60.01 60.61 59.21 56.62 55.83 55.49 54.64 55.27 54.24 53.71 51.79
60.29 59.78 59.15 58.69 59.00 60.99 61.52 59.74 41.76 46.25 46.43 44.01 47.60 55.93 59.70 50.83 42.92 42.32 43.25 43.65 42.32 41.96 57.02 57.66 57.59 58.57 58.80 58.57 58.13 57.39 57.73 55.75 60.04 59.29 58.59 57.21 55.64 55.11 54.27 54.57 54.68 54.06 51.33
61.04 61.14 59.43 57.18 58.58 59.01 60.76 61.24 60.17 52.96 45.36 43.96 45.18 45.11 46.83 50.07 41.18 40.03 39.42 39.30 38.94 43.12 59.74 58.97 58.88 57.94 57.58 57.84 57.90 57.81 57.78 59.16 60.59 59.30 58.81 57.84 56.52 55.70 52.36 53.65 53.23 51.93 49.63
62.02 50.02 59.78 58.86 58.90 58.93 59.57 60.19 60.83 60.83 60.35 60.65 46.44 49.70 43.11 43.54 40.64 38.47 37.99 42.55 50.58 49.70 59.40 59.73 59.26 59.86 59.84 59.30 58.65 58.16 58.07 57.93 58.55 58.70 58.17 57.33 56.57 54.87 53.47 52.91 51.41 49.88 46.06
61.16 58.89 60.21 59.54 59.19 57.50 59.48 59.82 59.62 59.96 60.92 61.52 61.38 47.18 45.77 40.16 38.51 37.44 38.62 57.84 56.93 56.45 57.14 57.90 59.02 59.46 59.41 59.37 59.57 59.51 58.78 57.72 57.28 57.73 57.27 56.68 56.08 54.94 53.74 53.11 50.28 40.98 42.64
60.84 52.32 54.91 59.55 58.89 58.58 59.20 59.41 59.52 59.50 59.73 60.17 60.31 60.67 56.50 50.96 55.88 55.28 52.47 56.24 59.22 58.59 58.03 57.51 57.46 57.74 58.41 58.55 58.49 58.13 58.26 56.39 56.00 56.57 56.67 56.17 55.74 54.87 53.60 50.17 46.45 42.74 42.76
60.29 58.66 53.25 59.22 59.16 59.06 59.07 59.14 59.69 59.77 59.82 59.80 60.03 59.04 46.31 58.50 60.49 60.51 58.25 57.87 58.92 59.79 59.67 59.32 58.88 58.13 57.50 57.40 57.29 56.54 56.34 57.01 57.05 56.79 55.99 55.51 54.89 53.18 51.73 46.56 44.39 44.59 42.22
60.97 60.23 58.08 59.05 59.98 59.39 60.69 60.03 60.03 59.82 59.96 59.82 60.34 58.43 38.63 57.03 61.05 60.60 60.11 59.31 59.53 60.40 61.11 60.64 60.03 59.98 59.34 58.73 57.06 56.03 55.80 55.63 55.94 55.57 54.98 53.53 52.43 50.82 47.10 46.96 45.56 43.54 42.46
60.80 60.24 58.66 59.83 60.49 55.31 58.94 60.45 60.27 60.23 60.14 60.31 60.54 59.88 53.53 56.95 59.79 60.13 59.76 59.93 59.99 60.14 60.81 60.69 60.48 60.37 60.57 60.14 59.76 58.61 56.65 55.96 55.97 55.89 53.08 50.47 50.32 49.63 47.80 46.19 45.05 41.73 40.38
61.15 60.76 59.57 59.62 59.61 59.76 60.26 60.42 61.10 54.13 60.19 60.34 60.72 60.44 59.64 58.01 58.97 59.99 60.40 60.36 59.87 59.73 59.81 59.95 59.51 59.48 59.91 59.79 59.88 59.70 58.94 58.40 56.25 53.31 51.93 50.58 49.39 46.26 47.65 45.82 43.40 41.39 38.42
60.93 60.48 59.97 59.94 59.61 59.52 59.88 60.11 60.55 61.64 60.48 61.09 60.97 61.02 61.11 60.55 59.74 60.01 60.69 60.60 60.40 59.99 60.05 60.08 60.08 59.61 59.17 59.17 59.19 59.11 52.40 39.69 53.16 48.19 53.34 51.69 46.20 47.79 47.81 46.01 41.46 38.90 35.92
61.04 60.56 60.47 59.91 59.17 58.97 59.53 59.75 60.49 60.88 60.41 60.46 60.58 61.14 61.24 60.90 61.06 60.54 60.26 60.26 59.79 59.49 59.71 59.54 59.37 59.06 58.76 58.38 58.14 49.20 37.54 38.18 43.38 41.75 51.83 49.49 46.55 44.59 46.14 42.18 39.15 37.29 36.35

GFSGL_sfc_wetblb_009.txt.gz
Wetbulb
66.39 67.04 66.38 66.22 66.01 66.64 66.08 65.39 65.29 65.48 64.88 64.23 64.47 64.53 64.36 64.67 66.30 66.56 66.02 65.13 64.24 65.44 65.54 65.22 65.75 66.86 67.96 67.72 67.70 66.88 65.53 63.29 57.50 58.77 59.83 60.97 59.97 59.63 60.07 60.14 61.16 61.26 60.53
66.01 66.45 66.38 66.34 66.62 66.26 66.01 65.40 65.49 64.59 64.51 64.27 64.23 64.23 63.98 65.22 65.68 65.48 63.98 64.14 64.24 64.46 65.48 65.32 65.15 65.83 66.51 67.04 65.65 64.90 64.17 62.29 59.01 57.00 59.09 59.71 59.74 60.13 60.15 61.21 61.78 62.61 61.65
65.69 65.72 66.29 66.01 66.34 66.29 66.08 66.22 65.00 64.42 64.08 64.20 64.42 63.86 64.22 64.89 65.24 64.45 63.61 64.05 64.14 64.93 65.28 65.58 65.46 66.08 65.78 65.75 64.57 63.51 63.29 61.69 60.19 58.44 58.51 59.83 59.65 59.83 60.68 61.19 61.67 62.06 62.87
65.00 65.27 65.35 65.57 65.79 66.40 65.73 65.28 64.96 64.18 63.79 65.26 64.72 64.65 64.65 64.70 64.87 64.82 62.88 64.39 64.31 64.51 65.12 66.24 65.71 66.13 65.70 65.22 63.91 62.75 61.13 60.22 59.69 59.31 58.75 58.97 59.71 60.58 60.44 59.15 58.50 60.04 60.07
64.46 64.95 65.51 66.13 66.19 65.79 65.17 65.09 64.84 64.78 64.78 65.16 64.36 64.60 65.13 65.07 64.31 65.36 65.16 65.15 63.08 63.40 65.10 64.93 64.66 61.66 60.70 63.11 63.25 63.10 61.12 60.31 59.38 58.61 58.23 58.39 58.45 58.79 57.71 58.32 57.13 58.68 59.63
64.31 64.34 65.30 65.25 65.26 65.41 65.01 65.27 64.78 65.13 64.58 65.52 64.71 64.16 64.59 63.93 50.54 54.03 60.10 65.24 64.29 64.24 63.21 62.28 62.62 61.63 56.98 54.91 57.14 58.11 60.18 59.94 58.90 58.38 58.18 57.44 57.79 58.86 59.45 56.63 56.48 56.42 55.62
64.12 64.35 64.34 64.92 64.60 64.83 64.87 64.33 64.53 65.80 66.76 65.37 64.79 64.96 64.75 63.50 49.65 49.49 53.04 65.74 66.00 65.69 64.89 64.43 62.69 61.67 61.02 61.90 54.04 53.83 54.76 54.22 56.84 59.74 58.23 58.24 58.16 60.88 60.03 58.39 60.00 59.95 58.96
63.71 63.90 64.28 64.71 64.72 64.41 64.79 65.05 65.64 66.39 65.75 65.47 65.47 65.27 64.64 61.50 49.31 49.13 52.03 66.22 66.36 65.66 65.75 65.22 63.85 63.91 62.82 63.05 62.71 62.75 61.68 60.96 60.26 60.48 59.60 60.04 60.71 61.12 63.29 62.98 63.05 64.12 62.61
63.12 63.78 63.98 65.09 64.73 64.96 64.50 65.45 66.38 66.88 66.56 65.86 65.52 65.19 64.66 62.38 48.40 47.31 55.93 65.42 64.61 65.18 65.31 65.33 65.00 64.22 51.27 51.87 63.72 61.17 59.45 57.69 54.09 53.58 54.98 53.53 52.27 53.68 59.97 63.58 61.87 60.57 57.94
63.05 63.98 64.64 65.27 64.98 64.58 65.35 65.95 66.54 66.65 65.92 65.67 65.25 65.77 59.50 63.40 47.84 46.05 55.07 64.82 64.73 64.11 65.60 64.62 52.04 59.97 48.95 50.74 63.92 61.55 59.06 59.17 60.30 59.83 61.57 54.98 57.73 59.82 53.04 67.07 64.15 60.52 59.49
63.44 64.80 65.10 65.74 65.49 66.38 65.98 66.25 66.19 65.57 65.54 66.00 65.36 65.67 65.41 63.68 59.98 46.77 47.86 65.80 65.17 64.59 63.07 63.48 61.72 45.27 48.20 51.48 56.14 62.20 60.86 61.52 58.38 63.42 63.92 64.32 65.22 64.21 63.22 64.73 65.84 64.49 61.32
63.16 64.40 65.23 65.83 65.52 66.18 66.42 65.61 65.15 65.29 65.02 65.57 65.04 64.64 64.32 64.79 54.85 48.40 47.50 51.85 56.02 64.93 62.37 63.36 57.07 45.07 45.84 50.51 57.25 47.33 48.38 56.32 64.33 63.87 63.29 63.45 62.73 60.83 62.82 65.45 68.36 65.16 66.17
62.56 64.08 64.89 65.82 65.67 66.38 65.80 64.52 63.61 64.46 64.42 64.31 64.01 63.51 63.28 64.23 62.60 48.11 49.67 48.95 52.62 65.21 64.78 53.93 44.98 44.01 43.31 48.14 45.77 47.57 49.20 63.89 63.57 62.38 61.59 61.96 62.39 63.61 66.62 66.67 66.31 64.56 63.97
62.01 63.49 64.21 64.55 64.66 65.88 64.92 64.19 62.87 62.63 63.82 63.92 62.65 62.55 63.27 63.78 63.63 63.67 63.44 61.87 51.40 59.04 52.66 58.18 55.21 52.42 47.01 53.56 53.50 53.85 63.67 64.91 64.46 63.25 63.52 63.90 65.07 65.04 64.33 64.42 61.70 60.18 58.26
63.05 62.79 63.85 64.14 64.69 64.84 65.33 64.10 63.23 65.29 60.72 63.27 63.93 64.33 63.92 63.39 63.61 59.05 60.26 63.89 64.62 60.19 62.11 62.68 62.26 63.15 62.68 60.49 61.07 62.62 64.11 64.54 63.99 64.14 62.77 62.65 62.81 63.25 62.56 62.24 60.23 58.58 56.18
63.57 62.43 62.51 63.15 63.82 64.28 64.28 64.18 43.78 47.55 47.65 48.17 46.55 56.17 63.27 52.93 48.59 47.83 47.96 46.14 46.30 48.38 62.10 62.31 61.87 62.38 62.63 62.18 61.60 61.76 62.24 60.02 62.91 62.63 62.52 61.52 60.52 60.47 60.25 60.26 59.69 58.09 56.88
64.74 64.64 62.36 60.15 63.07 64.34 63.88 64.04 62.68 57.00 46.53 48.36 47.22 45.53 47.25 51.82 46.05 45.21 43.15 42.70 43.97 48.38 63.08 62.80 62.65 62.74 62.80 62.80 62.72 62.35 61.65 62.45 64.56 63.15 62.94 61.62 61.16 60.86 58.13 59.23 58.99 58.45 58.24
65.77 51.98 63.10 61.62 61.82 62.09 64.18 64.34 64.38 63.03 61.74 62.00 49.03 50.83 44.27 43.64 44.05 43.16 41.90 47.65 58.54 54.57 62.55 63.14 63.11 63.33 63.20 62.98 62.80 62.34 62.39 62.89 62.77 62.70 62.37 62.43 62.50 60.56 59.48 58.68 58.68 58.85 58.56
63.93 62.71 63.01 62.15 61.14 59.74 61.73 62.78 64.01 63.77 63.40 62.56 61.86 50.08 45.04 39.49 39.49 40.11 42.39 61.43 60.47 60.07 60.14 61.37 62.28 62.43 61.89 62.32 62.88 62.78 63.39 62.89 62.56 63.32 63.19 62.83 62.58 61.71 60.50 59.56 59.19 49.76 52.76
64.67 55.56 58.09 62.17 61.21 60.85 60.67 61.18 61.31 61.61 61.89 61.46 61.21 60.95 59.59 53.38 56.71 56.76 57.71 60.99 61.19 60.92 60.68 60.04 61.12 62.10 61.63 61.80 61.59 61.29 61.22 61.40 62.17 62.97 62.87 63.07 63.19 62.85 61.12 59.98 59.39 58.02 56.97
63.94 63.74 56.85 61.56 61.28 60.76 60.40 60.35 60.92 60.87 61.14 61.42 61.49 61.38 51.51 60.25 60.87 60.61 59.70 60.09 60.25 60.88 62.00 61.76 61.46 61.63 62.35 63.06 63.17 62.51 62.16 61.56 61.60 61.82 62.14 62.90 63.17 61.91 62.51 61.81 60.38 59.38 54.91
65.55 64.70 63.29 61.84 60.88 60.89 61.57 60.64 60.88 60.61 60.60 60.87 61.73 59.90 43.57 62.34 61.34 62.10 62.66 62.63 62.04 63.24 63.01 63.94 62.71 62.50 62.23 62.00 62.79 63.28 62.81 62.47 62.49 62.72 62.20 61.82 62.59 62.51 61.94 61.12 60.31 57.70 53.40
66.54 65.37 64.59 63.42 62.50 56.98 61.42 60.71 60.48 60.75 60.59 60.76 61.00 61.20 60.25 63.05 62.32 62.14 63.39 64.64 64.96 64.02 63.67 63.80 64.36 63.54 63.64 63.85 63.80 63.11 62.50 62.69 63.45 63.73 63.18 62.73 61.90 61.78 61.65 60.85 59.91 53.90 51.80
66.58 66.33 66.06 64.45 63.08 62.05 62.55 62.82 61.80 54.13 60.02 60.70 62.27 61.74 62.66 63.39 63.45 63.06 63.50 64.73 65.47 65.71 65.44 64.55 64.15 63.43 64.50 64.88 64.17 63.58 62.93 63.11 63.13 63.06 63.26 62.88 62.31 59.82 61.52 60.55 58.80 54.30 52.27
65.78 66.92 67.15 65.77 64.17 63.06 63.11 62.71 62.52 62.92 61.92 62.03 62.20 62.43 61.94 63.54 63.25 63.49 63.96 64.10 65.07 65.64 65.75 65.56 65.02 63.84 63.84 63.49 63.58 63.25 57.58 40.20 58.08 53.65 62.21 62.40 62.34 62.42 61.43 59.95 58.06 54.11 51.92
65.00 65.73 67.33 66.81 65.35 64.87 64.29 64.14 63.97 64.09 63.61 63.25 62.99 63.18 63.41 62.62 63.37 64.66 65.03 64.90 64.44 64.71 65.72 65.76 65.74 65.15 64.02 63.49 63.67 55.65 41.14 37.77 50.57 39.13 61.64 63.71 61.77 61.13 60.70 59.12 56.86 53.57 47.19

GFSGL_sfc_wetblb_012.txt.gz
Wetbulb
66.96 67.83 67.00 66.68 65.25 65.70 65.95 65.63 65.50 66.04 65.34 64.72 64.46 64.05 63.85 63.39 64.62 64.96 64.48 64.75 64.31 64.08 64.36 63.61 64.46 63.90 63.80 63.17 63.14 62.84 62.46 59.42 55.95 57.59 59.34 59.82 59.47 59.71 60.22 60.77 61.40 61.23 59.80
66.23 66.31 66.52 66.74 65.34 66.13 66.09 64.10 66.12 65.68 65.28 64.73 64.36 63.26 63.87 64.15 65.08 63.67 64.16 63.64 63.78 63.42 63.98 63.22 63.52 64.65 62.92 63.36 63.28 61.97 60.22 59.54 57.54 56.05 57.39 58.23 58.19 59.12 59.85 60.16 61.32 61.67 60.19
66.07 65.35 65.30 65.88 64.36 66.19 65.10 65.50 65.95 65.25 64.68 65.23 62.72 63.44 63.95 65.16 64.11 63.12 63.73 63.52 64.03 64.03 63.91 63.88 62.77 62.72 62.39 63.07 62.35 60.48 59.81 59.26 58.93 57.12 56.79 58.65 58.67 60.04 59.80 59.82 59.51 60.56 61.12
65.43 64.29 64.99 63.80 64.98 65.99 65.10 63.92 65.67 64.70 64.45 63.09 63.61 64.18 64.61 64.77 65.17 63.52 63.66 64.17 61.69 63.23 63.09 63.40 63.42 62.88 62.98 62.00 61.36 61.04 59.96 59.07 59.27 57.86 57.43 57.11 58.19 59.45 59.95 58.29 57.99 59.93 59.58
64.77 63.91 65.03 64.71 64.88 65.36 63.21 64.34 63.90 65.45 64.50 64.83 63.08 63.50 64.89 64.43 61.87 63.46 63.61 62.08 62.67 61.30 61.69 62.26 61.33 62.01 60.83 60.29 60.76 60.17 59.63 59.19 58.41 57.51 56.73 57.45 57.65 57.87 57.33 58.01 57.28 57.55 57.36
64.66 64.55 65.30 65.31 65.34 64.30 63.85 64.68 65.12 65.01 64.15 63.77 64.45 63.87 64.11 61.39 51.26 55.78 61.43 62.86 63.10 62.89 60.72 62.76 62.21 59.12 57.48 55.35 56.39 56.21 58.83 59.26 58.40 58.31 57.77 57.01 57.01 56.87 57.12 55.49 56.06 54.30 53.77
64.29 64.28 64.19 64.76 64.41 64.36 63.77 63.87 63.52 63.48 63.78 63.55 63.61 63.79 62.54 59.98 48.81 48.83 55.38 64.08 63.89 63.42 61.89 61.41 61.81 60.98 60.47 59.43 53.33 53.67 53.57 53.25 56.58 59.35 58.10 57.93 56.86 56.34 55.50 54.83 54.18 54.48 54.08
63.48 63.53 64.04 63.88 63.78 64.13 64.08 63.63 64.30 65.58 65.07 63.37 64.17 64.70 62.73 57.98 49.21 47.76 50.81 65.14 64.88 63.75 63.19 62.21 62.44 62.51 61.12 60.93 60.83 59.87 59.53 59.83 59.82 60.38 59.72 59.30 59.82 58.13 57.58 57.23 58.10 58.24 58.38
62.84 63.37 63.95 63.72 63.99 63.83 63.63 64.93 65.20 65.41 65.05 64.19 65.03 64.83 62.18 60.69 49.39 46.49 56.05 64.66 63.86 63.31 63.64 63.82 62.98 61.55 50.96 52.10 60.59 58.66 58.43 57.87 53.51 52.50 53.62 52.88 51.98 53.21 56.91 59.48 58.12 56.68 55.28
62.93 63.43 64.81 64.88 64.09 63.67 65.30 65.28 66.21 66.26 64.17 64.78 64.83 65.09 58.15 60.90 47.94 46.68 52.80 64.79 63.56 62.95 62.99 59.81 51.82 57.72 49.54 51.88 60.33 59.11 57.71 58.15 58.91 58.80 58.43 56.87 55.69 56.82 51.46 60.38 59.79 55.98 55.33
64.01 64.36 65.33 65.60 65.90 66.07 66.94 66.99 66.40 63.73 64.59 64.65 63.64 64.48 63.53 61.83 56.23 46.86 47.40 64.24 63.64 62.91 61.57 60.13 55.18 47.51 47.22 49.97 54.17 59.81 58.15 58.82 55.59 58.82 58.94 60.30 61.30 61.49 61.56 61.94 62.18 59.41 57.40
64.23 64.35 65.21 65.99 65.21 65.82 66.48 67.20 66.64 64.74 63.66 64.06 63.39 62.96 63.73 63.21 54.14 48.20 47.76 52.69 55.75 62.19 61.45 60.32 51.94 46.95 48.40 49.26 56.13 47.18 48.34 55.00 60.16 59.59 58.57 59.40 60.00 60.42 60.44 61.36 63.51 62.85 63.56
64.00 65.06 65.45 65.52 66.25 66.34 65.46 65.87 64.43 65.32 63.75 63.16 62.86 61.63 61.89 61.95 60.47 48.67 49.00 51.98 53.03 62.05 62.20 51.67 43.12 43.93 44.71 49.53 46.90 47.52 49.32 61.03 61.31 60.13 59.31 59.54 61.24 59.00 59.64 63.12 62.45 61.30 61.19
63.97 65.15 65.71 65.12 65.79 65.67 64.98 64.31 63.23 63.71 63.04 63.06 62.42 62.00 61.68 61.48 61.35 62.15 60.85 57.85 52.58 55.70 51.56 53.48 51.92 51.77 51.82 53.58 51.91 52.22 61.99 62.49 61.61 60.84 60.82 61.75 61.02 59.39 61.89 62.72 59.01 58.61 55.16
63.98 64.92 65.10 65.02 65.57 65.41 64.94 62.65 63.61 64.65 60.87 63.21 63.54 63.41 61.75 61.19 61.63 58.28 59.71 62.70 61.99 58.37 59.34 60.38 60.90 58.77 58.62 59.46 60.46 60.81 61.73 62.16 60.65 60.61 60.15 59.59 60.76 61.68 61.69 61.83 58.87 56.20 52.96
62.78 63.80 63.41 63.64 64.10 64.16 63.76 61.05 43.38 47.53 45.56 44.09 45.75 59.58 62.92 54.94 48.20 48.47 49.40 49.32 47.39 48.02 60.28 60.21 60.59 60.47 58.18 58.92 59.35 59.80 61.16 60.10 60.89 60.87 60.92 60.69 61.10 61.36 60.71 59.91 57.91 55.35 52.85
62.75 62.97 62.91 61.23 63.29 63.77 63.37 63.15 61.36 54.46 45.09 44.43 46.15 49.50 51.20 51.39 46.14 45.51 44.73 44.63 46.28 48.41 61.68 61.04 60.66 61.06 60.82 59.89 59.69 60.16 59.53 60.40 61.79 60.85 60.04 59.38 59.34 59.45 54.92 57.90 57.10 55.77 54.40
64.10 53.46 63.00 62.21 63.76 63.24 63.70 63.89 63.38 61.27 60.04 59.71 49.14 51.60 47.59 44.90 44.53 43.77 43.31 48.58 56.51 54.69 61.62 61.75 61.61 61.55 61.84 61.53 61.09 60.50 60.61 60.44 60.33 60.74 60.82 59.88 59.27 58.74 57.31 57.01 56.85 55.37 54.55
63.75 62.62 62.77 62.63 62.68 61.45 64.05 63.88 63.94 62.96 61.83 60.94 56.96 51.07 43.82 41.29 41.37 41.79 43.94 61.34 60.37 60.20 60.42 61.26 62.75 62.67 62.43 62.39 62.21 61.63 61.24 60.65 60.05 59.78 60.59 60.15 59.63 58.71 57.65 57.28 56.62 49.29 50.82
64.28 55.73 57.43 62.96 61.19 61.78 61.27 62.57 63.29 63.57 62.57 61.63 59.98 58.77 54.06 51.49 56.00 57.26 57.00 60.64 59.61 59.35 59.31 59.84 60.81 61.80 62.10 62.02 61.91 61.90 61.31 58.55 59.37 60.33 60.01 60.62 60.24 59.84 58.46 57.77 56.81 54.91 53.98
63.29 62.81 55.60 61.86 62.48 60.53 60.79 60.38 61.11 61.99 62.90 62.67 62.03 59.53 47.87 57.19 57.43 58.31 58.60 59.68 59.89 60.26 59.68 59.42 59.01 59.26 60.46 60.92 60.62 59.86 58.98 59.02 59.62 59.79 60.21 60.12 60.23 59.71 59.81 58.99 57.24 56.06 54.77
63.81 63.43 62.19 61.99 61.42 61.60 60.66 60.75 60.94 61.15 61.19 61.46 61.63 58.09 42.70 58.48 59.57 59.46 58.71 58.82 60.02 60.71 61.27 61.53 60.95 60.51 60.09 60.18 61.21 60.62 59.77 58.78 58.54 58.38 58.60 59.46 59.97 59.65 58.92 58.39 57.39 55.72 52.28
65.00 64.16 63.62 62.19 61.75 57.09 59.71 60.99 60.44 60.74 60.53 60.83 61.60 59.46 56.01 58.96 60.23 60.38 60.82 60.78 60.27 60.42 60.62 60.66 60.85 61.78 61.93 61.48 61.21 61.27 61.21 60.72 60.74 60.46 59.23 58.50 58.59 58.37 58.84 57.93 57.11 55.42 51.13
66.07 65.38 64.34 63.41 61.87 61.34 61.43 60.68 60.53 54.26 60.14 60.46 60.63 60.90 59.06 60.27 61.48 61.12 61.24 62.23 62.64 62.07 61.66 61.65 61.38 61.40 62.22 62.54 62.30 61.78 61.16 61.19 61.72 61.57 61.10 59.94 59.32 54.98 57.95 57.47 57.33 54.46 49.89
64.87 65.72 65.70 64.87 62.81 61.52 61.32 61.34 60.57 60.56 60.22 60.35 60.49 60.70 61.06 61.70 62.21 62.47 62.33 62.03 62.47 62.91 63.10 62.53 62.19 62.05 61.97 62.12 62.68 62.37 55.93 40.88 56.71 53.07 60.24 60.35 59.48 58.99 58.48 57.75 56.15 52.30 46.33
64.46 65.34 65.79 65.78 65.15 62.96 61.69 61.63 61.52 60.97 60.70 60.13 60.52 61.35 61.35 62.02 61.99 62.13 62.30 62.06 61.47 61.77 63.36 63.82 63.66 62.91 62.71 62.18 61.70 54.24 41.39 38.37 45.11 40.72 58.23 58.40 57.92 57.58 57.85 57.11 53.74 51.35 44.44

GFSGL_sfc_wetblb_015.txt.gz
Wetbulb
62.23 61.58 61.09 61.93 61.87 61.26 60.93 60.21 59.64 59.67 59.29 59.65 60.26 61.40 61.95 61.83 61.65 60.96 60.47 60.68 60.44 60.55 60.41 60.37 61.04 60.37 60.16 60.34 60.44 60.32 58.93 57.90 55.96 57.28 59.19 59.63 59.79 60.48 60.14 60.16 59.60 59.71 59.17
62.67 61.99 61.50 60.96 61.82 60.93 60.32 61.48 59.79 58.85 59.42 59.59 60.50 61.88 63.18 62.74 60.81 60.98 60.44 60.31 60.51 60.28 60.62 60.91 60.90 62.44 60.19 61.14 60.63 58.77 59.09 58.99 57.09 55.20 57.30 57.85 58.33 59.92 60.15 59.78 59.45 59.15 59.44
62.69 63.07 62.77 61.59 62.30 60.71 60.36 61.26 59.92 59.77 58.76 60.99 61.96 62.99 62.84 62.09 61.48 60.75 61.23 61.28 60.86 60.15 60.64 60.75 60.65 61.19 60.54 60.23 59.64 58.99 58.91 58.29 57.84 56.48 56.08 58.39 58.99 59.77 59.43 59.95 59.05 58.23 59.12
63.77 62.82 61.85 61.94 62.21 60.90 60.45 61.62 59.96 59.89 58.49 61.42 61.57 63.16 62.56 62.76 62.63 61.58 62.83 61.45 60.93 60.90 61.40 61.88 61.87 61.86 60.81 59.64 59.30 58.76 58.03 57.38 57.27 56.62 56.78 57.47 57.98 59.09 59.10 57.72 56.92 57.68 57.08
62.71 62.63 61.74 61.72 62.96 62.05 62.19 60.59 60.41 58.91 60.91 61.99 61.78 62.59 60.35 59.66 60.75 61.81 62.00 61.47 60.72 60.59 61.10 61.02 61.90 60.95 59.40 59.24 59.54 59.03 58.58 57.75 57.26 56.52 56.72 57.02 57.06 56.90 56.40 57.80 55.98 57.50 57.89
62.62 61.98 61.96 61.32 63.44 61.92 61.82 61.59 61.75 60.29 61.48 60.96 61.42 60.22 58.21 58.70 50.24 52.81 59.49 61.63 61.72 60.79 61.10 60.32 60.07 58.43 55.76 54.43 54.84 55.70 57.90 58.09 56.86 56.78 57.14 56.62 56.92 57.26 58.12 57.04 56.66 55.68 53.63
62.38 61.78 62.16 62.05 60.93 60.51 62.00 61.04 60.22 60.00 61.28 60.98 60.79 58.59 56.57 54.97 47.38 48.85 52.09 62.48 61.34 60.79 59.33 61.17 60.58 59.03 58.39 58.16 53.49 53.48 53.35 52.92 55.95 58.80 57.11 57.27 56.75 57.40 57.30 55.70 55.11 53.13 52.83
61.03 61.07 61.72 61.89 61.55 61.86 61.20 59.29 59.77 60.03 60.14 60.45 60.18 58.13 55.86 53.78 47.38 46.67 52.29 61.98 62.39 61.55 60.97 60.79 60.44 59.49 59.28 59.82 59.46 59.13 58.97 59.14 59.18 59.57 58.86 58.32 57.98 57.20 56.85 55.29 54.16 52.72 53.79
59.80 60.46 61.49 61.93 61.10 61.45 61.51 59.61 59.75 59.85 59.92 59.34 60.12 57.77 56.08 53.96 47.92 46.13 57.82 61.84 61.84 61.25 61.57 62.03 61.36 59.71 50.22 51.02 59.37 58.57 58.20 57.73 52.54 50.63 50.00 49.87 48.15 49.82 53.70 56.71 54.53 52.24 52.32
60.22 60.56 62.79 61.89 62.06 60.76 60.16 59.73 60.41 59.94 61.05 60.67 60.79 58.59 55.08 55.36 47.58 45.94 55.32 61.83 60.03 59.29 59.07 59.05 52.75 56.88 48.12 50.13 59.11 58.48 57.50 57.68 58.31 58.43 58.20 53.18 52.55 50.76 51.91 57.07 56.77 54.36 53.24
60.78 60.81 62.46 61.00 60.77 61.59 60.88 60.84 60.69 60.50 60.63 60.45 59.73 58.60 57.90 56.18 53.22 45.76 50.11 61.15 60.27 58.91 58.46 58.56 56.16 47.90 47.21 47.94 52.57 58.99 57.19 58.24 55.23 58.13 58.35 58.04 57.38 57.50 56.98 57.26 56.24 56.25 53.83
60.24 61.58 62.88 61.92 63.43 62.54 60.92 60.79 60.90 59.96 59.28 58.56 58.91 58.71 58.49 57.42 51.55 47.21 47.58 55.76 55.90 58.98 57.99 56.00 52.01 45.94 45.94 46.85 53.77 45.04 47.52 53.60 58.14 55.94 55.50 55.68 56.36 56.64 57.85 60.16 60.55 56.72 56.96
59.52 61.55 61.31 61.29 61.97 61.43 60.22 59.88 59.81 60.16 60.24 59.07 58.91 58.25 57.57 57.32 54.27 47.94 48.66 50.76 52.79 58.23 57.43 51.10 44.94 45.94 45.22 46.47 44.13 46.07 49.50 57.57 56.48 55.28 54.30 55.50 56.92 57.91 57.29 58.71 57.67 58.46 57.55
60.42 60.58 60.07 61.74 60.85 60.89 60.50 60.30 59.12 59.56 59.43 60.23 59.11 58.16 57.12 56.94 57.10 56.44 54.76 54.31 50.36 51.24 47.03 47.93 50.09 52.12 51.17 51.71 51.46 53.59 58.63 58.41 58.15 56.98 55.66 56.62 57.74 55.41 57.10 57.30 55.07 53.92 50.99
61.13 60.86 59.71 61.64 61.72 60.09 57.95 56.04 58.40 58.56 60.91 60.53 59.41 59.65 58.18 56.88 58.05 55.68 56.24 57.98 56.99 53.81 53.67 54.23 54.01 55.22 54.96 55.56 56.30 57.58 58.87 59.09 58.91 58.60 57.67 57.49 58.17 55.22 58.18 56.90 55.68 51.94 49.84
60.54 61.15 59.92 60.27 61.46 60.46 55.07 52.89 43.83 44.59 45.14 51.34 52.08 57.96 59.67 53.74 48.00 48.38 50.00 48.38 46.78 47.23 56.14 55.78 54.71 54.45 56.69 56.87 56.58 56.81 58.07 56.69 59.43 59.14 58.50 58.16 57.86 56.73 58.57 56.92 54.72 51.86 49.00
59.26 59.54 59.26 58.21 60.11 58.77 57.63 55.51 51.94 50.75 45.65 42.49 47.54 48.62 50.89 50.41 46.11 46.95 44.85 45.33 45.47 49.28 56.66 56.36 56.46 54.67 55.40 56.02 56.79 58.00 58.21 58.66 58.76 59.45 58.46 57.93 58.57 58.87 55.08 57.88 55.41 53.14 50.08
58.13 51.59 59.07 57.91 59.47 58.84 58.46 58.44 55.87 53.63 52.00 51.57 47.25 48.79 45.44 45.54 45.27 44.55 42.49 46.93 52.66 52.54 57.46 57.22 56.68 56.94 55.79 55.96 56.35 56.50 57.19 56.40 56.70 57.72 58.55 58.56 59.21 59.40 56.30 56.95 55.73 53.31 50.21
58.76 57.96 58.00 58.32 58.08 58.08 59.12 58.75 58.74 55.79 55.31 53.69 50.09 47.95 42.44 40.65 42.29 42.03 43.94 57.95 57.31 57.00 56.38 57.27 58.57 57.87 57.61 57.97 57.32 57.44 56.19 55.73 55.27 55.67 56.08 56.80 57.36 56.65 55.69 55.74 55.44 47.18 47.96
59.68 53.04 54.42 57.43 57.31 57.65 57.99 59.70 58.03 58.04 56.82 54.91 52.89 53.85 48.18 48.38 50.82 50.98 51.59 57.36 57.95 58.11 58.11 57.79 57.20 57.74 59.49 58.59 58.51 58.89 56.63 54.63 55.58 55.33 55.64 57.70 56.93 56.59 55.98 54.60 54.45 53.26 50.81
60.65 57.20 54.75 57.82 56.92 56.47 58.02 55.83 59.60 59.38 58.66 57.42 55.26 53.88 45.59 55.81 55.70 55.74 55.64 56.92 57.94 58.00 57.66 56.95 57.58 56.67 55.74 58.66 59.76 58.53 58.25 57.99 57.33 57.53 57.02 56.38 57.56 56.79 55.58 54.84 54.50 53.52 52.91
60.41 60.02 57.73 58.89 58.48 56.58 55.10 56.94 55.63 57.52 59.82 59.14 58.00 54.39 40.98 57.04 57.32 57.30 57.40 57.85 58.72 57.59 56.11 56.92 56.54 56.00 55.45 54.95 55.70 57.63 57.33 56.97 56.83 57.24 57.38 57.60 57.43 56.50 55.96 55.00 54.01 52.91 49.52
60.14 58.71 59.13 58.60 58.86 53.70 53.84 55.34 56.44 55.72 56.22 58.84 60.07 57.26 50.07 55.75 55.87 56.17 56.84 57.33 57.91 57.92 58.16 57.04 55.58 56.91 57.65 56.57 55.82 56.89 57.61 57.21 56.55 55.58 55.88 56.90 57.32 57.18 56.25 54.47 54.68 51.08 48.02
59.26 60.71 58.78 58.63 58.56 58.19 57.58 54.80 55.50 50.76 55.84 56.44 56.02 56.71 54.67 54.76 55.85 56.41 56.73 56.96 56.87 57.31 57.78 57.93 58.06 57.33 56.93 57.29 58.60 58.28 57.69 57.96 57.67 57.22 56.50 55.73 55.60 51.95 56.29 55.41 53.53 51.89 48.36
55.81 59.84 60.57 59.24 58.83 58.02 57.93 57.06 56.19 55.79 56.36 56.57 56.06 55.37 55.99 56.39 56.75 57.45 57.93 58.34 58.38 57.86 57.45 57.63 57.94 57.46 57.06 57.18 57.45 57.91 53.64 41.09 55.03 51.29 57.97 57.04 55.58 54.47 55.26 55.30 52.91 50.21 44.49
54.65 55.53 59.96 60.88 59.47 58.94 58.51 57.66 57.36 56.64 56.26 56.65 56.59 55.39 55.96 56.81 57.33 58.02 58.73 58.70 58.63 59.37 59.59 59.41 59.12 58.63 58.76 58.60 58.46 52.83 42.37 40.87 44.15 41.75 56.72 57.63 56.08 55.64 55.49 54.20 52.34 49.00 43.74

GFSGL_sfc_wetblb_018.txt.gz
Wetbulb
60.24 60.71 60.40 59.98 60.13 59.75 59.56 58.71 58.32 58.59 58.96 59.22 59.26 59.37 60.08 60.33 60.19 59.80 59.40 59.12 59.89 59.09 59.46 60.04 59.87 59.60 58.49 59.05 58.65 58.11 57.25 58.06 55.66 57.35 59.12 61.03 61.12 60.30 60.30 59.04 58.83 58.16 58.70
59.99 59.97 60.09 59.88 59.66 59.37 58.93 58.15 58.20 57.72 57.85 58.40 58.98 59.74 61.51 61.41 60.47 59.57 59.57 60.16 59.65 59.57 59.84 59.58 60.30 60.79 58.75 58.27 58.47 58.97 58.13 57.50 56.69 55.48 57.41 58.07 57.95 58.89 58.56 57.26 57.12 58.05 58.82
60.67 60.96 60.25 60.20 61.00 58.83 58.69 59.15 57.85 58.06 57.98 57.98 59.25 61.28 61.31 61.11 60.34 59.77 60.78 60.21 59.28 59.21 59.90 60.02 60.50 60.05 59.70 59.01 59.31 58.57 57.85 58.18 57.76 56.80 56.64 58.43 57.04 57.17 57.39 57.99 58.09 58.27 58.65
61.93 61.68 61.07 60.57 61.04 59.35 58.93 59.49 58.33 58.78 57.36 58.51 61.04 61.62 61.50 61.63 61.64 62.32 61.85 60.85 59.83 59.97 60.37 60.49 61.21 60.75 59.65 59.31 58.70 58.11 57.65 57.19 57.25 57.14 57.09 57.04 56.86 56.94 56.98 55.84 55.54 56.70 55.72
61.60 61.39 61.17 60.29 61.74 59.41 59.10 58.77 58.76 58.33 59.25 61.41 61.61 59.72 59.12 59.54 59.12 61.14 61.32 60.30 59.95 59.56 59.86 61.34 61.32 60.07 58.89 58.36 58.47 57.81 57.39 56.89 56.87 56.84 56.68 56.60 55.80 55.52 54.78 55.94 54.60 54.88 55.56
61.89 61.39 60.89 60.94 61.43 61.61 60.35 58.47 60.30 58.36 60.22 61.05 60.51 58.53 57.38 57.31 48.09 51.59 58.67 60.75 60.75 60.82 59.61 59.35 58.74 57.16 55.58 54.41 54.65 54.36 56.94 56.96 56.84 56.64 56.52 55.88 56.00 56.60 56.20 55.29 54.74 53.66 52.32
61.97 61.71 60.99 61.10 60.46 61.03 61.20 60.30 59.02 59.83 60.39 60.33 57.59 56.87 55.09 54.31 47.05 47.96 52.67 61.02 60.23 60.01 60.59 59.99 59.06 57.98 57.26 56.60 52.96 52.99 52.99 52.23 55.24 58.01 56.59 56.64 56.57 56.63 56.49 55.65 55.39 54.07 53.86
61.24 60.79 61.21 60.73 59.42 59.64 60.55 59.88 59.71 59.65 58.91 58.61 56.30 55.21 54.44 54.39 46.33 47.60 52.31 61.63 59.21 60.09 60.60 59.34 59.11 59.20 58.55 58.80 58.61 58.00 58.10 58.14 58.45 59.03 58.64 58.32 58.47 58.49 57.98 56.95 53.68 52.90 53.24
59.67 60.29 60.87 59.81 59.88 60.50 59.34 57.86 58.07 58.28 57.32 57.64 56.84 55.31 54.87 55.36 45.42 47.42 57.21 60.80 60.46 61.12 60.57 60.11 59.78 58.82 49.16 49.75 58.43 57.73 57.02 55.74 51.36 49.93 49.12 48.18 47.13 48.27 53.41 55.12 53.67 52.68 51.36
59.42 60.32 61.15 60.29 59.30 59.28 58.55 57.86 58.04 58.37 58.70 59.27 57.66 56.18 53.17 55.94 45.06 46.33 55.86 60.24 59.86 59.92 60.06 57.37 51.51 54.94 46.51 49.39 58.61 57.98 56.72 56.80 56.57 54.16 53.09 49.86 50.58 50.09 50.47 54.14 54.64 52.56 50.08
60.23 60.76 61.34 59.62 59.26 59.27 58.65 58.66 58.80 59.62 58.78 58.57 57.06 55.70 55.68 55.50 53.08 46.33 50.14 58.81 59.35 59.25 58.86 57.97 55.22 45.24 45.42 47.05 51.97 58.47 56.72 57.85 54.38 55.19 54.16 53.87 53.63 53.91 55.08 54.34 53.19 53.68 50.14
58.75 60.35 61.14 59.37 61.37 60.63 59.21 59.13 59.47 57.98 57.33 56.86 56.32 55.42 56.18 55.52 49.05 45.79 47.60 51.95 52.84 58.62 58.52 58.17 52.64 44.15 45.06 46.15 52.13 44.34 46.33 52.70 58.10 57.01 54.52 53.67 54.16 54.66 55.34 55.96 55.03 54.99 54.39
59.79 59.53 59.48 60.07 60.78 59.97 58.85 58.38 57.88 57.38 57.43 57.21 57.19 55.86 55.31 55.28 54.69 45.79 45.60 46.51 49.94 55.90 58.53 53.56 44.70 43.79 43.43 44.86 44.70 45.79 49.12 56.92 55.77 56.29 54.40 54.03 54.55 55.63 56.46 57.36 57.32 55.23 53.73
59.60 59.33 59.43 59.53 58.70 59.00 59.55 58.86 58.39 57.81 57.31 57.69 57.41 56.20 55.05 55.16 55.14 54.42 53.93 52.82 48.39 50.82 48.95 50.52 49.62 50.04 49.23 48.83 49.52 51.40 57.44 56.60 55.97 54.65 53.43 54.09 55.72 54.66 55.22 55.70 55.36 53.54 51.79
59.65 59.61 59.56 59.43 58.85 58.20 56.16 56.54 58.94 59.15 58.87 58.85 57.61 57.49 55.90 55.58 56.48 52.74 54.14 55.94 54.28 51.24 51.65 54.03 56.34 56.60 55.64 55.24 56.06 55.96 56.28 56.50 55.60 54.96 54.27 54.27 55.22 54.90 55.24 54.88 53.63 51.13 50.59
58.53 59.43 59.98 59.66 58.54 57.86 52.98 49.96 43.42 45.39 45.38 48.39 51.39 55.98 57.77 51.83 46.51 45.97 47.13 45.83 43.98 45.25 53.55 54.56 53.24 54.13 56.24 56.38 56.18 55.34 55.38 55.22 56.54 56.08 55.22 55.04 55.78 55.28 55.30 55.06 53.17 51.30 50.06
59.03 58.98 59.60 59.15 59.62 57.12 53.68 52.15 51.20 48.96 43.17 44.17 45.07 47.51 49.89 49.41 45.06 45.06 44.81 43.17 43.33 48.45 54.65 53.64 54.13 55.26 55.62 55.62 55.70 56.20 56.74 57.18 57.32 57.54 57.40 55.88 56.22 55.41 52.70 56.62 54.43 51.82 49.82
59.48 51.71 59.61 60.19 60.24 58.62 55.88 53.37 51.71 51.31 52.60 54.38 45.89 45.86 44.84 44.02 43.52 43.25 43.00 45.47 51.34 51.42 55.29 55.69 54.99 54.89 56.20 56.44 56.28 56.35 56.66 56.56 56.84 58.18 57.80 57.35 57.07 56.87 55.67 56.83 56.89 54.68 50.68
59.07 58.54 59.60 58.98 59.63 58.00 57.93 55.64 53.07 51.51 51.61 52.28 50.07 46.63 41.73 39.92 41.23 40.46 43.00 57.26 55.99 55.76 55.29 56.00 56.42 55.83 55.24 56.68 56.96 56.87 57.27 56.77 56.03 56.99 57.53 57.48 57.54 57.81 57.32 57.36 57.01 48.82 47.49
59.01 53.47 54.48 57.96 56.89 57.61 57.72 57.89 55.85 53.67 52.29 51.79 52.48 55.01 46.87 48.32 50.30 50.34 49.94 55.94 57.24 57.21 57.15 57.04 57.11 57.32 57.21 56.33 55.88 56.39 56.56 54.34 54.99 55.48 56.60 57.46 57.49 58.03 57.77 57.00 56.26 54.90 51.75
57.96 55.98 53.50 57.92 57.35 57.79 57.75 57.82 58.40 56.68 55.01 53.39 53.26 53.15 44.59 56.54 55.96 55.74 54.87 54.89 57.43 57.97 57.95 57.77 57.41 56.92 57.34 57.76 57.87 57.08 56.39 56.29 56.00 55.03 55.47 56.23 56.61 56.10 57.23 56.68 56.13 55.65 54.72
56.55 56.61 56.76 58.06 57.62 56.79 57.23 57.27 57.63 58.33 57.45 56.12 54.58 52.36 39.62 56.33 57.04 56.81 56.99 56.93 57.88 58.44 58.74 58.55 58.34 58.13 57.97 57.05 57.55 57.91 57.89 57.61 57.06 56.56 56.07 55.45 56.24 56.31 56.33 55.80 54.60 54.01 53.14
56.19 57.01 55.66 56.94 57.38 52.49 52.41 56.21 56.12 57.37 58.38 58.09 57.13 54.96 49.01 53.99 56.85 57.06 57.08 57.76 57.93 58.44 57.91 57.44 57.96 58.01 58.08 57.41 56.78 56.71 57.32 58.01 58.57 58.17 57.10 56.76 56.15 55.97 55.90 55.18 54.50 53.48 51.10
54.11 55.41 58.02 55.36 55.14 54.42 55.32 53.42 54.65 49.86 56.25 58.75 58.32 57.24 52.44 53.79 56.79 56.96 57.70 58.14 58.06 58.36 58.83 58.23 57.55 57.36 57.21 56.25 56.03 55.96 56.95 57.28 57.34 56.96 57.81 57.28 57.00 54.37 56.14 55.54 55.47 54.79 51.84
54.47 54.02 53.81 56.49 57.92 54.28 54.56 54.65 54.69 54.27 54.74 55.67 57.85 58.47 56.58 54.64 55.35 56.67 56.46 56.90 57.26 57.36 57.63 57.91 58.10 57.85 56.75 56.63 56.87 57.09 52.04 41.76 53.09 49.96 55.17 56.07 55.92 55.72 55.56 55.37 54.91 52.42 45.54
53.21 54.80 54.66 54.55 55.98 58.32 55.75 55.39 55.03 54.52 55.20 55.54 55.64 55.86 56.91 56.53 55.82 56.06 56.21 55.70 55.77 55.88 56.00 56.48 56.85 56.63 56.57 56.58 56.75 51.71 43.12 40.71 43.34 40.57 54.78 55.81 54.89 53.85 53.98 54.31 53.84 53.15 48.09

GFSGL_sfc_wetblb_021.txt.gz
Wetbulb
59.85 59.67 59.23 58.87 58.89 58.73 58.26 57.78 57.17 57.11 57.47 58.23 58.63 58.06 58.93 59.07 59.87 58.41 58.66 58.21 58.91 57.80 58.38 59.06 58.56 58.09 57.21 57.29 57.45 56.24 55.62 55.00 54.66 57.27 59.20 61.85 60.64 59.47 59.15 60.20 60.97 60.21 59.63
59.49 59.04 58.31 58.29 58.37 57.92 57.79 57.40 57.60 57.61 57.87 58.42 58.48 58.45 59.74 59.92 59.62 59.04 59.56 59.95 58.91 59.04 58.35 58.88 59.01 59.41 56.91 56.62 56.20 56.56 56.38 55.94 56.07 56.26 57.77 58.27 57.31 57.59 57.85 57.93 58.75 59.07 58.87
59.58 58.95 58.38 58.27 57.91 57.37 57.03 57.18 57.38 56.82 56.80 56.94 57.73 59.95 60.28 59.93 59.56 60.47 60.35 59.33 58.60 58.60 58.49 58.93 59.60 58.23 58.13 59.26 59.10 57.61 56.99 57.96 58.34 57.14 56.04 57.37 56.42 56.54 56.42 57.31 56.73 56.46 57.88
59.79 58.90 58.82 58.36 59.01 57.53 57.66 57.01 56.61 57.63 56.86 57.23 60.83 60.95 60.76 60.63 61.15 62.17 61.43 60.43 58.42 58.67 59.30 60.28 59.75 59.86 58.94 58.75 58.11 57.96 57.77 57.48 57.45 56.25 55.20 55.24 55.76 55.90 55.43 53.96 53.91 56.24 56.14
59.64 59.08 59.14 59.46 59.93 58.10 57.93 57.61 57.07 57.38 57.05 61.16 60.77 58.92 58.47 58.55 57.57 59.85 59.72 59.24 58.57 58.69 59.96 60.26 59.70 59.94 58.94 57.62 57.55 57.80 57.64 57.31 57.16 55.14 54.50 54.50 54.88 54.92 54.12 55.10 54.18 54.82 55.32
60.43 59.45 59.77 60.24 59.33 58.73 57.78 56.94 57.28 56.83 59.54 61.24 59.27 57.80 56.60 57.06 48.41 49.31 57.69 59.97 60.86 59.86 59.17 59.44 58.91 56.96 55.27 53.85 54.41 54.74 56.77 57.26 56.74 55.89 54.66 54.12 54.45 55.18 55.44 54.71 54.16 53.68 51.52
60.84 60.56 61.54 59.91 59.18 59.95 58.67 57.70 57.21 57.94 59.57 59.89 56.80 56.04 55.01 54.83 46.05 49.69 52.41 60.16 59.76 59.83 59.72 59.13 58.81 57.62 56.70 56.12 52.30 52.29 51.88 52.29 55.19 56.87 55.21 55.15 54.91 55.62 55.55 54.65 54.41 53.62 53.09
60.78 60.15 60.55 59.71 59.07 60.19 59.84 56.79 56.66 59.86 59.80 57.89 55.07 54.58 54.56 54.52 45.33 49.51 52.96 58.77 60.20 59.91 59.69 59.26 58.36 57.99 57.37 57.88 57.60 57.58 57.80 57.85 58.51 58.98 58.09 57.30 56.76 57.04 56.34 55.69 54.12 53.02 52.40
59.12 59.31 60.17 59.08 57.39 58.12 57.07 56.78 56.54 56.54 56.33 55.21 54.91 54.18 55.17 56.02 44.78 49.69 56.87 60.06 60.17 59.39 59.55 60.07 59.49 58.21 48.37 49.74 58.04 56.70 56.55 55.60 51.37 49.69 49.52 48.81 47.50 48.98 53.07 55.32 53.20 52.27 50.36
59.11 59.85 59.90 58.60 58.09 57.86 56.80 56.86 56.36 56.38 56.48 57.19 55.51 55.09 52.59 56.10 44.98 47.34 55.68 60.67 59.38 58.81 58.41 57.32 50.69 54.71 46.25 48.31 57.84 57.07 55.66 55.54 55.81 55.79 54.05 50.64 51.73 49.90 50.47 54.54 53.97 51.01 49.35
59.80 59.78 59.23 58.48 57.75 57.73 57.12 56.88 57.18 57.46 57.57 56.83 55.53 54.91 56.09 55.02 52.60 46.43 49.33 59.25 59.90 58.33 57.77 56.91 53.93 44.80 45.89 46.96 51.29 57.61 55.63 55.36 52.48 55.67 54.05 53.32 53.75 53.39 52.69 53.41 53.21 52.56 48.39
58.64 58.81 58.50 57.74 59.65 58.74 57.55 57.34 57.56 57.09 56.38 55.22 54.36 54.37 55.96 54.96 47.52 45.71 46.25 50.24 53.48 59.01 57.98 57.20 51.65 43.35 44.80 45.16 51.82 44.62 46.31 50.95 54.63 54.21 53.86 52.76 52.81 52.39 52.62 52.01 52.07 52.10 51.27
58.01 57.78 57.77 58.88 58.69 58.35 57.32 57.16 56.40 55.80 55.82 54.81 54.74 55.74 55.40 54.81 54.88 44.98 43.35 44.62 48.43 57.25 57.74 52.40 43.17 41.54 42.44 44.76 44.07 44.62 49.32 56.03 54.42 53.08 52.12 51.00 52.09 53.57 54.02 53.89 52.88 52.54 51.42
57.38 57.24 57.87 58.37 57.64 57.98 58.16 57.89 56.91 55.80 55.70 56.24 55.32 54.41 54.43 54.47 54.69 55.01 53.31 51.36 48.23 51.87 49.13 49.92 48.60 48.61 47.32 47.39 49.51 52.23 56.91 55.37 55.46 53.72 52.29 52.14 52.90 53.62 53.94 54.38 53.50 52.35 51.31
57.80 57.49 57.66 57.93 57.65 57.06 56.32 56.00 57.63 57.10 56.63 57.15 56.30 55.70 54.55 54.31 55.46 51.99 52.66 55.02 54.68 52.02 53.31 55.10 56.46 55.98 54.78 54.90 54.52 54.84 55.40 54.86 54.87 53.48 52.54 53.04 53.34 53.28 53.68 53.42 52.64 50.33 50.85
57.27 57.63 57.63 57.78 57.10 56.33 54.16 51.71 43.44 45.24 47.34 49.15 49.33 53.37 56.06 50.69 44.26 43.53 44.80 43.89 43.17 45.53 55.78 56.38 56.48 56.42 55.72 55.98 56.01 53.75 54.08 53.57 54.16 54.09 53.19 53.62 53.84 54.02 53.86 53.50 52.01 51.51 50.49
57.84 57.63 57.31 56.66 57.00 55.01 53.12 53.52 53.56 48.46 43.15 43.89 44.80 47.34 49.80 48.59 41.72 42.26 42.81 41.71 42.81 47.70 53.77 55.28 56.18 56.25 56.68 56.68 56.92 56.32 55.08 56.17 55.43 55.91 54.99 53.79 54.01 54.11 51.39 53.98 53.24 51.81 50.10
57.55 50.94 58.78 58.49 58.12 55.59 53.62 52.55 52.50 51.38 51.98 53.38 43.84 46.41 43.89 42.44 41.36 41.36 40.09 43.83 50.32 50.37 53.80 54.44 54.60 55.00 56.32 56.68 56.21 55.91 55.34 54.44 55.22 55.66 54.74 54.50 54.34 54.35 52.96 53.64 54.42 53.57 51.15
56.96 57.63 59.14 58.96 58.78 56.72 54.88 52.80 51.61 51.09 51.97 54.07 50.20 46.36 41.22 39.35 38.79 38.80 40.09 53.83 53.58 53.79 53.29 54.30 54.83 55.35 56.04 56.04 56.18 56.17 55.89 55.67 56.03 55.74 55.76 55.73 56.01 55.71 55.09 55.27 55.15 48.23 49.27
57.52 52.04 54.76 58.50 57.47 56.30 55.82 53.97 51.80 50.77 50.48 52.85 53.54 53.93 47.65 48.24 50.61 50.33 50.39 53.62 54.28 54.16 54.24 54.93 55.33 54.85 55.29 56.07 56.05 56.36 55.81 53.57 54.61 55.85 56.48 56.99 56.93 56.69 56.45 56.12 56.06 55.31 53.10
56.15 55.18 52.05 58.03 57.28 58.07 57.06 56.39 55.19 52.34 51.20 50.89 52.90 52.21 42.99 55.46 55.17 55.53 53.98 54.61 56.11 56.35 55.95 55.82 55.31 56.11 56.00 55.58 55.81 55.71 55.93 56.12 56.19 55.99 55.92 56.16 56.59 56.27 57.08 57.33 56.96 56.43 56.33
54.47 54.73 54.84 57.09 57.49 57.26 57.14 57.35 56.55 55.47 53.69 52.64 51.82 50.54 38.39 51.83 56.79 56.30 56.15 56.32 57.07 58.29 58.45 57.88 57.41 57.28 56.98 57.04 56.58 55.69 55.52 55.31 55.16 54.82 55.02 55.38 55.35 55.83 56.07 56.11 56.05 55.53 54.94
53.46 55.21 53.99 54.73 55.55 51.47 53.43 55.54 56.89 56.79 56.42 55.48 54.82 51.95 46.87 51.86 55.96 56.94 56.82 57.45 57.61 57.69 57.95 57.93 58.31 58.06 58.34 58.01 58.07 58.37 57.60 57.14 57.20 56.66 55.68 54.96 54.56 54.99 55.27 55.02 54.88 54.01 52.91
53.27 53.60 53.54 55.45 53.48 53.25 53.12 52.88 54.14 50.56 56.61 57.04 56.29 55.11 51.33 52.56 54.88 56.95 57.25 57.55 57.60 57.81 58.13 57.91 58.26 58.35 58.31 57.68 58.05 58.20 58.49 59.27 58.92 58.66 57.92 57.08 56.00 53.14 54.74 54.70 54.60 53.88 53.82
52.88 53.85 54.11 53.33 54.56 55.98 54.26 52.19 52.51 52.59 54.13 56.66 57.36 57.24 56.05 53.51 54.10 56.11 57.42 57.63 57.63 57.56 57.57 58.11 58.35 57.77 57.53 57.47 57.69 57.47 52.75 42.59 53.31 50.61 57.34 57.02 56.59 55.90 55.81 55.07 54.65 53.90 52.73
50.01 52.77 53.68 53.86 53.72 54.84 55.93 55.88 54.61 52.51 52.48 53.67 54.45 56.90 57.69 56.57 55.01 55.22 56.42 56.97 57.10 57.40 57.59 57.92 58.05 58.10 57.92 57.64 57.41 52.58 43.26 41.35 44.34 40.76 54.17 55.47 54.78 55.03 55.42 54.88 54.06 53.94 51.78

GFSGL_sfc_wetblb_024.txt.gz
Wetbulb
59.44 59.52 59.59 59.40 59.62 59.76 59.31 59.30 59.25 58.58 58.92 59.45 59.72 59.77 60.32 60.72 61.22 60.69 60.64 60.44 59.84 59.72 60.12 60.16 60.20 59.89 59.48 59.45 59.51 59.10 59.00 58.80 56.33 59.06 60.86 61.65 59.80 60.14 61.59 62.41 62.48 61.36 60.09
59.48 59.18 58.78 59.05 59.02 58.75 58.45 58.31 58.53 58.21 59.02 59.84 60.13 60.19 60.34 60.49 61.03 60.52 60.54 61.14 59.79 60.09 60.28 60.36 60.40 60.29 59.92 59.93 59.71 59.13 58.92 59.29 58.36 57.89 58.25 57.37 57.55 59.20 58.79 58.75 59.56 60.53 59.60
59.33 58.69 58.26 58.19 58.18 58.05 57.84 58.30 58.93 58.67 58.68 59.16 59.25 59.98 61.26 61.22 60.88 60.83 60.81 61.31 60.26 60.31 60.62 60.42 60.62 60.08 59.20 59.28 59.49 58.81 59.31 59.78 60.58 57.52 55.48 56.70 57.15 57.67 57.35 57.97 57.37 57.41 58.13
59.21 58.45 57.96 58.20 58.23 58.03 58.04 58.25 58.54 58.77 58.18 59.24 61.37 61.47 61.71 61.56 61.85 62.41 62.08 60.92 59.97 60.55 61.14 61.15 60.90 60.25 59.52 59.80 59.40 59.08 59.31 58.88 58.02 55.98 54.98 54.72 55.68 56.83 56.43 55.42 55.40 56.87 56.26
59.36 58.92 58.37 59.24 59.14 58.49 58.35 57.90 58.11 58.72 58.41 61.71 61.00 60.00 59.87 59.90 57.54 59.19 60.92 60.63 60.00 59.84 61.46 60.94 61.28 60.18 59.03 58.81 59.43 59.03 59.15 57.73 56.50 55.37 54.48 53.95 53.63 53.99 53.82 54.74 54.07 55.24 55.52
59.42 59.31 59.92 59.93 59.18 58.82 58.68 58.01 58.24 58.34 60.51 61.59 60.18 59.02 58.42 57.74 47.32 51.33 57.73 61.35 60.40 60.06 59.72 59.29 59.44 57.38 55.85 53.71 54.49 55.25 57.84 57.55 55.96 54.97 54.38 53.50 53.90 54.36 54.60 54.12 53.80 52.82 51.50
59.78 60.22 61.40 60.17 59.27 59.39 58.39 57.99 58.05 58.41 61.09 60.00 58.49 57.95 57.14 57.13 45.31 49.51 52.96 60.67 60.31 60.23 59.65 58.97 58.11 57.20 57.04 56.38 52.40 52.57 52.13 52.73 54.99 56.67 55.01 54.86 54.71 55.33 55.09 53.93 54.04 54.07 52.47
59.86 60.44 61.21 59.88 59.32 60.30 58.82 57.85 58.08 60.35 60.44 59.31 57.43 56.69 57.34 55.03 46.25 50.24 51.51 61.40 60.13 59.59 59.29 58.51 57.73 57.45 56.78 58.06 58.48 58.07 58.12 57.70 57.95 58.15 57.25 56.97 56.73 57.20 56.70 55.86 54.80 54.14 52.33
59.36 60.69 60.53 59.76 58.87 59.40 57.73 58.09 58.40 59.42 59.47 57.97 56.69 56.35 57.93 57.43 46.61 48.97 56.44 60.13 59.81 59.43 59.56 59.24 58.94 57.75 47.79 49.40 57.68 56.86 56.24 54.82 50.90 48.93 48.57 47.50 46.98 48.50 53.05 55.34 53.97 52.98 51.17
59.50 60.12 60.58 59.69 58.47 58.31 58.00 57.88 58.50 58.45 58.13 57.81 56.40 57.34 53.90 57.51 45.71 47.70 56.85 60.27 58.71 58.05 58.27 57.22 50.65 54.19 45.53 48.86 57.71 56.70 55.60 55.54 55.92 55.77 54.55 51.55 52.33 50.85 51.14 56.55 56.30 53.37 51.86
60.43 60.05 60.04 59.12 58.48 58.63 58.19 58.76 58.57 58.46 58.18 57.60 56.88 57.06 57.72 55.70 52.99 46.25 50.96 60.22 58.72 57.62 57.18 56.31 53.97 44.80 44.80 46.25 51.48 58.19 55.47 56.35 53.74 56.04 55.25 55.16 55.67 57.26 56.83 57.09 58.06 55.55 53.58
60.26 59.73 59.46 58.60 59.46 58.57 58.37 58.67 58.74 58.47 58.01 56.75 56.19 56.95 57.34 57.17 48.41 45.71 46.25 51.14 53.53 58.23 57.27 56.40 49.66 42.61 43.17 44.07 51.89 44.40 46.40 52.63 56.15 55.23 55.13 54.53 55.38 55.72 56.28 56.45 57.30 57.36 56.40
58.78 58.72 59.16 59.74 59.10 58.71 58.45 58.20 57.81 57.90 57.74 56.16 56.23 56.46 56.50 57.43 54.82 44.26 43.17 45.16 49.51 58.08 58.12 49.65 41.68 41.36 42.26 44.44 42.61 44.63 48.74 56.54 56.79 55.97 55.78 55.33 56.45 56.62 56.17 56.30 56.59 56.45 55.95
58.04 58.26 58.61 59.45 58.28 59.06 59.15 58.92 58.32 57.70 57.22 57.06 56.46 56.19 56.60 57.49 57.17 55.52 53.96 53.58 48.86 51.64 48.82 50.28 47.57 47.25 46.96 48.22 51.79 55.41 57.52 56.99 56.98 56.47 55.46 55.47 56.18 56.36 56.37 56.84 56.08 55.77 55.40
58.20 58.19 58.55 58.52 58.75 58.36 57.93 57.77 58.90 58.77 57.35 58.16 57.79 57.34 56.76 56.90 57.48 52.13 53.54 57.00 57.26 52.63 53.14 55.76 56.96 56.26 55.33 55.71 56.91 57.61 57.16 57.09 56.06 55.52 55.44 55.59 56.09 56.59 57.29 58.15 57.59 55.73 55.29
57.62 58.04 58.17 58.55 58.66 58.30 56.59 53.95 42.37 46.10 46.61 47.88 48.06 54.32 57.24 49.12 43.35 42.99 42.44 42.26 43.89 46.07 56.48 56.71 56.46 56.62 55.95 55.89 56.76 56.65 57.10 55.13 56.48 56.28 56.28 56.21 55.81 56.12 56.96 57.71 57.42 57.61 56.80
57.95 58.08 58.10 57.25 58.62 57.38 56.48 56.55 56.16 50.75 43.43 44.07 42.81 45.34 48.61 46.92 41.17 41.36 41.17 41.90 41.54 49.07 57.68 57.31 56.87 56.94 56.70 56.76 56.89 57.09 57.20 57.80 57.59 57.02 56.32 56.23 56.42 56.80 54.42 57.56 57.73 57.14 56.62
58.34 50.27 58.72 58.93 58.80 57.60 56.86 56.41 56.90 55.79 55.35 55.88 44.06 45.87 42.08 39.91 39.91 39.71 40.09 44.88 53.98 53.60 58.27 57.34 57.23 57.78 57.62 58.06 58.13 57.59 57.73 57.85 57.95 57.78 57.30 57.03 57.30 57.31 56.68 57.39 57.80 57.79 57.41
58.03 58.06 59.24 59.24 59.09 57.00 56.88 55.60 55.23 54.85 54.98 55.89 52.74 47.32 40.76 38.24 38.42 38.60 41.54 57.09 56.89 56.76 56.94 57.28 57.95 57.85 58.30 58.70 58.23 57.84 57.98 58.00 58.13 58.28 58.14 58.03 57.88 57.71 57.35 57.52 57.54 47.90 51.21
58.03 51.35 54.21 59.48 58.54 57.97 56.80 55.92 54.55 54.17 54.21 55.72 56.30 56.30 49.59 50.11 53.42 51.93 51.62 55.95 56.97 57.34 57.17 57.51 57.43 57.99 58.05 58.12 57.86 57.06 57.26 56.36 57.54 58.31 58.66 58.69 58.73 58.52 57.95 57.88 57.67 57.25 56.09
56.39 56.57 51.73 59.26 58.93 59.01 58.41 57.07 56.24 54.78 54.14 54.45 56.70 54.15 42.44 57.46 57.25 56.70 54.79 55.83 57.01 57.20 57.36 57.88 58.02 57.94 58.43 58.64 58.57 58.42 58.41 58.39 58.48 58.83 58.73 58.84 59.16 58.40 59.05 59.20 59.00 58.82 58.69
54.43 56.08 56.22 57.84 58.56 58.92 58.84 59.18 57.88 56.68 55.79 54.97 54.68 52.74 37.55 55.14 57.93 57.77 57.88 57.85 58.14 59.10 59.29 58.82 58.61 58.87 59.11 58.52 58.88 58.92 58.62 58.47 58.88 58.99 58.84 59.12 59.14 59.25 59.52 59.20 59.48 59.35 59.27
54.49 54.67 55.37 56.72 57.75 53.25 56.98 58.13 58.20 58.20 57.37 56.60 56.17 53.36 49.20 54.29 57.54 58.71 58.62 59.20 59.48 59.59 60.25 59.89 59.85 59.48 59.90 60.25 60.38 59.81 59.24 59.32 59.75 59.80 59.15 59.04 58.72 58.80 59.04 58.75 58.81 58.41 58.24
54.64 54.24 54.54 55.09 55.36 55.42 55.88 56.80 57.33 52.32 57.97 58.27 57.59 56.61 53.87 53.97 55.44 57.80 59.63 60.03 59.84 59.80 60.42 60.49 60.74 60.61 60.72 60.55 60.65 60.94 60.99 60.84 60.68 60.25 60.07 59.27 58.74 56.19 58.11 57.87 57.95 57.75 57.84
52.37 53.43 54.46 54.56 54.38 54.68 56.35 55.17 54.53 55.21 56.42 57.62 58.53 58.36 57.85 55.99 55.81 56.56 58.07 59.70 59.90 59.84 59.87 60.05 60.43 60.79 60.97 60.97 60.91 61.00 56.08 44.23 57.42 53.81 60.81 60.09 59.63 59.62 58.95 58.19 58.03 57.72 56.74
46.50 46.96 49.13 51.54 52.47 54.41 55.47 56.81 58.12 57.82 57.06 56.66 55.88 56.48 58.61 58.77 57.26 57.32 57.55 58.50 59.08 59.41 59.74 59.91 60.09 60.44 60.69 60.66 60.65 54.95 45.13 42.58 48.26 42.75 59.54 60.97 59.95 59.87 59.87 59.30 59.04 57.44 56.85

GFSGL_sfc_wetblb_027.txt.gz
Wetbulb
66.29 66.32 66.39 66.10 66.46 66.89 66.65 66.39 66.10 66.14 65.64 65.09 64.84 64.63 64.96 65.33 66.04 66.51 66.25 65.57 63.75 65.14 65.00 64.52 64.33 64.80 63.38 63.16 63.71 63.18 62.58 63.95 60.12 60.76 63.63 63.50 63.71 65.26 64.78 64.90 63.74 63.28 61.42
66.10 66.15 65.88 65.86 66.05 65.78 65.62 65.64 65.36 64.64 65.10 64.64 64.51 64.41 64.32 64.53 65.38 64.85 64.47 63.96 62.84 63.91 64.16 64.07 63.89 64.33 64.51 64.45 63.80 63.94 63.04 63.77 61.86 58.83 59.48 58.67 60.29 61.89 61.31 61.11 60.69 61.46 60.89
65.06 65.01 65.12 65.04 65.40 65.36 65.03 64.82 64.53 64.28 64.55 64.83 64.62 63.88 64.60 65.06 64.97 64.88 61.77 62.08 62.82 64.58 64.66 64.42 64.24 64.83 64.12 63.53 63.23 62.25 63.13 63.42 63.61 59.23 56.71 58.26 58.73 59.11 58.16 59.04 59.00 58.84 59.40
64.58 64.61 64.44 64.64 64.69 64.44 64.21 64.28 64.36 64.52 64.23 64.05 64.63 64.91 65.24 65.41 65.30 64.18 63.43 63.28 62.22 64.43 64.96 65.14 64.83 64.92 63.89 62.11 61.96 62.29 63.06 62.62 60.78 58.36 56.68 56.21 56.84 57.64 57.16 56.03 55.85 57.86 57.46
63.73 63.89 63.83 64.38 64.54 64.01 63.80 64.18 64.26 64.08 63.97 65.47 65.31 64.77 64.73 64.52 61.27 62.34 64.34 63.08 61.51 63.49 64.13 65.08 65.37 63.62 60.03 61.18 62.23 61.99 62.07 59.99 58.62 56.48 55.61 55.49 54.79 55.17 54.83 55.75 55.19 56.23 57.32
63.51 63.26 64.08 63.83 63.58 63.80 63.78 63.52 63.97 63.56 64.75 64.61 64.04 63.76 63.78 62.22 47.34 50.49 58.43 63.08 62.62 62.07 61.56 62.40 62.53 59.62 57.41 54.24 55.40 56.17 59.78 60.05 57.92 55.91 55.02 53.91 54.51 54.65 55.96 55.24 54.41 53.55 51.89
63.81 63.78 64.04 64.07 63.18 62.59 63.30 63.06 63.27 64.04 64.37 62.64 64.14 62.88 62.75 63.01 45.96 47.95 52.48 62.53 61.83 61.44 61.14 61.09 60.50 60.13 59.23 59.90 52.34 52.59 52.78 52.81 55.88 58.30 55.66 55.63 54.32 55.52 55.92 55.12 55.88 56.51 54.18
63.79 63.86 63.88 63.50 62.97 63.06 63.14 63.21 63.75 64.71 62.74 62.75 63.38 62.47 63.32 59.41 47.59 47.95 52.12 62.79 61.47 60.62 60.53 61.10 60.44 59.84 60.66 61.01 60.02 59.34 59.15 58.76 59.48 59.86 59.74 58.44 57.43 57.45 56.48 57.05 57.44 54.40 54.50
63.81 63.80 63.68 63.19 62.81 62.49 62.41 63.56 64.57 62.97 62.05 62.86 63.01 62.25 63.27 60.59 47.41 47.77 56.28 60.96 60.74 59.71 59.56 59.12 58.94 58.32 48.19 49.78 59.06 57.21 56.53 55.17 50.63 49.23 49.17 48.02 46.50 48.44 53.58 55.49 54.08 55.02 52.59
64.29 64.22 63.95 63.37 63.21 62.94 63.43 63.65 64.65 65.36 62.55 62.52 61.95 62.40 56.12 60.79 46.14 47.41 57.17 61.24 59.83 59.39 59.33 58.30 50.59 54.22 45.41 48.50 59.22 57.50 54.20 54.53 54.88 54.96 54.61 51.80 52.59 51.47 51.32 58.95 57.93 55.97 54.46
65.04 64.82 64.18 64.13 63.74 63.83 64.11 64.14 64.28 64.28 63.39 62.89 61.80 62.72 61.82 59.26 56.97 46.14 50.85 61.27 60.21 58.42 57.23 56.51 53.52 44.69 45.05 46.50 51.78 57.82 54.96 56.03 53.50 56.14 56.32 56.59 57.38 58.20 57.87 60.36 61.58 60.06 57.79
64.74 64.37 64.23 64.24 63.02 63.33 63.94 63.95 64.07 64.18 63.17 62.68 61.95 62.01 60.87 59.34 48.66 45.78 47.59 51.93 54.38 58.72 57.46 56.57 50.82 43.78 44.51 45.60 53.07 45.23 46.70 53.48 58.27 57.37 56.35 56.34 56.63 56.74 59.93 60.88 61.74 61.55 61.52
64.13 63.70 64.03 63.90 63.61 64.02 63.85 63.61 62.83 63.74 62.96 61.61 61.61 61.28 60.12 59.30 55.22 43.75 44.33 46.50 50.50 58.69 58.91 49.69 42.30 41.97 42.88 45.53 43.40 45.15 48.53 59.17 59.34 57.24 57.88 58.37 59.36 60.69 61.60 61.20 61.40 61.32 61.07
64.23 63.44 61.96 63.33 63.11 63.79 64.02 63.90 63.36 62.90 62.28 61.43 61.44 60.85 60.68 59.50 57.49 58.58 56.79 55.06 48.60 51.90 48.97 52.79 48.61 48.99 49.29 52.91 53.48 56.46 61.96 61.48 60.71 60.08 59.63 59.88 60.72 60.08 59.61 60.57 59.71 59.39 58.06
64.21 64.20 63.74 63.73 63.52 63.73 63.97 62.98 64.32 64.92 61.28 62.55 62.24 62.32 61.32 59.09 58.73 55.14 57.17 59.23 58.70 54.78 55.22 58.23 59.35 57.92 56.57 58.22 59.63 60.71 61.66 61.57 61.40 61.42 60.37 59.96 60.20 60.32 60.13 60.92 60.25 59.36 57.81
63.76 63.58 63.28 63.91 63.63 63.61 62.64 60.96 41.94 46.26 44.87 46.32 49.09 56.42 60.77 49.52 44.33 43.78 42.70 43.78 44.15 45.78 57.76 57.83 58.01 58.93 58.52 59.98 60.68 60.81 61.26 58.23 61.40 61.40 61.18 61.17 60.42 60.03 59.38 60.15 60.37 58.92 57.50
64.15 64.15 63.93 61.93 63.65 63.31 62.78 62.65 61.58 53.32 41.39 41.59 43.06 44.69 47.37 47.26 41.43 41.06 41.25 41.79 42.70 49.15 58.35 58.21 57.56 57.80 58.25 59.58 61.09 61.06 60.41 61.60 62.03 61.56 61.22 60.57 60.11 59.51 57.86 60.30 60.67 60.85 60.72
64.63 51.72 64.22 64.06 64.19 64.12 63.39 62.86 63.39 62.28 62.03 61.63 45.22 46.15 40.16 40.52 40.34 39.96 41.61 46.83 56.32 55.93 59.87 59.25 60.09 61.04 60.88 60.49 60.50 61.36 62.09 62.13 61.92 61.79 61.22 60.31 60.01 60.03 59.74 60.23 60.73 60.78 60.90
63.50 63.10 64.07 64.49 64.63 62.34 63.88 62.56 62.99 62.42 61.73 62.37 59.33 48.92 42.17 38.11 38.33 39.61 43.78 60.80 59.10 59.14 59.84 59.75 60.92 60.90 61.42 61.78 61.99 61.60 62.29 62.19 61.78 61.72 61.38 60.47 59.96 59.35 59.03 59.66 60.13 50.27 52.92
63.18 52.32 55.95 64.32 63.86 63.85 63.67 62.82 61.64 61.46 61.24 61.45 62.71 62.41 52.52 50.89 55.91 54.37 59.31 62.60 62.05 61.87 62.18 62.22 62.32 62.33 61.78 61.50 61.58 60.85 60.74 61.23 62.08 62.28 62.17 61.93 61.85 61.58 60.72 60.92 61.20 60.86 60.99
63.12 62.65 53.68 63.85 63.81 63.84 63.90 63.43 62.93 61.69 61.07 61.48 62.46 61.00 45.74 62.17 61.65 60.38 60.42 62.20 62.77 62.94 62.85 62.91 62.92 62.86 63.13 63.14 63.07 61.53 59.44 60.92 62.49 62.44 62.62 62.71 62.65 61.92 62.50 62.11 62.02 61.90 61.55
62.05 62.75 62.56 63.23 63.75 63.63 63.82 64.09 63.88 63.24 62.55 62.11 62.05 58.63 37.59 60.58 63.96 63.52 62.90 62.94 63.58 64.20 64.25 63.97 63.58 63.61 63.63 63.51 63.39 63.10 62.70 62.53 63.14 63.07 62.94 63.05 63.00 62.73 62.71 62.24 62.05 61.90 61.66
60.22 60.70 61.41 62.38 62.98 56.46 62.37 63.62 63.84 63.81 63.84 63.56 63.18 61.03 56.80 61.39 63.41 63.95 64.11 64.66 64.62 64.53 64.84 64.63 64.09 63.84 64.42 64.32 64.43 64.00 63.09 62.92 63.81 64.34 63.47 63.44 63.10 62.65 62.59 62.03 61.73 61.53 61.66
59.27 59.22 59.11 59.52 60.18 61.14 62.39 62.99 63.32 54.35 61.72 63.82 63.95 63.17 61.61 61.08 62.02 62.98 63.99 64.85 64.99 65.04 65.16 65.04 64.91 64.55 64.68 64.64 64.46 64.50 64.41 64.45 64.62 64.02 64.09 63.31 62.98 60.86 62.54 62.09 61.99 61.85 62.15
54.52 55.81 55.55 55.85 57.67 59.80 60.88 61.51 60.96 60.10 60.34 60.83 61.67 62.31 63.06 63.02 62.35 62.23 62.65 63.22 63.85 64.32 64.48 64.82 65.10 65.12 65.34 65.17 65.22 64.95 58.60 44.30 59.39 55.63 64.71 64.05 63.04 62.54 62.33 61.84 61.92 62.57 62.51
49.51 50.20 50.01 50.07 50.09 50.89 51.75 52.02 51.77 53.65 54.38 54.89 55.95 58.50 59.50 59.97 61.15 61.93 62.06 62.12 62.15 62.63 63.16 63.78 64.23 64.23 64.39 64.79 64.65 56.54 44.16 40.99 50.09 41.89 61.86 64.22 63.38 63.10 62.93 62.75 62.11 61.96 62.02

GFSGL_sfc_wetblb_030.txt.gz
Wetbulb
70.75 70.89 70.94 70.64 70.67 70.69 70.13 70.13 70.04 70.05 69.42 68.37 67.39 66.94 66.50 66.65 67.32 67.80 67.61 66.74 65.44 66.25 66.35 65.77 65.64 66.43 65.01 64.31 64.35 65.81 65.85 65.01 61.97 63.93 65.78 66.01 66.55 67.27 67.92 67.54 66.52 65.67 62.32
70.37 70.24 69.94 69.82 69.88 69.59 69.23 69.39 69.18 68.10 67.67 66.67 66.24 65.73 65.82 66.46 67.19 66.75 66.11 66.07 64.83 64.05 65.61 65.24 64.86 65.43 65.87 66.33 67.60 66.22 65.94 67.24 65.52 61.52 60.89 61.15 63.32 66.12 65.48 64.23 64.09 64.01 63.19
69.60 69.23 69.05 69.10 69.09 68.69 68.36 68.10 67.54 66.84 66.14 65.92 65.95 65.73 65.52 66.14 66.49 67.11 66.15 65.42 63.17 64.84 65.58 65.34 65.08 65.73 65.70 65.96 66.60 65.77 65.66 66.79 66.46 61.18 58.35 59.62 60.07 62.14 61.16 61.36 61.34 60.84 60.70
68.20 68.03 67.73 68.10 68.13 67.83 67.35 66.81 66.18 65.96 65.83 65.93 66.06 65.57 65.82 66.17 66.94 67.00 65.27 66.05 65.96 65.84 66.31 66.36 65.91 65.98 65.94 65.80 65.53 65.88 66.46 65.95 63.71 60.18 57.83 58.43 57.83 59.20 58.91 56.97 56.43 58.43 57.69
66.01 66.06 66.37 67.05 67.25 66.74 66.07 65.89 66.07 65.79 65.64 66.05 66.13 65.79 66.50 67.00 65.78 66.60 66.15 66.10 63.68 65.00 66.13 66.33 66.89 64.29 60.29 63.29 65.37 65.41 65.18 62.95 60.80 58.56 57.05 57.11 56.17 56.45 55.99 57.45 56.59 56.89 56.95
64.89 65.10 65.87 66.00 66.01 66.06 66.17 66.07 65.51 65.52 66.10 66.09 65.91 65.22 65.98 65.13 49.40 49.94 58.25 64.19 65.53 64.96 65.12 65.45 65.90 61.85 59.42 55.53 55.95 57.48 62.35 63.83 61.37 58.79 56.55 55.43 55.85 55.61 56.71 56.63 55.91 54.83 53.39
64.94 65.27 65.43 65.36 65.06 65.31 64.99 65.05 64.92 65.80 66.17 66.23 66.02 65.06 65.58 66.10 47.88 48.35 52.88 63.42 63.46 63.76 63.13 63.31 63.48 62.47 61.50 62.47 53.52 53.07 53.63 53.04 58.36 62.09 57.49 57.39 57.06 58.29 57.71 56.82 56.45 55.23 55.28
64.77 64.65 65.21 63.92 63.69 63.91 63.80 64.46 65.66 65.66 66.22 66.39 65.72 65.72 66.01 63.15 48.71 48.17 51.79 63.58 62.06 61.68 62.90 63.33 63.52 62.43 61.79 62.65 62.43 61.83 62.08 62.82 62.63 62.00 60.25 59.02 58.61 58.60 60.09 57.44 57.66 55.57 56.32
64.02 64.32 64.16 64.12 63.68 64.09 63.25 64.77 65.65 65.67 65.53 66.10 65.77 65.69 65.95 64.03 48.17 48.35 57.27 61.77 60.48 59.57 60.11 61.87 62.89 61.80 49.82 50.29 62.43 60.13 59.00 57.66 51.47 51.45 50.65 48.27 47.04 48.78 54.66 58.30 55.06 54.01 53.06
63.59 64.18 64.73 64.33 63.34 63.54 64.39 64.82 65.77 65.91 65.27 65.20 65.37 66.20 58.13 63.60 46.88 48.89 56.95 61.60 60.15 59.55 60.36 60.38 51.72 56.15 44.91 48.82 61.49 59.63 56.80 57.20 56.91 55.20 54.14 50.95 53.27 51.80 50.99 57.18 56.10 53.80 54.86
65.54 65.27 64.99 65.02 64.44 64.83 65.42 65.79 65.11 65.27 65.00 65.33 65.09 65.65 64.09 61.94 58.94 48.35 51.43 61.32 60.10 58.62 57.64 57.44 55.81 44.72 44.54 46.72 52.70 60.68 56.69 57.18 53.76 56.37 56.04 55.79 56.01 57.01 58.40 59.24 59.50 59.84 58.11
65.00 64.95 65.24 65.61 64.95 64.88 65.08 65.53 65.24 65.19 64.93 64.96 64.60 64.19 62.94 63.37 49.29 47.88 47.99 52.66 54.42 60.05 57.98 57.22 50.33 43.46 44.00 46.34 52.99 44.71 45.96 52.47 56.99 56.17 55.53 55.33 56.04 57.84 59.77 62.11 63.96 63.32 63.84
64.95 65.10 65.37 65.64 65.21 65.64 65.66 65.94 65.48 66.10 64.44 64.31 63.74 62.44 61.76 60.76 56.65 44.49 45.09 46.72 50.29 59.06 58.75 47.95 42.88 42.73 43.27 45.89 44.71 45.63 48.22 57.32 56.74 56.09 56.05 57.04 58.77 60.68 62.86 62.38 63.54 63.84 63.45
64.92 65.19 66.14 65.50 64.88 65.87 65.81 65.82 66.16 65.89 64.34 64.04 63.26 62.48 62.28 60.14 59.11 58.41 57.42 57.08 50.40 54.96 49.25 52.28 50.90 51.58 50.69 52.59 53.47 52.90 60.77 60.43 59.15 59.70 59.80 60.75 61.94 61.78 61.14 61.89 61.16 61.27 60.63
65.38 65.49 65.78 64.98 65.45 65.38 66.12 64.43 66.13 66.06 62.10 64.66 64.32 63.99 62.62 60.08 59.81 56.01 57.19 59.09 60.69 56.33 58.37 59.54 59.30 58.85 58.19 58.32 58.88 59.86 62.17 61.08 61.30 61.69 61.38 61.16 61.03 61.64 62.02 62.47 61.48 59.92 58.49
65.09 64.91 64.44 65.35 65.20 64.75 64.55 63.39 42.90 44.38 43.77 45.63 46.32 56.90 62.80 52.16 45.45 43.82 44.91 43.44 45.09 45.99 59.38 60.02 60.00 60.02 59.66 60.68 60.77 61.11 62.41 59.64 61.66 61.94 62.16 62.19 61.44 60.98 60.98 61.46 61.23 59.65 58.63
64.78 65.19 64.74 62.84 64.90 63.79 64.68 64.17 62.87 55.68 42.48 41.61 43.40 42.73 48.28 47.62 42.37 41.82 42.73 42.91 43.82 47.35 59.61 60.62 60.29 60.40 60.22 60.53 61.59 61.59 61.79 62.35 64.02 63.51 62.91 62.82 62.67 62.54 60.46 60.54 60.26 59.78 59.15
65.87 53.63 64.45 64.39 65.02 63.96 63.68 64.03 63.79 63.69 62.60 62.36 45.62 45.57 41.21 40.92 40.74 40.56 42.01 46.69 55.94 55.68 59.59 60.33 61.48 62.32 62.74 63.03 62.99 63.42 63.27 63.67 63.66 63.53 63.27 63.08 62.55 61.57 60.07 60.06 60.42 60.44 60.38
65.58 64.79 65.16 64.93 65.21 63.20 63.59 64.41 63.65 63.86 63.86 63.74 60.93 51.27 43.50 38.48 38.89 40.92 44.72 59.95 59.60 60.29 61.68 60.91 61.93 62.21 63.08 63.70 63.77 64.02 64.23 64.11 63.42 63.27 62.90 62.51 62.38 61.85 60.72 60.38 60.81 51.28 54.23
65.34 54.15 57.62 65.36 65.51 65.30 64.46 62.52 63.62 63.67 63.80 64.47 64.04 62.53 56.82 54.03 57.36 55.75 61.11 61.20 62.27 62.67 62.40 62.54 62.60 63.21 63.86 64.35 64.50 64.50 64.41 63.65 63.82 63.81 63.50 63.15 62.67 62.23 61.66 61.75 61.76 61.09 61.07
64.24 64.88 53.84 65.63 65.10 65.16 64.79 63.99 62.69 62.49 62.83 63.15 64.69 62.44 48.91 63.94 63.63 62.72 63.07 64.56 64.36 64.49 64.47 65.00 64.99 65.16 65.05 64.74 64.95 64.67 64.10 64.56 64.41 64.29 64.40 64.12 63.97 62.96 63.42 63.13 62.80 62.76 62.69
64.77 64.38 64.26 63.76 64.43 64.88 65.22 65.53 65.07 63.69 62.80 62.39 63.61 59.95 40.67 62.53 64.79 64.55 64.62 64.92 65.71 66.18 66.29 65.91 65.29 65.30 65.47 65.58 65.57 65.30 64.71 63.89 64.34 64.95 64.76 64.71 64.68 64.42 64.39 64.09 63.78 63.49 63.39
65.28 64.82 64.41 64.17 64.63 58.18 64.67 65.40 65.26 65.27 64.63 64.12 64.19 63.06 62.19 64.13 65.34 65.56 66.03 66.25 66.43 66.42 66.48 66.27 66.17 65.91 66.37 66.34 66.16 65.79 65.11 65.23 65.63 65.91 65.41 65.17 64.76 64.73 64.70 64.16 63.91 63.53 63.19
63.42 63.29 63.68 65.02 65.69 64.87 65.24 65.56 66.05 56.11 64.59 65.59 65.38 64.93 64.09 64.31 65.14 65.76 66.70 67.67 67.44 67.53 67.50 67.33 67.08 66.59 66.34 66.41 66.70 66.84 66.77 66.73 66.33 65.46 65.93 65.48 65.21 63.29 64.79 64.49 63.86 63.45 63.11
54.89 54.72 54.56 55.76 56.07 57.38 60.54 61.46 62.32 63.41 63.16 63.93 64.59 66.08 67.41 67.27 67.09 66.63 66.37 66.38 66.34 66.62 66.80 67.38 67.49 67.48 67.51 67.23 67.40 67.19 59.25 41.24 60.12 50.81 66.30 65.70 65.01 64.72 63.87 63.47 63.30 63.03 63.25
49.44 48.00 48.41 48.54 49.40 50.24 49.47 49.35 49.88 50.54 49.95 50.75 51.77 53.81 54.93 55.26 56.74 57.66 57.00 58.86 61.98 64.38 65.35 65.97 66.30 65.96 65.37 60.25 49.51 38.92 36.56 37.31 50.09 39.29 61.52 64.86 64.26 64.22 64.21 63.81 63.65 62.86 62.96

GFSGL_sfc_wetblb_033.txt.gz
Wetbulb
71.76 71.35 71.29 70.69 70.96 71.38 70.85 71.10 71.22 71.93 70.54 69.71 69.22 68.81 68.17 67.62 67.69 67.81 67.86 67.04 66.22 66.95 67.01 66.30 66.03 66.66 65.17 64.58 64.88 65.51 63.07 63.85 61.78 61.23 65.73 68.24 67.56 68.33 68.06 67.63 66.07 66.44 62.84
70.64 70.21 69.93 70.89 70.91 71.35 70.21 70.13 70.07 69.55 69.60 68.76 68.02 67.14 66.28 66.29 67.27 67.06 66.53 66.30 65.75 65.48 65.60 66.06 65.18 65.35 66.20 67.41 66.73 66.06 64.82 66.76 62.59 61.65 63.54 63.45 66.15 67.35 65.94 65.46 64.85 64.76 63.54
70.85 70.08 69.86 69.53 70.37 70.64 69.47 69.60 69.10 68.32 67.56 66.91 66.18 65.64 65.64 66.35 66.72 67.47 66.47 66.34 66.28 65.33 65.09 65.63 65.11 65.77 66.32 67.18 65.94 66.83 66.99 67.02 66.09 63.35 59.94 61.33 63.33 63.81 62.10 62.71 62.57 61.28 60.62
69.56 69.19 68.73 69.06 69.23 68.85 68.72 68.28 67.63 66.99 66.07 66.00 66.34 65.92 65.79 65.85 66.36 66.73 66.61 65.71 65.96 64.67 66.90 66.59 65.59 65.68 66.16 66.49 66.68 66.45 66.96 66.26 64.47 60.94 59.44 59.05 59.60 60.74 60.40 58.17 57.31 58.79 58.23
67.69 67.71 67.94 68.42 68.42 67.75 67.06 66.87 66.59 66.29 66.11 65.99 65.87 66.16 66.05 67.29 65.40 66.64 66.68 65.81 65.79 65.42 66.06 65.90 67.10 65.17 61.60 63.74 67.41 67.48 66.75 65.23 61.61 58.97 58.10 57.79 57.23 58.07 57.35 58.35 56.60 56.36 56.85
66.14 65.68 66.09 66.05 65.94 66.12 66.37 66.55 66.20 65.56 66.57 66.33 65.53 65.56 66.63 64.29 49.72 51.59 60.64 65.69 64.86 64.15 65.14 65.83 66.02 62.33 59.60 54.89 55.31 57.78 63.97 64.11 61.24 58.70 58.23 56.50 57.21 57.37 57.91 56.95 56.03 55.16 53.79
65.21 65.35 65.53 65.81 64.37 64.89 65.04 65.19 65.13 66.53 66.87 66.43 66.00 65.73 66.20 64.14 49.36 50.86 55.03 64.88 65.43 64.86 65.12 65.48 65.50 64.58 62.68 64.12 54.47 54.22 54.71 54.99 59.29 62.88 58.50 57.94 56.98 58.08 57.90 56.76 56.69 56.71 55.01
65.00 64.65 64.72 63.70 63.64 64.32 64.69 64.58 66.46 66.52 66.84 66.28 66.12 66.53 66.39 61.30 49.41 49.59 53.22 64.37 63.98 64.04 64.13 64.92 65.43 64.11 63.29 62.96 63.67 63.58 63.17 63.48 63.80 62.58 61.73 60.27 60.08 59.65 59.10 58.53 57.52 56.40 57.02
64.18 63.54 63.40 63.77 63.39 63.10 63.49 64.82 65.90 66.02 66.41 66.33 66.38 66.34 65.89 62.89 48.87 51.22 58.63 62.27 60.84 61.13 63.32 63.74 63.75 62.92 51.74 51.06 62.70 61.43 60.54 58.66 51.75 49.88 49.40 48.50 47.35 49.92 55.52 58.47 55.64 54.33 53.10
63.46 64.24 64.86 64.72 63.54 63.81 64.82 64.66 66.13 65.85 65.64 65.18 65.87 66.23 58.59 63.12 48.14 49.41 57.04 61.08 59.51 59.04 60.46 60.80 48.61 58.84 47.24 49.96 60.99 59.98 57.79 57.26 57.35 57.24 56.75 54.67 54.67 52.51 51.89 59.21 56.88 54.56 53.73
64.39 65.19 63.76 64.23 64.43 65.60 66.22 66.03 65.96 65.22 65.70 65.89 65.45 65.56 64.32 62.48 58.70 48.87 51.22 60.98 60.45 60.06 58.01 59.52 60.48 45.04 45.79 48.58 53.33 60.91 57.08 58.35 54.36 57.09 56.44 56.38 57.10 57.56 58.43 59.15 58.13 56.79 55.56
65.40 64.02 63.99 64.26 63.09 64.58 65.83 65.51 65.42 65.56 65.50 65.43 65.17 63.86 63.85 63.06 50.49 48.34 49.41 52.99 55.01 60.18 58.87 58.52 51.82 43.97 44.70 47.20 53.14 44.88 46.46 52.94 56.93 55.60 55.09 54.85 55.89 56.74 57.24 57.86 58.10 62.16 63.33
65.07 64.42 64.78 63.94 64.59 65.47 65.84 65.66 65.38 65.43 64.26 64.38 64.31 62.98 61.85 61.24 56.12 45.01 45.79 48.14 49.99 59.71 59.75 50.36 42.51 42.16 43.07 46.66 44.32 45.19 49.98 57.13 56.01 55.11 54.74 55.13 56.67 57.39 59.57 61.30 62.04 63.38 64.50
64.05 63.74 64.93 64.12 64.22 66.02 65.67 66.35 66.66 66.62 65.68 65.02 63.55 62.96 61.89 59.99 58.62 59.96 58.42 57.12 50.77 55.07 49.54 53.11 51.48 50.76 49.77 51.05 51.85 54.40 58.49 58.30 57.54 56.36 55.74 57.02 58.28 59.45 60.83 62.53 62.06 61.88 60.61
64.86 63.77 65.41 63.87 65.00 66.05 64.59 63.37 66.33 63.00 61.08 65.31 64.56 64.06 62.36 60.58 59.20 56.17 57.30 60.54 60.34 55.27 56.33 58.53 58.19 57.15 56.53 56.08 56.71 58.00 59.38 58.64 59.19 58.74 58.79 59.49 60.60 60.57 60.70 62.17 61.59 60.18 59.23
63.13 64.67 63.55 64.11 64.46 64.15 64.41 62.86 43.19 44.25 42.33 41.98 43.25 56.46 62.62 52.53 46.51 46.87 44.81 44.51 46.91 46.51 59.00 60.01 58.92 58.67 58.56 59.73 60.61 60.46 61.15 58.74 61.24 61.13 60.88 60.95 60.88 60.78 61.17 62.17 62.05 60.09 58.58
65.48 65.30 64.22 62.11 63.82 62.93 64.22 63.51 61.86 55.51 43.05 41.24 41.98 43.97 50.28 47.09 43.43 42.89 41.80 43.43 43.43 47.15 60.19 60.28 59.49 59.73 60.40 59.84 60.31 61.15 60.77 62.39 62.72 61.70 61.61 62.02 62.09 62.15 59.75 60.43 59.95 59.29 58.33
66.35 53.78 64.27 63.73 63.09 64.37 63.68 63.51 63.41 62.40 61.82 61.03 45.65 47.27 41.88 41.44 41.62 41.44 42.16 47.20 57.72 56.42 60.79 59.95 60.81 61.79 61.98 62.15 61.99 61.71 62.68 62.12 62.82 61.70 61.36 62.62 62.91 61.46 60.59 60.28 59.78 59.63 59.68
64.54 64.05 64.40 64.78 64.19 62.37 63.11 62.88 63.51 63.97 62.54 61.63 59.00 50.60 43.66 39.21 39.43 40.89 43.79 60.90 60.33 61.01 61.07 61.57 61.66 61.62 61.71 62.01 63.20 61.68 61.90 61.72 61.88 62.08 62.86 63.30 63.19 62.70 61.78 61.06 60.36 50.87 54.01
64.30 54.41 56.98 65.10 64.12 63.57 64.12 61.58 62.21 63.06 63.40 62.90 62.91 61.40 56.34 55.72 57.16 56.77 59.58 61.07 61.84 62.66 62.40 62.73 63.16 62.72 63.60 63.61 63.82 63.20 62.97 62.29 63.38 63.52 63.18 62.97 62.59 62.13 60.72 60.34 59.71 59.48 60.32
64.57 64.18 53.71 64.40 63.44 63.86 62.86 62.83 63.63 63.55 62.76 62.09 63.21 61.57 49.84 63.14 61.22 60.72 61.38 61.78 62.25 63.38 63.99 64.23 64.11 64.47 64.69 65.02 63.78 63.42 63.49 62.51 63.41 63.82 63.60 63.59 63.36 62.32 62.58 62.24 61.80 61.52 61.28
64.19 63.10 63.47 64.00 63.86 63.95 63.78 63.69 62.73 62.19 62.61 64.12 63.51 59.59 43.10 60.61 64.25 64.17 63.89 62.97 63.24 64.32 65.41 65.62 63.85 64.03 63.88 64.21 65.05 64.84 64.50 64.45 64.79 64.82 64.27 64.30 64.20 63.97 63.75 63.22 63.08 63.24 62.87
64.65 63.43 62.91 63.44 64.52 59.35 64.47 64.26 63.83 63.31 62.83 63.03 64.36 63.07 62.86 64.33 63.65 64.43 64.54 65.28 65.93 65.96 65.58 65.76 65.71 65.47 65.55 65.79 66.12 66.20 65.59 65.33 65.76 65.73 65.15 64.89 64.71 64.53 64.47 64.32 63.77 63.74 63.73
62.34 63.68 63.79 64.27 62.86 63.86 63.69 64.34 63.93 57.91 60.73 61.86 64.47 63.97 63.97 64.22 64.75 65.56 65.16 65.71 67.22 66.64 66.64 66.51 66.26 65.66 66.33 65.95 64.36 63.44 61.58 60.49 66.10 65.99 66.34 65.51 64.93 63.17 64.64 64.16 63.90 64.14 64.26
52.61 53.06 55.18 57.50 59.21 58.86 59.69 58.84 58.28 58.86 58.60 58.11 57.36 59.79 60.25 59.67 58.93 59.37 60.06 62.27 60.98 58.12 56.45 54.16 51.90 52.57 52.95 49.21 48.88 45.59 37.96 35.07 46.86 40.97 64.98 65.75 65.28 65.51 64.07 63.73 64.14 64.52 64.11
46.94 47.70 47.64 47.43 47.78 48.77 49.46 49.55 49.28 49.48 49.16 49.81 50.77 50.80 51.55 51.65 51.75 52.71 53.65 54.92 55.96 57.37 57.40 56.45 54.98 50.83 51.05 47.84 42.46 35.61 33.94 34.15 39.16 34.74 50.69 63.72 64.38 64.09 63.87 63.89 63.82 63.52 63.28

GFSGL_sfc_wetblb_036.txt.gz
Wetbulb
70.82 71.51 72.62 72.47 72.33 72.44 71.57 71.05 71.05 71.15 70.64 69.81 69.54 68.93 68.60 68.25 68.39 67.65 67.28 66.16 65.61 65.63 65.50 64.11 64.87 65.25 64.18 63.97 62.52 62.68 60.86 60.66 58.38 60.20 62.20 62.75 62.86 63.56 64.39 63.25 64.75 62.30 60.99
70.20 69.70 69.49 69.49 69.51 69.69 69.53 69.35 69.93 69.86 69.89 69.16 68.80 67.79 67.40 67.08 67.64 66.96 66.03 65.65 64.81 65.00 64.72 64.26 64.35 65.42 64.19 63.67 63.42 61.68 61.37 61.71 60.05 58.93 61.14 62.13 62.21 63.79 64.49 64.16 63.34 63.05 61.00
69.32 69.49 69.07 68.75 67.83 67.58 67.59 69.47 69.66 69.49 69.31 67.59 67.38 66.63 65.70 65.79 65.64 66.89 66.36 65.62 65.00 64.67 64.46 63.66 64.21 64.21 62.99 63.16 63.70 62.27 62.40 62.86 61.74 60.63 59.54 61.03 62.39 62.48 61.72 61.70 60.30 59.89 59.87
68.43 67.78 67.47 67.37 67.69 67.79 68.82 68.76 68.21 67.87 67.19 66.69 66.76 65.62 66.01 65.38 66.29 66.02 65.86 65.06 65.12 64.08 65.10 64.05 64.04 64.19 63.46 63.69 63.29 63.33 63.11 61.91 61.64 59.64 59.22 58.83 59.78 60.38 60.03 58.37 57.08 58.79 58.03
67.65 66.61 66.94 67.18 67.40 68.13 67.63 67.41 67.38 66.90 66.52 66.07 66.19 65.03 66.10 63.14 63.69 65.50 66.64 65.46 64.39 63.28 64.24 64.60 64.19 63.57 61.34 63.11 65.19 63.81 63.11 61.84 60.08 58.09 57.74 57.36 57.48 57.69 57.46 57.93 56.04 56.34 57.35
67.60 67.43 67.30 67.19 66.84 66.93 66.76 65.26 66.83 66.66 66.43 64.37 64.63 64.73 64.93 62.14 49.33 51.89 60.80 65.20 64.46 64.05 62.82 63.86 62.03 58.64 56.66 56.34 56.96 59.32 61.86 61.10 58.92 57.94 56.86 56.30 56.92 57.63 57.59 56.56 55.96 55.30 53.40
65.45 65.41 65.54 65.50 64.58 64.11 64.80 64.73 66.28 65.99 65.40 64.48 64.18 64.63 64.02 60.51 48.99 50.62 54.75 64.88 65.23 64.13 64.08 63.67 64.01 63.33 61.94 61.41 53.66 54.97 55.56 54.85 57.88 59.87 57.21 57.38 56.86 57.82 57.76 56.64 56.83 55.73 54.86
64.20 63.87 64.52 63.90 63.73 64.31 64.08 64.64 65.78 65.83 66.07 65.74 65.38 65.02 63.07 57.93 48.99 50.98 55.15 64.22 64.79 64.43 64.53 64.03 63.91 63.73 62.77 62.61 63.05 62.53 61.98 61.21 60.87 61.33 59.79 58.77 59.14 59.09 58.95 58.43 56.89 55.92 56.67
63.73 63.15 64.00 64.15 63.44 63.14 63.68 64.39 65.70 65.13 65.14 65.52 65.68 65.39 62.63 59.90 48.81 51.89 58.49 61.87 62.36 62.40 61.15 60.49 63.27 61.78 51.08 50.77 61.72 59.58 57.96 56.04 50.86 50.07 51.24 49.53 48.26 49.68 55.07 57.58 55.50 54.52 53.56
63.64 63.81 64.51 63.92 63.69 63.63 63.44 64.66 65.69 65.54 65.70 65.41 64.69 64.87 56.96 60.55 47.90 50.26 56.96 59.38 58.56 58.49 61.03 59.17 49.84 55.53 48.99 51.35 60.91 58.94 56.40 56.82 57.18 56.91 55.02 51.32 52.94 52.05 51.51 58.19 56.95 54.34 53.71
64.17 64.09 63.48 63.47 63.20 63.57 64.39 65.23 64.81 65.64 64.76 64.43 64.35 64.19 63.23 60.80 56.40 49.35 51.89 61.17 60.07 59.38 58.71 58.76 55.15 45.36 46.45 48.42 52.95 58.90 56.06 57.25 54.27 57.34 56.91 56.85 57.39 57.89 57.45 58.02 57.85 56.51 54.64
63.51 63.36 64.37 64.87 63.81 64.52 64.64 65.64 65.17 65.59 64.24 63.60 62.89 62.47 62.05 60.85 50.74 49.53 50.26 52.60 54.47 59.35 58.53 56.84 51.94 43.00 44.27 46.27 52.45 45.00 46.59 52.58 56.70 55.90 55.57 55.68 56.04 56.66 57.12 57.09 57.74 57.70 58.13
63.50 63.68 63.51 62.94 63.14 65.03 65.05 64.89 63.23 64.93 63.93 63.38 62.22 61.35 60.07 59.00 56.18 45.33 46.09 48.62 48.55 58.67 58.05 47.41 42.43 42.28 43.19 44.95 43.91 45.54 49.86 56.36 55.64 54.87 54.81 55.33 56.24 57.01 57.21 56.68 57.65 58.94 60.04
63.92 63.13 63.02 63.49 63.78 64.59 65.60 65.34 65.82 65.29 64.94 63.84 62.47 61.91 59.43 58.23 59.05 58.08 56.40 55.56 50.77 52.02 49.48 53.58 49.89 48.42 49.82 50.19 52.19 54.26 57.09 56.84 55.75 55.17 55.32 56.46 57.05 57.15 57.48 57.42 56.85 59.29 58.76
63.64 63.19 62.76 63.87 62.94 61.22 56.80 55.33 62.63 55.74 59.98 63.88 63.70 62.37 60.15 58.51 58.68 55.48 56.61 59.21 58.44 54.09 55.15 56.39 56.06 54.93 54.35 55.21 57.01 57.43 57.34 57.00 56.12 56.67 56.41 56.30 56.77 57.47 58.96 59.72 59.66 59.14 57.31
62.58 63.76 63.35 63.11 64.66 63.40 61.55 57.96 42.61 42.42 41.72 42.06 46.90 58.68 61.57 51.49 45.54 44.64 44.89 46.09 46.45 45.18 57.57 56.16 56.03 55.50 55.23 55.74 56.77 57.68 57.56 56.25 57.31 57.44 57.20 57.56 57.98 58.47 58.98 59.58 59.73 57.58 56.26
62.79 64.37 61.28 61.99 62.85 62.75 62.42 61.16 57.77 51.59 42.99 41.36 42.10 47.08 49.10 46.92 42.64 43.00 44.74 43.37 42.28 45.91 59.71 57.83 57.27 57.68 58.39 59.10 58.52 58.81 58.29 59.50 60.29 59.66 58.94 59.59 59.56 59.52 55.88 59.09 59.19 58.74 56.59
62.76 53.19 61.85 64.00 64.03 62.36 62.73 61.86 61.75 61.05 59.76 58.23 44.67 44.83 41.52 41.37 41.37 41.55 41.37 47.59 55.11 54.28 59.91 58.43 58.53 59.09 59.46 60.20 60.18 60.11 59.73 60.20 60.49 60.11 60.13 60.10 60.22 60.20 59.44 59.49 58.14 56.78 56.09
62.95 62.45 61.61 64.60 64.23 61.23 63.07 63.02 62.91 62.23 60.31 57.73 54.97 49.27 43.53 39.53 39.91 40.83 42.10 60.31 59.96 59.84 59.98 60.29 60.64 60.77 60.90 60.96 60.74 61.06 61.10 61.03 60.65 60.58 60.17 60.30 60.74 60.65 59.19 58.22 58.09 50.92 52.29
62.15 54.18 55.98 64.17 63.15 63.32 62.33 63.11 62.78 62.16 60.49 60.79 60.03 56.66 54.03 54.75 56.65 56.14 57.58 59.95 59.94 61.53 61.20 60.08 61.60 61.58 60.68 61.29 61.18 60.24 59.97 58.74 60.55 60.75 60.29 60.36 61.09 61.14 59.45 59.37 58.62 57.36 56.43
63.39 60.40 54.17 60.40 62.10 64.03 63.49 62.84 63.78 63.21 61.95 62.28 61.09 57.69 48.10 59.78 58.21 58.62 59.35 60.89 61.60 62.16 62.38 63.00 62.79 62.73 62.64 62.42 63.07 62.17 61.96 61.56 61.30 61.92 61.66 61.82 61.35 60.00 60.01 59.90 59.68 58.36 57.19
62.15 63.77 62.65 61.88 61.53 61.77 63.46 63.22 64.15 63.45 62.87 62.25 62.14 56.11 42.04 61.88 60.72 61.14 60.93 62.02 62.84 63.54 64.47 63.30 62.79 62.29 62.94 62.54 62.16 61.75 61.37 61.35 61.18 60.88 61.50 62.15 62.27 61.74 61.18 60.61 59.92 59.42 59.20
61.27 63.06 63.12 60.93 63.45 58.46 60.41 62.39 59.79 63.40 63.21 61.97 62.07 60.16 58.72 60.82 61.30 61.06 63.29 62.88 61.25 61.55 60.43 58.27 60.59 59.27 57.48 56.84 55.90 53.77 55.08 55.52 58.78 62.99 62.73 61.85 61.16 61.13 61.08 60.57 60.69 61.01 60.87
57.34 60.97 62.45 60.17 60.79 61.96 58.92 59.71 59.11 52.11 60.84 61.60 62.23 61.80 59.90 58.66 58.51 59.25 58.45 58.79 56.50 54.92 53.26 52.28 49.98 47.43 46.72 46.65 46.67 46.96 42.56 40.33 51.75 54.06 59.42 63.62 63.15 61.34 62.59 62.56 62.24 61.80 61.44
52.34 51.75 53.36 55.88 56.58 56.62 56.19 54.79 55.13 54.67 53.83 54.88 54.92 54.78 55.08 54.81 54.40 54.32 56.25 56.85 54.86 53.62 50.80 48.60 48.28 45.98 42.89 40.04 39.24 38.49 34.77 33.59 40.03 37.07 56.97 61.67 62.29 62.48 62.48 62.39 62.25 61.34 60.80
48.31 47.07 46.87 47.06 46.00 46.50 47.42 47.70 48.50 49.02 48.40 48.06 48.48 48.35 48.43 48.67 48.62 48.99 50.17 50.72 50.56 49.93 48.48 46.44 43.54 42.06 40.92 38.88 36.15 33.12 33.00 33.90 37.85 36.74 54.41 57.91 57.64 56.63 53.82 57.00 59.11 60.06 60.37

GFSGL_sfc_wetblb_039.txt.gz
Wetbulb
67.73 68.09 68.53 68.80 69.50 68.23 67.05 67.05 66.78 67.05 66.81 67.25 67.55 67.12 66.93 65.98 64.85 63.15 62.44 61.97 62.22 61.75 61.55 62.08 61.59 62.38 60.44 59.96 59.08 58.59 57.21 56.97 54.27 56.61 58.85 61.21 61.80 60.35 61.84 61.98 61.31 61.07 60.40
68.23 68.63 68.20 68.97 69.22 68.60 68.06 68.69 68.24 67.39 67.61 67.62 67.54 67.01 66.17 65.56 64.40 61.93 61.84 62.72 62.04 61.22 61.94 62.30 61.41 64.05 60.53 59.81 58.16 57.60 56.63 57.93 57.09 56.57 58.79 60.41 61.09 61.71 61.45 61.67 61.24 61.72 60.86
68.87 68.21 67.42 68.18 68.00 67.21 67.91 68.24 68.30 67.14 66.76 67.01 65.75 64.68 63.92 63.47 62.81 62.78 62.32 62.08 61.72 62.37 62.01 62.50 61.37 61.24 59.40 59.10 58.46 57.64 58.42 59.86 59.49 59.78 58.98 61.38 61.36 61.51 59.54 59.50 59.36 59.20 59.84
68.09 67.03 66.07 66.08 66.55 66.56 66.62 66.37 65.57 64.69 64.54 62.32 62.45 62.90 62.84 63.56 64.49 64.88 63.15 61.90 61.58 62.26 62.66 62.86 62.43 61.52 60.43 59.59 60.13 59.32 60.66 58.97 59.00 58.72 59.22 58.80 59.32 59.42 59.16 57.67 57.07 58.50 58.38
66.88 66.14 65.58 65.99 66.18 65.66 64.56 63.06 62.43 61.84 61.36 61.62 62.91 63.35 62.47 62.17 62.11 63.00 62.61 61.81 61.30 60.86 61.41 63.00 62.16 62.01 60.82 60.54 61.00 60.31 60.17 60.13 58.61 57.07 57.25 57.65 57.49 57.47 56.99 57.35 56.05 56.71 57.69
65.93 65.23 65.54 65.51 65.11 63.71 62.47 61.99 61.01 61.04 61.52 62.15 63.25 62.01 60.40 58.68 49.11 52.20 59.67 61.48 61.70 60.67 59.91 61.24 59.85 58.76 56.59 56.73 58.52 59.12 60.12 58.71 57.13 57.30 56.73 56.67 56.95 57.23 57.07 56.57 56.13 55.85 53.75
64.80 65.13 65.12 64.48 63.61 62.57 61.40 61.56 62.04 60.67 62.54 63.07 63.13 61.05 58.11 55.40 48.57 50.38 55.82 61.31 60.17 59.74 60.84 61.20 61.43 61.28 58.76 58.27 53.51 54.84 55.08 54.28 56.92 57.80 56.94 56.84 57.13 57.63 57.35 56.45 56.90 55.65 55.10
63.53 63.02 63.40 62.47 61.81 61.44 61.72 62.70 62.50 62.50 62.40 62.73 61.03 59.51 56.53 55.19 48.93 50.57 57.23 61.57 60.49 60.29 61.03 62.25 61.21 59.55 59.10 60.50 60.07 58.81 57.99 57.94 57.70 58.72 57.82 58.52 58.78 58.90 58.47 58.18 56.42 56.07 56.53
61.16 61.72 62.42 62.34 61.71 60.44 61.92 62.32 62.10 60.34 60.14 60.38 60.75 58.63 56.77 56.07 48.03 52.20 57.05 60.12 60.04 59.70 58.84 60.27 60.02 57.66 49.55 51.80 58.55 56.35 56.35 55.18 51.71 52.11 52.08 50.11 49.30 50.33 55.16 57.29 55.19 55.00 53.50
60.92 61.67 61.88 61.58 61.68 61.92 60.85 61.30 60.14 60.45 60.81 61.90 61.37 59.19 54.94 55.82 47.12 49.48 55.80 58.93 58.05 58.90 58.36 55.69 51.14 54.69 47.66 50.14 58.64 57.88 56.67 56.31 56.25 55.69 54.06 50.63 52.18 51.78 51.14 58.30 56.74 54.60 54.01
61.70 62.18 61.83 60.49 60.84 61.39 62.37 60.67 60.14 60.19 60.53 61.13 60.19 58.61 57.93 56.05 53.21 48.93 51.83 58.32 58.09 57.45 57.62 55.93 53.62 46.40 45.85 47.30 52.01 58.18 55.93 56.94 54.26 57.13 56.75 56.35 56.45 57.32 57.70 57.94 57.41 56.44 54.41
62.42 61.65 60.54 61.29 62.66 62.50 61.18 61.84 60.08 60.20 60.31 59.94 58.78 58.70 57.79 56.59 50.02 48.57 50.02 52.31 54.36 57.72 56.57 54.92 49.56 44.04 44.76 46.03 51.58 44.58 46.40 52.81 57.04 56.55 56.13 55.93 56.21 56.55 56.96 57.52 57.30 57.10 57.36
61.61 60.46 60.28 61.28 61.73 61.47 59.82 59.91 59.80 60.19 60.18 59.46 59.02 57.87 57.47 57.09 53.34 45.13 46.03 47.85 50.43 56.76 56.46 46.45 42.57 42.41 43.13 45.11 44.04 45.13 49.64 56.46 55.95 55.37 55.33 55.41 56.60 56.79 56.26 56.85 57.35 57.55 57.81
60.39 58.94 59.71 61.18 61.54 59.96 60.87 60.46 59.52 59.21 59.72 59.98 59.02 57.29 57.17 57.17 56.19 54.14 54.22 52.67 48.48 50.56 49.45 51.64 48.70 49.15 49.05 49.45 52.35 54.14 56.45 56.34 55.69 55.61 55.37 55.96 56.40 55.85 53.56 54.75 54.77 56.17 56.77
59.57 59.92 61.37 61.63 58.49 55.91 53.09 53.61 58.18 56.13 56.55 60.76 60.41 58.44 57.45 57.05 56.69 54.44 55.06 56.43 56.54 52.69 54.21 55.79 54.86 54.82 54.75 55.29 56.27 56.10 55.98 55.94 55.57 55.82 55.76 55.51 55.59 55.23 55.15 56.23 56.14 55.81 55.73
59.19 59.44 60.22 60.74 59.39 57.91 56.89 53.88 42.21 41.12 41.12 47.85 52.20 56.55 57.98 49.15 45.76 46.49 46.80 45.31 43.50 45.49 54.88 54.84 54.11 54.50 54.68 55.59 55.93 55.85 55.98 54.74 55.89 55.53 54.86 55.63 55.62 56.77 57.32 56.69 56.95 55.61 54.31
58.93 60.06 60.31 60.53 59.62 58.22 57.25 56.24 55.31 50.40 42.93 40.56 41.32 46.13 47.85 45.13 43.27 44.46 44.22 42.41 41.32 46.76 55.65 55.31 54.78 55.20 55.49 54.23 55.25 54.77 54.35 55.53 55.63 56.49 56.16 56.46 57.06 57.68 54.66 56.71 57.11 56.75 54.58
60.23 53.95 60.43 60.93 61.42 59.57 58.44 57.27 57.80 57.08 55.29 52.94 43.34 43.52 41.12 40.96 41.32 41.14 41.32 46.36 52.85 51.96 55.79 55.43 55.00 55.77 56.48 56.11 56.19 56.17 56.17 56.93 56.86 57.49 57.48 57.25 56.62 56.74 56.36 56.15 56.15 55.49 54.58
60.77 61.47 59.82 61.21 60.61 59.14 59.96 59.03 59.10 56.81 54.61 52.68 52.67 47.85 42.37 39.49 39.66 40.41 42.23 55.45 55.51 56.73 56.87 56.95 58.08 58.21 58.22 59.40 58.58 58.24 57.81 57.91 57.76 57.11 58.18 58.45 57.60 57.51 56.74 56.84 55.83 50.27 50.35
59.82 52.69 55.36 59.54 61.17 59.91 59.87 59.21 57.87 56.79 56.01 56.75 55.91 54.19 52.33 53.56 52.85 51.91 53.09 55.10 56.30 56.95 57.08 57.44 58.78 59.05 59.14 59.53 58.47 59.45 58.34 57.04 58.60 59.04 58.91 59.36 59.17 59.38 59.18 57.86 57.45 55.18 52.29
60.02 59.60 54.33 60.45 59.04 61.23 60.55 59.54 58.65 58.35 58.06 57.00 56.07 54.10 44.58 56.45 55.16 54.70 54.72 56.61 58.02 58.31 58.13 57.86 57.95 58.26 58.80 60.12 60.36 58.82 59.23 59.45 59.75 59.90 60.18 60.03 59.57 58.76 58.89 55.33 55.16 54.86 53.76
60.42 59.70 59.10 60.29 61.36 60.45 59.34 60.90 59.74 59.53 59.68 57.72 56.82 50.43 36.43 56.58 56.50 56.42 56.98 58.29 59.43 58.38 54.80 59.62 57.10 54.90 55.63 55.29 56.87 57.96 58.91 58.40 59.23 59.45 59.25 58.36 58.47 58.46 58.06 57.65 57.22 57.10 56.19
60.04 60.13 60.48 60.10 59.25 53.32 55.98 58.33 59.53 59.84 59.58 58.36 57.29 54.55 57.16 58.66 57.03 58.82 56.03 53.33 53.20 51.01 48.01 48.40 47.46 46.83 46.01 46.24 46.39 45.39 45.22 47.16 50.59 54.21 58.05 59.58 59.72 59.95 59.74 58.95 58.75 57.67 57.33
53.79 57.30 56.73 55.12 55.01 55.54 55.42 56.60 55.92 52.16 59.32 58.83 58.19 56.80 55.18 56.26 54.66 53.28 50.78 48.70 47.60 47.73 46.37 43.11 41.04 41.42 43.34 41.44 41.62 41.29 38.95 38.61 45.08 49.98 54.90 61.00 60.61 58.74 59.34 58.59 59.34 59.94 59.30
48.38 47.08 48.76 51.14 50.66 51.11 50.21 49.34 49.21 49.69 49.42 49.60 49.02 48.50 47.97 49.36 49.91 50.14 49.29 47.27 44.91 43.10 41.29 41.12 40.07 38.65 37.54 36.60 37.46 37.27 34.26 33.15 40.54 39.15 54.44 52.60 50.57 51.07 53.14 54.80 54.74 56.56 55.71
47.51 46.53 45.34 45.46 45.42 44.79 44.98 44.90 44.61 44.11 44.39 44.48 43.67 43.53 43.93 43.07 43.30 43.85 44.66 43.90 42.07 40.93 38.72 37.90 37.44 36.57 36.18 36.45 34.77 33.10 33.32 34.41 39.14 36.56 47.17 46.35 46.73 45.90 47.79 47.95 48.94 49.33 49.31

GFSGL_sfc_wetblb_042.txt.gz
Wetbulb
62.93 64.01 65.28 66.07 66.38 66.30 66.48 66.27 66.16 65.65 65.69 65.90 65.69 66.30 66.53 65.56 64.39 63.77 63.99 63.05 61.76 60.36 60.16 60.00 59.79 60.91 59.21 59.17 57.75 56.63 56.19 55.39 53.59 55.49 57.49 59.71 60.16 61.00 60.82 61.65 61.79 61.21 60.34
64.64 66.04 66.62 67.85 66.63 65.78 65.62 66.37 66.73 65.28 65.73 66.61 66.77 66.57 66.55 65.63 64.51 63.60 61.81 61.71 60.74 60.21 60.00 60.08 60.42 62.42 60.46 58.68 57.29 56.23 55.41 56.71 55.53 54.49 57.47 59.99 60.20 60.53 60.84 60.76 61.08 61.80 61.25
67.15 67.00 67.35 67.38 66.99 65.96 67.20 67.40 66.79 66.34 66.03 66.75 66.30 65.65 65.62 65.33 63.99 62.44 61.60 61.20 60.90 60.46 60.56 60.37 60.05 61.31 60.16 58.01 56.45 56.01 55.79 58.31 58.33 58.21 58.60 60.69 60.31 60.18 58.90 59.44 59.10 59.30 60.00
67.20 67.02 66.81 66.95 67.27 66.97 67.92 67.65 66.80 66.75 66.42 65.61 65.47 65.29 64.95 63.91 62.25 61.89 61.03 60.54 60.54 61.08 61.46 61.50 61.78 61.64 59.03 58.64 57.68 56.80 57.03 57.49 58.61 59.52 59.32 58.84 58.48 58.86 58.63 57.63 56.99 58.42 58.19
66.28 66.34 65.61 66.13 66.24 65.96 65.62 65.12 64.89 64.61 64.29 62.81 62.03 61.44 61.98 62.08 61.99 62.41 61.98 60.79 59.93 59.99 61.05 61.62 62.44 62.01 59.65 58.98 59.21 57.95 57.53 56.93 59.03 58.85 57.53 57.67 57.19 57.37 56.21 57.05 56.14 56.81 57.23
65.70 65.29 65.52 65.12 64.63 63.38 62.50 61.60 61.76 60.06 61.26 60.68 59.86 59.93 59.49 58.58 48.63 54.01 58.69 59.96 60.23 59.62 58.70 59.53 59.83 59.72 58.23 55.14 56.55 56.57 58.67 58.41 57.73 56.69 56.31 57.03 56.87 56.59 57.11 56.75 56.59 56.35 53.83
64.72 65.10 64.58 63.82 63.07 62.37 61.36 60.30 59.21 59.22 60.16 59.79 59.84 58.97 56.97 55.18 47.54 49.15 53.52 59.80 59.04 58.92 58.83 59.35 61.04 60.38 57.47 58.47 52.76 53.97 53.56 52.98 56.13 56.25 56.65 57.27 57.03 57.35 57.57 56.75 56.94 55.23 55.06
64.49 64.09 63.75 63.05 61.89 60.28 60.73 59.59 59.72 61.52 61.49 60.79 58.98 56.97 55.62 54.64 47.90 49.70 53.89 60.26 59.31 58.62 59.80 61.16 60.47 59.51 58.65 59.25 58.93 57.83 57.61 57.08 56.48 57.53 57.08 57.39 57.92 58.14 58.40 58.09 56.34 56.25 57.09
62.74 62.88 62.33 61.20 59.40 61.34 61.26 61.17 61.37 61.98 60.69 58.07 56.79 56.06 56.87 56.75 47.54 49.54 56.24 58.27 57.27 56.85 59.34 60.75 60.50 58.61 47.90 49.54 57.78 55.90 54.76 54.65 51.13 51.12 51.65 49.72 48.99 50.30 54.52 57.59 55.77 55.41 53.85
60.49 61.08 60.94 61.28 61.40 61.19 61.42 61.13 60.58 59.18 59.86 59.41 57.73 56.51 53.14 56.26 46.45 47.72 54.80 58.57 57.89 56.79 56.22 56.33 51.86 54.18 45.73 48.63 57.26 56.41 55.82 55.70 56.19 55.86 54.54 50.33 51.79 52.05 50.96 57.26 56.65 54.96 53.76
60.77 60.39 60.30 61.68 61.16 61.40 61.01 60.55 58.87 60.16 59.72 58.01 56.85 55.92 57.07 56.73 52.95 46.09 50.08 57.41 57.57 57.44 55.93 55.98 53.96 45.37 45.00 46.82 51.31 57.39 55.56 56.55 53.55 56.79 56.51 56.51 56.47 56.25 57.08 57.84 57.83 56.39 53.63
60.56 60.02 59.63 60.26 62.08 61.88 60.43 58.57 59.69 59.73 58.73 57.95 57.21 57.53 57.69 56.67 49.72 46.82 48.45 51.47 52.91 56.79 56.35 55.12 50.02 43.73 44.10 45.73 51.26 44.46 46.09 52.51 57.25 56.43 55.92 55.44 55.92 56.51 56.82 57.04 57.22 56.62 56.66
60.17 58.95 59.39 60.59 61.57 61.11 59.92 58.86 59.20 59.37 58.47 57.19 56.11 55.81 56.63 56.17 52.83 44.82 45.00 45.55 49.12 56.09 56.09 48.10 42.65 41.92 42.47 44.62 43.19 44.64 49.14 56.84 56.57 55.68 55.18 55.82 56.55 56.66 56.70 56.75 57.14 57.13 57.48
59.69 58.11 57.87 59.37 58.70 58.10 59.28 59.46 59.71 59.00 58.17 57.97 56.21 56.19 56.71 55.96 54.60 53.89 53.27 51.90 47.61 49.24 47.70 49.66 48.95 48.63 48.37 48.68 51.90 53.82 56.44 56.90 56.44 55.81 55.59 55.89 56.20 55.75 55.41 56.03 55.51 55.82 56.05
58.54 58.73 59.86 58.26 56.43 53.45 50.17 52.07 58.31 57.23 57.13 58.63 57.29 56.92 56.87 55.68 54.29 52.38 53.32 55.49 55.77 51.92 53.70 55.45 54.87 54.75 54.58 55.26 55.51 55.23 55.89 55.93 55.87 55.83 55.47 55.45 55.57 55.17 54.79 55.41 55.65 54.91 55.01
58.32 60.06 59.52 57.19 56.69 54.14 53.14 50.16 40.59 41.28 43.73 45.55 49.70 54.36 55.82 49.17 45.00 45.73 44.82 43.73 44.46 46.27 54.65 54.51 54.36 54.71 54.85 55.39 54.93 54.60 55.39 54.20 55.67 55.92 55.75 55.66 55.23 54.28 54.31 55.39 55.83 55.25 53.90
58.24 58.95 58.40 58.37 57.19 56.33 56.05 54.66 51.71 47.70 43.72 41.51 44.10 44.64 46.27 45.17 43.01 42.83 41.74 41.02 41.20 47.00 55.09 54.61 54.33 54.87 55.09 55.97 55.97 55.49 55.03 55.87 56.11 56.14 55.81 55.67 55.53 56.50 53.86 55.35 55.31 54.64 53.60
59.10 53.95 58.98 58.58 57.80 56.13 56.11 56.31 56.41 56.91 55.87 52.56 43.25 42.87 41.20 41.74 41.92 40.47 40.65 46.40 53.41 52.37 54.95 54.90 54.80 54.40 54.10 53.72 54.12 53.62 54.00 54.08 54.79 54.95 54.96 56.12 56.29 56.49 55.95 54.87 54.77 53.87 54.03
58.75 59.16 59.93 59.80 58.36 56.50 56.63 56.63 55.95 55.79 53.87 51.53 50.93 45.55 40.42 39.00 39.56 40.29 42.28 54.91 55.73 56.07 55.79 54.27 54.23 54.60 56.07 56.15 55.56 55.47 55.19 54.88 55.01 55.51 56.12 56.62 56.64 55.15 54.79 55.05 54.41 48.41 49.62
58.90 53.05 55.89 59.47 58.22 58.02 57.46 56.40 55.27 55.37 55.61 55.85 55.51 53.03 48.91 49.75 51.00 50.87 52.06 54.33 56.05 56.99 57.39 56.99 56.98 58.28 58.87 57.96 57.78 57.10 56.25 55.71 56.76 56.21 57.32 58.04 57.39 56.17 55.57 56.68 56.55 55.76 53.97
59.06 57.37 53.54 59.99 59.00 59.04 57.85 56.57 56.19 56.36 55.89 55.50 55.25 49.57 37.75 54.07 52.79 53.10 53.55 56.19 57.67 56.69 57.86 58.49 58.18 58.40 58.67 58.72 58.57 57.89 58.09 57.87 58.49 58.61 58.38 58.33 58.90 58.35 58.86 59.01 58.56 57.69 56.12
58.73 58.26 59.49 59.12 59.72 59.46 58.36 57.93 57.84 56.95 56.44 55.87 54.75 50.71 39.93 55.39 55.17 55.57 55.35 52.08 49.73 48.64 50.66 50.89 49.11 48.76 49.04 50.19 50.05 56.27 58.43 58.35 57.72 56.63 58.22 58.38 58.12 58.33 58.54 57.90 57.21 55.77 53.80
59.09 59.35 58.47 58.19 58.65 54.10 58.52 58.64 58.63 57.40 56.76 56.19 56.10 55.83 55.93 55.32 54.05 51.11 49.79 47.83 45.29 44.69 45.69 46.04 45.32 43.64 45.58 46.64 46.43 44.81 50.93 50.29 50.51 52.82 54.37 58.93 58.31 58.22 58.03 58.29 58.38 57.64 57.51
55.94 55.19 54.29 53.82 56.31 57.76 57.32 57.63 57.73 52.01 56.19 55.98 54.22 54.23 52.15 49.71 47.88 45.35 45.09 45.03 43.10 41.89 40.12 41.24 40.17 40.61 41.79 41.48 42.48 42.60 39.78 41.82 48.49 54.34 56.67 55.53 54.96 54.16 54.58 55.00 55.77 54.90 53.88
50.49 51.29 49.60 48.40 50.10 50.09 49.99 49.90 49.88 50.06 49.75 48.25 46.95 47.69 48.38 46.80 45.03 43.45 41.69 39.67 38.76 37.51 36.60 37.20 37.31 37.77 38.55 37.12 38.10 38.67 35.99 34.63 41.63 40.12 49.33 48.46 49.54 49.85 50.40 50.04 50.32 50.19 49.74
45.75 47.00 47.39 46.73 45.74 46.07 47.31 46.46 45.05 44.63 44.33 43.62 42.68 41.65 40.58 39.97 40.30 40.13 39.88 38.89 37.05 37.34 37.22 36.70 35.86 35.67 35.67 35.31 34.34 33.08 33.81 33.94 37.57 35.64 45.36 45.01 43.60 44.26 44.89 44.98 45.49 45.89 45.12

GFSGL_sfc_wetblb_045.txt.gz
Wetbulb
54.61 56.34 58.89 61.00 61.38 63.35 64.40 64.23 64.77 64.95 65.34 65.46 65.55 65.19 65.55 65.39 65.82 65.10 64.09 62.96 62.67 61.19 59.66 59.17 58.67 58.95 58.36 57.80 56.88 55.62 55.06 54.34 52.53 54.37 57.32 59.97 60.04 60.98 61.32 61.48 61.50 60.90 60.15
58.21 60.51 61.98 63.20 63.95 64.19 64.34 64.25 64.61 64.41 65.52 65.94 66.56 66.47 66.07 65.83 64.75 63.43 62.32 62.52 60.98 59.57 59.29 59.03 59.00 60.58 57.84 57.62 57.64 55.22 55.04 54.98 54.50 53.55 57.48 59.31 58.73 60.25 60.80 60.58 60.90 61.51 61.05
62.40 63.52 64.80 64.41 64.37 63.98 64.45 65.01 65.43 65.56 66.54 66.72 65.89 65.80 65.85 64.30 63.27 63.11 63.04 61.51 60.24 59.86 59.51 59.11 59.28 59.68 58.14 56.88 56.32 55.06 54.54 56.92 56.18 56.42 57.99 59.81 59.48 59.61 58.95 59.31 59.17 59.56 60.42
64.87 65.17 65.07 65.00 65.07 65.22 65.78 66.31 65.56 66.02 65.56 65.46 65.47 65.25 65.16 64.47 63.94 62.85 62.11 59.97 59.76 59.74 60.15 59.99 59.65 59.44 60.52 58.68 56.40 55.08 55.76 56.76 58.39 58.92 58.39 57.97 57.79 58.51 58.59 57.60 56.86 58.47 57.63
65.75 65.59 66.26 65.85 65.86 66.83 66.71 66.29 65.64 65.71 65.54 65.20 64.08 63.81 63.50 63.16 62.30 60.56 60.11 59.17 58.80 59.15 59.66 60.69 60.71 60.99 59.55 58.77 57.40 55.72 56.00 56.66 58.21 57.74 57.40 57.22 56.68 56.86 56.36 57.28 56.34 56.86 57.44
65.36 65.11 65.56 65.50 65.66 66.00 65.82 64.55 64.08 62.36 63.06 62.87 61.71 61.60 59.57 58.76 50.66 53.93 58.65 59.43 59.26 58.81 58.66 59.30 59.48 59.86 58.13 54.96 55.58 55.34 57.24 58.44 58.38 57.24 55.15 56.68 56.68 56.46 57.02 56.88 56.72 56.42 54.20
64.28 64.36 63.95 63.70 62.80 62.96 62.69 62.26 61.71 60.81 59.77 58.93 57.62 57.44 56.14 55.19 47.21 49.37 53.12 59.06 58.58 57.98 57.84 57.96 58.80 60.04 59.01 57.42 52.59 53.47 53.05 52.66 56.11 57.19 57.19 56.77 56.10 56.98 57.14 56.70 56.38 54.64 54.90
63.61 63.22 63.11 62.48 61.18 61.28 61.13 60.48 60.11 59.25 57.78 57.04 56.52 56.90 56.30 54.05 47.21 47.57 51.38 58.19 57.40 57.48 57.76 58.06 58.24 58.30 58.28 58.17 57.56 56.60 56.34 56.52 56.28 57.71 57.64 56.50 56.78 57.85 57.79 57.71 54.30 56.54 56.78
62.67 62.54 62.66 61.59 60.82 60.58 59.96 60.27 59.52 58.66 57.52 56.42 57.00 56.88 56.72 55.82 46.85 46.85 54.81 56.88 56.20 58.31 58.26 59.34 60.11 59.52 49.39 47.94 57.56 56.00 54.43 53.80 50.22 50.36 50.78 49.21 48.30 49.78 54.67 56.64 54.67 55.88 54.00
62.34 61.99 61.36 61.59 61.15 60.16 60.30 59.60 58.91 58.72 58.38 57.54 56.12 57.54 53.96 55.96 45.04 46.49 53.73 56.40 56.76 57.06 57.26 56.16 50.29 54.40 46.31 47.57 57.24 56.94 55.56 54.69 54.77 54.87 54.79 50.91 51.44 52.24 51.06 57.97 57.00 55.66 53.78
61.97 60.81 60.47 60.71 59.83 59.60 59.21 60.66 60.37 58.84 56.84 56.08 55.66 56.14 57.36 54.33 51.32 45.58 49.39 57.66 57.40 55.43 55.77 55.23 52.17 43.59 42.86 44.49 49.93 56.34 54.98 54.83 52.76 56.18 56.10 56.06 55.96 56.08 57.16 57.70 57.79 56.74 53.20
59.57 59.03 59.22 60.13 60.75 60.72 60.14 60.13 59.46 57.30 56.56 55.68 56.14 57.06 57.42 56.30 48.84 46.31 47.03 50.80 51.95 56.82 55.53 53.62 49.53 43.41 43.41 45.58 50.94 42.68 45.40 52.24 57.22 56.48 55.98 55.51 55.64 56.18 56.62 57.26 57.24 56.71 56.92
58.66 58.55 59.86 60.47 60.61 60.49 59.75 58.99 58.21 57.62 56.90 56.06 56.02 56.36 56.14 55.78 52.54 43.57 43.77 45.76 48.48 55.82 56.14 48.75 42.66 41.96 42.50 44.48 43.22 44.31 48.83 57.04 56.56 55.76 55.11 55.59 56.50 56.84 56.78 56.66 56.96 56.82 57.74
58.04 58.11 59.46 60.05 59.63 60.13 60.00 59.27 58.49 57.18 56.42 56.20 55.88 56.06 56.08 55.33 54.93 54.15 53.31 52.05 47.70 48.98 48.08 49.42 47.94 47.21 47.39 47.67 52.05 54.27 56.68 56.86 56.42 55.88 55.37 55.74 56.06 56.18 56.00 56.34 55.78 55.58 55.64
57.85 58.04 58.81 58.83 57.40 52.33 48.37 51.69 57.68 55.37 56.20 56.98 56.77 56.84 56.20 55.09 54.89 51.94 52.74 55.02 54.92 51.22 53.43 55.38 55.14 54.87 54.67 55.11 55.44 55.62 55.92 56.48 55.78 55.78 55.72 55.52 55.32 55.20 54.96 55.70 55.76 55.20 54.31
57.78 57.69 56.24 55.76 55.44 53.11 52.82 50.57 41.20 42.48 45.22 46.49 48.99 53.69 54.71 47.12 43.95 43.41 42.86 43.04 43.77 45.40 54.80 54.61 54.31 54.56 54.80 54.71 54.39 54.61 55.40 54.38 55.58 55.82 55.66 55.98 55.22 54.71 54.75 55.38 55.70 54.50 53.54
58.15 57.25 55.66 55.18 54.65 54.46 54.41 54.56 52.10 46.87 41.72 42.32 41.96 42.86 45.94 45.20 41.77 41.23 41.59 40.51 42.68 48.95 55.08 54.76 54.41 54.92 55.28 55.42 55.12 54.68 54.58 55.30 55.96 56.01 55.92 55.52 55.46 55.15 53.28 54.75 55.15 54.71 54.04
57.52 50.71 57.61 56.84 56.36 55.94 55.60 55.38 56.34 57.50 55.46 52.51 42.38 42.76 41.02 40.69 40.13 40.32 41.41 47.72 54.11 53.00 54.61 54.52 54.66 53.35 55.42 55.34 54.68 54.56 55.24 55.40 55.74 55.68 55.54 55.85 55.46 56.33 55.56 54.48 53.96 52.82 52.48
58.57 58.11 57.78 57.00 56.12 55.03 56.46 56.94 57.40 56.82 55.26 51.10 49.52 45.26 40.47 38.30 39.22 40.69 43.59 55.26 55.00 54.68 54.30 54.43 55.09 54.90 53.96 54.41 54.29 54.80 55.31 54.91 54.85 55.05 55.13 55.66 56.11 55.74 55.82 53.52 52.48 45.94 47.07
58.23 49.66 53.85 56.90 56.42 56.14 55.78 56.12 55.50 55.30 55.00 55.02 54.12 51.07 48.68 50.83 52.28 52.34 54.20 55.62 56.58 56.80 56.20 55.82 55.58 55.84 56.32 56.76 56.60 56.04 55.42 53.91 55.08 55.58 55.92 56.24 56.82 55.60 53.73 53.76 53.61 53.18 52.71
58.00 57.06 50.73 57.96 57.40 56.52 55.88 56.28 56.63 56.47 55.80 54.55 52.84 49.90 40.69 53.27 53.59 54.16 55.72 52.33 51.65 52.74 56.44 57.70 57.50 56.96 58.30 57.54 57.73 57.65 56.57 57.06 57.07 57.08 57.23 57.28 56.68 56.39 56.80 56.94 56.82 55.70 55.00
58.77 58.77 58.84 58.29 57.82 56.70 56.56 56.95 56.68 56.23 55.39 54.19 53.51 47.36 37.24 54.65 55.13 50.83 48.42 46.30 45.91 46.25 47.21 47.42 46.93 47.61 47.12 46.40 47.11 52.81 57.53 57.01 56.72 56.92 56.96 58.14 57.79 56.78 56.75 56.68 57.36 57.14 56.14
59.13 59.02 59.20 58.91 57.58 51.89 56.76 56.83 56.67 56.48 55.78 55.70 55.80 54.05 54.22 50.75 48.34 46.02 43.95 42.39 42.12 42.49 42.17 42.61 43.52 44.72 44.56 44.67 44.08 44.18 48.29 48.22 50.45 52.36 54.20 56.62 56.32 56.64 57.13 56.32 56.49 56.99 55.32
57.08 57.15 57.97 58.42 58.04 57.64 57.30 56.16 55.00 50.55 55.67 54.40 52.10 49.32 46.80 44.61 43.87 41.98 39.67 38.59 38.41 38.76 38.97 39.02 38.45 37.45 37.44 39.33 40.59 42.26 42.16 44.28 51.01 53.66 55.08 55.78 55.54 53.52 55.00 53.36 52.25 51.87 51.55
51.70 52.98 54.32 54.47 53.75 53.47 54.75 55.56 50.92 48.91 48.04 48.38 46.89 45.37 44.02 42.13 39.93 39.15 38.93 38.61 37.47 36.11 35.82 36.08 36.55 36.72 35.71 34.83 34.82 35.83 33.77 34.46 39.09 38.76 46.13 47.50 46.04 45.23 45.52 46.83 45.66 45.04 44.77
48.72 47.72 48.40 49.14 49.65 49.26 48.31 46.78 45.54 44.26 42.87 41.65 40.57 40.30 40.28 39.63 38.96 38.02 37.19 36.37 35.41 35.22 35.28 34.97 35.02 34.79 34.46 33.86 33.20 32.69 33.05 33.85 36.55 35.37 43.69 43.63 42.75 42.43 42.54 43.33 43.38 42.97 43.61

GFSGL_sfc_wetblb_048.txt.gz
Wetbulb
55.40 53.02 56.64 58.19 59.31 60.11 60.68 61.69 63.32 64.30 65.60 66.18 66.81 66.81 66.95 66.59 66.52 65.98 65.80 64.78 63.49 63.43 62.80 61.96 61.42 61.48 60.65 60.57 60.23 59.84 59.04 58.60 57.61 58.45 60.50 62.11 61.45 61.58 62.34 62.02 62.68 62.68 62.02
57.36 52.69 54.61 58.50 59.83 60.79 61.95 63.20 64.53 65.24 66.03 66.48 66.68 66.70 66.76 66.43 66.03 65.57 64.41 64.12 63.76 62.24 61.67 61.26 60.99 61.45 60.98 60.65 60.38 59.69 59.32 58.93 58.53 57.45 59.27 59.91 59.56 60.97 61.75 60.57 61.64 62.44 62.35
57.43 55.47 57.18 59.56 61.19 61.99 63.18 64.24 65.33 65.51 65.89 66.55 66.61 66.92 66.52 66.05 65.88 64.99 64.61 63.77 63.23 62.25 61.83 61.37 61.29 61.45 60.57 60.06 59.75 59.32 59.13 59.37 59.42 58.55 58.58 60.06 59.95 60.24 59.52 59.54 60.62 61.16 61.45
59.79 60.08 60.72 62.01 62.83 63.71 64.60 65.30 65.60 66.34 66.28 66.57 67.03 66.36 65.97 65.23 64.92 64.55 64.08 63.32 62.20 62.24 62.12 62.17 61.79 61.84 61.36 60.43 59.64 59.04 59.11 59.63 60.08 59.42 58.67 57.67 58.60 59.16 59.64 58.05 57.88 59.64 59.31
62.51 63.10 63.23 64.06 64.72 65.29 65.25 65.51 66.18 66.50 66.57 66.25 65.63 65.94 65.43 64.88 64.15 63.84 62.69 62.13 61.58 61.34 61.69 61.92 62.42 61.27 59.49 60.10 59.78 58.64 59.78 59.73 59.05 58.05 57.53 57.17 57.07 57.37 57.35 58.31 57.63 58.46 59.12
64.32 64.46 65.26 65.23 65.90 65.56 65.27 65.42 65.58 64.97 65.01 64.90 64.72 64.50 64.17 61.59 50.87 53.46 59.47 61.42 61.17 61.32 61.19 61.63 62.39 59.90 57.59 55.17 54.90 54.84 59.29 60.30 58.85 58.35 57.61 56.61 57.23 57.51 58.18 57.39 57.15 56.19 56.01
64.82 64.95 65.41 65.92 65.28 65.40 64.98 64.17 63.39 63.20 63.96 62.98 62.09 62.21 59.74 56.75 47.97 49.24 52.30 61.88 61.48 61.17 61.13 61.33 61.22 61.73 59.31 59.29 52.33 52.42 53.30 53.45 56.60 59.59 58.78 58.30 56.75 58.21 58.68 58.02 58.25 58.01 57.05
64.68 64.55 64.43 64.47 64.33 64.00 63.56 62.73 61.95 61.28 60.29 59.56 58.81 58.09 57.29 53.70 46.34 46.70 50.51 61.03 60.82 60.53 60.77 60.91 61.50 60.34 60.29 58.89 57.95 58.50 59.05 60.04 60.17 60.20 60.93 60.71 59.96 59.85 60.25 60.25 59.25 58.27 57.39
62.87 62.71 62.61 62.46 62.18 62.19 61.56 61.03 60.15 58.83 57.93 57.33 57.83 58.07 57.21 55.85 45.79 45.79 55.33 59.49 58.89 59.56 59.93 60.72 60.66 60.22 49.06 49.78 58.82 57.67 57.41 55.93 50.61 51.01 51.82 49.60 47.79 49.63 55.45 59.30 57.52 55.70 54.34
62.24 61.87 62.17 62.00 61.96 61.50 60.91 59.32 58.66 57.98 57.35 57.75 57.77 58.52 54.10 56.33 44.89 45.79 55.11 58.61 58.00 58.60 59.75 58.06 51.05 55.11 44.16 46.70 59.54 57.97 56.55 56.01 56.43 57.01 55.79 51.84 51.59 51.48 51.19 61.04 59.16 56.41 55.36
62.21 61.67 61.64 61.57 61.44 61.25 60.34 59.17 58.32 57.71 57.11 56.45 56.39 57.57 57.17 55.49 51.43 45.61 48.87 59.11 58.38 58.23 58.07 57.03 53.91 43.60 44.16 45.61 51.05 58.86 56.35 56.13 53.88 57.43 56.75 56.77 56.57 57.25 58.58 60.08 60.98 59.37 57.34
61.20 61.07 60.69 60.62 61.07 60.78 59.86 58.96 57.94 57.51 56.61 56.43 57.41 57.35 57.37 55.99 48.66 45.58 46.70 50.76 52.81 57.74 57.37 56.31 50.00 42.17 42.53 43.62 51.16 43.44 45.79 52.51 57.47 57.15 56.65 56.01 56.19 57.19 57.84 58.81 59.30 57.92 58.58
60.35 60.04 59.84 60.21 60.38 60.37 59.11 58.05 57.51 57.49 56.81 56.05 56.10 56.43 56.39 55.99 52.13 42.82 42.71 44.70 48.86 56.19 56.37 49.43 42.48 41.44 41.99 44.44 42.69 43.62 48.46 57.64 57.21 56.25 55.69 56.13 57.13 57.73 57.95 57.72 57.92 58.70 58.44
58.75 59.09 59.46 59.44 59.57 60.20 59.55 58.89 57.61 56.83 56.77 56.53 56.59 56.73 56.39 56.05 55.27 54.81 53.82 52.20 47.46 49.26 48.67 50.62 47.88 47.32 47.06 47.97 53.17 55.19 57.91 57.99 57.18 56.45 56.21 56.29 56.95 56.85 56.45 57.14 56.61 56.84 56.60
59.35 59.31 59.19 59.25 56.89 51.20 48.11 54.75 57.67 57.71 57.20 56.85 56.79 57.37 56.43 55.91 55.91 52.11 53.29 55.67 55.23 51.22 53.92 55.91 55.67 55.53 55.09 55.55 56.15 56.71 57.05 57.57 56.94 56.71 56.25 56.11 55.91 56.19 55.77 57.17 56.99 56.80 55.43
58.07 58.32 57.57 56.50 55.01 53.99 53.75 51.58 41.41 43.80 46.16 46.52 49.20 54.23 54.56 47.86 43.44 43.25 42.53 43.07 43.80 45.97 55.13 55.23 54.69 55.29 54.99 55.11 54.97 55.53 56.31 54.89 56.72 56.80 56.59 56.57 55.85 55.31 55.05 55.79 56.21 55.35 54.33
56.56 56.66 55.32 55.32 55.69 55.00 55.10 55.57 52.38 46.14 40.76 40.29 41.26 42.17 44.70 42.13 40.72 40.90 41.62 41.44 42.53 49.14 55.39 54.80 54.95 55.55 55.33 55.37 55.39 55.53 55.27 56.37 57.07 56.59 56.66 56.54 56.05 55.69 54.05 55.09 55.51 56.24 55.67
56.73 49.98 56.47 56.23 56.25 56.11 56.19 55.59 56.65 56.31 54.24 51.10 40.84 41.78 39.76 39.98 40.35 40.90 42.53 48.06 54.58 53.27 55.41 55.06 54.94 56.15 56.09 55.91 55.65 55.96 55.79 56.23 57.29 57.31 56.67 56.42 56.63 56.14 54.83 55.06 55.48 54.44 54.24
58.16 57.79 57.56 57.49 57.09 55.49 57.28 57.28 57.93 56.61 53.83 49.49 49.58 44.59 41.22 39.61 40.54 43.44 45.25 56.05 55.01 54.57 55.69 55.28 55.80 56.37 56.25 56.49 56.45 56.51 56.45 56.00 55.90 56.56 56.32 56.54 56.74 56.36 55.77 55.85 54.67 47.41 49.37
57.06 48.67 52.86 57.31 56.73 57.04 57.52 57.11 56.11 54.67 54.34 54.17 51.74 49.29 50.08 52.41 53.52 53.78 55.38 55.99 56.09 55.53 55.89 55.79 56.20 56.67 56.95 57.47 57.18 56.66 56.51 55.53 55.81 55.55 55.96 56.33 57.12 56.93 55.88 57.45 56.90 56.28 55.83
57.19 56.67 50.64 57.04 56.13 56.85 56.48 56.41 56.42 56.14 55.00 53.31 52.07 50.59 41.08 54.90 53.76 50.47 49.48 48.16 48.90 50.16 51.64 52.93 52.10 52.94 54.54 57.86 57.39 56.79 56.26 56.42 56.60 57.19 57.53 56.79 57.28 56.59 58.06 58.20 58.00 57.56 58.38
58.41 58.29 58.20 56.31 56.42 56.96 57.26 57.34 56.68 55.51 54.43 53.46 52.73 46.13 38.72 52.00 48.30 45.93 44.75 45.11 44.17 44.44 46.17 47.28 46.20 46.83 47.26 47.25 49.14 53.21 58.20 57.73 57.73 58.11 58.27 59.35 59.22 58.54 58.19 59.03 58.19 58.05 58.26
59.24 58.72 57.89 57.02 56.42 52.21 56.83 56.96 56.23 55.41 55.06 54.29 53.53 52.04 49.36 46.39 43.76 42.48 42.05 41.73 41.74 41.66 42.14 42.28 42.81 42.72 43.97 44.83 45.73 47.31 50.72 51.78 53.53 56.40 58.08 58.39 58.45 58.56 59.30 58.45 57.83 57.35 55.12
59.60 58.65 57.49 56.31 56.23 56.12 56.45 56.01 55.57 50.85 54.31 52.02 49.15 46.80 44.64 42.49 41.33 40.13 39.54 39.24 39.71 39.74 40.05 38.55 37.72 37.57 38.73 39.25 39.99 40.27 40.57 43.86 49.87 50.95 53.64 54.86 52.49 51.32 51.24 49.36 49.30 47.98 48.82
58.72 58.13 57.36 56.43 56.05 55.20 53.63 52.03 51.09 49.60 48.35 46.88 44.63 42.46 41.33 40.62 39.64 39.05 38.75 37.57 37.37 37.07 36.88 37.16 37.34 37.11 36.85 37.43 38.13 38.40 34.20 34.59 41.60 39.66 47.96 47.43 46.67 46.67 45.77 45.04 45.11 44.74 44.07
52.47 53.28 53.77 53.50 51.72 50.19 48.37 46.56 44.95 43.68 42.84 42.40 41.57 40.58 39.55 38.29 37.73 37.50 37.12 36.44 35.57 35.17 34.88 34.90 34.57 34.30 34.83 34.59 33.29 32.67 32.98 33.45 36.59 34.89 43.17 42.82 41.95 41.96 42.53 41.41 40.66 39.79 39.73

GFSGL_sfc_wetblb_051.txt.gz
Wetbulb
57.85 60.14 62.04 62.95 64.87 65.50 66.15 67.03 68.07 68.96 69.00 69.19 70.04 70.78 71.07 71.74 71.74 71.52 71.16 70.73 69.92 68.64 68.27 68.80 68.26 68.16 66.77 66.22 65.93 65.37 64.51 64.23 61.49 62.47 62.62 63.59 62.66 64.63 65.22 65.41 65.32 66.33 65.68
58.57 60.13 62.29 63.55 64.54 64.42 65.03 66.20 67.66 68.24 69.06 69.26 70.06 70.41 71.36 71.54 71.74 70.86 70.34 69.61 68.20 67.54 67.52 67.48 67.03 66.08 66.47 66.37 65.22 65.57 65.33 65.13 63.40 62.09 61.18 61.69 61.88 62.45 62.78 63.59 63.33 65.85 66.64
58.11 60.81 62.82 63.80 63.68 63.99 64.90 66.65 67.53 68.24 69.04 69.84 70.34 70.87 71.19 71.22 70.49 69.56 69.88 68.43 66.57 66.40 64.96 66.12 66.91 66.66 65.98 65.80 65.82 65.18 64.50 64.19 64.07 62.10 60.69 61.32 60.99 61.88 61.18 62.05 62.83 63.10 63.02
59.01 61.82 63.42 64.87 64.03 64.41 66.09 67.29 67.96 68.77 69.30 70.12 70.91 71.34 71.36 70.66 69.29 67.99 67.20 67.82 68.94 67.04 65.85 67.64 66.87 66.57 66.26 66.17 65.34 64.99 64.25 63.56 63.51 61.67 60.40 59.68 59.94 61.03 61.11 59.06 60.50 62.50 61.81
59.33 62.36 64.43 66.04 64.92 65.20 66.58 67.85 68.72 69.25 69.90 70.51 70.92 71.02 70.56 69.51 67.93 69.09 69.18 69.00 68.42 67.37 67.39 67.05 67.34 65.47 61.82 63.45 64.94 64.72 64.45 63.22 61.73 59.68 59.32 58.59 58.40 58.38 58.99 60.26 59.64 60.55 60.59
61.54 63.76 66.22 65.91 65.46 66.20 67.09 68.12 68.89 69.65 70.11 70.19 70.07 69.59 68.72 67.79 52.20 56.45 63.83 67.61 67.63 67.08 66.60 66.64 66.79 60.90 60.03 55.56 56.19 57.10 62.51 63.36 60.69 59.49 58.53 58.37 59.09 59.71 59.93 59.37 59.19 59.16 58.06
60.78 64.27 66.44 66.16 65.99 66.12 66.54 67.71 68.19 68.45 69.01 69.11 67.41 67.69 68.24 63.56 48.98 50.79 54.84 67.23 66.66 66.81 66.79 66.68 66.04 65.59 62.43 64.77 53.83 53.25 55.01 54.40 58.22 64.04 59.68 58.45 58.88 60.02 60.79 59.46 60.59 60.39 59.50
59.31 64.34 64.68 66.64 66.23 66.43 67.28 68.38 68.36 69.07 69.18 68.22 67.70 67.17 63.83 55.97 46.80 47.17 50.97 66.71 66.64 66.74 66.51 66.76 66.70 66.40 65.18 64.62 62.89 62.71 63.43 63.95 63.91 64.08 65.21 62.00 61.45 61.60 62.97 62.23 61.32 60.89 60.64
59.06 63.70 64.85 66.46 65.50 66.70 67.16 67.40 67.02 65.13 65.98 64.48 62.21 61.91 61.58 58.82 45.32 46.26 57.11 66.21 65.53 65.39 65.45 66.03 66.15 65.50 50.52 49.16 63.24 63.29 63.33 62.21 51.82 49.12 51.72 51.37 49.54 51.88 58.07 62.16 60.29 58.12 56.23
63.25 65.27 66.03 66.41 65.92 66.15 66.09 64.94 65.13 64.42 62.09 63.00 63.09 63.97 56.61 58.93 44.26 46.08 58.91 64.24 63.39 62.45 62.82 63.13 50.72 60.80 45.17 47.35 61.31 62.89 61.19 60.52 61.48 62.15 61.02 55.24 55.66 55.91 50.51 63.48 61.48 57.72 56.43
64.50 66.74 66.70 66.37 65.99 64.83 64.25 62.69 61.72 61.51 61.76 61.38 60.48 60.54 61.08 59.96 54.82 45.53 49.70 64.10 62.77 61.41 62.47 61.47 60.67 44.21 43.18 45.53 52.58 62.04 60.47 60.50 57.63 63.23 62.39 61.24 60.87 59.89 61.12 61.94 63.47 61.82 60.10
64.44 65.39 64.61 64.10 63.12 63.01 61.84 61.12 59.94 59.84 59.33 59.61 59.41 59.81 59.60 59.44 49.72 46.23 46.44 51.94 54.86 62.99 60.22 59.94 54.43 42.62 42.81 44.63 53.39 43.90 46.08 53.65 61.78 59.91 59.55 58.76 59.17 59.86 60.95 63.32 64.05 64.29 65.18
63.25 62.84 62.63 62.48 62.01 61.01 59.88 58.85 58.89 59.70 59.43 59.48 60.05 58.67 58.41 58.72 56.33 43.07 43.00 44.45 49.12 60.95 62.11 52.68 41.86 41.17 41.73 45.92 43.69 44.99 47.04 61.06 59.42 58.56 57.47 57.65 58.91 60.52 61.71 62.05 62.66 61.68 62.08
61.84 61.77 63.17 61.25 60.69 60.38 60.55 60.67 60.89 60.44 59.91 60.06 59.31 58.73 58.22 58.35 58.04 59.45 58.57 56.43 48.46 51.35 48.92 51.23 48.98 50.67 49.09 51.06 53.25 55.89 61.52 60.45 59.47 58.49 58.08 58.71 59.51 59.17 59.40 59.78 58.24 59.35 59.90
62.39 62.08 61.69 61.60 59.88 57.39 57.18 61.38 61.77 62.54 60.36 60.95 59.71 59.29 58.48 58.21 59.68 55.01 57.12 61.21 59.98 53.75 55.56 58.16 59.21 57.90 57.74 58.37 59.44 59.27 60.18 60.69 59.28 59.12 59.14 58.62 58.29 58.19 58.21 59.01 58.88 59.13 57.43
60.52 60.31 58.07 57.59 58.18 57.88 57.30 54.36 41.44 44.26 43.36 45.25 48.62 56.15 57.88 48.42 42.81 42.81 42.63 43.18 43.90 44.99 56.93 57.53 56.97 57.10 56.93 57.31 57.90 58.29 59.16 56.74 59.15 58.80 58.58 58.02 57.27 57.85 57.32 58.24 60.21 58.76 57.70
60.13 59.32 59.73 58.74 58.93 57.97 57.72 56.92 52.72 46.53 41.02 39.85 41.55 43.54 45.77 42.78 41.00 41.18 41.91 41.36 42.27 49.79 56.37 57.39 56.70 56.97 56.97 57.17 57.42 57.65 57.33 58.14 59.22 58.55 58.50 58.41 58.15 56.92 55.11 55.69 55.87 57.29 56.25
61.26 51.73 60.74 59.49 58.70 59.68 59.84 58.60 57.63 56.45 53.54 50.49 41.72 43.57 40.00 40.08 40.64 41.18 42.27 48.21 55.77 54.21 56.71 55.56 56.92 57.84 57.47 57.48 57.33 57.17 57.77 58.08 58.45 58.34 58.84 58.91 58.54 56.21 55.72 55.72 56.19 58.40 59.58
61.55 60.17 59.61 60.07 60.90 59.02 58.88 59.24 58.11 55.18 52.08 49.28 50.35 45.85 43.03 40.82 41.55 43.00 44.99 56.93 56.58 55.57 56.48 56.07 58.99 58.78 57.99 57.79 57.93 59.10 58.31 59.31 59.44 60.01 60.35 58.49 58.14 57.84 56.23 56.43 56.19 46.26 48.93
61.15 49.94 56.04 59.53 59.30 58.91 58.93 57.94 55.42 53.88 55.01 55.81 55.13 52.60 53.89 55.06 56.80 56.03 55.64 57.33 58.29 57.93 57.25 57.92 57.81 57.92 58.44 59.55 60.43 59.58 58.61 57.78 58.78 58.40 57.46 57.74 57.88 57.94 56.59 56.88 57.26 57.57 59.10
58.95 59.71 52.54 59.71 59.23 58.88 58.19 56.86 56.07 56.02 55.93 55.13 54.84 51.39 38.83 53.08 50.16 48.71 47.98 47.89 51.57 53.44 53.36 54.05 54.19 55.28 57.79 60.17 59.79 59.47 58.61 60.47 56.90 57.36 57.86 57.81 58.66 57.75 58.88 59.41 61.66 61.72 61.59
58.93 59.04 59.05 59.35 59.35 59.23 58.81 57.49 56.31 56.30 55.85 55.19 52.22 45.72 39.37 49.47 46.84 45.74 45.48 44.64 44.76 46.99 49.28 50.19 50.49 50.31 51.19 53.38 55.17 57.57 58.84 59.23 60.19 59.98 59.22 59.75 59.19 60.64 62.16 61.91 61.49 61.17 61.06
60.83 58.31 58.52 59.16 59.02 53.42 56.96 56.63 56.22 56.20 55.48 54.02 51.96 49.83 47.51 45.30 43.13 43.92 44.05 42.84 44.51 45.67 46.88 50.01 50.96 50.20 49.63 49.78 51.56 53.14 57.12 56.63 58.61 60.97 61.35 61.78 59.60 58.55 57.95 56.38 57.34 55.71 51.97
61.47 58.43 57.42 57.77 57.91 57.30 56.49 56.11 56.19 51.06 53.24 51.93 49.37 48.30 46.73 45.98 42.74 40.92 42.35 44.04 44.05 43.75 44.58 44.65 44.98 47.01 45.83 43.29 44.17 45.66 49.57 54.01 52.64 54.04 56.48 56.12 53.49 49.96 49.56 48.21 47.43 47.11 47.85
60.92 57.46 57.32 57.16 56.98 55.90 54.78 54.07 53.40 51.57 48.99 47.91 45.52 44.60 44.70 44.09 41.06 39.95 39.89 40.10 40.40 40.63 39.90 39.93 41.19 39.72 40.46 40.25 40.94 40.26 34.82 34.38 45.83 41.15 48.47 47.92 47.89 45.53 45.44 45.08 44.99 43.67 41.43
58.18 57.19 56.29 54.37 52.82 51.75 50.46 48.83 48.16 47.44 44.66 43.21 44.10 43.29 42.28 40.23 38.75 37.82 36.95 37.11 36.49 36.77 37.18 37.73 37.99 37.79 37.44 37.17 36.07 33.35 33.41 34.12 38.19 35.38 44.94 44.39 43.78 42.67 41.01 40.53 40.38 40.61 40.08

GFSGL_sfc_wetblb_054.txt.gz
Wetbulb
60.31 61.42 62.10 63.05 64.97 66.34 67.88 69.28 71.18 72.62 72.19 71.68 72.49 72.87 72.77 72.75 73.35 73.91 74.23 73.52 72.91 72.94 72.73 71.91 70.92 70.38 69.39 71.53 69.27 68.47 67.03 66.76 63.59 66.36 66.53 65.57 65.76 66.25 66.60 67.81 67.51 68.53 66.26
59.58 59.95 60.90 63.00 64.68 66.38 67.30 69.28 69.89 70.51 71.86 71.90 72.18 72.06 71.81 72.20 73.50 73.71 73.35 73.12 72.61 72.15 71.69 70.97 69.55 69.86 70.28 70.51 68.80 68.85 67.51 67.83 64.95 64.70 63.14 63.08 64.63 65.33 65.52 65.06 66.51 68.70 68.32
60.56 60.11 60.81 62.28 64.25 66.42 67.73 69.20 69.91 69.80 70.97 71.90 71.79 71.24 71.06 71.79 73.17 73.73 73.56 72.79 72.33 71.59 70.67 70.37 69.94 69.77 69.24 68.88 68.33 67.15 66.68 66.50 66.11 65.11 62.70 63.59 62.89 63.35 62.17 64.57 65.58 65.14 66.25
61.19 60.88 60.67 62.49 64.76 66.41 68.19 69.04 69.25 69.54 70.06 71.25 71.65 71.23 71.21 72.37 73.07 73.28 73.30 71.87 71.08 70.76 70.86 69.85 69.42 69.55 68.83 68.36 67.40 67.18 66.89 65.67 65.50 64.56 63.31 62.33 62.02 62.26 62.13 61.36 61.77 64.38 62.75
60.92 61.16 61.46 63.21 64.95 66.85 68.29 68.51 68.87 69.27 70.01 70.77 71.17 71.29 72.19 72.56 72.24 72.88 72.01 70.46 70.67 70.04 69.31 68.80 69.95 67.38 63.11 64.84 66.71 67.39 67.06 65.35 64.20 63.85 61.01 60.85 61.05 59.64 61.07 61.10 61.65 62.52 62.65
59.65 60.91 62.76 63.90 65.41 66.43 68.55 68.14 68.93 69.60 70.45 70.86 71.04 71.65 72.21 71.43 54.58 57.75 66.71 70.26 70.42 69.40 68.90 69.15 69.18 63.25 62.15 57.47 57.41 58.42 62.78 66.59 65.46 63.34 60.96 61.35 60.80 61.94 61.85 61.42 60.84 60.87 58.86
58.75 60.27 62.34 63.98 64.85 66.98 68.03 68.03 68.83 70.81 71.87 71.67 71.94 71.95 71.51 70.89 52.54 53.54 58.09 70.39 69.93 69.39 68.90 68.63 67.49 66.89 64.14 66.60 56.25 55.28 56.39 56.32 58.93 65.53 62.44 61.98 60.21 61.81 62.99 62.00 61.77 62.95 61.41
58.62 59.54 62.53 63.43 65.54 67.74 67.77 68.64 71.15 71.94 72.26 71.80 71.27 71.45 71.08 66.95 48.89 50.78 54.09 69.37 68.38 68.31 68.37 68.26 67.91 67.87 67.16 66.55 65.88 65.21 65.59 65.57 65.51 66.20 66.23 65.17 63.27 65.30 64.87 63.70 64.47 62.71 63.64
57.86 60.14 62.72 62.63 66.33 67.50 67.78 69.85 70.21 70.80 70.19 70.30 70.79 70.01 68.21 62.82 46.65 48.35 58.49 68.24 67.88 67.85 67.78 68.05 67.85 67.54 54.82 50.51 66.23 64.96 64.63 64.68 53.78 50.07 51.60 52.60 51.60 51.71 58.62 64.15 62.23 60.16 58.69
57.23 60.81 61.52 64.32 65.86 66.51 68.84 68.60 69.53 69.64 69.34 69.18 69.13 69.46 61.31 60.52 45.25 46.90 55.87 66.97 66.82 66.41 67.05 67.33 50.90 61.24 46.72 47.62 66.61 65.65 63.86 64.26 64.19 63.98 64.03 57.67 57.75 58.52 52.75 65.88 63.64 59.65 60.04
59.21 61.14 60.64 64.54 65.69 66.79 68.01 68.34 68.21 68.27 68.38 67.71 66.56 65.50 65.64 64.40 57.66 45.99 48.53 66.92 65.95 65.03 64.84 65.00 64.21 45.38 45.09 45.63 52.02 64.10 63.77 64.34 61.20 64.63 63.70 63.07 64.04 64.10 63.24 64.94 64.93 62.09 61.35
59.84 61.05 62.49 64.83 65.70 65.43 66.39 67.03 67.92 67.95 66.02 65.38 62.81 64.57 64.71 65.08 52.98 47.46 47.08 52.75 56.49 65.37 64.49 65.05 59.67 43.24 44.00 44.72 53.56 44.72 49.44 53.85 65.81 64.01 62.94 62.33 62.34 62.62 63.05 64.15 64.89 65.34 65.90
60.62 60.62 63.49 64.18 64.08 65.05 64.92 65.41 64.38 64.85 63.53 63.21 63.82 63.51 62.58 63.53 61.58 44.53 44.91 47.44 48.80 63.65 64.87 51.24 42.71 41.46 42.86 47.26 43.22 44.54 47.79 61.39 63.58 61.29 61.49 61.70 62.10 63.08 64.39 64.44 64.83 65.39 65.47
60.43 61.49 62.47 62.37 62.67 64.74 65.51 65.58 63.42 63.59 63.53 63.18 63.28 62.82 62.08 62.57 63.32 63.55 61.15 59.98 50.84 56.97 50.55 54.61 51.92 52.44 50.18 53.76 54.82 54.03 63.42 62.63 62.99 61.53 59.71 60.35 61.40 62.23 62.25 63.26 62.20 62.46 61.71
61.42 61.42 61.80 62.26 63.27 62.98 60.27 61.24 62.15 63.17 62.11 63.89 63.70 63.45 62.59 62.06 62.11 56.04 59.10 62.79 62.54 57.56 58.39 60.76 61.42 61.49 60.92 61.83 62.17 62.37 62.81 62.20 61.22 61.57 60.90 60.37 60.05 60.34 60.58 62.04 61.40 60.81 59.85
60.76 60.67 60.38 60.22 59.28 61.15 61.43 57.81 42.58 43.42 43.44 44.99 47.38 58.52 60.35 49.49 43.27 42.91 43.64 44.18 45.63 44.91 60.70 61.21 60.09 60.34 60.79 61.00 60.89 60.40 61.36 58.85 60.62 61.38 61.61 61.18 60.28 59.53 59.61 60.87 61.04 60.24 60.14
61.30 61.10 61.31 58.42 61.19 61.52 61.66 59.38 55.49 51.02 42.16 41.21 42.91 43.62 45.63 43.99 41.63 42.01 42.55 43.09 42.55 49.90 59.99 59.79 58.86 59.45 59.96 59.96 60.16 60.09 59.63 60.67 61.62 60.89 60.81 60.47 59.90 60.13 58.77 57.73 60.81 60.63 58.41
62.31 52.94 62.58 62.05 63.00 62.64 62.34 61.18 60.30 58.53 57.04 55.58 44.33 47.48 40.57 40.72 41.28 42.01 42.73 48.00 55.73 54.64 57.92 58.67 58.29 58.80 59.11 59.22 59.41 59.72 59.89 59.60 60.19 60.11 60.45 60.39 60.01 60.33 57.56 56.39 56.09 55.87 57.32
62.18 61.17 61.86 63.39 63.44 61.58 62.31 60.41 59.40 58.45 56.04 52.15 52.12 46.79 43.66 40.56 41.28 42.37 44.00 59.69 57.02 56.13 57.09 58.07 59.99 59.60 59.79 59.73 59.41 59.51 59.58 59.26 59.32 59.78 60.17 60.53 60.47 58.98 57.96 57.06 57.62 48.00 51.22
62.69 52.52 57.96 63.57 63.00 60.96 60.22 59.12 57.87 58.34 58.06 57.33 56.49 54.56 55.28 53.68 56.09 55.07 57.56 59.58 59.72 57.53 57.02 58.51 59.77 60.15 59.45 59.42 60.02 60.49 59.92 60.22 60.96 61.77 60.91 60.77 59.03 60.64 58.13 58.19 59.14 57.83 55.77
62.71 60.93 53.91 62.87 59.99 60.55 60.21 59.41 59.86 58.56 56.95 57.39 55.39 50.10 41.28 56.08 53.57 52.92 54.94 54.29 55.59 57.09 59.41 59.35 59.26 59.24 60.31 61.17 61.64 60.00 60.19 60.11 60.27 59.27 58.85 57.72 59.09 60.59 61.74 61.72 60.97 61.32 61.81
62.42 63.04 63.18 62.66 60.57 59.79 59.37 59.10 57.81 57.44 56.73 52.40 49.29 45.93 39.42 50.35 49.22 48.86 49.42 50.63 51.88 52.79 56.02 56.27 57.39 55.81 58.56 59.95 58.99 61.05 61.19 59.37 58.68 60.52 60.90 61.52 61.96 61.26 62.23 63.10 63.30 62.51 62.24
63.60 63.14 62.64 60.75 60.12 54.52 57.96 57.97 58.35 56.79 54.73 51.32 51.18 50.30 47.29 46.42 46.78 45.72 46.68 47.54 48.82 51.12 53.57 54.75 54.38 53.68 55.79 56.05 55.35 58.98 58.97 58.75 60.40 63.35 61.96 62.68 62.33 62.08 60.49 57.53 57.09 54.56 52.59
61.23 61.41 59.99 59.90 59.82 58.71 57.20 55.72 56.26 51.71 53.37 52.12 50.53 49.16 45.53 45.17 46.40 45.35 46.63 46.12 47.30 49.33 52.49 54.25 53.93 51.11 51.50 51.60 50.51 57.41 58.86 58.45 57.91 59.38 60.84 60.56 57.97 55.41 55.02 52.83 49.27 49.95 48.30
60.12 59.77 59.69 58.33 57.65 56.97 55.95 55.18 55.06 54.66 51.51 51.13 48.92 48.96 43.85 42.98 45.81 45.74 45.56 45.55 44.81 45.65 45.48 44.59 46.59 46.40 45.39 45.26 44.23 44.34 36.60 34.84 50.63 43.98 51.72 51.84 51.94 50.98 51.95 51.05 48.09 47.22 44.83
59.57 58.71 57.68 57.11 56.18 55.54 55.03 53.43 53.28 51.86 49.04 48.98 49.06 47.48 45.20 43.64 44.28 44.52 44.16 43.55 42.69 42.99 43.18 42.07 40.81 40.22 39.77 39.09 37.74 33.57 33.18 33.54 40.54 36.26 48.43 47.85 44.91 43.03 42.45 42.64 42.51 41.65 43.41

GFSGL_sfc_wetblb_057.txt.gz
Wetbulb
60.13 62.22 63.18 63.11 63.38 66.01 67.44 69.56 70.24 72.67 73.71 73.88 72.51 73.59 74.90 75.11 75.72 76.35 75.25 74.32 73.91 74.44 74.21 73.42 73.12 73.82 71.41 70.39 70.46 69.90 69.95 68.61 64.63 67.96 69.06 67.54 66.49 67.73 67.82 68.07 67.95 68.38 65.01
59.57 60.94 61.56 63.37 64.15 65.68 66.88 68.28 70.39 71.54 72.68 72.62 72.88 73.03 73.24 74.83 75.62 75.04 73.25 72.50 73.25 72.37 72.91 72.72 72.01 71.59 71.23 72.06 71.37 70.53 67.90 67.83 66.03 65.82 66.31 65.50 65.68 66.10 67.01 66.43 67.63 68.89 68.13
59.58 60.40 63.09 64.29 65.02 65.31 66.27 67.90 70.10 70.52 71.32 72.03 72.10 72.34 72.95 73.94 74.07 74.51 73.17 72.56 73.08 73.01 73.28 72.62 71.29 71.28 71.25 69.86 70.23 70.14 67.95 67.06 67.42 65.63 65.94 64.81 65.17 65.29 64.49 66.19 66.90 67.57 65.48
59.60 59.75 61.25 63.92 65.00 65.43 66.93 67.67 68.65 69.70 70.10 70.32 72.56 72.31 72.88 72.97 73.21 73.25 73.37 73.69 73.53 73.10 73.03 71.77 71.17 70.68 70.05 70.11 69.78 68.78 68.22 67.38 67.39 66.03 65.45 63.38 62.95 63.45 62.71 63.12 63.43 66.79 64.44
58.96 59.01 60.38 63.36 64.22 63.56 64.99 66.91 68.32 69.82 69.71 70.01 70.95 71.83 73.44 73.34 72.30 73.90 73.92 74.01 73.54 72.89 72.86 71.51 71.73 69.12 65.10 66.29 67.55 69.36 69.26 66.31 66.07 67.49 65.19 62.95 62.13 61.03 61.44 62.00 63.19 63.69 63.83
58.69 58.96 60.43 61.19 62.07 64.19 66.55 67.33 68.85 70.04 70.57 71.00 71.25 71.52 72.94 71.15 57.38 58.37 69.71 73.11 72.07 71.39 70.49 70.41 70.54 64.68 62.96 57.56 59.82 57.38 63.70 67.87 66.77 65.75 62.30 61.54 62.78 62.34 63.95 62.93 64.00 61.03 59.89
57.74 58.41 58.87 60.51 60.99 62.08 64.13 65.75 68.08 70.56 72.01 72.02 72.21 72.69 73.53 73.55 53.65 55.13 59.61 72.41 71.90 71.87 70.94 70.48 68.80 67.92 65.05 67.14 57.70 56.48 57.81 57.07 60.04 67.37 64.94 64.11 63.43 64.00 63.58 63.46 62.98 63.42 63.74
56.56 57.44 57.67 59.36 60.49 61.63 64.89 65.37 68.77 71.27 72.18 73.05 73.66 73.63 74.25 69.27 51.30 52.26 56.70 71.57 70.82 70.29 69.90 69.60 69.37 68.62 66.99 66.34 65.96 64.56 65.15 65.70 65.40 65.70 66.91 65.99 65.56 66.11 66.24 66.11 65.31 65.09 65.48
55.93 56.74 57.44 58.70 60.13 62.20 63.83 66.22 69.43 71.29 72.21 73.10 73.62 73.60 71.96 66.27 49.11 52.05 60.58 69.97 69.07 68.67 68.73 68.60 68.09 67.67 56.24 50.72 66.24 64.91 65.21 64.90 53.93 51.61 54.00 52.93 52.93 54.64 59.26 66.06 63.76 61.97 60.65
55.63 56.37 58.00 59.11 60.88 63.46 65.45 67.74 69.83 71.64 72.29 72.34 71.42 72.71 63.61 68.06 46.92 50.43 58.16 68.10 68.02 66.70 68.09 67.81 54.71 63.22 47.48 47.84 66.82 66.68 64.80 65.28 64.49 64.58 63.58 58.21 58.67 59.27 52.74 65.82 65.94 61.65 60.45
56.43 57.48 58.48 59.54 62.64 64.65 67.51 69.31 70.39 71.10 68.98 68.53 69.27 68.93 68.74 66.30 59.64 46.75 49.11 66.76 66.43 66.09 65.41 66.00 65.12 46.17 44.94 45.67 48.93 67.96 64.18 65.33 59.87 65.03 64.00 63.41 63.79 64.22 63.90 65.51 67.12 63.64 61.27
56.47 56.82 57.93 60.89 63.46 65.00 67.60 68.87 69.29 66.85 67.01 67.84 68.18 66.80 67.17 65.19 54.32 48.08 48.93 53.06 57.96 66.17 65.11 65.09 59.29 43.82 44.22 46.94 55.93 48.39 49.47 55.32 66.20 66.25 64.43 63.01 63.02 62.75 63.67 65.23 66.73 66.13 65.29
55.95 57.08 57.95 62.91 62.84 66.13 67.38 64.80 65.24 66.61 66.69 66.07 66.05 65.61 64.91 64.78 63.28 46.07 45.12 47.30 50.15 66.39 61.87 51.96 44.47 42.95 43.67 49.24 44.40 45.85 51.29 61.40 62.67 63.45 62.98 63.90 64.14 63.78 64.04 65.54 65.78 66.43 66.09
54.58 55.83 60.17 60.86 62.09 64.47 64.99 65.80 66.34 66.59 66.25 65.69 64.87 63.57 63.75 64.39 63.87 64.17 62.25 61.59 52.16 57.64 52.46 58.17 55.73 54.05 50.26 56.08 55.90 56.84 64.06 63.83 62.64 62.58 63.28 63.78 63.77 62.80 62.79 65.11 62.98 63.63 63.25
56.05 59.71 60.97 62.10 63.26 63.05 58.86 63.02 66.18 67.71 64.18 65.57 64.98 64.25 63.56 63.11 63.16 59.23 60.48 64.32 64.77 59.47 60.65 61.73 62.05 61.86 61.76 62.05 62.85 62.95 63.97 63.01 61.95 63.00 62.21 61.10 60.84 61.38 61.95 63.08 62.53 62.16 60.82
57.29 60.43 61.48 62.28 59.62 59.93 59.87 56.60 44.20 46.03 44.92 45.00 50.81 59.92 59.59 49.62 44.54 45.79 44.75 44.71 47.01 48.13 61.53 61.79 61.28 60.80 61.22 61.50 62.24 61.93 62.04 59.38 62.37 62.28 62.18 61.43 60.24 60.29 60.78 61.41 61.97 61.45 60.59
58.54 61.13 60.64 59.38 61.71 61.62 61.55 59.54 57.92 52.77 44.36 41.48 42.53 43.85 46.87 44.06 42.77 43.13 43.31 43.49 42.95 46.56 62.45 62.11 61.40 61.72 61.27 61.35 61.34 61.25 61.21 61.91 62.66 61.51 61.46 61.86 60.99 61.10 59.54 60.26 61.04 60.04 59.97
60.18 53.70 63.23 63.07 62.64 62.58 61.83 61.11 62.18 61.63 60.47 58.99 45.43 47.54 41.35 41.32 41.50 42.77 43.85 48.95 59.31 58.83 62.51 60.76 60.47 61.20 61.53 61.47 61.34 60.95 61.15 61.61 61.96 61.11 61.80 61.45 61.27 60.24 60.28 59.82 60.13 60.11 59.16
60.99 62.01 62.48 63.52 61.51 58.91 62.85 62.68 61.85 61.27 58.98 54.23 52.75 46.72 44.04 41.32 42.40 43.49 44.40 59.61 57.58 57.60 59.62 61.11 60.85 61.41 61.08 60.52 60.59 60.59 60.70 60.48 60.07 61.08 60.97 61.60 60.97 60.93 60.14 60.76 57.69 48.47 51.62
61.93 52.28 57.42 61.92 60.20 61.38 62.06 61.33 59.37 58.06 57.63 57.14 54.58 52.56 52.89 54.38 56.81 58.56 60.38 59.85 59.39 57.54 57.91 59.06 60.29 60.46 60.53 60.36 60.31 60.15 60.15 59.22 60.14 61.74 61.53 61.06 61.48 61.30 58.85 60.33 59.58 59.97 59.20
61.16 59.46 54.48 62.44 62.55 62.14 61.28 60.89 60.33 59.61 58.27 57.17 57.13 54.27 42.21 57.05 55.78 54.37 55.70 58.07 57.30 57.82 58.88 59.18 59.52 59.85 60.13 60.87 61.26 60.71 60.83 61.38 61.63 61.52 61.27 61.11 59.63 57.51 60.14 58.99 60.65 60.71 60.97
62.14 63.20 63.03 62.42 62.37 61.36 60.54 59.43 58.78 57.54 56.26 53.68 51.26 47.12 38.93 53.92 52.92 52.59 52.80 53.74 56.26 58.46 59.09 58.93 58.69 59.17 59.52 60.52 61.12 61.72 60.89 61.64 61.13 61.41 61.47 60.03 60.41 62.33 62.04 61.34 59.83 60.00 60.84
63.41 62.98 62.82 61.45 61.50 54.77 59.35 59.12 57.68 57.32 55.37 54.50 53.47 53.00 53.75 52.45 52.64 52.47 51.39 52.14 54.82 56.71 57.21 57.67 57.63 57.36 57.33 55.27 57.84 61.91 58.30 59.26 60.67 62.36 62.86 62.90 62.28 61.86 61.20 59.47 57.72 56.09 55.21
63.22 63.02 61.55 61.25 60.10 59.57 59.19 58.27 57.04 51.10 53.66 52.23 50.17 48.46 47.04 48.54 49.10 48.49 48.75 49.50 50.68 53.11 52.84 52.03 51.63 50.97 50.88 49.29 52.80 55.81 54.78 58.42 60.83 60.36 61.34 59.73 58.51 56.92 57.14 55.92 54.81 54.52 52.96
62.55 60.72 59.86 59.13 58.79 58.48 58.19 56.94 55.80 53.73 52.27 48.95 46.69 46.87 46.58 46.78 46.53 45.58 46.21 48.16 47.08 48.97 50.12 47.73 46.30 44.92 43.04 42.05 44.23 44.56 35.98 34.81 50.51 44.70 53.35 51.49 50.34 48.68 50.81 48.21 46.34 44.34 43.31
60.94 59.98 59.46 59.04 58.50 58.24 56.61 55.40 54.99 55.62 52.34 50.13 47.14 44.94 46.87 45.25 45.92 45.52 44.93 45.65 44.55 42.20 42.00 41.92 41.68 42.52 42.39 41.54 40.27 34.59 33.73 34.26 41.63 36.18 46.92 45.94 45.32 45.73 46.31 45.01 44.94 44.17 43.93

GFSGL_sfc_wetblb_060.txt.gz
Wetbulb
59.93 61.17 62.42 62.25 63.78 64.58 64.43 64.65 64.88 67.43 68.28 68.92 69.05 70.56 72.50 73.99 74.52 74.25 74.13 73.88 73.41 72.48 71.97 71.15 71.56 71.24 71.47 70.36 69.99 68.90 66.97 65.99 62.48 63.28 65.84 66.20 64.60 65.09 65.64 65.65 65.73 65.13 62.04
60.04 60.49 61.35 62.59 63.71 63.78 63.06 64.11 66.79 66.32 68.38 68.70 69.79 70.20 69.85 69.93 72.61 73.71 73.66 73.65 72.52 71.18 71.23 71.08 71.30 71.95 71.36 70.46 69.56 68.30 66.37 66.85 64.49 61.44 63.71 63.87 63.36 64.29 64.12 64.05 65.36 66.21 64.12
59.60 60.06 61.27 61.85 63.32 63.07 63.78 64.26 65.00 65.45 66.51 68.11 69.29 69.66 70.75 71.46 72.34 73.62 73.90 72.93 71.55 71.50 71.56 71.28 71.16 71.33 70.21 69.38 68.93 67.85 66.37 66.82 65.75 63.35 63.26 63.39 62.97 62.90 61.54 63.18 63.48 64.06 63.72
57.56 58.55 59.35 62.16 63.26 64.11 64.64 63.81 63.51 64.23 65.05 67.15 68.85 69.81 70.76 70.68 72.03 73.47 73.23 71.41 71.20 72.10 72.08 72.13 71.73 70.61 69.67 69.17 68.23 67.79 66.33 65.62 65.08 63.63 63.17 62.38 61.61 61.52 61.50 60.78 60.38 62.77 61.33
56.18 58.28 59.29 62.25 63.69 62.82 62.42 62.90 63.29 63.70 65.30 66.41 67.40 69.11 69.79 70.90 71.92 72.21 71.97 71.51 71.98 71.63 72.45 72.19 71.23 69.30 66.37 67.73 68.47 67.10 65.89 64.67 64.38 62.81 61.72 61.45 60.81 59.76 58.74 60.60 60.19 60.98 61.38
56.84 57.27 57.79 59.62 60.44 61.41 61.22 62.67 62.52 62.94 64.29 66.46 67.22 67.82 68.92 70.08 60.63 59.87 68.06 71.67 72.40 71.38 70.75 70.60 67.71 62.22 61.07 58.74 57.45 57.80 64.82 65.09 63.28 62.52 61.60 60.10 60.46 59.89 61.30 60.39 60.51 60.15 57.08
54.50 56.01 57.01 57.46 58.84 59.62 60.55 60.94 61.96 63.74 63.71 64.96 67.66 68.20 68.34 70.39 51.20 55.07 59.63 72.07 71.63 71.01 70.47 69.93 67.64 67.33 64.02 63.08 57.25 57.42 56.14 56.00 60.63 63.83 61.92 61.62 61.13 61.48 61.54 60.96 60.90 59.80 59.71
53.41 54.75 55.74 56.57 57.22 58.29 59.46 60.41 61.47 62.81 64.14 65.74 67.59 68.82 68.89 68.98 50.67 52.18 58.05 71.26 70.61 70.21 70.44 69.49 68.71 67.47 66.44 65.74 63.95 64.03 64.11 63.48 63.30 63.98 64.69 63.85 63.74 64.02 63.15 62.95 61.37 61.05 61.78
52.89 53.57 53.95 54.83 56.51 57.50 57.75 60.19 61.82 62.39 63.07 66.25 67.83 69.44 69.18 63.51 49.98 51.88 63.82 70.20 69.44 69.40 69.20 69.11 68.12 67.38 56.63 52.63 64.62 63.31 62.95 61.01 53.16 52.41 54.64 52.82 53.35 55.74 59.35 63.03 60.95 60.04 58.83
52.86 53.59 55.26 56.35 56.67 56.82 58.14 60.04 61.11 63.59 65.14 66.36 67.16 69.81 63.46 65.15 47.76 51.75 63.08 69.00 67.71 66.71 67.50 62.93 54.59 63.61 48.12 49.04 65.51 63.94 62.87 62.26 61.95 61.92 60.90 55.92 57.51 55.98 53.73 63.18 61.98 59.07 57.82
53.68 54.33 55.29 56.61 56.82 57.17 58.70 61.10 62.26 63.01 65.15 64.83 67.21 68.85 68.50 64.01 56.30 48.14 53.51 67.48 66.52 65.89 64.96 65.89 60.72 45.74 44.33 44.87 50.84 64.65 62.03 62.77 58.91 63.23 62.64 62.20 62.49 62.71 62.41 63.03 63.53 62.26 58.96
53.51 54.28 54.78 56.36 57.07 57.37 58.89 60.45 62.16 64.24 64.65 65.65 66.43 67.09 66.91 64.71 51.36 47.36 52.19 53.88 59.32 64.04 64.63 64.46 52.81 43.39 44.69 47.41 54.20 46.50 48.50 54.63 63.62 62.65 61.35 61.04 60.80 61.57 62.08 63.16 63.28 63.26 63.28
53.16 53.48 54.74 56.32 55.66 57.16 58.25 59.96 62.42 64.36 64.22 64.89 64.87 64.75 63.72 61.68 56.54 46.32 46.32 50.21 53.72 63.75 63.14 52.00 43.41 43.60 44.87 47.76 44.15 45.60 50.47 62.37 61.49 60.43 60.55 60.98 62.30 62.43 62.47 62.47 62.93 63.11 63.19
52.20 53.70 54.88 55.39 56.10 57.73 59.08 60.83 61.96 63.59 63.82 64.01 64.51 63.11 62.88 61.72 61.39 59.54 57.46 55.69 50.78 53.35 51.46 54.34 53.49 52.42 50.63 53.35 55.10 56.38 62.36 61.73 60.65 60.33 59.95 62.01 62.11 61.99 60.44 62.65 61.13 61.40 60.50
52.30 53.47 54.42 54.47 55.13 55.80 58.32 59.23 62.55 64.62 64.31 64.87 64.35 63.30 61.95 61.57 61.89 58.54 60.45 63.30 62.93 57.80 58.64 60.02 60.23 60.54 60.40 60.16 60.78 61.93 62.59 61.62 60.74 61.17 61.26 60.48 60.48 60.69 60.89 61.71 61.09 60.39 58.82
51.96 52.32 53.60 55.06 56.36 57.49 55.52 51.64 45.40 48.84 48.86 49.57 52.04 60.10 58.49 53.51 48.69 46.00 45.13 46.57 47.70 48.72 59.85 60.15 60.20 60.48 60.09 60.69 61.20 61.43 61.68 59.19 61.41 61.47 61.23 60.34 59.09 58.86 59.42 59.98 60.20 59.58 58.33
52.70 53.48 54.71 54.10 57.80 57.90 57.52 55.94 54.74 50.16 44.17 42.68 45.59 48.02 50.32 48.26 43.24 43.24 45.11 45.18 43.75 51.71 61.56 60.88 60.35 60.74 60.56 60.26 61.37 60.97 59.16 61.04 61.10 61.06 61.02 60.36 59.94 59.92 57.88 58.58 58.98 58.55 58.11
57.13 50.03 56.52 59.61 59.77 58.48 59.74 60.00 60.35 58.44 56.65 53.68 43.04 44.74 41.36 41.97 41.97 42.70 43.79 49.96 57.88 58.14 61.85 60.73 60.73 60.99 60.91 60.70 60.53 59.81 60.82 60.90 60.62 60.32 60.43 59.89 60.17 59.64 58.31 58.09 58.04 57.47 57.59
57.84 58.73 61.46 61.27 61.59 60.58 62.31 61.78 60.34 57.59 54.97 53.25 52.67 47.45 43.80 41.43 42.34 43.60 46.49 60.72 60.43 60.61 60.97 60.42 61.09 60.82 60.66 60.67 60.83 60.79 60.67 59.76 59.94 59.87 60.17 60.54 60.50 59.56 58.30 58.33 57.27 47.34 49.11
59.63 51.15 56.66 61.12 61.04 61.93 61.14 58.70 57.02 56.93 56.41 55.20 53.67 53.38 54.62 55.87 58.04 58.93 59.64 59.43 59.05 59.10 59.78 59.46 60.53 60.48 60.31 60.31 60.16 59.67 59.25 59.11 59.22 59.94 60.39 60.86 60.73 59.98 58.31 58.15 58.67 57.98 57.46
61.27 61.22 53.48 61.36 60.97 60.31 59.61 57.85 58.02 56.89 55.40 54.49 54.74 52.44 42.15 57.81 56.67 58.24 58.55 58.41 57.65 57.56 58.52 58.99 59.75 59.34 59.40 59.47 59.66 59.62 59.10 59.17 60.82 61.00 60.57 58.64 59.14 58.45 59.74 59.23 58.97 59.03 59.36
61.79 61.93 61.35 60.49 60.44 60.06 59.53 59.31 57.65 56.15 55.32 53.87 51.75 47.68 42.16 55.31 54.58 54.34 55.78 55.82 57.15 57.38 57.48 58.14 57.87 57.94 58.31 59.27 60.93 60.05 61.10 60.73 60.67 60.93 59.63 59.29 59.53 59.90 60.11 59.44 58.90 58.18 55.88
61.38 61.56 61.35 60.98 59.29 53.75 57.42 56.43 55.61 54.84 54.22 54.08 53.34 52.49 52.55 51.63 51.00 51.19 52.01 54.02 54.59 55.85 56.03 56.89 56.07 54.47 53.42 53.20 58.83 59.21 59.55 60.36 61.07 61.69 60.90 61.12 60.38 59.57 57.34 54.99 53.72 52.30 48.76
62.29 61.67 60.21 59.01 58.32 58.01 56.79 55.55 55.19 49.71 52.05 50.79 50.92 50.98 49.83 49.49 48.98 48.62 49.07 51.55 50.73 50.20 50.56 49.23 49.36 48.23 48.00 49.83 51.10 50.94 51.54 57.80 58.01 57.66 57.97 57.34 56.26 54.80 54.82 52.89 50.76 48.07 46.39
61.81 59.73 58.82 58.08 57.56 56.07 55.10 54.44 53.56 52.43 50.33 48.44 48.06 48.54 48.00 47.52 47.64 46.86 46.58 49.19 47.54 45.37 45.19 44.83 43.08 42.62 43.03 43.86 43.94 43.42 35.81 35.23 48.04 42.99 49.50 48.50 47.52 46.97 46.17 44.64 44.58 43.82 43.84
60.21 59.19 58.65 57.99 56.79 55.31 54.22 53.30 52.38 50.39 47.92 47.42 46.15 46.59 45.69 44.69 45.27 45.33 43.46 42.93 42.93 41.68 41.84 42.59 42.10 41.19 39.94 38.75 37.70 34.22 34.21 34.91 39.77 36.48 47.02 46.88 45.80 44.27 43.38 42.42 42.21 41.69 42.43

GFSGL_sfc_wetblb_063.txt.gz
Wetbulb
52.86 52.71 53.86 54.55 56.30 57.73 59.17 60.09 61.65 62.22 62.60 64.24 65.36 65.42 67.11 67.29 67.36 66.69 65.53 65.77 67.29 67.91 70.88 71.22 70.80 68.89 68.42 67.68 65.51 64.74 63.76 62.91 59.93 60.08 62.48 62.58 61.65 62.41 63.04 63.48 63.90 62.79 60.83
54.11 54.34 54.47 56.10 56.79 57.49 57.69 58.69 60.65 61.13 62.34 63.93 65.50 65.98 66.97 67.97 69.01 66.98 67.27 69.56 70.48 70.80 71.09 70.28 70.10 70.35 68.70 67.61 65.40 64.47 63.57 63.36 60.81 58.60 60.06 60.46 60.43 60.76 61.34 61.12 63.27 64.52 61.24
51.96 51.15 52.42 54.39 55.03 55.67 57.53 58.23 57.95 58.59 60.39 60.98 62.54 63.71 65.56 67.29 67.87 71.21 71.82 71.64 71.51 71.29 70.95 69.21 69.49 69.33 68.19 66.91 64.44 64.01 63.36 64.25 62.48 60.44 59.42 60.16 59.54 59.79 58.94 59.65 60.75 59.72 61.09
50.91 50.16 50.63 52.78 55.70 57.02 58.07 59.12 59.30 60.03 60.28 60.75 61.85 63.56 65.86 67.32 68.26 68.61 69.64 71.32 71.98 70.53 70.42 69.51 68.77 69.65 68.46 66.15 65.71 64.52 63.81 62.70 61.63 60.54 58.80 58.50 58.00 58.50 58.16 57.46 57.64 59.60 57.92
52.25 51.82 50.82 53.10 55.28 57.55 58.06 59.34 60.28 60.29 60.95 60.90 60.89 61.61 63.61 66.05 67.96 67.97 70.22 71.17 71.37 68.50 69.74 69.99 69.31 68.21 65.58 66.29 65.93 64.49 62.79 61.14 59.88 58.68 57.50 57.34 56.52 56.33 55.14 56.78 56.98 58.10 58.20
51.22 51.36 52.70 53.50 54.58 54.44 56.42 56.65 58.11 58.75 59.88 60.16 60.33 62.09 63.09 64.98 59.14 56.58 64.06 70.50 67.90 68.48 68.57 68.14 67.75 63.80 61.98 60.66 59.74 61.48 61.99 61.06 59.19 58.04 57.20 56.86 56.60 56.58 57.22 57.30 56.92 56.01 54.29
50.14 51.62 52.08 52.18 53.06 54.60 55.21 56.48 56.22 56.06 58.36 59.15 59.91 60.38 62.24 64.47 55.72 53.53 55.26 70.02 68.44 67.63 67.86 65.57 64.71 63.90 60.80 60.41 56.30 55.38 55.62 57.16 59.22 59.70 57.95 58.23 57.38 57.95 58.62 57.24 59.01 56.32 55.90
49.60 50.36 51.28 51.37 52.20 53.59 54.77 53.97 53.81 55.24 56.23 59.33 60.79 61.05 61.30 63.83 55.44 50.72 52.92 68.65 67.68 66.94 67.16 64.86 64.08 61.62 60.93 60.49 60.63 59.99 59.83 60.14 60.44 62.73 60.72 60.46 60.38 60.21 60.06 59.72 58.79 58.13 58.84
49.20 49.10 50.22 51.43 51.30 52.18 52.42 52.57 52.73 55.16 56.60 57.37 59.74 61.48 63.54 64.79 51.52 48.53 52.55 67.70 66.29 66.00 67.10 65.73 64.82 63.54 53.99 52.67 61.63 60.54 58.92 57.40 51.86 51.54 55.75 53.11 52.21 53.72 58.20 60.10 57.92 58.16 57.02
49.10 49.79 50.26 51.17 51.69 51.30 51.85 52.28 52.58 54.07 56.39 57.86 59.35 61.71 60.48 64.01 52.65 46.89 55.09 67.05 65.54 65.25 63.53 61.78 56.98 62.60 48.08 49.02 61.10 59.66 57.70 57.26 58.57 58.47 57.71 54.73 55.84 54.74 54.46 59.72 58.88 58.00 56.22
49.77 50.54 50.83 50.99 51.39 52.07 52.91 53.57 52.24 54.55 56.73 57.81 59.36 60.68 62.42 63.32 55.07 49.02 51.74 66.11 65.28 64.45 62.08 59.95 57.05 48.12 46.27 45.94 53.70 60.46 58.84 59.18 57.04 59.98 59.34 58.42 58.88 58.10 58.84 59.51 60.37 59.58 56.94
49.88 50.46 50.60 51.00 51.41 53.01 52.13 53.10 54.12 55.08 55.48 56.31 58.30 59.94 62.30 58.51 51.38 47.93 51.56 57.62 58.06 63.48 62.30 58.87 50.68 43.91 44.13 44.85 53.37 47.93 46.30 54.36 60.93 59.89 58.85 59.19 58.26 57.86 58.90 59.77 60.29 60.21 60.52
49.64 49.49 49.81 51.17 52.03 52.40 51.93 51.54 51.99 54.22 56.12 56.85 58.60 60.05 60.96 57.64 55.07 48.30 48.84 50.32 52.36 61.87 61.44 51.77 43.20 42.86 43.58 45.92 43.95 43.77 47.57 60.21 59.79 58.46 58.04 58.92 58.53 59.68 58.94 58.98 59.44 59.76 60.10
49.20 49.49 50.25 50.60 51.32 52.15 53.07 52.87 52.75 54.41 56.24 57.65 59.08 59.83 60.73 57.12 55.71 55.43 54.51 53.19 48.89 50.89 49.11 51.02 51.21 51.20 50.64 49.44 52.55 54.06 59.37 60.35 60.06 59.60 59.37 60.09 59.97 58.35 57.11 58.03 57.62 58.07 57.21
48.81 49.10 48.99 49.81 50.64 51.53 52.19 53.43 54.57 55.66 56.10 56.98 59.25 61.72 59.78 58.66 57.85 55.76 56.54 58.61 58.55 55.26 55.31 57.14 57.56 56.70 55.99 56.24 56.78 58.62 59.49 59.99 59.04 59.89 59.97 59.65 58.94 57.73 57.61 58.23 57.77 56.74 55.70
47.99 47.93 48.88 50.11 51.43 51.86 52.05 51.93 42.68 41.95 43.14 46.25 48.58 58.96 60.95 53.70 49.20 48.84 47.84 47.57 46.67 48.68 57.47 57.28 56.90 56.66 56.54 56.12 56.60 57.44 57.88 57.76 59.60 60.06 59.32 58.87 58.26 58.13 58.99 58.75 57.09 56.08 54.85
48.61 49.89 51.08 50.17 51.68 52.78 53.33 54.06 53.78 46.59 43.40 45.40 47.75 48.12 50.88 50.09 44.31 45.76 46.85 45.76 44.13 51.28 57.66 57.24 57.38 57.06 57.12 58.12 57.34 57.18 56.58 57.58 59.08 59.46 59.39 58.79 58.56 58.16 56.99 57.50 57.09 55.40 55.64
50.80 46.89 51.31 52.26 52.97 53.43 54.71 56.00 55.06 55.24 54.21 51.64 45.52 49.31 44.29 43.22 44.13 44.31 43.77 49.17 57.20 55.69 58.13 57.77 57.64 57.52 57.73 57.40 56.94 57.45 59.01 58.90 58.94 58.65 58.91 58.76 58.66 57.87 56.09 55.20 56.19 56.68 55.19
50.37 52.60 52.49 54.43 55.82 55.30 57.21 57.78 56.70 54.87 52.48 50.57 50.75 46.27 43.72 42.68 42.68 43.22 48.21 58.61 58.37 57.29 57.38 57.99 57.95 57.22 57.14 57.09 57.61 58.83 58.80 58.35 57.22 58.78 58.73 58.87 58.26 56.59 55.90 55.02 55.24 47.30 48.15
53.23 49.43 50.39 57.27 57.02 57.26 57.88 56.38 56.24 56.34 56.14 55.42 54.38 53.16 54.60 55.70 57.31 57.77 57.34 57.44 56.54 56.80 58.07 58.78 57.33 56.99 56.55 57.00 57.66 58.23 57.36 56.69 56.32 58.27 57.70 56.96 57.19 57.92 55.88 56.39 55.34 54.43 53.55
55.42 55.48 49.26 56.34 58.00 57.61 57.25 56.64 56.12 55.44 55.20 55.58 55.68 51.23 42.50 58.06 57.63 57.23 56.83 56.85 56.40 56.80 57.09 57.25 57.46 57.41 57.68 57.85 58.02 57.95 57.44 56.90 57.66 57.14 57.22 58.08 57.97 55.78 56.63 57.58 56.10 56.06 56.04
56.12 58.77 58.72 58.05 57.97 56.97 56.32 56.16 55.62 54.91 53.58 52.83 52.21 48.31 42.86 56.86 56.52 56.46 56.62 56.82 56.56 57.21 57.74 56.95 55.38 55.30 56.29 57.77 57.09 56.73 56.42 56.85 58.81 58.54 56.96 57.79 56.87 57.10 58.44 57.25 53.93 51.74 50.67
59.95 58.82 57.67 56.94 56.47 52.14 55.22 55.16 54.16 53.10 53.01 53.14 53.04 52.58 52.76 53.49 54.29 53.74 54.03 54.79 53.78 54.38 54.83 53.34 51.24 49.46 51.32 53.15 54.04 55.46 56.28 55.76 57.09 57.57 56.42 57.79 56.30 53.75 51.80 49.57 46.03 43.88 43.09
57.99 57.24 56.01 55.35 54.80 54.49 54.14 53.42 52.40 48.51 51.56 51.14 50.71 50.26 49.91 49.98 51.05 49.59 49.04 48.24 46.93 45.95 45.35 44.96 45.00 46.14 47.16 47.45 46.65 46.68 48.59 51.34 53.16 54.05 54.19 52.80 50.03 44.60 45.01 43.75 42.68 42.53 41.56
57.12 56.03 55.33 54.31 53.54 52.80 51.79 50.88 49.99 50.00 49.91 48.71 48.41 48.12 47.23 46.58 47.49 46.18 44.08 43.56 43.45 42.21 41.55 41.28 41.62 41.10 41.39 41.70 41.79 41.48 36.98 38.19 45.81 41.20 45.89 44.65 42.85 41.97 41.75 40.99 40.09 38.89 39.81
56.56 55.38 54.46 53.23 52.55 51.93 50.20 48.95 47.83 47.53 47.09 46.67 46.10 45.90 45.42 43.12 42.27 42.24 41.16 40.87 40.69 39.22 38.75 39.29 39.16 39.07 38.98 38.32 38.05 34.90 34.48 35.15 38.51 36.10 42.79 42.34 41.71 40.06 39.27 39.62 39.10 37.87 37.92

GFSGL_sfc_wetblb_066.txt.gz
Wetbulb
49.06 49.41 49.31 50.80 53.04 54.33 54.48 55.49 56.55 57.60 58.90 60.21 61.90 62.71 64.49 65.19 66.07 65.59 65.48 65.14 64.25 64.18 64.91 64.03 63.37 63.83 67.50 68.94 67.88 65.69 63.11 60.84 58.79 58.82 61.12 61.09 60.80 61.66 61.91 62.37 62.93 61.99 60.58
51.05 51.09 51.04 51.49 52.10 51.68 52.76 54.56 56.45 57.30 58.44 59.19 59.93 61.49 63.45 64.63 65.03 66.27 66.09 66.81 65.47 65.18 65.42 66.69 66.30 68.80 68.04 67.97 66.75 64.48 62.49 61.49 59.64 57.92 58.93 59.64 59.71 59.76 60.49 60.13 62.45 63.24 60.32
51.58 50.97 50.65 51.13 51.59 52.26 53.48 54.72 55.72 56.75 57.04 57.93 59.93 60.93 61.97 62.25 63.42 65.30 67.13 67.27 66.62 66.73 66.80 68.03 69.57 69.82 68.99 67.34 65.15 63.95 62.12 62.80 60.76 59.83 60.12 59.11 58.89 58.85 57.80 58.46 59.39 58.45 59.72
49.19 48.55 47.99 48.05 50.28 52.26 53.24 53.69 54.83 56.29 56.43 56.76 57.64 59.15 60.03 61.20 62.31 63.62 66.08 67.26 69.07 68.97 69.79 70.34 70.16 69.03 68.70 67.03 64.97 63.28 62.25 61.30 59.95 60.09 58.85 58.03 57.19 57.04 56.80 56.00 56.36 58.09 56.52
49.32 49.09 48.98 49.68 51.20 52.79 54.45 55.40 57.10 57.94 58.42 58.31 58.49 58.47 58.50 59.45 61.07 61.08 64.26 66.69 67.39 68.92 69.79 70.37 69.78 68.01 64.97 65.34 65.87 62.53 62.31 60.23 59.61 57.85 56.82 55.86 55.38 56.26 54.78 55.38 55.64 56.74 56.84
49.56 49.65 50.80 50.95 51.53 51.71 52.06 52.87 53.74 55.45 56.89 58.25 57.95 58.35 58.18 60.68 54.97 53.50 57.02 63.42 67.38 68.58 68.19 68.39 69.25 62.75 62.10 58.11 59.29 59.19 62.00 60.84 58.19 57.31 56.22 55.68 55.02 55.36 55.00 56.04 55.78 57.89 56.18
48.80 49.79 50.95 50.99 50.91 50.47 51.74 52.45 51.99 52.44 54.13 55.55 56.75 57.04 57.36 57.61 52.03 51.07 52.92 59.92 63.75 67.71 67.81 66.92 66.16 67.41 62.90 64.17 56.64 56.28 55.92 54.71 57.66 59.02 57.04 56.90 56.06 56.92 56.44 55.42 55.44 54.74 54.14
48.70 49.35 50.40 50.48 50.62 50.22 50.10 51.15 51.42 51.82 52.06 52.98 54.86 56.09 57.02 58.24 51.00 49.22 51.09 59.02 61.70 66.55 67.16 66.76 65.00 62.44 63.11 62.44 61.26 60.80 60.25 59.76 59.35 60.28 59.19 58.85 59.12 58.56 58.83 58.12 57.38 56.44 56.24
48.57 48.95 49.83 50.40 49.67 49.47 48.97 49.43 51.00 51.04 51.80 52.65 54.57 55.64 56.70 58.86 52.20 50.03 52.16 59.32 61.98 65.40 66.49 65.07 63.64 62.60 52.42 51.35 61.22 59.47 58.34 57.73 51.75 51.04 54.38 53.25 51.49 51.24 56.08 58.87 56.60 55.88 53.95
48.02 48.59 49.75 49.68 49.31 48.79 48.55 48.60 50.35 50.99 51.82 53.59 54.56 55.88 55.15 58.14 52.51 49.76 52.00 59.51 62.04 63.73 64.08 63.44 54.55 60.80 47.98 49.43 60.45 59.38 57.31 57.43 57.55 57.08 56.74 54.79 52.82 52.13 51.04 59.05 57.89 55.50 53.94
48.82 49.14 49.24 49.44 48.69 48.61 48.83 49.89 50.14 49.61 52.02 53.68 54.15 54.92 57.13 57.88 59.09 49.43 46.35 58.54 63.76 63.46 63.42 63.39 61.97 49.25 46.89 47.08 52.66 60.29 57.46 56.90 54.69 57.39 57.03 56.97 57.05 57.75 58.55 58.81 58.60 57.72 55.08
48.57 48.67 48.69 48.67 49.23 50.00 49.14 50.04 50.53 51.08 51.26 52.06 52.73 53.97 56.62 58.10 52.11 51.06 45.26 46.51 56.24 63.16 62.66 62.95 59.43 47.80 45.26 46.89 52.31 47.26 45.26 52.27 58.55 57.15 56.28 56.16 57.35 56.38 57.13 58.11 58.94 59.22 59.27
46.86 47.18 47.83 48.73 49.15 49.81 48.94 48.37 49.32 51.07 51.72 52.15 53.16 53.90 55.39 58.29 57.79 47.98 43.63 44.54 48.89 62.19 61.42 54.41 45.81 42.72 43.45 46.33 44.90 43.81 46.71 59.09 58.25 56.82 55.74 56.54 58.91 57.95 57.40 57.32 57.78 58.13 58.85
46.53 46.87 47.76 48.32 49.16 50.04 50.81 50.14 50.37 50.78 51.03 52.42 53.40 54.20 55.70 57.29 57.55 54.97 54.53 52.72 48.81 53.12 49.07 49.70 49.01 50.48 49.05 49.52 50.08 48.58 59.35 59.87 58.79 58.57 57.17 58.93 59.63 57.99 56.06 56.82 56.34 56.54 55.67
46.81 47.43 48.24 48.29 48.46 49.44 49.56 50.53 51.39 52.31 52.43 53.09 54.30 55.24 55.34 56.74 57.66 53.10 54.55 58.77 57.94 54.38 54.54 57.63 57.39 55.98 56.36 55.88 56.26 57.13 58.17 58.99 59.13 58.57 59.37 58.97 58.43 57.52 55.45 56.56 56.18 55.56 54.09
45.77 46.61 48.08 48.86 48.22 48.86 48.91 49.26 42.18 45.57 43.45 41.82 42.18 48.38 55.19 49.99 47.60 46.71 45.26 47.08 46.89 48.16 57.64 57.39 56.46 55.62 55.64 55.18 56.12 56.06 57.01 56.52 59.25 59.77 59.43 59.03 58.49 57.74 58.22 57.56 55.71 54.69 53.71
46.47 46.95 48.32 47.74 48.19 48.75 49.87 50.02 49.27 43.81 40.88 40.14 40.17 41.46 42.00 49.74 44.54 45.44 45.81 45.81 45.44 50.78 57.46 56.40 56.02 55.78 55.28 55.44 55.68 55.64 55.38 58.16 59.29 58.99 57.81 56.98 57.14 57.94 57.19 57.22 56.94 54.25 54.48
47.89 45.14 49.05 48.11 48.84 49.55 50.90 51.37 52.10 51.89 51.14 50.27 44.34 42.08 41.44 43.81 43.09 43.27 44.54 48.36 55.83 54.56 57.22 56.60 56.00 56.32 56.52 56.42 55.86 55.68 55.94 56.22 56.80 57.52 57.20 57.53 58.01 57.09 56.23 55.27 55.17 56.29 55.67
48.72 49.36 49.63 50.91 51.37 50.65 51.58 52.32 53.36 54.39 52.05 50.44 48.56 45.03 43.71 42.72 42.91 43.99 45.26 58.23 56.76 56.14 56.66 56.86 57.10 57.06 56.66 56.66 56.26 57.66 58.34 56.88 56.90 56.92 58.21 58.23 57.94 57.07 55.74 53.60 52.93 45.08 47.91
48.87 45.17 47.92 51.51 51.46 52.38 53.98 54.59 54.21 51.82 50.41 50.78 52.53 48.59 48.90 50.27 55.30 57.42 57.65 57.70 56.74 56.92 57.16 57.14 56.88 56.86 57.44 57.08 56.90 58.65 57.37 56.67 57.66 58.00 57.94 56.94 55.49 55.71 55.07 54.31 54.55 52.92 51.71
50.50 52.92 49.66 55.08 54.37 55.65 55.48 55.11 54.29 53.25 53.78 51.38 53.23 52.92 46.89 58.50 57.74 56.78 55.82 56.02 56.50 56.72 57.12 56.70 56.44 56.48 57.64 58.20 58.00 57.98 57.35 56.61 56.22 57.46 56.66 55.40 55.92 54.23 55.19 56.44 54.83 54.73 54.47
54.41 54.59 56.12 57.34 57.10 56.32 56.12 56.60 56.12 55.67 54.89 54.23 54.16 50.21 43.27 58.10 57.08 55.84 55.82 55.52 55.14 55.54 55.78 55.83 54.98 56.81 57.33 56.78 55.83 56.56 56.66 57.04 58.07 56.70 55.68 57.33 56.24 55.66 54.84 52.85 51.39 51.16 53.33
56.32 56.94 57.16 56.14 55.51 51.44 54.98 55.46 55.11 55.31 55.05 55.43 55.61 55.35 55.64 55.70 55.54 54.76 53.50 53.64 53.01 51.25 51.94 53.07 53.03 52.54 52.85 52.19 54.24 55.43 55.53 57.70 58.20 56.50 55.70 54.63 53.93 52.36 49.28 46.60 47.09 47.82 46.96
56.81 56.20 55.73 55.51 55.15 54.49 54.07 52.89 52.08 48.27 52.28 52.31 52.50 52.79 52.46 51.40 49.69 48.39 48.12 47.62 46.94 46.40 47.63 47.84 49.63 49.89 48.94 47.85 48.39 49.61 50.96 53.62 55.88 56.14 53.79 50.63 46.78 44.36 43.02 42.13 41.41 41.19 40.47
55.45 55.23 54.62 53.20 52.20 52.14 52.00 51.54 50.94 50.84 50.35 49.33 48.68 49.24 48.44 46.67 45.01 45.20 45.27 44.99 43.99 42.96 42.38 43.12 43.64 44.50 46.01 46.45 44.06 41.88 36.81 37.60 46.34 42.08 46.80 44.51 41.73 40.39 39.82 39.38 38.32 36.98 36.40
53.56 53.47 52.79 52.01 50.83 50.28 49.82 49.20 48.61 48.44 47.59 46.98 45.96 45.33 45.35 44.00 42.85 42.73 42.66 41.76 40.39 40.08 39.60 39.65 39.51 39.77 40.01 39.61 37.93 34.52 34.27 35.10 38.65 36.98 42.51 41.20 39.93 39.04 38.47 37.34 35.77 34.87 34.29

GFSGL_sfc_wetblb_069.txt.gz
Wetbulb
49.86 49.65 49.60 49.64 50.90 51.87 51.92 52.29 53.23 54.12 55.52 56.59 57.64 58.90 61.24 62.19 62.72 63.26 62.83 63.58 63.25 63.26 63.21 63.20 62.50 62.98 63.11 64.80 64.13 63.91 64.83 64.16 62.41 60.16 60.22 60.92 60.53 60.78 61.84 61.45 62.28 61.74 60.82
50.01 47.91 47.72 48.05 48.80 49.45 49.99 51.18 52.22 53.00 54.70 57.07 58.42 59.67 60.95 61.71 62.34 63.58 64.08 65.25 64.47 64.20 64.32 64.79 64.47 64.59 63.02 64.72 67.93 66.80 65.28 63.47 61.10 59.78 59.47 59.79 59.48 59.86 60.13 59.90 61.48 62.24 59.34
48.55 48.46 48.24 49.10 49.61 49.87 50.55 51.47 52.04 52.88 54.03 55.18 57.14 57.87 59.55 61.12 61.96 62.90 64.48 65.67 65.17 65.56 65.45 65.67 65.67 65.83 66.09 67.64 66.91 66.21 63.38 62.95 61.09 58.98 58.36 58.91 58.57 58.85 57.50 57.66 58.46 57.56 58.93
49.27 49.55 49.29 48.91 49.27 49.34 50.48 51.73 52.70 53.69 54.08 53.94 54.52 56.08 57.62 58.28 59.19 59.75 60.46 61.19 63.42 65.06 66.54 66.99 67.68 67.01 67.34 66.94 65.96 65.69 62.59 62.59 60.63 59.79 58.32 57.36 57.60 57.06 56.50 55.60 55.89 59.92 56.17
47.81 47.04 46.60 46.63 47.68 49.81 51.67 53.04 54.06 54.92 55.70 56.03 56.20 56.37 57.24 58.06 59.10 58.08 58.31 58.75 60.71 63.37 65.27 67.48 68.92 68.20 63.87 65.54 66.87 64.01 62.55 61.30 59.51 58.59 56.62 55.55 55.75 56.88 55.13 54.97 54.77 56.52 55.47
47.64 47.47 48.67 49.49 50.53 50.82 51.03 51.26 51.53 52.28 52.55 53.14 54.60 56.37 56.36 58.17 53.60 51.72 54.32 57.10 59.31 60.44 61.79 65.14 66.90 64.14 63.49 58.93 58.89 59.19 62.44 61.51 59.65 57.66 56.23 56.44 55.23 55.21 54.25 55.01 55.13 55.77 56.56
47.67 48.22 49.35 49.70 49.65 49.34 49.70 49.61 49.49 49.22 49.76 50.29 51.46 52.83 53.78 54.89 50.67 49.26 50.58 54.90 57.76 59.05 60.92 63.10 65.01 67.55 62.37 65.47 56.01 54.96 56.39 55.25 57.82 60.40 57.94 57.40 56.00 56.34 55.36 54.35 54.73 53.99 54.16
47.83 48.64 49.35 49.26 49.46 49.37 48.68 47.94 47.54 47.22 48.12 48.46 49.16 50.64 51.91 54.55 49.73 48.10 48.89 52.81 56.12 58.08 59.81 61.43 64.30 66.07 64.89 64.18 62.21 61.82 61.26 59.34 58.88 60.90 60.58 59.50 58.44 57.74 57.65 57.16 56.36 55.04 55.09
47.18 48.16 49.09 49.43 49.13 48.98 48.71 48.62 46.64 47.19 47.17 47.74 49.49 50.35 50.94 52.64 49.17 48.09 49.74 56.00 57.29 57.97 60.63 62.83 65.25 65.94 56.82 50.07 63.13 61.70 59.31 57.94 52.24 50.98 51.64 52.25 50.76 50.79 55.25 57.54 55.53 54.93 53.10
45.98 47.09 48.88 49.23 49.06 48.34 48.56 48.10 46.58 47.43 48.77 49.07 49.23 49.74 51.03 53.06 49.38 47.56 49.41 55.66 55.88 58.45 60.64 63.00 53.69 61.09 48.80 47.89 62.61 60.62 58.58 57.46 58.46 57.36 56.90 53.09 51.52 50.94 50.07 58.67 56.96 54.99 52.91
46.98 47.66 48.19 48.53 48.55 48.56 48.20 47.95 47.27 45.97 47.09 47.70 49.05 50.66 52.37 53.59 53.96 47.19 45.17 54.37 57.32 58.83 61.05 62.85 60.48 48.80 46.08 47.17 52.24 60.81 58.56 57.80 54.56 57.74 56.64 56.48 56.50 56.46 57.22 57.68 57.92 57.00 54.02
46.82 47.27 47.27 47.43 47.73 48.56 46.95 46.85 46.34 46.63 46.90 47.66 48.78 49.96 51.97 53.69 48.82 48.24 45.54 44.81 50.21 57.78 60.88 62.04 59.81 44.63 45.17 45.36 50.98 48.62 46.26 52.19 57.42 55.89 55.37 54.72 55.25 55.99 57.14 57.92 58.12 58.06 57.97
45.48 45.69 46.55 47.37 47.86 48.00 46.89 46.15 45.96 46.96 48.07 48.23 49.25 49.90 51.24 54.37 54.81 48.62 46.81 44.99 43.91 48.65 59.53 58.63 50.03 43.36 43.91 46.63 48.98 45.17 48.26 58.08 56.72 55.33 54.66 54.81 55.69 56.52 56.68 56.70 56.96 57.33 57.51
45.02 45.84 45.54 45.51 46.13 47.22 47.72 47.80 47.16 47.89 48.17 48.68 48.94 49.80 51.49 53.22 54.55 54.69 55.17 55.86 47.48 49.43 48.93 50.54 50.58 51.26 49.16 53.07 49.79 49.88 58.52 58.70 57.80 56.62 55.07 55.85 56.70 55.87 55.73 56.22 55.78 55.54 55.22
44.24 45.18 45.34 45.82 45.67 46.18 47.21 47.91 48.39 49.18 49.43 49.74 50.19 51.57 51.86 52.90 54.07 52.27 52.16 56.58 57.36 53.72 53.00 53.75 56.30 56.54 56.13 56.13 56.34 57.28 59.27 58.55 57.24 56.70 57.78 57.86 57.48 56.09 56.30 56.16 55.17 54.37 53.42
44.22 44.78 45.68 46.46 47.37 47.15 47.48 47.94 42.64 43.75 43.52 43.58 44.01 48.88 53.54 47.57 45.29 43.08 42.82 42.64 44.81 45.17 55.73 57.42 57.72 57.84 57.20 57.42 57.86 58.00 59.27 57.32 57.16 58.28 59.36 58.42 56.34 55.98 56.32 54.91 54.59 54.14 53.14
43.62 44.39 45.96 46.43 48.07 47.98 48.62 48.21 47.22 44.98 42.27 40.82 40.08 39.52 40.82 45.50 41.96 42.27 41.73 41.37 42.09 44.99 57.30 58.10 57.20 56.84 56.48 56.96 57.52 58.08 57.74 59.04 59.02 59.20 58.92 57.62 56.74 56.92 55.63 55.52 54.64 53.52 52.86
45.91 43.61 46.88 47.28 48.51 48.78 48.41 48.54 48.64 48.45 47.91 48.57 43.69 41.66 40.81 40.00 40.16 41.37 40.64 43.53 50.51 52.27 58.12 56.72 55.85 55.25 55.49 55.51 55.59 54.85 56.01 56.78 57.40 57.32 56.38 57.24 56.46 57.71 56.55 55.96 55.88 55.64 55.62
45.86 46.97 47.67 48.60 47.81 47.47 48.14 48.57 49.31 49.77 50.24 49.72 49.07 43.71 41.45 39.36 39.56 40.10 41.73 56.82 57.78 57.02 56.84 56.06 56.02 55.76 55.70 55.86 55.54 56.08 56.48 56.42 56.28 56.28 56.10 56.14 56.89 56.80 55.30 54.23 51.38 44.99 49.64
47.23 44.73 45.62 49.01 49.61 48.67 49.18 49.30 50.02 50.49 50.51 49.88 47.60 48.36 46.90 46.41 47.87 48.60 53.41 58.46 57.52 56.86 56.66 56.02 56.02 56.32 56.38 56.50 56.26 56.72 55.29 54.61 55.25 55.72 56.18 57.45 56.77 56.07 54.35 53.51 52.50 51.66 51.27
48.59 48.78 46.03 49.99 49.85 50.82 50.60 50.31 50.97 51.73 50.74 51.80 49.93 47.57 40.10 51.93 52.37 54.63 57.20 57.50 57.28 57.32 56.36 56.26 56.54 56.44 56.62 56.58 56.56 56.70 57.25 56.88 57.79 57.87 56.93 56.20 56.34 53.44 54.14 54.12 53.54 53.68 53.10
48.87 49.40 50.39 48.71 51.65 52.49 52.35 53.23 53.99 52.19 51.17 52.03 51.22 46.55 37.92 57.41 57.38 56.36 55.97 55.65 55.17 55.27 56.32 56.64 55.84 56.14 56.94 56.82 56.68 57.64 57.35 57.23 57.59 57.67 56.93 56.48 55.42 54.09 55.21 55.34 54.25 53.85 52.62
53.19 55.50 55.72 55.74 55.64 51.28 54.89 54.22 53.67 53.01 51.40 52.80 51.74 51.48 54.23 56.52 56.34 55.79 54.35 52.98 52.20 52.66 53.53 55.24 54.74 53.65 54.40 54.96 56.99 58.13 57.57 57.66 57.71 57.57 55.62 55.88 54.14 50.21 48.66 47.62 50.20 49.51 47.22
56.70 55.92 55.26 54.90 54.70 54.02 53.41 53.05 53.44 49.69 54.23 54.59 54.45 53.77 52.84 52.10 51.00 49.30 48.13 47.86 48.45 48.21 49.66 50.58 52.05 52.22 52.77 52.66 53.17 55.10 56.40 57.36 56.63 54.52 53.27 49.92 46.71 44.73 44.14 43.01 41.83 40.76 39.50
54.39 53.47 52.96 52.84 52.38 52.06 51.47 51.20 51.42 51.60 51.32 50.81 49.24 48.45 48.54 48.66 47.17 46.45 45.79 46.78 47.10 46.03 43.82 45.07 47.55 48.43 48.02 48.66 48.78 48.01 40.77 40.59 48.94 42.38 46.31 44.39 42.58 41.71 39.63 38.09 37.60 36.84 35.58
52.59 52.21 51.92 51.45 50.79 50.42 49.64 48.82 48.46 48.08 47.13 47.19 46.58 45.78 45.19 44.52 44.12 43.58 43.16 43.26 41.87 42.14 40.95 41.49 41.72 42.72 42.22 42.38 42.00 36.17 35.70 36.25 39.02 36.83 42.33 41.67 38.70 36.72 36.07 35.17 34.33 33.91 32.81

GFSGL_sfc_wetblb_072.txt.gz
Wetbulb
51.63 51.80 52.28 52.60 53.75 53.61 53.49 53.78 53.99 54.76 56.42 57.60 58.51 59.02 60.55 62.04 63.43 63.83 63.78 63.87 64.10 64.01 64.87 64.63 64.09 63.52 62.81 63.44 63.48 63.65 63.46 63.46 61.33 64.44 63.36 64.07 63.93 64.69 65.11 64.92 65.36 65.16 63.78
50.47 51.02 51.65 51.31 51.34 52.06 52.50 53.18 53.73 54.34 55.45 56.79 58.23 59.82 60.69 61.52 62.21 62.55 63.04 64.74 64.27 63.87 64.59 64.91 64.70 65.01 63.18 63.60 63.96 63.81 63.98 64.12 63.39 62.21 63.39 62.72 63.12 63.64 64.16 64.25 64.27 63.75 62.76
50.00 49.12 48.62 49.38 49.32 49.81 50.52 51.73 52.49 53.30 54.22 55.78 57.49 58.28 59.19 60.50 61.04 62.15 63.27 64.10 64.50 65.01 65.36 65.74 65.63 66.10 64.67 63.76 63.69 64.23 66.11 65.70 65.03 63.36 61.85 61.67 61.93 62.42 61.60 62.09 62.58 62.13 61.25
49.95 49.50 48.82 49.16 49.45 49.91 51.34 52.69 54.01 54.94 55.47 55.94 56.70 57.47 58.29 59.05 60.04 60.30 60.75 61.41 62.30 63.35 64.45 65.96 66.44 67.32 66.94 66.15 66.24 66.44 65.44 64.04 62.93 62.50 61.07 61.06 61.28 60.90 61.04 61.25 60.65 62.08 61.51
48.31 49.44 50.39 50.81 50.34 50.77 51.18 52.64 54.15 55.27 56.09 56.92 57.26 57.62 58.13 58.89 59.16 59.77 60.12 60.40 60.20 60.42 62.32 63.94 66.04 66.36 64.27 65.41 68.56 68.20 64.63 64.56 62.89 61.68 59.99 59.71 59.17 58.71 60.59 59.78 59.52 60.80 60.72
48.80 47.69 48.88 48.93 49.18 50.18 51.74 53.20 54.11 54.47 54.93 55.82 56.56 56.79 56.75 57.43 52.03 50.88 55.17 58.49 59.49 60.09 59.78 61.04 62.81 62.03 62.91 58.19 57.86 58.23 63.57 64.43 63.02 61.66 60.95 59.89 59.52 60.42 59.16 58.88 59.33 59.18 58.89
47.95 49.15 50.04 50.23 50.48 51.35 52.19 52.06 51.95 51.84 52.08 52.05 52.53 53.81 54.51 55.46 49.67 48.02 49.31 56.06 57.20 57.68 58.71 59.96 61.18 63.13 61.33 66.16 60.35 55.13 55.25 54.60 58.61 63.30 61.79 61.51 60.82 60.65 59.58 58.57 59.52 60.36 60.17
46.64 47.29 49.06 49.60 49.96 50.47 50.26 49.92 49.95 49.93 50.13 50.38 51.02 52.04 52.55 53.32 48.54 46.77 47.84 54.99 56.18 57.26 58.91 60.09 60.71 61.37 63.09 63.96 66.72 64.69 63.08 62.07 61.51 63.25 64.53 63.22 64.23 62.02 61.95 61.76 61.44 60.33 60.39
45.81 46.85 47.68 48.81 49.29 49.57 49.43 49.21 48.96 48.50 48.47 49.18 50.73 51.30 51.93 52.76 47.10 45.96 47.88 55.00 56.62 57.97 59.98 60.94 61.59 62.49 56.50 49.89 64.19 64.02 62.51 60.60 54.92 51.88 52.77 51.16 50.34 50.74 56.76 61.72 60.07 60.27 59.23
45.55 46.06 47.22 48.10 48.48 48.71 49.39 49.48 48.63 48.99 49.51 50.07 50.37 50.86 49.84 51.53 46.28 45.39 47.57 54.29 56.43 58.08 59.91 61.30 51.50 56.94 50.07 46.08 62.06 63.60 60.51 60.73 59.08 58.71 57.62 54.04 52.87 52.12 50.23 63.94 61.77 60.05 58.70
45.58 45.84 46.26 47.12 47.56 48.54 49.34 49.55 48.98 47.92 49.19 49.23 49.94 50.34 50.77 51.25 52.11 45.76 45.48 52.70 56.07 57.63 58.66 59.98 62.19 49.89 46.44 43.91 49.34 63.20 61.44 59.74 56.86 60.37 60.91 60.22 58.52 57.66 60.27 61.98 62.85 62.64 59.81
44.65 44.86 45.07 46.22 47.44 48.31 48.83 48.92 48.98 48.13 48.10 48.11 48.08 48.91 50.95 52.47 47.10 47.03 44.58 43.84 50.64 56.64 57.89 60.10 61.56 48.44 43.91 43.00 49.16 48.08 45.72 53.44 59.85 58.85 59.78 59.29 58.76 60.08 61.01 62.12 62.45 62.77 62.52
44.13 44.15 44.54 45.99 47.07 47.92 48.02 47.93 47.07 47.36 47.29 47.19 47.62 48.28 49.37 52.28 53.52 45.34 43.91 43.36 43.69 49.23 55.06 55.01 46.81 43.72 42.27 46.63 44.63 44.45 48.44 59.45 58.53 58.84 59.60 59.34 60.61 61.11 61.46 61.55 61.80 62.22 62.36
43.06 43.39 44.38 45.10 45.66 47.05 47.77 47.42 46.87 46.52 47.20 47.91 48.31 48.72 49.68 51.00 52.58 54.36 53.85 51.61 47.01 48.54 50.24 53.30 51.26 48.44 48.08 51.46 50.66 51.62 59.68 59.70 59.58 60.13 59.43 60.00 60.19 60.08 60.30 61.23 60.88 60.94 61.21
41.74 42.72 43.43 44.79 44.97 45.22 46.85 47.55 47.60 48.39 47.98 48.31 48.94 49.69 49.76 50.09 51.78 50.53 52.38 56.61 57.03 54.19 53.62 53.74 54.97 55.53 54.21 55.81 56.42 56.56 58.99 59.04 59.72 59.38 59.56 59.39 59.43 59.83 59.82 60.56 59.94 59.79 59.71
41.30 42.69 43.65 44.61 45.57 45.87 46.12 47.13 41.78 44.00 43.01 42.57 43.51 48.98 52.16 47.36 45.21 42.64 42.27 42.09 42.09 43.18 54.48 55.41 55.71 57.65 57.56 57.24 56.76 57.18 58.76 57.30 60.15 60.35 60.46 60.24 59.59 59.02 59.40 58.82 58.51 59.65 58.67
41.89 43.00 43.49 43.64 44.25 44.87 45.68 46.12 45.87 45.65 41.04 40.69 40.28 40.43 40.44 43.28 41.19 41.15 40.26 39.56 39.56 41.91 56.76 57.16 56.86 58.08 58.67 58.32 58.14 58.60 58.42 59.83 60.41 60.65 60.86 60.32 58.17 59.16 58.09 58.09 58.83 58.58 57.98
43.41 42.10 45.01 45.73 46.25 47.43 47.68 48.09 48.61 48.37 47.85 48.55 43.06 42.70 39.51 39.69 39.36 38.45 39.85 40.79 50.36 45.79 55.83 58.16 57.74 57.87 58.96 58.54 58.57 58.59 59.19 59.22 60.11 60.59 60.49 58.81 59.43 58.71 58.50 58.15 57.68 57.69 57.42
45.22 44.71 45.65 46.62 47.34 48.16 49.07 49.45 49.48 49.44 49.19 49.10 49.14 43.21 41.73 39.16 39.16 38.40 39.13 50.85 53.54 53.37 56.10 57.66 57.84 57.50 58.30 58.23 58.24 58.49 58.46 58.60 59.04 59.66 58.91 58.46 58.80 57.91 56.54 57.30 55.16 48.86 51.34
45.86 43.21 45.51 48.16 48.01 48.39 48.80 49.06 49.26 48.91 48.63 48.53 48.79 49.79 48.58 44.47 46.21 46.25 46.52 51.04 55.58 57.12 57.40 57.32 57.06 57.79 58.45 58.74 58.99 59.57 57.80 58.08 58.95 59.61 59.29 59.71 59.85 58.91 56.67 55.40 55.90 57.17 57.32
47.07 46.76 44.39 48.62 48.87 48.36 48.60 48.53 48.02 47.94 49.10 49.10 50.13 49.66 41.19 50.21 50.79 50.07 50.38 53.96 57.62 57.30 57.28 57.56 57.52 58.42 58.98 59.20 59.58 59.36 59.41 59.34 59.80 60.03 59.41 59.44 58.15 56.36 56.75 57.04 57.94 57.85 57.51
48.80 48.82 48.01 48.39 48.93 49.43 50.20 49.17 49.57 50.47 51.66 51.39 51.46 49.24 35.75 49.28 51.64 52.29 54.78 57.16 57.82 58.04 57.70 57.67 58.46 58.76 59.06 59.53 59.74 59.99 59.96 59.72 59.36 59.22 59.31 58.03 57.60 58.49 58.85 57.93 57.68 57.36 56.04
48.50 48.74 49.22 49.10 49.60 47.19 50.34 50.25 51.18 51.88 51.96 52.67 52.25 51.28 47.78 53.41 56.00 56.09 55.39 55.61 56.40 55.99 58.04 58.65 58.28 58.78 59.55 59.76 60.29 60.20 58.52 58.62 59.38 60.45 58.41 58.18 56.73 56.75 56.29 56.03 54.02 51.66 50.03
48.91 49.35 48.40 48.62 50.25 49.71 50.48 52.06 52.88 48.04 52.00 51.66 52.07 52.49 53.70 53.64 52.84 52.36 51.44 51.91 53.66 55.50 57.34 58.11 58.85 58.34 57.35 57.60 57.31 57.61 58.28 58.99 59.44 58.50 57.31 54.06 50.29 51.47 52.79 50.90 45.59 42.76 41.12
53.43 53.16 52.74 52.29 52.09 52.53 52.91 53.04 52.28 51.88 51.83 52.04 52.05 50.71 50.71 49.55 48.45 48.34 49.30 52.29 52.41 51.85 52.80 54.32 54.50 55.68 55.18 54.79 55.52 54.32 42.88 41.17 52.46 46.33 52.15 49.92 48.30 47.20 46.80 45.76 43.72 41.94 41.09
51.02 50.82 50.78 50.77 50.20 50.06 49.29 49.15 49.38 49.10 48.42 48.43 48.43 47.77 47.40 46.48 46.43 47.94 49.29 48.79 47.68 47.77 47.66 47.31 47.89 48.82 48.55 49.63 50.20 39.28 36.67 37.07 41.90 39.28 48.26 45.52 41.46 40.65 41.63 41.33 40.59 39.65 38.95

GFSGL_sfc_wetblb_075.txt.gz
Wetbulb
62.03 62.58 62.29 62.25 62.77 63.29 63.59 63.93 63.93 64.24 63.77 63.81 64.87 65.74 65.36 66.03 67.34 68.12 68.02 67.58 67.34 67.76 68.18 67.39 66.94 68.28 66.89 67.66 66.82 64.37 63.24 63.32 60.77 65.41 67.85 69.32 69.04 69.17 68.87 68.48 68.38 69.75 65.92
59.29 59.94 60.60 61.60 61.67 61.85 61.88 62.25 62.49 62.17 62.55 62.73 62.99 63.14 63.55 64.43 66.40 66.03 65.08 65.13 65.24 65.00 64.60 65.95 65.34 66.10 67.59 68.60 67.51 65.42 63.76 63.81 63.53 64.38 66.70 67.91 67.16 68.38 67.99 67.74 68.62 68.43 68.44
56.54 57.00 58.38 59.04 60.41 61.63 61.70 61.80 61.63 61.56 61.56 61.70 62.02 62.81 63.22 63.54 64.37 65.10 64.58 64.23 64.62 64.64 64.45 64.55 65.32 66.54 66.74 67.67 68.20 67.33 65.35 64.68 64.43 63.23 63.69 65.89 65.98 65.76 66.47 67.60 67.44 67.24 65.48
56.56 57.63 58.08 58.24 58.60 59.54 60.60 60.47 60.26 60.47 60.46 61.05 61.76 61.85 62.68 63.20 63.08 63.33 63.55 63.81 64.03 63.56 64.66 65.59 64.87 65.21 66.21 67.33 68.00 67.79 67.05 65.06 65.51 64.41 64.58 65.24 64.55 64.98 65.16 65.81 64.78 64.75 65.27
54.82 56.07 57.45 59.23 59.44 58.59 58.61 59.34 59.78 60.57 61.09 61.47 61.80 62.45 63.11 63.17 62.80 63.78 63.95 63.92 63.74 63.77 64.40 64.53 64.49 63.41 61.19 62.52 65.90 68.25 68.86 65.99 65.58 65.15 64.54 64.15 62.83 61.99 63.18 65.99 64.84 65.73 65.36
51.97 53.74 54.66 56.06 57.50 57.99 58.26 58.78 59.98 60.67 61.31 61.59 61.90 62.08 62.23 60.50 51.66 52.80 56.98 60.75 60.61 61.66 62.80 63.86 64.10 61.39 61.36 56.12 56.06 56.05 62.82 67.75 67.68 67.26 66.00 64.16 64.09 63.83 64.65 64.92 64.89 62.74 62.33
49.58 50.34 51.30 54.15 54.88 56.13 57.10 57.59 58.97 60.31 61.39 60.99 60.80 60.08 59.96 59.92 49.96 49.35 50.08 59.31 59.67 60.23 61.12 62.38 62.59 61.88 61.65 64.60 59.63 55.58 55.47 53.33 56.72 68.49 67.62 65.27 64.78 65.26 65.43 65.15 64.74 64.32 64.08
50.08 50.47 51.22 51.89 52.42 55.37 56.01 56.87 58.65 59.77 59.27 58.87 58.43 58.57 58.62 58.28 48.36 46.83 47.66 58.09 58.33 58.98 60.02 61.68 62.90 63.74 63.99 63.20 64.89 66.43 68.04 67.59 62.33 62.37 67.71 67.41 66.88 67.88 66.63 66.49 65.87 65.63 64.72
48.93 49.96 50.59 51.07 51.38 52.97 54.74 56.44 57.89 57.57 57.60 57.53 57.52 57.65 57.45 57.77 46.26 45.12 49.55 56.70 56.26 57.22 58.57 60.71 62.60 63.57 55.89 47.89 62.70 65.13 66.12 66.23 55.49 53.15 53.62 51.88 51.88 53.33 60.03 65.20 63.68 63.17 61.69
48.97 49.70 50.69 51.34 51.60 51.98 53.50 54.72 56.54 56.72 56.54 56.29 56.31 56.97 53.78 57.01 46.36 44.13 49.44 54.92 55.30 55.94 58.27 60.71 52.11 58.35 50.22 45.90 60.15 63.66 65.17 65.45 61.09 61.95 62.15 56.48 54.78 55.62 51.30 67.15 65.64 63.06 62.76
49.23 49.55 49.89 50.68 51.09 52.37 54.29 55.12 55.40 54.71 55.30 55.83 55.30 56.23 56.54 55.79 55.85 43.71 43.68 55.02 54.81 55.18 56.09 58.78 60.68 48.25 44.81 43.91 45.17 61.64 64.45 65.57 59.39 65.66 63.52 60.17 61.86 62.03 64.23 66.09 67.17 65.37 63.04
48.18 48.61 49.19 50.49 50.44 50.36 52.76 53.35 54.02 54.14 53.35 54.29 54.14 54.14 55.09 56.40 46.90 44.82 43.22 43.21 49.90 55.98 56.33 59.03 61.19 47.24 44.81 45.54 46.57 47.53 46.99 54.15 65.16 63.25 62.27 60.94 60.55 61.82 64.61 65.89 66.66 66.65 67.24
46.36 47.92 47.96 49.41 49.23 49.73 50.50 51.06 50.53 53.17 51.75 52.06 51.84 52.22 52.73 54.51 55.56 43.82 42.97 42.08 42.86 49.59 56.29 54.83 45.33 45.54 44.45 46.44 42.27 44.09 45.17 63.30 63.61 62.60 61.30 61.50 62.47 64.56 65.62 65.61 66.33 66.69 66.74
44.17 46.05 47.00 46.94 47.80 48.84 49.28 50.06 50.72 51.38 51.15 51.05 51.48 51.47 52.36 53.31 54.11 55.01 55.08 55.01 46.23 48.37 50.53 53.69 52.40 49.69 47.89 53.03 52.01 49.37 62.44 63.86 63.40 63.59 62.56 63.07 64.21 63.72 64.00 64.56 63.62 64.43 64.16
42.68 43.25 45.49 45.98 45.87 47.11 48.88 50.33 50.76 53.46 51.73 51.33 52.12 51.98 51.81 51.93 52.87 49.94 50.87 54.89 55.72 54.61 55.79 57.68 55.92 56.96 56.89 57.48 58.48 58.18 61.56 62.09 62.66 63.07 62.83 62.63 62.55 63.47 62.37 64.35 63.96 63.32 62.78
41.25 42.45 42.92 43.76 44.28 44.89 47.19 49.13 42.92 44.15 43.33 42.62 43.88 49.50 52.72 46.66 43.74 43.07 43.17 41.84 41.55 42.82 54.78 56.95 56.15 58.13 57.39 58.00 58.26 58.00 60.30 58.65 62.73 62.94 63.70 62.71 62.41 62.87 61.81 62.71 62.25 62.66 61.62
40.97 42.35 42.87 42.69 44.10 45.07 47.12 47.45 47.24 45.70 40.73 41.11 40.79 42.41 42.65 45.19 42.04 40.64 40.81 39.56 39.37 41.55 55.22 57.09 56.26 57.10 58.45 59.02 58.49 58.95 58.89 61.26 62.66 63.21 63.03 62.98 63.11 62.58 60.74 60.58 61.98 60.88 61.45
41.91 41.29 42.91 43.52 44.29 45.80 47.03 47.78 48.83 48.85 47.96 49.56 42.26 42.68 39.39 39.72 39.18 39.54 39.56 40.53 52.00 46.11 56.41 55.76 56.67 58.17 59.01 60.76 61.06 60.82 60.92 61.16 61.93 62.11 63.33 63.34 63.25 62.27 60.16 61.27 61.72 61.34 61.74
42.80 44.17 45.32 45.21 45.53 46.35 48.33 48.45 48.34 48.97 49.28 50.33 51.55 43.10 43.89 40.08 39.37 38.21 38.24 49.70 55.35 56.60 55.46 56.08 57.61 59.66 59.02 60.82 62.11 61.82 60.83 61.15 62.63 63.13 62.96 63.12 61.61 59.53 60.63 61.77 61.11 51.28 53.65
44.54 41.79 43.64 47.45 47.59 48.29 48.67 48.62 49.03 50.19 50.01 50.38 50.78 51.77 52.71 45.41 46.42 47.15 46.87 50.12 53.67 56.30 56.91 56.84 58.07 59.21 59.24 60.41 60.27 60.12 60.33 59.46 61.51 61.66 62.70 62.39 60.63 60.10 58.38 57.99 58.94 58.28 59.12
46.42 46.26 43.53 48.13 48.70 48.93 49.36 49.42 50.52 50.15 50.89 49.93 50.98 51.63 42.70 50.48 52.40 52.93 54.02 53.74 54.86 55.85 56.94 58.32 58.46 59.02 60.18 60.87 61.69 61.24 60.57 60.55 60.85 61.74 60.04 60.81 62.89 59.05 60.76 60.47 60.30 61.62 61.19
48.57 48.39 48.36 48.41 49.26 48.85 50.35 50.76 50.95 49.71 48.95 50.69 51.24 50.44 36.46 49.79 53.20 53.32 54.16 55.06 55.39 56.84 59.68 58.84 59.13 60.27 61.52 62.70 63.59 63.83 63.85 63.13 63.61 62.75 63.06 63.33 62.84 60.76 59.43 60.06 61.32 61.57 60.31
49.61 49.15 49.78 49.65 49.60 46.65 50.66 51.08 49.62 49.09 52.19 53.19 52.79 53.76 50.09 50.48 51.04 53.33 53.69 55.09 57.63 59.11 58.94 59.62 60.03 61.26 63.63 64.26 64.92 64.82 63.60 63.53 64.10 64.15 62.99 62.00 60.58 60.64 61.48 60.35 59.94 59.24 59.09
48.51 48.80 49.29 49.94 50.62 51.81 52.55 51.54 51.19 46.32 52.77 54.19 54.83 54.49 55.44 54.96 54.22 55.38 56.90 58.08 57.20 57.96 59.95 60.03 61.86 62.75 63.63 63.98 63.78 64.36 64.81 64.79 64.62 63.18 61.85 62.12 60.67 57.57 61.06 60.29 58.54 53.78 48.85
51.86 49.95 48.77 48.99 49.25 50.54 51.97 52.68 52.52 54.62 54.30 55.09 55.64 54.28 51.80 50.82 50.91 51.91 53.88 55.13 56.32 58.73 60.40 61.86 63.16 63.09 62.61 61.84 62.58 62.73 47.46 42.82 58.77 50.13 58.00 58.19 58.98 60.54 57.50 53.24 48.89 47.92 49.21
49.12 49.69 49.64 50.20 49.98 51.62 51.47 51.52 52.28 53.23 53.90 54.57 53.34 52.81 51.31 49.48 49.78 50.77 52.38 54.62 56.89 58.76 59.87 60.81 60.29 58.25 56.21 54.95 55.84 43.89 38.49 40.10 48.55 44.61 56.65 57.34 56.90 55.67 54.58 52.76 51.36 49.46 48.09

GFSGL_sfc_wetblb_078.txt.gz
Wetbulb
64.43 68.04 70.69 71.55 71.77 71.06 69.83 69.08 68.93 69.92 69.21 69.00 69.61 70.35 70.79 71.17 72.13 72.04 71.84 71.14 71.01 71.07 71.27 70.21 69.87 70.41 70.80 68.65 68.64 67.84 67.37 67.17 63.61 63.73 65.25 69.88 70.49 70.60 72.62 71.82 70.81 70.25 67.50
63.53 65.92 68.03 67.99 67.50 66.60 66.08 66.75 67.32 66.97 66.90 66.15 66.34 66.70 67.12 67.35 68.67 68.89 68.72 68.72 68.95 68.65 68.84 68.25 67.37 66.98 68.43 68.71 67.17 67.96 67.76 68.20 65.66 63.63 65.31 66.33 67.50 69.42 70.04 70.08 69.00 69.76 70.24
62.29 63.80 64.54 64.05 64.39 64.77 64.80 65.34 65.01 64.30 63.92 63.58 63.51 63.27 63.36 64.39 66.08 66.26 65.41 65.28 65.48 65.28 65.15 65.11 64.94 66.08 66.71 66.41 67.31 66.67 67.07 68.52 68.25 65.78 65.52 66.35 67.20 66.87 66.69 67.93 68.98 69.00 68.67
59.35 60.27 61.08 62.23 63.04 63.59 64.15 64.14 63.43 63.18 62.86 63.08 63.44 62.86 63.10 63.78 64.42 64.72 64.61 64.96 64.89 64.70 64.93 64.94 64.16 64.38 64.74 66.06 66.62 67.44 68.01 67.85 68.20 66.76 65.90 64.57 66.07 66.78 66.42 65.08 65.75 67.39 67.42
55.14 57.03 59.61 61.19 61.08 62.22 63.52 63.48 63.18 62.80 62.46 62.25 62.42 62.42 62.69 62.90 62.54 63.65 63.99 64.32 65.08 64.69 64.87 64.48 64.83 63.03 59.18 60.81 62.49 65.60 67.01 66.92 66.98 66.06 65.17 65.04 65.64 64.31 62.45 65.41 65.68 69.05 67.06
51.55 53.92 54.85 58.60 61.09 61.26 62.18 62.61 62.77 62.29 62.42 62.11 61.80 61.55 62.49 61.47 52.49 55.84 61.75 64.62 64.54 63.81 62.71 62.29 63.21 61.37 60.63 55.65 55.52 55.96 60.37 65.69 66.39 65.82 65.17 65.74 67.84 66.82 64.22 67.03 67.37 65.43 64.78
52.49 51.81 54.75 54.89 56.39 59.64 61.19 61.34 61.63 62.47 64.46 63.45 62.70 62.73 63.13 63.50 49.71 50.54 52.44 62.97 62.23 62.18 62.02 61.58 61.09 59.57 59.61 62.56 57.24 54.15 54.46 52.62 56.34 67.08 67.17 67.29 65.57 67.03 67.35 66.57 67.57 66.79 66.84
53.21 50.37 50.51 53.19 53.98 56.13 59.40 60.62 62.80 62.88 64.14 63.96 64.18 63.90 63.92 62.44 47.91 47.10 49.14 61.14 61.17 61.20 61.49 61.55 62.04 62.01 62.31 62.32 63.19 63.31 63.67 65.80 67.52 64.49 65.58 68.77 68.51 70.53 69.10 66.76 68.70 68.94 67.73
52.18 51.78 51.25 50.75 51.39 53.75 57.11 59.24 60.99 62.42 63.30 63.88 63.42 63.41 63.00 61.64 46.33 45.26 50.83 59.14 59.78 60.22 60.48 61.07 61.35 60.99 53.09 48.06 63.64 63.28 62.54 64.45 58.63 53.44 53.16 51.08 51.99 51.99 61.62 66.67 66.40 65.77 63.33
51.70 52.49 53.00 53.20 52.28 52.21 54.25 58.26 60.31 61.25 61.79 62.13 61.91 62.27 57.85 61.38 45.13 43.99 49.91 57.40 58.55 58.34 60.55 60.96 50.66 56.28 49.25 47.56 62.82 63.44 61.38 62.83 66.57 66.69 62.93 58.62 57.24 60.53 52.35 68.34 67.33 63.80 64.50
50.26 51.88 53.53 54.09 54.50 55.90 57.46 57.68 58.82 58.96 60.13 60.59 60.41 61.03 60.96 59.71 58.07 44.17 43.62 56.88 57.08 57.25 57.93 58.34 59.14 47.33 43.94 43.29 44.12 62.57 61.45 62.01 63.25 64.51 66.42 66.90 65.27 63.23 66.08 66.79 69.80 66.91 65.42
47.91 48.33 50.06 53.46 53.70 53.93 55.51 56.34 56.79 58.09 57.81 58.67 58.49 58.53 59.11 59.96 49.69 44.67 43.06 43.81 50.69 56.88 56.77 57.70 58.37 44.90 45.41 44.18 48.83 49.86 45.10 48.18 65.67 67.30 66.78 63.97 61.49 63.22 65.26 67.04 67.11 68.98 69.56
45.24 46.17 47.93 50.80 53.09 53.48 54.49 54.28 54.80 56.61 55.25 55.03 55.28 56.10 56.59 57.80 58.95 45.23 43.27 42.24 42.74 52.69 56.43 53.26 47.03 43.49 42.93 49.19 45.81 43.29 42.69 60.59 65.22 65.57 64.80 64.31 64.37 64.98 66.78 65.62 67.97 68.62 68.03
42.75 44.24 46.16 47.76 49.36 52.77 53.01 53.69 53.46 54.00 54.55 54.73 55.46 55.30 55.83 56.47 57.11 58.10 56.35 54.54 45.04 49.53 50.84 53.98 52.15 49.55 43.67 49.26 53.34 56.75 58.86 63.83 64.95 65.59 65.87 64.83 65.65 64.73 64.97 63.92 65.71 66.32 65.74
41.09 42.70 44.52 46.06 48.14 48.20 50.93 52.83 52.52 55.75 53.76 54.33 55.92 55.91 55.91 55.81 56.67 53.16 53.92 57.65 58.29 53.95 55.39 58.10 57.09 58.51 59.59 60.17 61.06 61.74 62.74 64.36 63.94 65.31 64.94 63.31 63.48 63.88 63.40 65.54 65.48 64.64 63.47
40.28 41.58 42.98 44.69 45.70 47.10 48.20 50.36 43.95 43.29 42.70 42.72 42.93 50.56 55.66 47.09 43.73 43.03 44.28 43.30 42.30 39.40 53.77 56.73 57.51 58.79 58.74 58.94 60.12 60.36 62.25 60.36 63.59 64.35 64.30 63.54 63.57 62.36 62.70 64.73 65.08 64.88 63.59
40.86 42.02 43.30 43.59 43.81 45.72 46.85 46.97 47.94 46.54 41.41 41.20 42.89 42.20 42.99 44.18 41.83 41.67 40.52 39.40 39.30 42.49 54.14 54.95 56.78 57.98 58.53 59.35 59.95 59.95 60.49 62.06 64.03 63.89 64.31 64.29 63.97 61.54 62.09 63.34 63.20 63.37 61.77
42.57 41.46 43.74 43.56 43.76 44.93 46.56 46.94 48.32 49.30 48.67 50.89 41.72 44.27 41.05 39.73 39.73 39.56 39.79 40.98 51.38 47.02 55.46 56.22 56.78 58.69 59.30 59.72 60.15 61.08 60.00 61.22 63.04 64.05 64.79 64.92 63.37 63.65 62.72 62.44 63.15 61.01 62.87
42.71 43.58 44.15 44.66 45.21 45.87 47.51 46.34 47.26 48.69 49.65 51.05 51.68 43.37 43.45 38.64 38.85 38.49 39.22 53.23 53.80 54.74 55.87 56.94 58.83 59.31 59.29 60.12 60.94 60.80 60.44 61.97 62.77 63.42 64.49 64.03 63.46 63.99 62.99 63.28 61.58 52.21 55.78
43.87 41.75 43.56 46.66 46.53 45.87 46.79 45.98 47.46 49.91 50.45 50.34 50.68 50.28 52.28 48.99 48.90 49.61 48.83 51.43 53.90 55.40 56.03 57.06 58.54 59.28 59.23 60.09 60.99 61.08 61.63 61.86 63.15 63.63 64.55 64.44 64.30 64.66 63.30 61.80 60.24 61.99 61.86
47.53 45.71 42.60 47.56 46.20 46.11 46.74 47.59 48.72 49.11 48.41 49.21 50.98 51.95 43.49 52.88 52.08 53.07 53.83 53.48 54.30 55.61 56.60 57.69 59.43 59.62 59.89 60.87 60.24 61.33 62.83 62.68 64.12 63.73 64.39 64.30 63.59 60.52 60.79 61.98 59.48 61.57 61.44
48.25 49.13 48.56 48.52 48.55 47.94 48.59 49.73 49.87 50.19 51.12 51.44 52.15 49.29 37.34 54.33 54.82 54.66 54.90 55.41 56.12 56.76 58.01 58.57 58.77 59.73 60.71 60.23 60.58 63.24 61.63 61.39 63.14 64.00 64.81 64.19 62.10 60.37 61.44 60.61 61.88 61.47 61.34
50.15 48.45 49.06 49.00 48.99 46.19 49.53 51.14 50.18 51.65 52.06 52.16 51.63 52.56 53.48 51.85 52.59 54.66 55.67 57.48 57.80 57.82 58.21 58.65 59.53 60.83 60.54 61.57 63.86 65.04 63.97 63.66 63.28 65.25 63.82 61.31 61.70 61.99 62.28 61.91 61.93 61.34 60.05
49.98 51.67 50.61 50.10 49.69 50.27 50.91 52.44 51.39 47.84 52.63 53.08 54.87 54.03 53.87 56.22 56.03 56.06 57.02 58.23 57.51 58.25 59.37 60.74 61.07 59.95 61.31 61.89 64.65 66.02 66.83 67.08 66.87 65.76 64.44 64.61 63.87 60.36 62.56 62.25 61.19 60.43 59.64
49.18 49.73 49.88 51.55 52.30 51.91 51.25 51.67 51.48 51.59 53.05 54.29 55.22 56.72 57.10 57.29 57.70 57.25 57.70 58.41 60.00 60.52 60.33 59.69 60.58 61.04 62.08 63.69 65.03 64.30 51.30 43.40 62.94 55.70 65.20 64.10 63.21 62.94 61.72 61.21 58.99 57.13 55.17
46.08 47.78 48.63 49.53 50.89 53.57 54.28 54.03 54.14 53.47 54.11 55.22 54.93 54.78 55.54 54.20 53.57 53.19 55.92 58.24 58.26 58.72 58.95 61.18 61.67 62.27 64.00 64.85 62.22 46.57 42.74 43.10 55.84 45.56 64.07 64.04 63.09 62.16 61.06 59.35 57.10 54.56 52.35

GFSGL_sfc_wetblb_081.txt.gz
Wetbulb
63.10 64.36 65.61 69.96 71.81 72.79 72.58 73.21 74.43 74.42 75.55 72.86 73.77 74.85 73.77 74.05 74.32 74.01 74.04 72.81 72.18 72.75 72.36 70.78 69.28 71.58 70.11 70.07 71.48 71.73 70.34 68.25 65.30 67.03 68.93 69.46 69.90 68.47 69.47 69.10 69.74 72.07 67.53
61.65 63.44 64.65 68.38 71.44 71.98 72.16 71.30 71.24 69.78 69.88 72.27 72.30 72.33 71.37 71.42 73.40 71.98 71.05 70.96 70.08 70.35 70.68 70.46 69.59 70.27 70.99 71.25 69.00 70.76 68.57 68.80 65.95 65.76 67.85 67.89 69.55 69.82 67.93 67.55 70.30 72.02 70.00
60.42 61.74 63.20 64.85 69.27 70.12 70.45 68.93 69.05 70.62 70.18 69.39 68.71 68.41 68.04 68.45 69.05 69.93 69.82 69.08 70.23 70.18 69.31 69.41 68.86 69.40 69.44 68.22 69.17 67.43 67.00 68.01 68.23 65.89 66.01 68.53 68.18 69.67 67.67 67.70 67.35 69.11 68.91
58.14 60.33 60.66 60.83 64.13 65.95 66.16 68.29 67.35 67.86 67.49 66.69 67.34 65.51 65.44 65.71 66.65 67.17 67.26 67.49 67.64 67.89 68.24 67.49 66.16 65.93 66.79 67.97 67.39 69.10 68.08 66.97 66.42 65.43 66.01 66.47 67.59 68.94 68.25 65.95 66.27 68.40 66.62
56.79 57.53 58.78 57.78 63.17 64.61 65.06 65.61 66.57 65.64 64.57 64.04 63.68 63.16 64.87 65.25 64.85 66.14 66.30 66.70 67.57 66.95 66.66 64.90 65.45 63.23 59.38 60.74 62.45 65.86 67.51 65.26 63.50 63.81 63.30 64.46 65.64 68.28 66.30 67.63 63.59 68.14 68.70
55.56 55.92 57.49 56.89 56.53 62.09 64.45 65.08 65.24 64.39 64.61 64.08 64.11 62.81 64.69 61.88 52.32 54.88 63.77 66.81 66.50 65.45 65.52 64.76 64.75 60.80 59.71 56.37 55.14 55.31 60.58 65.43 65.37 62.98 63.00 63.44 66.96 66.89 69.48 63.02 63.52 64.01 64.12
54.75 55.15 55.68 55.63 56.12 56.19 60.96 63.26 63.89 65.67 65.67 65.07 64.39 64.09 64.76 65.51 50.23 51.65 56.03 66.57 66.80 66.77 65.33 63.92 61.67 59.94 59.18 61.21 55.77 53.71 54.24 52.74 55.24 65.71 66.61 66.41 67.30 69.14 68.10 65.81 63.15 62.92 63.25
52.54 54.35 54.97 55.14 54.92 56.24 56.97 59.46 64.10 66.15 66.42 65.81 64.41 64.26 64.26 63.71 48.50 49.99 54.02 67.19 66.11 65.18 64.61 63.52 63.31 62.64 62.25 61.48 61.82 62.19 64.03 65.95 66.38 63.14 64.51 68.54 70.40 71.26 70.61 68.40 64.75 64.10 66.48
50.32 52.86 54.47 55.29 54.24 53.79 55.48 56.12 57.32 64.49 65.06 65.49 65.71 64.64 65.77 61.40 46.41 47.17 55.14 64.44 63.14 62.65 62.09 62.57 62.39 62.09 52.53 46.78 60.62 61.38 63.05 65.36 60.32 54.22 53.39 49.87 49.50 50.23 55.93 66.99 62.19 60.91 62.55
49.61 51.46 53.29 54.85 54.85 54.18 54.28 55.25 58.15 60.02 63.14 62.72 64.45 66.05 61.81 60.38 45.02 45.31 53.65 59.04 62.09 60.24 62.91 62.42 51.74 57.13 49.68 46.55 60.55 61.19 61.03 63.65 63.54 64.95 67.52 62.46 56.94 61.77 52.77 67.99 63.98 62.24 63.74
48.13 50.64 51.12 52.88 54.71 55.62 56.86 55.14 55.37 57.78 60.68 62.62 63.88 66.02 65.66 63.99 53.22 44.11 44.56 59.97 58.42 58.98 58.79 59.68 60.79 46.25 43.86 41.51 43.53 62.26 61.81 60.01 60.24 63.19 65.44 67.66 67.04 68.29 66.94 65.44 65.67 65.47 62.79
46.33 46.96 49.49 49.91 51.77 54.27 56.63 56.25 54.73 54.88 55.97 57.14 60.87 62.83 63.24 64.77 52.48 43.97 43.59 44.15 52.79 59.85 59.48 59.32 59.56 44.45 44.97 42.80 47.74 50.75 45.88 48.63 61.05 62.63 66.32 64.41 65.99 66.09 65.74 66.63 69.39 68.62 67.72
43.38 45.68 45.50 48.11 51.80 51.95 56.24 55.45 54.87 54.26 54.40 55.76 57.63 58.92 59.96 61.57 61.02 46.03 43.10 43.20 43.38 54.74 58.62 52.61 44.30 43.17 41.66 43.64 41.94 41.15 40.70 60.86 61.15 62.07 65.57 65.99 65.75 65.53 66.99 68.02 68.66 65.49 65.44
40.73 42.00 43.03 45.06 48.02 50.51 52.85 55.88 54.71 54.94 54.20 54.73 55.27 57.31 59.42 59.51 61.02 58.59 55.59 52.73 44.60 49.45 50.80 54.57 52.08 48.83 43.62 46.64 51.02 54.94 60.89 61.62 60.79 62.84 66.36 67.49 66.47 65.93 65.48 66.29 64.90 65.36 66.07
40.65 41.13 42.17 44.44 47.43 48.51 50.26 53.54 56.09 58.20 55.80 58.11 57.75 59.04 59.44 59.12 59.88 56.04 56.04 57.28 57.05 53.90 54.39 57.84 58.26 57.76 56.94 57.02 57.71 59.22 60.48 61.01 61.52 63.56 66.28 65.52 65.21 64.61 64.24 64.68 64.99 66.12 64.15
41.03 40.80 41.69 43.98 45.45 47.15 47.62 49.04 44.73 45.74 44.25 43.13 43.78 51.53 57.21 52.32 48.23 45.00 45.04 43.60 40.99 41.81 54.59 57.02 56.59 56.39 57.05 57.73 58.60 59.12 60.59 58.68 61.78 63.89 65.47 65.55 64.91 63.87 64.28 65.35 64.91 64.57 63.61
41.60 41.77 42.07 43.44 45.14 46.34 46.55 47.09 47.65 48.41 43.69 42.80 40.94 42.93 43.07 43.42 41.16 41.94 43.45 40.90 38.76 42.58 53.82 53.73 54.08 55.19 56.64 58.20 58.57 58.91 59.69 61.45 62.41 63.43 65.16 64.78 63.99 65.45 60.95 62.56 63.74 64.02 63.06
42.42 41.17 43.27 43.57 45.40 45.84 46.87 47.73 47.65 48.63 49.81 50.81 42.25 43.53 41.94 41.68 41.32 40.77 39.75 43.25 51.53 49.79 53.95 53.56 54.28 55.07 56.67 58.01 58.78 59.19 60.20 61.07 61.53 62.98 64.68 64.15 64.48 63.85 62.94 62.36 63.84 62.87 62.82
43.66 43.82 44.13 44.46 45.74 46.31 46.01 46.92 47.31 46.98 48.67 50.69 52.61 45.26 42.41 37.97 37.60 38.20 38.58 54.22 53.75 53.95 54.09 53.72 55.07 56.55 57.76 59.25 60.20 59.88 60.54 61.27 61.74 61.77 64.24 64.68 64.82 64.56 63.33 62.43 64.05 54.00 56.78
44.00 41.26 42.57 45.15 45.45 45.00 46.17 45.97 46.01 46.34 46.23 49.53 51.45 52.98 53.52 48.44 49.77 51.10 52.04 53.57 53.92 53.66 54.76 55.90 56.61 57.10 58.81 59.64 59.72 59.90 60.06 61.42 61.16 62.04 63.93 64.32 65.43 63.72 60.96 62.50 62.89 62.12 61.70
46.30 45.48 41.73 45.61 45.96 46.32 45.75 45.62 46.24 46.26 48.02 49.49 51.35 52.17 45.46 52.54 51.71 52.02 52.39 52.56 52.98 53.55 55.54 57.01 57.17 58.54 58.51 59.34 59.91 59.63 61.34 61.41 61.07 63.29 64.08 64.49 63.93 62.65 61.85 63.03 63.56 62.73 60.93
46.98 45.97 45.19 47.10 48.79 47.54 45.93 47.06 46.78 47.17 48.10 48.74 50.89 49.89 37.47 53.23 53.06 52.91 53.06 54.04 54.26 54.92 56.06 57.06 57.31 58.73 59.10 60.03 59.55 59.71 61.61 60.78 62.61 63.26 63.95 64.28 63.66 62.46 62.98 61.52 61.76 61.21 59.27
49.89 49.17 49.30 48.95 48.30 45.25 47.75 48.81 48.99 48.81 49.15 49.86 50.87 51.50 51.89 52.63 53.21 54.36 54.86 56.12 57.71 57.48 56.90 57.59 58.05 58.19 60.70 60.57 61.02 61.75 60.25 61.54 64.09 65.39 65.03 63.37 63.97 61.80 60.76 60.07 61.26 59.27 59.14
48.99 50.23 49.65 49.49 49.53 49.66 49.91 50.21 50.16 47.24 51.73 52.48 52.78 52.93 52.40 54.75 55.20 55.92 56.83 56.29 57.34 56.95 57.76 58.92 58.60 58.42 59.70 61.88 62.94 61.80 62.41 64.54 65.27 65.68 65.11 63.24 60.35 58.68 60.23 59.46 60.96 60.80 59.19
46.74 49.46 50.46 51.30 51.32 50.26 51.13 51.06 52.61 53.22 53.02 52.71 52.95 54.14 55.36 55.58 55.80 56.30 56.73 57.41 57.79 58.02 58.61 58.89 59.17 59.77 60.40 61.40 61.24 61.94 57.80 42.61 61.62 56.78 65.57 63.24 61.86 62.01 60.79 61.82 61.47 58.93 58.18
39.12 40.80 44.12 45.59 47.58 51.39 52.74 52.20 53.06 53.04 52.92 53.98 56.82 57.52 57.29 57.47 57.68 57.99 58.60 58.79 58.53 58.16 58.86 60.36 61.56 61.63 61.51 61.85 62.35 54.59 41.89 40.26 49.98 48.05 62.08 63.70 62.90 63.90 61.15 59.75 59.97 59.09 57.39

GFSGL_sfc_wetblb_084.txt.gz
Wetbulb
58.71 60.81 61.89 61.55 64.21 63.97 66.69 68.88 70.29 70.09 71.24 71.26 72.17 72.58 71.67 72.24 72.28 71.62 71.25 71.44 70.39 70.19 70.31 70.30 69.37 70.46 67.71 67.86 67.87 68.13 67.86 67.79 65.04 64.55 66.02 67.64 66.88 67.15 68.74 68.50 68.28 67.25 63.82
57.69 59.25 60.34 60.46 63.32 64.30 65.75 67.87 69.29 69.35 70.41 71.17 65.31 67.17 71.03 69.22 67.02 68.58 68.94 70.61 70.10 70.31 69.92 70.17 69.01 68.79 68.79 69.37 68.94 67.92 67.09 66.84 65.06 63.02 64.55 64.90 66.73 67.95 67.40 66.15 67.14 69.01 66.84
56.83 56.72 59.09 59.42 61.28 62.34 64.17 66.95 69.41 69.24 69.92 64.78 62.64 61.12 59.50 60.47 60.86 63.33 67.95 69.90 69.53 70.17 70.04 69.61 68.90 69.01 68.18 68.23 66.29 65.79 66.37 66.25 64.83 63.50 62.60 65.21 65.68 66.64 66.53 66.29 65.95 66.73 67.63
55.62 54.64 57.41 58.39 60.40 59.38 62.73 65.78 67.48 68.45 65.90 59.76 59.63 59.85 60.37 58.08 58.52 64.20 68.36 68.75 68.55 68.94 69.01 68.51 67.71 67.60 66.49 66.45 66.00 65.59 65.47 64.58 63.60 62.86 62.89 62.95 63.54 64.85 65.88 63.99 63.44 65.33 64.98
51.64 52.58 55.35 58.33 59.43 59.40 60.22 62.72 65.49 61.34 60.43 62.85 59.53 59.83 64.36 58.91 63.76 65.22 65.69 65.69 67.19 66.97 67.31 67.02 66.98 63.35 59.10 60.05 62.72 62.45 61.72 60.19 61.79 61.23 60.97 61.97 62.01 61.55 62.59 63.26 62.38 63.18 64.25
50.48 51.14 53.02 55.98 57.37 57.68 58.19 58.12 56.58 58.86 57.77 60.10 63.12 59.25 59.24 65.16 55.88 55.65 62.45 64.91 65.49 64.65 63.81 64.24 62.24 59.13 57.69 55.52 55.10 54.68 57.99 60.22 59.61 59.33 58.89 58.32 60.01 61.87 62.86 62.37 62.35 60.32 58.38
48.10 50.69 51.81 52.68 54.87 56.94 56.89 56.38 56.38 57.31 60.96 62.50 61.62 61.64 61.84 61.31 51.98 52.04 57.06 64.43 64.53 64.25 63.76 64.10 61.17 61.43 59.68 62.23 54.72 52.84 52.69 51.56 54.44 60.81 60.00 60.47 62.29 63.04 63.63 63.22 62.50 61.40 60.73
45.94 48.50 50.10 51.97 51.89 55.28 56.24 56.02 56.48 55.87 58.15 63.17 62.63 62.01 62.18 60.97 49.52 50.06 54.63 64.94 64.60 64.99 64.33 63.01 61.59 61.08 60.49 60.62 60.27 60.19 61.19 62.06 59.92 58.02 58.66 60.25 62.34 65.52 65.00 63.96 62.38 62.59 62.17
46.53 46.57 48.12 51.09 51.55 52.30 55.66 55.97 57.37 54.87 55.65 63.56 64.32 63.82 62.48 56.01 46.65 49.11 57.65 63.96 62.79 62.49 62.59 62.99 62.56 61.59 48.64 48.73 58.89 58.37 59.12 60.78 60.01 54.69 50.32 49.68 49.13 50.40 54.37 62.71 62.53 59.31 58.59
45.71 46.10 48.11 49.92 50.51 50.69 54.94 55.54 55.52 55.35 54.66 59.20 64.27 63.94 58.61 58.05 45.18 47.86 58.30 61.61 60.90 60.71 61.67 62.01 51.76 57.82 50.01 47.33 57.85 58.95 58.38 59.14 61.47 62.19 61.60 59.00 52.85 58.62 49.84 62.27 64.07 59.53 59.34
44.12 46.80 47.60 48.08 48.89 51.93 50.73 57.16 53.86 54.82 55.59 56.30 60.47 64.11 61.41 56.80 51.08 45.27 50.02 59.89 59.61 59.04 59.12 60.21 60.44 47.79 44.31 44.09 43.96 57.38 57.91 58.02 59.12 60.82 59.63 59.79 63.46 66.24 65.64 62.72 65.10 62.48 60.91
42.76 43.56 45.41 47.39 48.25 50.27 49.88 54.00 55.76 53.64 52.84 53.48 57.65 59.56 61.21 56.95 49.98 43.82 44.12 50.60 52.39 57.91 58.25 59.09 54.76 44.16 44.41 41.38 43.89 49.24 43.48 47.46 59.50 59.01 58.11 59.98 63.89 64.99 65.97 65.58 63.97 66.04 65.35
41.48 41.31 42.06 45.87 46.49 48.25 48.44 50.06 53.98 53.78 52.36 52.51 55.33 57.94 59.62 57.26 53.29 45.75 42.96 42.88 44.21 56.80 58.24 45.65 43.45 40.82 41.69 43.24 42.39 40.85 39.95 53.04 57.05 58.03 57.65 60.22 64.95 65.60 64.71 64.31 65.04 65.86 64.12
41.07 40.71 41.74 42.77 45.24 47.74 47.30 49.95 52.40 53.60 53.42 53.33 53.69 55.36 57.47 57.52 54.68 51.41 49.52 48.01 44.58 49.03 50.27 54.32 50.90 47.83 43.80 47.06 47.46 47.31 53.48 58.29 58.50 58.06 58.23 63.30 65.48 64.51 63.61 64.15 63.14 63.38 61.52
42.36 40.96 41.17 42.14 43.25 44.82 46.34 48.12 51.69 54.67 54.18 53.81 54.05 54.91 54.35 55.59 56.79 52.36 51.84 53.16 53.85 51.64 53.45 55.30 54.97 54.60 54.20 55.27 55.81 55.68 55.82 56.45 57.75 58.99 58.93 60.95 63.86 63.49 62.81 63.52 62.78 62.19 61.20
42.02 40.75 41.03 41.67 41.75 43.22 45.36 47.06 44.26 43.62 43.29 45.67 46.72 52.15 55.59 50.37 48.77 47.12 45.76 48.09 47.73 45.02 52.05 53.54 53.57 55.49 56.01 56.26 56.33 57.17 58.38 56.57 58.68 59.88 60.37 62.27 63.38 62.60 61.80 62.83 62.58 62.37 60.28
42.05 41.43 41.44 41.40 42.78 43.47 45.90 47.30 47.77 45.53 41.82 41.73 42.78 42.02 43.69 49.52 44.98 44.84 44.32 44.00 43.30 43.39 52.99 53.27 55.68 56.53 55.28 55.18 56.16 56.69 56.48 58.09 60.04 59.68 59.46 60.97 63.16 62.51 57.82 61.71 61.58 61.20 60.40
43.04 41.05 42.17 41.94 43.87 44.54 45.11 47.72 47.98 48.38 48.16 50.33 42.88 43.98 43.20 43.42 43.22 42.58 40.79 43.68 46.77 46.75 54.39 54.72 53.50 53.69 53.83 53.50 54.58 55.51 57.04 57.52 60.12 59.65 60.32 61.43 62.84 62.28 61.00 60.61 61.25 61.03 60.89
43.94 43.09 43.81 43.76 44.32 45.10 45.91 46.86 47.73 48.66 48.94 47.81 51.14 43.40 41.26 40.38 39.77 38.98 39.00 53.73 51.85 51.86 53.54 54.31 53.87 53.53 53.78 54.42 54.83 55.93 57.07 58.01 58.71 59.97 60.63 60.95 62.75 62.12 60.82 60.97 60.61 53.27 54.56
45.31 41.06 42.69 44.72 45.11 45.34 46.02 46.33 46.99 47.39 47.59 47.00 47.33 49.32 45.78 46.35 49.18 49.61 50.10 52.28 54.39 54.14 54.43 53.72 53.34 53.56 53.31 54.34 56.08 56.06 56.84 57.31 60.21 60.97 61.09 61.11 62.41 62.37 61.06 60.29 60.00 59.42 58.87
46.79 46.04 41.94 45.76 45.72 45.37 45.86 45.78 46.57 46.82 46.80 46.14 46.38 47.67 35.90 49.09 50.27 50.76 51.21 51.80 52.38 53.35 54.46 54.29 54.04 54.09 55.42 55.06 55.53 56.87 57.42 58.13 59.46 61.60 60.85 60.73 62.01 61.51 60.93 60.79 60.49 60.77 59.77
47.87 46.58 46.62 47.26 45.59 45.29 46.15 47.06 46.58 46.51 46.77 46.87 46.52 47.12 38.01 49.15 52.14 52.46 52.47 52.76 53.31 54.04 54.75 54.26 53.67 54.52 56.03 56.72 56.97 56.85 58.16 59.58 61.23 61.10 61.46 61.99 62.21 61.31 60.98 60.52 60.12 59.87 58.64
48.76 49.58 48.89 48.01 47.87 44.14 45.45 46.82 46.69 46.27 46.74 46.22 48.38 49.25 49.11 49.00 50.69 52.85 53.00 53.50 54.21 53.99 54.20 53.96 53.93 54.46 56.26 57.39 58.61 58.94 58.72 59.75 61.49 62.00 61.67 61.80 61.75 60.87 60.80 59.84 59.71 59.21 58.87
41.69 46.73 49.50 49.88 49.24 48.16 48.41 47.97 48.24 44.39 47.29 47.32 48.39 48.96 50.14 51.11 51.91 52.72 53.19 53.94 53.94 54.49 54.91 54.90 54.78 55.74 56.49 57.21 58.34 60.22 62.03 62.62 62.51 62.43 62.89 62.04 61.48 57.11 60.37 59.45 59.15 58.38 56.92
36.66 38.51 40.24 43.48 45.74 49.37 50.25 50.05 50.85 51.42 50.01 50.25 51.03 51.92 52.33 53.11 52.97 53.13 53.21 54.32 56.10 55.74 56.97 56.79 56.71 56.23 56.49 57.85 59.73 61.17 54.65 42.79 56.48 51.90 62.60 61.98 60.59 59.67 59.33 59.14 58.76 57.16 55.01
33.53 34.21 35.29 37.33 38.39 40.86 43.52 45.66 51.54 53.01 51.80 51.93 52.65 53.74 53.65 54.14 54.43 55.56 55.86 55.94 55.49 56.15 57.42 58.20 58.61 59.28 58.32 59.01 59.21 52.60 43.12 39.16 48.13 40.79 60.05 61.84 60.15 59.82 59.31 59.40 58.51 56.82 55.48

GFSGL_sfc_wetblb_087.txt.gz
Wetbulb
51.19 51.40 52.35 54.23 56.34 56.29 58.38 60.42 61.19 62.07 64.93 67.71 68.79 68.75 68.39 67.93 69.08 69.17 69.66 69.28 69.23 68.90 69.45 68.86 68.41 67.75 66.40 66.38 65.93 64.75 64.20 64.02 61.90 62.40 63.81 63.96 64.29 63.83 65.27 65.32 66.16 64.62 64.75
51.34 51.38 51.25 53.40 54.46 54.29 57.59 58.57 59.20 60.31 62.89 65.40 67.95 68.01 67.18 66.81 61.07 60.66 65.17 68.45 63.57 67.38 68.42 68.23 67.97 68.33 66.16 66.21 65.67 64.75 65.05 64.84 63.21 62.08 61.35 61.86 62.98 63.98 64.54 63.91 64.62 66.41 65.92
50.87 50.36 50.33 50.81 52.68 53.37 56.00 56.12 57.17 59.67 62.04 64.93 66.10 63.63 61.43 63.86 60.12 60.62 60.07 60.30 60.75 58.95 64.86 66.51 66.48 67.16 64.89 65.75 65.42 65.26 64.21 64.02 62.83 61.28 60.07 61.51 62.42 63.40 63.00 62.83 63.38 63.20 65.36
49.06 49.49 48.83 48.70 49.93 53.09 55.02 55.43 56.66 57.25 57.60 61.71 60.28 59.40 58.81 59.49 59.93 60.99 60.14 59.40 58.25 58.37 60.71 64.35 65.21 65.54 65.49 65.24 64.07 62.97 62.53 61.48 60.44 59.87 59.12 59.48 60.21 60.31 62.44 61.45 60.55 61.92 61.74
47.82 47.03 46.90 48.52 49.51 50.28 52.50 54.99 55.71 56.43 58.28 60.64 58.94 58.01 57.12 57.96 59.33 59.23 58.92 59.12 57.58 57.98 61.52 64.74 65.53 64.74 63.33 63.13 63.46 60.77 56.83 55.45 56.44 56.81 55.90 56.33 57.13 57.76 57.99 59.72 59.63 61.56 60.48
46.05 45.91 46.53 46.90 48.05 49.00 49.94 53.55 54.32 55.28 56.61 59.53 57.84 58.82 56.07 59.20 53.10 52.84 58.44 61.36 63.62 64.20 63.51 64.34 61.67 59.73 57.76 56.20 55.81 54.28 53.92 54.04 52.83 52.85 52.20 51.96 52.87 56.76 58.46 59.06 57.86 56.93 55.04
44.57 44.77 45.35 46.20 46.42 47.16 48.50 50.75 53.58 52.96 53.66 55.44 56.00 59.25 56.74 58.02 50.05 50.20 54.17 62.76 63.28 63.33 63.35 58.78 58.49 59.22 56.94 56.01 52.35 52.12 51.91 51.91 53.34 54.83 53.61 54.10 55.28 58.05 59.29 58.18 58.28 57.41 56.70
43.06 44.27 45.38 45.62 45.54 46.41 47.04 48.94 53.02 52.31 52.76 54.10 54.76 58.21 57.96 59.93 49.49 49.82 50.26 59.90 62.35 61.44 59.91 58.22 56.77 56.26 56.77 57.57 56.15 55.75 55.97 56.61 55.16 54.20 54.85 56.11 57.23 57.70 60.25 60.97 60.03 59.01 58.69
41.38 42.98 44.14 44.66 45.05 46.18 46.38 47.25 50.67 52.96 53.88 53.60 55.20 56.55 56.99 58.33 51.15 46.96 51.05 60.63 60.84 60.07 59.87 58.22 57.39 56.15 48.06 49.24 54.38 53.16 53.25 54.04 56.08 54.10 51.46 49.87 48.96 50.95 54.20 60.35 59.07 56.76 54.65
40.40 41.94 43.37 44.17 44.74 44.74 45.68 47.02 50.84 53.30 54.23 55.40 55.70 56.14 57.11 58.62 48.71 48.23 54.83 61.56 59.02 58.09 57.77 56.85 52.67 54.02 44.86 47.88 52.83 52.50 52.02 53.44 55.26 57.19 55.74 51.55 49.58 53.80 48.74 58.66 60.43 59.65 55.20
41.24 41.10 42.36 43.16 43.47 45.34 45.93 46.16 47.21 51.77 53.57 53.76 54.32 54.69 55.98 55.34 51.06 49.35 52.83 60.01 58.33 57.20 56.78 54.99 54.13 47.39 43.58 43.93 48.54 53.23 51.83 54.06 54.18 55.68 55.30 54.74 55.78 58.64 61.51 58.26 61.68 62.05 57.26
42.01 41.63 41.51 41.42 42.89 44.79 45.04 44.57 47.13 50.46 49.93 52.45 52.58 52.67 55.24 54.57 48.67 45.13 50.90 52.39 54.29 56.95 56.24 56.12 54.21 46.13 43.52 42.56 42.86 45.73 42.51 45.16 53.45 53.92 53.60 52.84 54.72 58.13 62.27 62.39 61.86 61.93 61.13
42.36 41.45 41.59 42.19 41.99 43.12 45.14 43.91 46.14 48.69 49.19 50.85 52.12 51.76 53.20 56.42 52.95 46.99 47.17 48.73 49.07 54.09 54.43 52.61 42.89 41.41 40.98 40.62 41.39 41.51 43.12 48.82 51.05 51.35 51.91 52.38 55.80 60.42 61.71 62.50 61.29 61.30 61.34
42.10 42.73 42.23 41.69 41.52 41.99 44.28 45.31 45.88 45.96 51.34 49.84 51.83 51.10 52.24 56.05 53.87 51.37 47.37 46.99 46.89 48.16 46.83 46.05 45.68 45.40 45.04 47.21 44.24 41.90 48.34 49.94 50.02 50.88 52.84 54.18 59.13 60.54 60.18 60.24 59.76 59.76 58.26
42.89 42.90 42.66 41.93 41.48 41.17 43.24 44.87 45.15 48.85 48.81 51.41 50.81 51.95 50.76 55.19 55.23 50.78 49.55 49.22 48.42 48.67 49.05 48.43 48.06 47.58 47.31 47.96 49.04 50.07 49.87 50.25 51.45 53.29 54.54 54.90 56.77 59.05 59.56 60.26 59.56 59.00 57.11
41.93 42.28 41.59 41.51 41.67 41.93 41.63 42.96 42.56 42.38 42.06 41.38 42.21 49.22 53.03 50.91 47.33 46.42 48.23 47.47 44.79 43.79 48.16 47.10 46.94 48.11 48.26 48.85 50.33 51.09 51.93 51.01 51.09 52.18 54.69 55.72 58.01 59.12 59.36 59.47 59.67 59.00 57.36
41.77 41.67 41.57 41.07 41.54 41.26 40.72 41.78 42.89 45.26 41.54 41.11 41.46 43.36 45.68 49.36 46.06 46.42 45.52 46.97 43.69 43.06 47.32 47.92 48.27 49.27 50.48 51.95 51.70 50.88 50.60 51.75 53.47 54.48 54.85 56.46 57.74 58.67 56.63 58.57 59.25 58.92 58.48
43.25 41.22 41.90 41.98 41.66 43.16 42.96 43.79 44.29 46.75 43.88 44.00 43.20 42.67 43.71 44.35 44.54 44.58 45.60 45.16 50.95 45.82 48.29 48.16 49.39 51.56 51.38 49.99 49.00 48.80 49.34 50.65 51.75 54.33 55.14 56.56 57.37 57.84 58.26 58.13 58.91 58.31 57.24
44.15 44.06 43.82 43.98 43.07 44.26 44.51 45.21 45.62 46.60 46.70 46.38 45.76 42.50 40.34 40.82 40.61 42.38 41.96 52.60 52.02 51.03 50.62 50.47 50.46 49.92 49.20 48.84 48.72 49.17 49.65 50.24 51.34 53.78 55.42 56.77 57.09 57.57 57.37 58.45 57.83 50.05 52.69
45.66 40.88 42.47 44.37 43.83 44.44 45.47 45.23 45.33 44.56 46.52 46.14 46.18 46.41 44.97 45.31 48.38 44.49 44.69 50.88 52.49 52.75 51.86 51.36 50.48 49.45 49.11 49.22 49.26 49.81 50.09 49.77 50.60 54.28 56.20 56.99 57.53 58.33 57.84 57.95 57.52 57.08 56.68
46.86 46.08 42.35 44.58 45.21 43.62 44.17 44.68 44.34 44.15 43.78 43.66 45.94 45.45 35.89 44.59 46.54 49.13 48.23 49.27 48.59 49.92 51.41 49.86 49.49 49.17 49.25 49.41 49.03 49.17 49.54 50.72 51.42 55.06 56.91 57.09 57.47 57.60 58.40 58.52 58.34 58.36 57.76
42.78 47.67 47.24 46.69 45.66 44.42 44.57 45.42 43.09 45.24 44.33 44.35 44.24 45.57 35.30 45.92 45.90 48.86 49.34 50.56 50.61 49.99 50.03 50.90 49.54 49.68 50.41 50.35 50.28 50.35 50.12 51.07 52.22 56.43 57.84 57.65 57.61 58.08 58.36 58.18 57.60 57.12 56.25
38.31 40.25 42.37 46.72 47.04 43.13 44.38 45.52 45.12 45.25 45.30 45.35 44.02 45.47 46.32 45.42 45.83 47.02 49.49 49.54 50.12 50.85 50.78 50.15 49.84 49.25 49.57 49.85 50.22 51.16 51.59 52.84 55.23 58.47 57.43 57.07 57.64 58.46 58.28 56.90 57.78 57.66 56.76
34.96 35.73 37.25 38.63 39.94 42.89 47.13 46.72 47.04 43.70 45.81 43.97 44.88 46.20 47.47 47.26 47.18 47.58 47.36 48.78 48.68 49.23 50.13 49.91 50.44 50.48 49.73 50.11 51.50 52.06 53.08 56.42 58.86 59.41 58.20 57.75 58.10 55.19 57.92 57.32 58.10 57.99 57.80
32.75 32.86 33.55 34.20 35.70 37.20 38.44 40.50 44.56 48.53 48.62 47.94 47.70 47.36 47.24 47.18 47.50 48.02 47.77 49.08 48.74 49.70 49.50 49.62 50.66 50.51 49.83 50.24 51.56 52.55 48.67 40.26 55.76 50.86 59.09 58.72 58.57 58.31 59.25 58.12 58.19 57.82 55.37
32.14 31.49 31.36 31.66 32.41 33.09 34.49 35.35 36.94 39.40 41.89 47.65 49.46 49.25 49.25 48.59 48.66 49.37 50.20 49.30 49.87 50.47 52.51 51.91 52.07 51.64 51.40 51.95 52.14 47.01 40.44 39.53 46.37 40.98 57.03 58.69 58.30 59.02 59.39 58.41 58.01 56.53 55.48

GFSGL_sfc_wetblb_090.txt.gz
Wetbulb
48.47 48.26 48.31 49.08 50.23 52.54 53.70 54.66 57.65 58.07 57.43 57.78 58.07 59.50 61.57 64.47 65.50 63.08 61.34 61.89 63.05 65.78 67.61 67.90 67.60 67.19 66.62 65.53 64.90 63.92 62.39 61.04 59.91 60.28 62.77 63.45 63.14 63.86 64.43 65.24 65.22 63.57 63.40
48.61 47.73 47.58 47.71 48.18 48.81 51.43 53.45 56.48 55.71 56.63 56.96 59.13 58.61 60.71 63.02 64.77 65.01 65.12 66.28 65.37 65.03 58.41 59.04 58.00 60.26 59.02 66.09 65.53 63.70 63.09 63.07 61.50 60.06 61.92 61.48 62.13 62.77 62.73 62.60 63.64 65.24 64.70
46.78 47.15 47.28 47.40 46.59 47.38 48.58 51.25 53.90 55.31 56.92 55.31 56.37 57.34 58.43 60.38 63.59 61.33 61.60 61.07 60.82 60.61 59.71 59.55 58.97 59.62 58.00 59.56 65.01 63.80 62.92 63.90 63.19 61.74 60.68 60.31 61.57 61.42 61.61 61.75 62.10 61.37 63.67
45.53 45.42 45.67 46.61 47.27 47.86 48.89 49.58 51.19 54.42 55.43 55.55 56.64 57.33 59.04 60.29 63.05 62.13 60.03 59.84 59.80 58.92 59.31 58.46 60.45 59.67 59.58 61.44 61.09 64.21 63.84 63.38 61.19 61.28 59.23 59.40 59.13 58.48 60.32 59.34 59.27 60.48 60.65
44.28 44.46 44.37 45.30 46.53 47.32 47.47 48.35 50.67 51.49 55.17 55.91 56.35 58.22 59.07 60.14 61.61 59.71 59.33 59.18 58.94 59.20 59.03 59.16 59.92 59.63 58.66 59.05 63.62 63.07 62.00 59.62 58.50 58.13 55.95 55.41 56.11 55.75 56.38 57.61 58.35 58.06 59.12
42.39 42.89 43.68 44.68 45.66 46.04 46.33 47.09 48.34 49.44 52.90 54.84 56.05 57.80 57.87 58.56 53.92 53.55 58.53 60.06 60.75 60.09 58.28 58.42 59.63 57.90 57.27 56.58 57.32 57.61 59.24 57.05 54.86 53.61 52.01 51.42 50.75 53.44 56.35 57.21 56.87 55.23 54.08
40.98 41.86 43.22 43.61 43.37 43.92 45.03 46.05 46.75 48.35 50.35 52.26 53.36 54.69 57.96 56.79 50.12 49.94 52.66 58.28 57.65 57.54 57.39 57.50 59.39 61.15 59.98 62.32 54.43 53.75 52.98 52.54 53.03 51.52 49.95 50.32 51.23 54.29 56.35 56.05 56.43 55.71 55.23
40.42 40.61 41.42 41.50 42.76 44.66 44.02 44.05 45.13 48.46 51.55 50.82 51.40 53.72 56.95 57.77 50.48 48.85 49.81 60.74 60.56 60.49 59.94 60.75 61.30 59.68 60.00 58.52 54.91 54.13 54.56 53.88 53.46 54.96 54.19 54.04 55.93 56.36 57.56 57.80 57.44 56.99 57.21
40.29 40.71 41.20 41.46 41.83 43.27 43.95 43.66 43.93 46.53 50.16 51.15 52.89 53.01 55.51 55.65 50.12 47.95 49.04 56.92 60.22 61.29 61.60 60.85 59.17 57.54 48.94 48.18 55.75 53.88 52.95 53.21 54.76 50.88 49.96 48.35 47.20 48.67 54.56 59.22 57.86 56.71 54.06
40.65 41.41 41.97 41.65 41.36 41.69 43.51 44.97 43.46 46.47 51.18 52.71 53.01 53.95 53.50 54.13 48.85 48.42 49.41 55.29 57.87 59.69 58.80 57.69 51.23 54.79 45.47 46.63 53.05 52.13 50.31 51.70 55.01 56.19 54.58 52.09 50.43 51.81 48.40 57.79 57.53 59.06 58.41
42.25 42.66 42.67 42.59 42.26 42.24 42.20 43.10 44.36 46.28 49.14 50.66 51.75 52.73 53.96 54.63 54.32 45.52 47.19 56.13 58.66 58.40 56.67 56.03 54.28 45.21 44.71 44.70 47.30 51.19 49.81 52.95 54.53 55.00 53.52 52.35 52.85 53.73 55.67 55.21 59.16 62.45 59.39
42.28 42.71 42.90 43.19 43.46 44.07 42.39 43.05 44.59 44.78 46.84 48.94 50.60 51.36 54.00 53.24 49.22 47.93 46.01 50.53 53.96 57.39 56.19 56.24 52.37 43.40 42.98 43.50 47.44 42.77 43.04 50.11 53.14 52.24 51.20 49.96 51.23 52.51 55.21 60.62 61.29 62.35 61.63
42.20 43.27 43.38 43.89 43.61 43.42 42.14 41.99 44.32 45.88 46.79 48.87 50.72 50.38 52.29 52.44 52.74 45.60 45.23 46.34 48.25 56.32 56.49 52.45 44.31 42.11 41.07 42.22 41.40 40.12 43.94 50.77 50.85 50.12 49.03 48.13 51.06 53.82 57.92 59.62 60.13 60.05 59.85
42.10 42.50 43.57 43.58 42.88 42.85 42.41 42.26 43.88 44.71 45.56 49.12 50.92 50.98 51.64 53.19 53.26 51.11 52.27 52.63 49.23 52.28 48.36 46.75 45.46 44.74 44.44 43.79 44.17 43.95 47.68 47.69 47.53 47.37 47.68 50.25 53.28 57.67 58.52 59.98 58.76 58.32 57.31
42.50 42.27 41.98 42.64 42.32 42.27 42.77 42.63 44.94 45.26 45.21 48.09 50.29 52.34 50.64 51.20 54.49 48.99 50.96 54.86 53.47 49.45 47.65 47.62 47.61 46.78 46.42 46.24 46.45 46.00 46.09 47.10 48.81 49.98 51.36 52.28 54.10 55.00 56.53 58.44 57.79 57.17 55.67
42.25 41.72 41.70 41.50 41.67 42.19 41.49 41.60 42.23 41.21 41.72 41.08 41.79 49.13 52.81 48.42 44.50 45.05 44.83 44.28 42.75 44.12 47.17 47.81 45.74 45.89 46.34 46.60 47.15 48.05 49.78 49.07 49.36 50.09 51.34 52.10 52.97 55.39 56.77 57.67 59.03 57.23 55.10
42.80 42.63 41.79 41.95 41.74 41.71 41.52 41.22 40.75 43.59 41.24 39.98 39.53 42.04 45.39 46.13 42.87 42.33 41.96 41.24 40.70 44.42 47.20 45.81 46.11 46.84 47.25 47.70 47.83 48.93 49.52 50.01 51.43 51.51 51.34 51.91 54.38 56.29 55.18 56.37 56.99 56.61 56.03
41.51 42.65 43.26 43.19 42.65 42.53 43.05 44.34 41.04 41.50 44.08 44.16 41.28 39.36 41.85 42.33 42.69 42.15 41.42 45.50 49.79 47.31 47.50 47.72 47.88 47.95 47.79 48.71 49.13 49.16 48.45 47.61 48.36 49.86 51.95 53.09 54.65 55.07 55.41 55.85 56.15 56.11 55.42
41.10 44.87 43.51 44.30 43.61 44.34 45.23 45.38 43.38 45.20 44.21 44.42 43.02 42.95 40.90 39.92 40.33 40.86 42.33 53.42 51.78 51.01 49.29 49.52 48.57 48.92 49.43 49.18 48.63 47.79 47.74 47.86 47.77 49.30 51.03 53.32 54.62 55.17 54.79 55.39 54.85 48.31 50.85
41.58 41.60 42.49 44.67 44.66 44.43 44.72 45.18 45.69 44.65 43.81 45.49 43.96 43.48 44.99 45.58 46.90 45.05 47.15 51.57 52.18 51.07 51.12 49.93 49.76 49.29 48.92 48.06 47.54 47.81 48.29 47.87 47.82 48.45 50.33 52.61 54.12 55.27 54.54 54.68 55.39 55.42 55.62
38.54 40.97 40.51 45.61 45.37 44.39 43.69 44.26 44.70 44.54 42.67 45.11 43.60 43.21 36.81 44.12 46.42 46.76 47.15 47.51 48.39 51.42 50.45 50.27 50.50 49.75 48.63 48.39 47.67 47.40 47.37 47.61 47.91 48.80 51.20 53.41 54.60 54.59 55.23 55.93 55.89 56.21 56.63
36.02 37.18 38.84 40.54 41.80 44.84 45.16 45.49 41.92 41.38 41.38 43.00 44.83 44.21 36.13 45.80 45.18 46.01 48.61 48.91 50.86 48.98 49.90 50.42 50.72 50.65 49.96 49.05 48.29 47.97 48.07 47.64 48.12 49.32 51.31 53.84 54.77 55.25 55.49 55.87 55.53 55.63 55.97
33.66 34.14 34.84 36.16 37.00 38.44 40.20 44.15 45.39 44.99 43.70 42.25 42.27 43.41 44.19 43.93 44.37 44.40 46.80 48.83 50.59 49.07 48.59 49.05 48.73 48.07 48.18 48.72 48.84 49.12 48.84 48.86 49.68 50.81 52.37 53.69 54.59 55.25 55.93 55.07 55.31 55.06 55.93
32.25 32.02 32.13 32.73 33.42 34.29 35.75 37.21 39.51 39.87 44.63 44.11 43.05 42.76 43.40 44.24 44.18 44.62 45.60 46.49 47.46 49.29 48.80 48.99 49.05 48.92 48.36 48.16 48.61 48.56 49.34 50.21 51.65 52.27 53.36 54.52 55.17 52.77 55.41 54.71 55.39 55.33 55.37
31.20 30.68 30.28 30.13 30.61 30.95 32.09 33.38 34.66 36.54 38.13 40.53 45.88 46.13 45.56 45.86 46.42 46.68 46.50 45.89 46.70 47.32 47.81 48.12 49.43 49.94 48.87 48.70 48.82 49.21 45.12 38.41 47.27 45.54 55.10 55.67 55.59 55.47 55.23 55.63 55.73 56.65 56.59
30.44 29.78 29.18 29.14 28.91 29.05 29.22 29.68 30.91 32.58 33.89 36.43 37.85 40.02 44.13 47.49 47.29 46.92 46.92 47.75 46.76 47.05 47.77 48.55 48.29 48.55 48.81 49.01 48.94 43.99 38.58 38.46 41.73 37.25 54.27 57.05 55.77 55.37 55.97 56.13 56.35 57.57 56.97

GFSGL_sfc_wetblb_093.txt.gz
Wetbulb
45.08 45.66 45.99 46.07 46.61 47.24 48.40 50.56 51.66 52.99 55.78 57.69 57.19 56.77 57.17 58.11 59.54 60.87 62.49 63.82 64.36 63.45 63.10 62.37 61.85 61.86 61.97 64.57 65.88 64.07 63.04 62.16 59.99 59.83 61.53 62.19 63.18 63.60 64.19 65.49 64.62 63.81 62.60
45.29 45.11 44.93 45.43 46.10 46.51 47.00 48.25 49.94 51.33 52.80 54.61 56.50 57.29 58.28 58.15 58.66 59.82 60.58 62.65 62.49 62.12 61.65 61.13 62.23 61.75 59.67 60.01 62.39 63.31 63.26 62.49 61.38 60.13 60.86 61.34 61.74 62.29 62.70 62.53 63.46 64.43 63.14
44.87 44.66 44.64 44.49 44.65 44.75 45.89 46.79 48.25 49.97 51.52 53.34 55.70 55.39 55.51 56.40 56.87 57.71 59.71 61.20 62.44 61.68 61.68 61.65 62.46 60.03 58.59 59.37 59.65 59.05 60.55 63.58 62.77 61.65 60.85 60.84 61.12 60.55 60.50 60.88 61.09 60.91 62.41
43.26 42.23 41.51 42.00 43.61 44.83 44.75 44.75 45.73 49.10 49.94 51.54 53.42 55.59 56.26 55.97 56.59 57.61 57.93 60.47 61.01 62.76 63.43 61.82 60.87 59.93 60.23 59.78 60.31 59.93 60.24 60.81 62.35 62.27 60.15 59.21 59.41 58.96 59.22 58.64 57.84 59.47 60.37
41.72 41.35 41.25 41.26 41.76 42.94 43.91 44.12 45.65 47.36 48.05 49.01 50.44 53.71 55.07 55.48 57.37 57.75 58.00 59.70 60.55 60.50 61.23 61.63 61.82 61.41 61.27 61.32 61.17 59.64 59.44 58.49 58.93 60.68 59.51 57.63 57.00 56.34 57.26 57.34 57.46 56.88 57.38
40.54 40.97 41.85 41.36 41.63 42.42 43.75 43.99 44.87 44.93 45.60 47.16 48.37 50.13 51.98 54.50 53.12 52.33 55.02 58.71 60.34 59.94 59.11 59.13 60.14 58.67 56.95 55.64 56.94 57.37 59.28 59.85 60.33 60.42 58.77 56.36 55.40 55.12 56.16 56.70 55.52 54.67 53.98
40.83 41.41 41.68 42.14 41.83 41.76 42.19 42.61 43.81 44.69 45.18 45.48 47.42 49.94 51.77 52.56 50.86 49.07 49.90 55.36 58.90 58.97 58.60 58.97 58.60 59.12 56.67 58.02 54.19 53.64 54.81 55.44 58.40 60.29 57.42 54.12 51.94 52.94 55.92 54.84 54.76 53.90 54.16
40.88 41.21 42.00 42.10 42.07 42.18 41.97 42.04 43.56 44.39 43.37 43.89 45.87 50.38 52.04 52.77 49.05 46.71 47.38 53.65 57.56 57.42 58.26 58.55 57.90 58.16 57.59 57.84 58.15 58.30 58.73 57.93 57.74 56.48 57.04 53.94 53.61 54.54 56.72 56.48 56.10 55.58 55.68
40.60 41.25 42.23 42.71 42.31 42.37 41.73 41.45 42.38 43.37 44.49 45.92 46.80 48.95 50.11 52.01 48.77 45.44 47.94 54.75 56.10 56.70 56.70 57.34 58.01 58.77 52.05 50.08 57.32 56.06 55.58 55.16 52.63 50.88 49.96 48.99 47.63 48.87 53.93 59.92 57.87 57.81 57.28
40.54 41.51 42.64 43.02 43.06 42.61 42.41 41.99 42.67 43.85 44.85 45.28 46.62 50.61 50.69 51.80 48.52 44.90 49.88 54.40 55.22 55.48 58.83 58.82 52.98 56.50 46.71 47.84 55.69 54.77 53.41 54.34 55.54 54.42 53.20 49.59 49.16 49.50 54.01 56.66 56.16 54.95 54.59
41.30 41.81 42.76 43.68 44.22 44.12 43.49 43.16 42.63 42.50 43.46 44.94 46.50 48.99 51.47 51.89 51.92 45.98 47.62 53.13 54.86 55.12 57.83 56.36 55.00 46.41 46.01 47.02 49.22 53.38 51.93 53.66 52.86 55.54 55.08 54.22 54.07 53.10 51.61 53.39 58.53 57.48 56.54
40.83 41.33 42.25 43.56 44.98 45.43 44.06 43.51 43.02 42.62 43.51 43.81 44.21 47.43 50.32 51.24 48.87 47.58 44.90 45.08 51.23 55.22 56.48 56.30 50.60 43.91 44.40 44.55 46.50 42.72 45.77 51.29 53.72 51.76 50.98 49.98 49.96 51.54 53.07 54.61 57.04 60.42 63.21
39.82 40.66 42.80 43.04 43.76 44.60 43.58 42.63 42.01 42.71 43.67 43.72 45.63 47.98 47.89 51.00 52.69 45.43 43.81 42.18 46.17 56.02 56.70 51.94 45.13 42.07 41.56 42.62 41.73 42.90 46.82 50.93 50.08 48.80 48.25 47.95 49.49 51.76 54.22 59.51 61.47 61.57 60.77
38.70 40.26 43.21 42.46 42.32 43.10 43.43 43.04 42.05 41.77 43.49 45.40 48.88 47.87 48.12 50.95 52.30 51.31 49.19 47.43 47.96 53.02 49.71 47.76 46.40 45.75 45.84 43.39 45.73 47.16 48.92 48.96 47.79 46.57 46.08 47.68 51.79 56.38 57.93 61.52 60.18 59.82 58.01
38.65 41.06 43.39 42.75 42.17 42.08 42.70 42.68 43.05 44.09 44.62 45.06 46.22 50.00 50.49 49.69 52.19 47.69 49.46 53.09 55.56 50.92 48.84 48.47 48.59 48.50 47.22 46.67 46.27 46.04 45.96 47.06 47.40 48.48 49.80 51.59 53.17 53.69 54.28 56.24 58.63 58.71 55.36
38.20 40.54 43.58 42.91 42.71 42.25 42.05 41.09 41.04 40.13 40.36 39.31 39.30 42.48 51.47 45.37 41.09 41.63 42.36 43.99 42.90 44.70 49.91 49.68 48.18 48.56 47.63 46.60 46.24 46.04 47.24 47.44 48.38 49.13 49.62 50.52 51.60 52.70 54.28 55.94 58.75 55.86 54.15
37.03 39.31 42.90 43.21 43.55 42.87 42.75 41.72 40.26 42.29 42.11 39.56 38.46 42.14 45.44 44.17 40.73 41.82 42.72 42.00 41.61 45.39 48.75 47.89 47.57 47.34 46.05 46.07 46.32 47.09 48.36 49.37 50.32 50.02 49.80 49.75 50.73 52.34 53.87 54.60 55.54 55.36 54.13
38.23 40.62 42.74 44.07 44.14 44.02 44.44 44.66 43.25 42.02 41.86 44.82 41.66 40.83 40.55 40.37 39.82 42.72 44.35 46.49 48.77 46.74 48.20 47.19 46.63 46.54 46.50 46.69 46.83 47.93 48.17 47.20 47.50 49.20 49.84 50.44 51.38 52.63 53.54 53.86 54.75 54.59 56.04
37.58 39.66 40.40 44.55 44.94 44.26 45.12 45.43 45.52 45.19 44.83 44.62 44.28 44.39 41.32 39.62 39.82 40.37 43.08 53.00 50.00 47.74 46.85 46.71 47.16 46.95 47.10 47.35 47.50 47.98 46.81 46.41 47.04 48.08 49.08 50.27 51.36 52.57 52.78 53.21 52.95 46.53 49.07
36.18 36.99 38.13 41.47 44.67 44.86 44.33 44.28 45.08 44.70 44.96 45.20 43.70 43.84 44.63 47.88 49.26 48.63 49.14 50.90 50.61 49.55 49.25 48.75 48.54 48.57 48.71 48.07 47.32 46.67 46.18 46.48 46.56 47.23 47.91 49.21 50.44 52.69 52.51 52.78 52.75 55.17 55.63
34.47 35.38 35.70 37.78 37.92 40.46 44.33 43.14 43.35 43.26 43.37 44.30 44.43 41.80 35.05 46.06 47.25 48.36 48.50 48.91 49.68 50.04 49.60 50.06 49.58 49.29 48.65 47.67 47.07 46.77 46.61 46.51 46.67 47.10 48.28 49.57 51.01 51.79 53.06 53.51 53.44 54.28 53.71
32.97 32.97 33.47 34.20 35.10 36.19 37.08 39.77 42.43 42.23 41.13 40.80 42.94 43.13 35.16 43.80 45.50 46.09 47.22 48.58 49.66 50.05 50.68 50.79 49.61 49.17 49.00 48.68 47.60 46.94 46.69 46.58 46.71 47.21 48.26 49.38 50.82 51.94 52.55 53.46 53.74 53.39 54.39
31.62 31.32 31.08 31.54 31.98 32.87 33.73 35.09 36.24 37.24 38.92 43.06 41.54 42.14 42.47 42.60 43.13 44.31 46.23 47.63 48.01 48.50 49.13 49.69 49.29 48.62 48.92 49.29 48.65 48.31 47.52 47.32 47.96 48.47 49.06 49.56 50.50 51.46 52.41 53.10 53.08 52.73 55.60
29.68 29.68 29.64 29.58 29.85 29.70 30.52 31.10 32.20 32.94 34.95 37.74 39.51 42.71 41.82 41.91 42.66 43.32 43.89 45.07 47.36 48.09 48.92 48.52 48.65 48.50 48.33 48.16 48.10 48.16 48.49 48.98 49.62 50.03 50.30 49.38 49.06 48.27 51.64 52.66 52.88 53.18 55.05
28.23 27.52 27.50 27.94 28.27 28.03 28.22 29.03 29.49 30.27 31.66 33.62 34.89 36.61 38.38 40.81 43.01 43.23 43.88 44.26 44.94 45.85 47.38 49.04 49.44 49.81 49.21 47.79 47.54 48.12 44.05 37.10 46.56 44.50 49.38 49.13 49.57 50.72 51.94 52.96 52.99 53.35 54.45
26.75 26.01 26.14 26.16 26.13 26.73 26.78 26.75 27.47 28.19 28.96 30.84 31.88 33.28 34.79 36.70 37.70 39.45 44.59 44.17 44.77 45.34 46.03 48.03 48.93 49.30 49.24 48.03 48.27 43.24 37.82 37.10 40.38 36.37 46.82 50.35 51.18 52.02 53.30 53.77 53.73 54.90 56.04

GFSGL_sfc_wetblb_096.txt.gz
Wetbulb
44.13 44.42 44.42 45.00 45.59 46.29 46.41 47.41 48.36 49.28 50.62 51.53 53.92 55.75 57.48 58.30 58.48 58.54 59.45 61.55 62.86 63.43 64.01 63.44 63.71 64.11 63.99 63.86 63.01 62.20 61.70 61.62 59.25 59.99 63.75 64.81 65.73 66.40 66.78 68.34 67.35 67.84 66.74
44.65 44.82 44.36 44.74 44.94 44.42 44.84 45.90 46.97 47.52 49.26 50.29 51.57 53.03 54.83 57.06 58.51 58.70 58.42 59.82 60.89 61.32 62.26 62.93 62.90 63.28 63.44 62.97 61.95 61.60 62.30 63.24 61.48 59.86 63.34 63.66 64.09 65.09 66.47 66.81 67.32 67.04 66.89
43.94 43.16 42.93 42.76 42.70 42.54 43.14 44.60 46.12 47.20 46.79 47.42 48.92 51.00 52.51 55.33 56.54 57.27 57.32 57.91 58.81 61.04 61.53 61.86 62.10 62.14 61.74 62.27 62.82 62.96 63.24 63.80 63.12 62.45 61.71 62.69 63.25 63.04 63.77 64.84 65.44 66.51 66.11
42.26 42.19 41.73 42.12 42.28 42.16 42.40 42.68 43.39 44.75 44.80 45.40 46.77 49.86 50.99 52.91 55.30 56.75 56.92 57.04 57.83 58.90 60.46 61.67 61.69 61.79 61.51 61.33 61.73 60.96 60.77 60.84 61.44 61.28 61.34 60.63 61.55 63.23 63.16 63.91 63.51 64.60 65.17
41.95 41.68 41.58 42.12 42.83 43.44 43.19 42.92 43.44 44.43 45.54 46.66 47.09 47.90 48.32 49.25 51.48 54.41 55.87 55.80 57.07 57.99 59.00 59.85 61.73 61.97 61.16 61.33 61.99 62.08 61.85 60.54 59.27 58.78 59.56 59.64 60.27 59.75 61.34 62.30 63.09 62.97 63.34
41.01 40.95 42.00 42.91 43.63 43.42 43.63 43.64 43.52 43.54 43.95 44.46 44.87 45.62 46.11 47.99 47.33 48.67 52.22 54.70 56.15 57.18 57.44 58.25 60.56 60.63 60.17 57.30 57.67 58.41 61.15 60.48 58.90 58.79 58.61 58.53 60.27 61.03 61.48 61.59 60.89 60.25 59.86
40.77 41.46 42.88 43.17 43.00 43.29 43.58 43.41 43.07 42.91 43.30 43.46 45.42 45.75 46.47 47.05 46.01 46.08 48.47 52.43 54.89 56.18 57.12 57.77 59.13 61.15 59.66 61.03 55.72 54.69 55.00 54.59 57.35 60.44 59.37 59.80 60.30 59.58 59.59 60.34 60.40 60.21 60.60
40.58 41.71 42.51 42.66 42.60 43.20 43.32 43.22 43.17 43.03 42.74 42.90 43.57 45.18 45.32 46.33 45.48 45.65 47.28 52.01 53.96 55.66 56.73 58.15 59.30 59.23 59.69 60.30 60.58 59.58 59.51 59.10 57.81 60.31 61.72 61.64 61.49 59.52 61.99 62.03 61.02 61.04 60.29
40.38 40.94 41.69 42.39 42.36 42.55 42.77 43.23 43.73 43.23 42.73 42.72 43.84 44.51 45.55 46.42 45.46 45.17 46.90 52.66 54.26 54.78 57.13 58.43 59.51 59.11 52.59 49.97 59.69 58.57 59.06 59.32 53.78 52.53 53.46 50.59 48.87 49.93 56.28 60.03 59.18 59.85 59.04
40.22 40.61 41.42 41.86 42.17 42.77 43.45 44.65 44.66 43.92 43.40 43.50 43.11 44.38 45.98 47.27 46.86 44.63 45.83 51.53 54.19 54.38 56.63 57.90 51.54 57.41 48.00 47.37 58.39 58.09 57.82 56.24 54.58 53.01 51.90 48.89 51.03 52.58 52.08 61.38 61.35 60.38 59.52
40.32 40.49 41.01 41.85 42.49 44.29 44.02 45.24 44.42 43.65 43.42 42.87 43.49 44.98 46.02 47.04 48.43 45.41 44.58 53.75 53.85 54.42 55.35 56.56 57.94 47.55 45.01 46.10 51.95 57.55 56.93 55.08 52.67 54.67 54.43 54.19 54.66 56.54 58.50 59.19 62.16 61.21 60.06
39.47 39.77 40.28 41.70 43.51 44.75 43.40 43.96 44.27 43.50 42.37 42.35 43.35 44.74 46.42 47.94 47.57 45.70 43.18 43.35 49.29 54.37 54.49 56.60 54.81 43.74 43.38 45.60 51.59 46.86 46.48 52.11 56.73 56.30 55.28 55.28 55.48 55.76 56.11 56.46 58.84 61.03 63.98
38.50 38.56 39.83 41.82 44.23 44.25 43.10 42.83 42.67 42.89 42.25 42.11 43.30 45.41 46.74 50.35 52.41 44.61 43.92 42.64 43.13 50.31 56.19 52.24 45.19 44.11 44.11 45.17 43.82 44.28 48.30 56.20 55.25 54.40 53.48 52.93 54.62 56.28 57.18 57.62 59.06 60.53 62.26
37.10 38.36 40.45 41.74 44.23 44.15 43.73 43.47 42.74 42.55 43.20 43.52 44.13 45.05 47.17 50.48 53.28 53.74 51.76 48.65 43.80 50.00 47.53 47.19 46.57 45.40 46.78 47.71 49.44 50.50 53.55 53.52 52.08 51.15 50.75 52.63 55.46 56.65 59.61 61.56 59.97 60.27 58.86
37.22 38.24 39.61 41.42 43.80 44.33 44.07 43.69 43.52 44.18 43.38 42.33 43.81 45.20 45.25 48.25 51.85 46.95 46.88 51.80 54.93 49.96 48.92 50.40 49.81 49.17 50.11 49.65 49.73 50.09 50.57 51.40 50.31 51.07 53.59 55.94 58.31 58.33 59.37 61.16 60.43 60.41 58.86
36.16 37.48 38.85 40.82 43.94 44.72 44.35 44.22 41.63 39.98 40.44 39.98 38.94 39.34 43.87 43.79 40.45 39.34 39.52 42.47 42.29 44.83 50.79 50.41 48.69 49.02 49.70 49.59 48.75 48.48 50.58 50.77 52.98 54.19 55.43 56.12 56.06 57.04 59.39 60.55 60.08 59.31 58.47
36.15 38.12 39.64 40.54 42.87 44.49 44.35 44.62 43.23 43.90 42.19 41.08 39.15 39.34 39.16 42.64 40.10 39.54 39.72 41.57 41.93 47.24 51.15 50.46 49.82 50.04 49.54 49.91 50.01 51.53 50.98 52.42 53.24 53.80 54.11 54.33 55.40 56.15 58.14 59.67 59.16 58.14 58.79
35.88 37.46 37.33 39.36 43.53 45.29 44.71 45.68 45.46 44.22 44.14 45.70 43.70 40.00 39.15 39.52 39.90 39.34 41.02 45.47 50.72 49.14 51.08 49.20 48.85 48.56 49.20 49.13 50.93 51.94 52.10 52.44 53.14 53.42 53.94 54.77 55.81 57.10 57.88 58.57 59.72 59.01 58.48
34.43 35.34 35.64 38.35 40.01 40.97 44.66 44.82 45.18 44.86 45.58 45.28 46.04 44.88 44.22 42.29 42.11 42.84 45.36 51.93 50.39 49.35 49.94 49.82 50.01 50.62 50.55 51.04 52.19 51.81 50.96 51.57 52.11 53.06 53.93 54.94 56.28 57.79 57.99 58.27 58.35 50.45 52.93
33.53 33.83 34.15 35.31 36.37 37.12 38.68 40.98 43.59 43.86 44.25 43.98 45.13 44.22 44.41 47.92 50.18 49.99 50.80 51.83 51.36 50.92 50.40 49.90 50.15 51.22 51.11 51.46 51.77 51.62 50.27 50.89 51.47 52.10 53.24 54.46 55.61 57.04 57.70 57.87 57.49 56.40 56.90
31.69 32.26 32.50 32.95 33.19 34.24 35.04 36.28 37.99 39.77 40.60 43.03 44.16 43.99 35.16 44.96 46.51 48.54 50.15 50.05 50.84 51.84 51.99 52.31 52.22 52.39 51.83 51.75 51.58 50.77 51.08 51.13 51.49 52.87 53.88 54.89 56.66 57.75 57.77 58.31 58.34 58.66 57.05
30.12 30.25 30.81 30.59 31.17 31.39 32.08 33.37 33.68 34.81 36.83 38.70 40.66 43.52 36.61 44.62 44.98 46.28 47.60 48.95 49.93 50.80 51.35 51.76 52.69 52.86 52.89 52.20 51.77 51.34 51.42 51.22 51.76 52.84 54.50 55.22 56.31 57.20 57.95 58.60 58.69 58.83 57.55
28.15 28.03 28.40 28.80 29.48 29.48 29.86 30.74 30.99 31.40 32.91 34.67 36.32 37.98 39.77 41.73 43.80 44.94 45.69 47.17 48.34 49.71 50.20 51.88 52.82 53.24 53.52 53.83 53.86 53.48 52.64 52.51 53.34 54.07 55.13 55.18 55.42 55.71 56.43 56.50 57.45 58.04 57.62
26.55 26.40 26.03 26.72 27.22 27.17 27.58 27.92 28.80 29.28 30.61 31.68 32.86 34.17 35.05 37.14 39.15 40.44 43.97 45.87 46.85 48.41 49.30 50.45 51.67 52.13 52.78 52.70 52.78 53.09 53.47 54.04 54.03 54.04 55.13 55.37 54.64 51.02 54.80 55.11 55.86 57.38 58.36
25.87 25.77 25.63 25.11 25.05 25.75 25.97 26.52 27.00 27.50 28.46 29.32 30.38 31.29 32.32 33.95 34.97 36.13 38.37 40.09 44.08 46.30 47.69 49.03 50.00 51.03 52.11 51.70 51.49 51.99 46.39 37.50 51.05 45.96 55.05 54.85 53.89 53.40 53.75 54.13 54.92 56.90 57.65
25.92 25.26 24.70 25.06 24.80 24.29 24.42 25.31 25.40 26.13 26.63 27.62 28.42 29.33 30.56 31.16 32.28 33.09 34.85 34.68 36.55 39.96 46.17 47.89 48.29 49.80 51.19 50.75 51.48 44.22 37.04 35.88 43.59 37.60 52.93 53.75 53.46 53.95 54.55 54.68 55.48 56.66 58.24

GFSGL_sfc_wetblb_099.txt.gz
Wetbulb
50.48 50.59 50.41 50.16 50.26 50.52 50.21 50.39 50.43 51.05 51.32 51.37 52.14 52.99 54.01 55.04 56.95 58.79 61.23 62.74 63.11 64.81 66.42 66.20 66.74 67.82 64.22 64.92 65.95 64.83 64.02 64.94 62.80 63.13 65.60 67.88 67.12 68.10 69.11 69.34 69.26 69.31 68.23
49.27 49.07 49.04 49.33 49.36 49.12 48.98 49.31 49.62 49.17 50.01 50.43 51.69 51.67 51.92 52.99 54.67 55.74 56.93 59.42 61.19 61.80 63.03 64.55 64.18 64.66 66.29 66.49 65.69 63.55 62.94 63.23 62.53 61.17 65.36 64.87 65.65 68.62 70.10 70.13 69.80 69.43 70.24
48.12 47.93 48.13 48.17 47.86 47.99 48.24 48.67 48.71 48.59 48.58 48.97 49.18 49.17 49.43 49.98 50.88 54.21 55.42 57.14 60.14 61.33 61.86 63.00 64.10 65.20 65.06 63.38 66.36 65.34 62.11 63.04 65.00 64.46 63.66 65.84 65.77 67.44 66.63 68.62 69.21 69.06 69.90
47.25 47.25 46.87 47.44 47.57 47.57 47.64 47.27 46.90 46.84 46.60 46.78 47.46 47.45 48.56 49.34 50.19 52.38 53.70 55.61 57.36 59.58 61.28 62.25 62.84 63.44 64.23 64.78 64.52 65.22 63.10 62.08 63.00 62.01 64.22 64.82 64.61 65.76 66.88 65.60 65.19 67.82 68.84
46.44 46.53 46.97 47.84 47.68 47.02 46.50 46.71 47.10 48.06 47.10 47.43 46.64 46.94 47.29 48.27 48.52 49.51 50.85 52.01 55.08 56.74 58.77 59.55 61.41 61.41 59.71 61.49 62.86 64.04 64.80 61.61 61.51 62.42 63.46 63.72 62.07 63.07 63.83 64.59 65.70 67.20 69.12
45.55 45.49 45.77 45.35 45.69 46.80 47.40 47.33 47.60 47.07 46.97 46.73 45.51 45.69 45.81 46.86 45.67 46.15 48.14 48.99 50.59 51.76 53.70 57.26 59.24 58.42 58.55 55.39 55.33 56.78 61.65 61.37 61.08 61.11 64.56 62.80 63.15 62.77 62.87 64.25 65.20 65.44 63.45
44.28 44.28 45.66 47.04 45.90 46.82 46.91 46.34 45.87 46.01 45.51 44.71 44.71 44.78 44.67 45.29 44.56 44.74 46.25 48.37 48.91 50.13 50.10 53.23 56.31 58.42 57.96 60.23 56.45 54.85 55.86 55.43 59.09 65.08 62.95 63.88 63.32 63.59 63.97 64.58 64.90 64.23 64.40
43.37 45.50 46.57 46.00 46.16 45.44 44.40 44.72 45.46 44.96 44.89 45.05 44.80 45.02 44.29 45.13 44.27 43.63 44.68 47.47 49.45 50.41 49.90 51.71 56.92 57.31 59.49 59.50 61.14 60.82 59.99 60.86 62.42 61.60 63.77 63.09 65.28 65.33 65.75 65.60 65.09 65.11 65.18
43.63 45.14 45.17 44.98 42.98 42.76 42.77 43.84 46.43 44.98 47.55 45.21 45.38 44.65 44.22 44.33 43.50 43.34 45.07 48.19 48.45 51.46 52.30 55.06 56.84 56.97 53.73 49.12 59.22 58.73 59.14 59.71 58.26 54.65 55.08 53.13 52.03 51.57 60.62 65.43 60.88 59.75 59.79
43.13 42.95 43.32 43.68 42.77 42.34 43.48 43.91 47.19 47.12 45.77 45.84 44.90 45.14 44.93 45.60 43.91 42.66 44.20 47.38 48.94 51.74 53.85 55.15 51.03 53.98 50.34 47.30 57.47 58.33 57.82 58.68 60.15 57.76 56.00 54.06 54.59 56.04 53.66 64.41 61.54 59.91 61.65
41.80 41.20 41.89 43.97 43.69 44.03 44.20 45.55 45.37 46.48 45.66 45.58 44.30 45.21 45.90 46.98 48.89 43.12 43.20 47.07 49.07 52.76 53.64 56.72 58.43 48.30 45.40 44.86 48.95 60.53 59.73 60.02 57.08 60.14 60.27 57.30 57.50 60.58 61.98 62.54 63.59 64.04 61.38
40.78 39.71 40.29 41.88 43.21 44.46 44.53 45.94 45.17 44.58 44.12 43.15 43.62 44.19 47.11 50.44 46.60 45.43 43.14 43.12 47.38 52.19 54.70 57.40 57.83 46.62 45.22 44.31 47.27 50.67 46.13 53.73 61.41 61.07 59.44 56.62 55.80 58.33 59.76 62.88 65.27 65.27 65.21
38.51 39.01 39.86 42.27 42.54 45.13 45.07 45.35 44.29 44.63 43.53 43.64 43.83 44.86 47.85 50.29 52.07 47.02 43.97 42.22 42.04 45.17 50.74 51.59 43.93 45.40 43.22 44.26 46.07 45.94 47.90 59.84 57.04 55.54 54.95 55.96 56.74 58.84 60.83 62.25 63.92 64.30 65.01
37.51 38.62 40.07 41.45 41.93 45.00 45.36 46.23 45.04 45.55 43.82 43.81 44.65 46.34 46.93 49.51 52.21 55.17 55.44 54.22 48.53 47.85 47.56 48.66 45.66 46.22 45.74 50.06 48.46 51.63 57.36 57.66 56.16 55.76 55.57 56.93 59.69 59.99 59.45 60.56 59.96 60.09 60.36
36.93 38.46 39.60 40.86 41.42 44.00 46.15 46.27 47.19 47.06 45.72 44.39 45.10 46.52 46.36 47.99 51.65 45.20 44.96 49.03 50.96 50.54 49.02 50.59 52.42 52.90 52.77 54.11 55.22 54.80 54.51 55.94 56.40 55.99 55.77 56.43 57.41 58.57 59.87 61.30 59.80 60.30 58.66
36.00 37.50 38.33 39.19 40.73 43.11 45.74 46.58 44.16 41.41 40.26 39.12 38.64 40.23 44.09 42.89 41.48 40.57 39.71 38.83 40.32 41.77 51.19 52.43 52.52 54.22 52.22 51.78 52.52 53.13 55.45 54.41 56.00 56.23 57.17 57.67 57.85 58.95 59.59 60.63 61.53 61.67 59.77
34.91 36.27 36.23 37.56 39.96 41.90 43.26 45.05 44.53 48.23 44.47 42.37 41.27 41.27 40.67 38.99 39.68 39.12 38.08 38.31 39.96 47.88 53.04 52.70 52.83 53.58 52.89 51.39 53.20 54.32 54.56 55.86 58.33 58.27 58.97 59.22 60.62 62.15 60.19 60.42 61.16 61.86 60.34
34.34 35.03 34.78 36.55 37.74 38.43 40.74 42.37 45.51 47.64 46.97 48.17 44.64 41.87 41.42 41.73 40.85 39.57 40.51 43.86 52.35 51.56 55.02 53.85 52.85 52.71 53.37 54.79 54.53 55.30 55.95 57.00 57.95 58.70 58.88 59.34 60.25 60.82 61.23 60.28 61.07 61.00 59.69
32.65 33.39 34.03 34.59 35.65 36.18 37.53 39.13 40.91 42.04 44.66 47.54 48.81 43.85 43.63 42.76 42.90 44.08 46.22 53.76 51.68 54.98 55.32 54.66 54.68 54.19 55.44 57.15 57.09 57.13 56.92 56.86 57.26 58.67 59.06 59.86 61.28 61.53 61.85 62.79 62.31 52.86 55.30
32.45 31.95 32.19 32.71 33.38 33.21 34.70 34.59 36.30 37.64 38.86 40.42 44.22 41.90 42.73 45.59 46.34 48.13 52.45 53.11 54.59 54.78 54.58 53.72 54.19 53.87 56.80 56.65 55.95 55.97 55.59 55.79 57.12 58.15 59.23 60.36 61.43 62.23 61.31 61.31 61.81 59.96 60.92
32.58 33.37 30.88 30.85 30.79 31.78 31.37 32.00 32.47 33.90 35.35 37.46 38.78 39.90 35.00 43.87 44.96 46.04 47.63 50.62 53.52 55.32 55.94 56.39 56.17 56.15 56.69 57.96 56.81 56.58 56.48 56.77 57.45 57.88 58.49 59.63 61.05 61.24 62.23 62.15 61.60 61.92 59.57
31.01 31.24 33.08 31.35 29.60 29.45 29.97 30.58 30.85 30.64 32.30 33.30 34.99 37.46 34.82 40.16 41.34 42.75 46.19 47.12 49.94 51.10 54.79 56.10 56.94 57.54 57.80 58.60 57.65 57.32 57.21 56.74 57.97 58.63 59.30 60.61 61.67 61.67 62.07 61.99 61.75 61.83 59.98
30.37 30.02 30.68 30.96 31.14 29.92 28.63 29.43 29.09 29.26 29.60 30.36 31.86 33.13 34.92 36.53 38.02 39.55 40.06 42.51 46.75 48.22 50.26 52.48 54.45 56.34 58.46 58.55 59.21 58.17 57.32 57.26 57.91 59.11 58.74 58.46 58.22 58.31 58.87 59.88 61.53 61.59 61.20
29.18 29.61 28.85 29.16 28.78 30.22 30.18 30.21 29.18 28.53 28.67 28.72 29.64 30.45 31.45 33.01 34.62 36.10 37.04 37.65 39.36 41.77 47.48 51.90 51.24 52.71 54.91 57.85 59.40 60.29 59.68 59.23 58.97 59.28 59.30 58.84 57.89 55.96 58.24 57.56 57.73 59.68 61.37
28.24 27.85 27.97 27.43 28.04 28.16 28.99 29.63 29.62 29.70 29.61 28.85 28.28 28.74 29.60 30.93 31.97 33.15 34.62 35.18 35.88 37.71 42.10 45.73 49.15 51.95 53.31 53.89 56.25 56.92 49.31 39.07 55.03 48.26 59.29 59.53 58.71 58.32 57.60 58.31 57.80 57.60 60.45
27.76 27.59 27.33 27.46 26.82 26.99 26.95 27.41 27.80 28.69 28.75 29.83 29.88 28.76 28.63 29.16 29.34 30.33 32.19 32.92 34.01 35.63 37.69 40.24 42.02 44.41 52.30 53.26 54.51 44.86 37.27 35.54 46.46 39.11 57.99 58.71 57.64 57.39 57.50 56.90 56.50 56.83 57.84

GFSGL_sfc_wetblb_102.txt.gz
Wetbulb
56.16 55.92 55.60 55.74 55.97 55.84 55.39 55.66 55.66 55.73 55.46 54.93 55.23 55.41 55.61 56.50 57.66 58.29 58.73 59.06 60.94 64.68 65.88 66.58 66.94 68.03 64.94 64.20 65.08 63.99 63.47 63.02 61.09 63.46 65.66 68.90 71.18 69.86 69.72 70.91 71.11 72.24 70.39
54.86 54.39 54.58 54.85 54.83 54.43 54.25 54.40 54.72 53.91 54.48 53.74 53.71 53.49 53.32 53.97 54.97 54.68 54.30 56.40 57.71 59.57 62.94 64.30 64.84 65.44 66.25 67.46 64.99 65.08 64.01 65.16 62.45 63.00 65.52 66.23 69.38 70.28 69.18 69.71 70.12 70.10 70.51
53.84 53.67 53.92 53.75 53.55 53.53 53.31 53.58 53.26 52.85 52.54 52.28 51.65 51.19 50.83 51.43 51.20 52.18 52.61 53.69 55.04 57.38 59.84 61.75 63.09 64.38 64.52 64.07 65.10 64.53 63.73 64.40 63.65 64.09 62.69 65.45 67.10 67.91 67.59 69.13 68.69 70.71 70.12
52.83 52.67 52.44 53.02 53.10 52.84 52.86 52.33 51.54 50.53 49.64 49.38 49.40 49.19 49.18 48.71 48.37 49.18 49.66 50.24 52.46 54.01 56.77 60.16 61.49 62.76 63.63 64.13 64.16 64.98 64.89 63.47 62.88 62.06 63.63 63.00 65.39 67.33 67.87 66.51 66.29 69.50 68.29
51.61 51.65 51.93 52.61 52.58 52.02 50.59 49.74 49.83 50.44 49.93 49.27 48.80 48.94 48.80 48.74 47.48 47.92 48.44 49.01 50.21 50.47 51.36 53.29 58.43 59.97 58.87 60.60 63.20 63.52 63.68 62.81 61.23 60.38 62.07 61.79 62.20 63.97 64.67 66.08 66.05 69.27 68.26
50.98 50.93 51.41 51.35 50.88 50.33 50.20 49.77 49.49 50.30 49.22 49.06 49.82 49.78 48.33 47.31 45.67 45.78 46.87 46.27 47.14 48.22 48.39 50.24 52.93 55.43 56.65 54.96 54.56 55.24 59.68 63.02 62.02 60.03 59.56 60.53 63.23 64.76 66.23 65.49 66.86 64.00 63.44
50.53 50.49 50.49 51.05 50.83 49.91 49.14 49.12 48.77 49.35 49.47 48.49 49.76 47.95 49.64 47.67 45.16 44.17 45.24 46.06 45.52 46.87 48.21 47.97 50.21 53.19 52.80 57.99 55.21 53.17 53.97 52.64 54.13 62.72 61.57 62.10 63.26 66.75 68.23 66.81 65.00 63.89 63.96
49.57 49.73 50.33 50.86 49.50 50.16 50.46 50.30 48.90 47.79 47.02 48.47 49.12 49.48 48.58 47.88 44.55 43.21 43.91 46.04 45.86 46.80 47.45 48.62 49.24 51.23 52.95 52.58 58.24 59.65 60.44 62.00 61.89 60.98 64.15 64.71 67.29 67.63 66.28 63.59 64.14 64.63 66.96
47.72 49.16 49.54 48.88 48.37 50.18 48.79 47.72 48.50 46.96 45.84 47.25 49.06 50.10 48.89 48.21 44.32 42.84 43.97 46.52 45.34 46.89 49.05 51.10 51.35 52.58 48.05 45.82 53.53 55.66 59.06 59.93 57.57 53.37 54.64 55.13 52.46 51.24 60.17 63.86 63.89 64.83 62.70
44.96 46.30 47.03 47.44 48.30 46.68 46.70 46.00 47.55 46.13 46.49 47.05 47.70 48.62 47.56 46.76 44.81 42.56 43.57 46.21 46.13 47.03 47.68 49.58 48.10 50.68 46.15 44.91 51.70 56.81 56.49 57.55 59.54 61.24 62.96 58.15 53.81 57.39 51.61 65.36 63.97 64.30 62.67
43.43 43.88 45.61 48.08 48.01 46.79 47.18 47.84 46.61 46.07 47.58 47.78 48.10 46.90 48.55 48.20 48.43 43.78 42.91 48.09 47.15 47.31 49.18 50.54 55.24 45.89 44.44 44.19 44.66 56.27 56.65 58.21 58.32 62.28 62.39 62.32 62.00 62.44 61.11 63.00 66.42 66.20 63.55
40.82 42.09 45.86 47.12 46.81 45.36 47.44 46.19 46.92 47.97 49.18 46.75 46.19 48.60 50.02 51.99 49.17 47.91 44.21 42.65 47.88 51.36 52.38 52.72 54.86 46.66 43.17 43.30 45.88 47.35 45.44 48.85 60.28 61.71 59.71 59.34 59.74 60.68 62.18 64.99 67.45 67.85 65.02
39.85 40.74 44.25 45.35 45.02 45.68 47.00 46.21 46.79 48.54 47.35 48.90 47.69 47.99 49.35 52.45 54.57 46.91 44.61 43.67 44.45 45.38 49.13 49.35 46.39 43.99 42.28 45.06 43.07 43.81 43.61 54.74 57.50 57.95 57.98 57.44 59.65 63.76 65.64 66.30 66.56 65.71 62.89
38.14 39.68 42.85 41.49 41.81 45.58 44.99 46.51 49.33 48.27 47.96 46.52 46.68 47.81 49.13 51.51 51.62 53.47 54.90 54.98 49.21 50.23 49.87 49.44 48.09 47.22 47.83 51.53 50.48 47.20 53.04 57.68 58.48 58.58 58.68 59.38 59.35 59.62 60.86 63.31 61.98 61.55 59.78
36.87 38.45 40.30 39.30 40.08 43.52 44.89 46.08 47.22 49.66 47.83 47.05 46.13 46.05 44.73 44.31 46.08 45.12 43.47 46.22 46.50 45.74 43.80 51.30 49.44 49.66 50.20 51.99 52.87 54.40 56.89 56.89 56.34 56.64 57.84 57.82 57.87 58.43 58.53 60.19 59.88 60.87 60.15
34.76 35.82 37.21 37.80 39.16 42.54 44.18 44.36 43.82 42.86 41.68 40.29 38.99 41.31 44.42 41.89 41.18 39.20 38.74 38.46 38.13 40.15 52.13 50.96 51.80 53.30 53.22 53.72 54.04 54.90 56.36 54.90 56.50 56.42 57.16 57.64 57.01 56.90 57.04 58.32 59.57 59.85 58.88
33.74 34.47 35.10 36.88 37.30 38.52 40.31 41.90 42.85 47.54 44.25 43.16 40.00 40.83 40.08 39.54 40.45 39.20 39.00 40.37 41.27 47.17 53.06 51.04 51.75 51.25 51.52 51.94 52.32 54.84 55.07 56.73 58.23 56.93 57.36 57.98 57.03 57.57 57.46 59.85 59.79 60.29 58.97
34.32 33.39 33.49 35.61 35.37 35.46 37.58 38.86 42.18 43.22 43.14 46.19 45.79 40.24 39.60 39.42 40.17 41.54 43.09 46.09 56.60 54.16 55.35 53.52 53.62 53.57 54.23 54.36 53.70 53.18 55.66 57.25 57.25 55.59 58.07 58.54 59.64 59.11 59.10 59.42 60.33 59.83 58.69
37.34 33.98 32.82 33.51 33.14 34.77 35.00 35.20 36.67 39.19 39.37 41.10 45.91 40.61 40.59 39.66 41.09 43.39 44.94 56.96 56.20 56.54 55.28 54.91 54.83 55.67 57.23 58.08 58.34 58.00 57.69 58.45 58.68 58.81 59.00 59.71 60.13 60.74 60.87 59.66 60.85 52.94 55.05
37.65 35.09 34.80 32.98 31.37 31.70 32.94 33.00 32.60 34.64 36.50 37.83 39.55 39.84 38.63 40.94 41.66 42.48 47.61 50.76 54.13 57.65 57.76 57.01 57.29 58.08 56.10 56.13 57.25 58.13 59.49 59.07 59.65 59.57 60.07 60.50 60.90 61.54 61.57 61.58 61.80 60.91 61.47
38.32 38.63 34.80 37.21 36.51 31.84 31.48 31.64 31.75 31.55 32.79 34.37 35.93 37.49 32.74 38.41 38.65 39.71 40.75 42.72 49.10 53.59 58.42 57.35 56.41 57.82 57.08 57.18 56.75 56.21 56.99 57.69 59.58 60.62 60.60 60.67 61.66 60.24 61.74 62.84 62.75 62.52 61.61
37.69 37.73 37.93 37.72 37.13 36.39 34.45 32.26 32.00 31.84 30.64 30.42 31.90 34.69 33.23 38.30 36.36 36.54 37.63 38.28 41.87 47.42 55.14 57.05 58.64 59.25 59.35 58.40 58.74 58.43 58.39 58.46 58.40 59.80 61.26 61.76 61.79 61.59 61.10 60.83 61.61 62.49 59.44
36.63 36.91 36.80 37.25 36.47 35.79 36.93 36.41 35.10 34.41 33.17 30.98 30.06 31.21 33.36 34.92 35.05 35.00 35.62 36.76 38.21 42.12 48.48 53.00 55.59 56.52 60.33 61.04 60.76 60.52 59.22 58.97 60.42 61.14 61.24 61.93 61.93 61.77 61.44 60.74 61.03 60.75 61.48
35.65 35.54 35.14 35.39 35.36 36.04 35.67 36.22 36.61 33.90 34.33 34.61 33.19 30.26 30.96 31.87 33.82 33.84 34.22 35.98 36.56 37.85 42.50 45.69 49.55 51.30 56.10 58.98 61.10 61.81 61.21 60.85 61.13 61.03 61.08 61.01 60.66 59.09 60.63 61.11 61.39 61.45 61.25
34.35 33.81 33.46 32.51 33.50 33.75 34.15 34.66 34.56 34.87 35.04 34.81 33.04 32.63 31.86 31.34 31.07 31.74 32.65 33.48 35.00 36.14 36.98 41.40 45.19 46.38 47.24 54.58 52.85 53.05 42.18 36.22 50.70 41.21 60.98 60.51 59.80 60.18 59.33 59.05 59.08 60.09 61.24
33.76 32.89 31.53 30.21 29.73 29.89 30.42 31.61 32.37 32.68 33.07 33.79 33.01 32.74 32.80 32.71 31.18 30.98 31.52 32.59 33.97 36.18 35.36 36.00 37.69 42.63 44.50 43.89 44.66 37.02 34.72 34.92 43.19 35.00 52.91 60.66 59.82 59.38 59.14 58.51 58.09 58.46 58.29

GFSGL_sfc_wetblb_105.txt.gz
Wetbulb
58.53 58.43 58.43 58.50 58.75 58.59 58.04 58.08 58.05 57.99 57.62 56.98 56.77 56.50 56.23 56.32 57.21 58.22 58.12 58.14 57.51 59.13 61.69 61.40 62.22 65.20 64.79 65.38 67.17 66.63 64.65 63.90 61.55 63.66 64.75 66.93 68.54 69.70 71.56 72.21 70.95 70.65 69.76
57.69 57.54 57.69 57.75 57.88 57.36 57.03 57.03 57.05 56.03 56.01 55.43 54.94 54.18 53.73 53.33 54.21 54.27 53.86 54.06 53.88 54.62 56.59 57.51 59.06 62.35 63.64 64.79 64.98 65.45 65.63 64.53 61.38 60.75 65.02 65.23 67.03 68.48 70.27 71.39 70.28 69.90 70.70
56.93 56.81 56.97 56.79 56.61 56.44 56.05 56.12 55.48 54.70 53.98 52.90 51.81 50.85 50.72 50.76 51.07 51.35 51.04 50.28 51.17 52.01 52.40 53.21 56.35 58.67 60.36 62.32 63.73 64.31 64.04 64.87 65.07 62.51 60.85 64.62 65.38 66.44 67.37 69.66 70.33 70.45 70.07
55.98 55.79 55.49 55.70 55.53 55.16 55.14 54.54 53.66 52.75 51.73 52.14 52.30 51.76 51.47 51.19 50.63 51.05 50.25 50.65 50.17 50.59 51.57 54.10 54.19 53.86 56.42 59.39 61.33 62.06 63.16 62.40 63.04 63.13 61.27 62.22 63.61 65.70 66.10 65.12 66.80 68.99 67.82
54.91 54.58 54.86 55.25 54.92 54.63 54.16 52.85 52.92 53.00 52.74 52.29 51.55 51.32 51.40 50.04 50.40 50.21 50.63 49.98 49.38 48.54 51.06 50.76 51.71 53.84 53.02 52.96 52.53 57.64 61.57 61.52 60.92 58.69 59.24 58.55 61.65 62.32 61.92 64.27 64.84 66.55 69.28
53.50 53.82 54.44 53.77 53.76 53.15 53.70 52.07 52.28 51.37 51.71 51.45 51.13 51.05 49.08 50.04 47.57 46.92 48.63 49.51 48.65 48.34 46.81 49.24 50.68 51.27 51.28 50.21 50.53 51.67 53.95 57.91 58.93 57.20 58.86 57.49 59.84 62.47 63.03 64.14 65.01 64.96 64.35
52.88 53.42 53.43 52.80 52.23 52.25 52.81 52.09 51.95 51.77 52.54 51.34 51.14 51.09 49.48 50.28 46.65 45.12 46.19 48.06 47.83 47.29 47.58 48.70 48.40 49.51 50.70 50.57 51.03 50.99 51.92 51.60 53.54 59.30 57.62 58.19 59.41 63.38 63.60 63.99 64.66 65.97 65.55
51.55 51.57 52.36 52.44 52.00 52.14 51.60 51.76 52.56 51.78 51.08 50.80 49.20 48.21 48.95 50.45 46.39 44.08 44.61 47.72 47.65 47.54 47.39 48.60 47.67 49.17 50.63 50.65 51.35 52.45 54.48 55.25 60.25 59.25 61.19 63.06 64.29 64.80 64.44 64.72 65.54 67.42 68.49
49.22 49.04 50.61 51.04 50.59 50.41 49.06 50.21 51.00 50.30 49.44 48.10 47.74 48.87 50.23 50.26 46.15 43.30 44.36 47.37 46.79 46.80 48.55 49.96 49.29 49.20 46.92 44.45 50.52 51.42 51.79 52.52 55.38 52.92 52.67 51.74 50.88 50.11 53.87 64.83 62.71 64.81 62.10
45.11 45.74 48.19 48.90 48.84 48.40 48.91 50.32 49.29 50.50 48.85 48.89 49.25 50.99 49.66 50.91 47.17 43.97 45.00 49.37 47.59 48.01 49.67 48.79 46.63 47.13 44.88 43.40 47.74 49.49 48.24 49.99 53.62 59.74 56.77 55.75 51.97 58.07 50.48 63.49 63.48 61.03 60.00
42.82 44.15 45.76 47.11 47.86 49.01 49.80 49.38 50.12 49.02 50.19 49.93 49.70 51.27 51.40 51.00 52.93 45.31 43.72 50.93 50.70 48.47 48.34 48.88 49.78 45.31 42.87 42.66 43.51 49.31 49.19 52.66 54.25 57.10 58.52 60.76 61.66 63.36 63.84 64.54 62.42 62.69 62.61
41.38 41.54 43.42 45.91 47.80 48.21 48.86 48.36 49.14 49.89 50.10 49.07 48.81 49.38 50.76 52.35 50.08 48.65 44.02 43.83 49.74 50.73 48.81 49.52 50.66 45.57 43.58 44.52 43.20 44.75 43.64 46.65 53.49 54.91 58.35 59.68 60.55 61.17 62.71 64.15 65.70 63.72 67.38
38.80 40.03 42.62 45.36 47.75 48.05 47.64 47.19 46.52 48.11 48.90 48.40 48.80 48.25 47.26 48.47 50.58 46.56 44.44 44.59 44.00 45.52 49.36 48.44 45.69 44.16 43.21 42.82 41.47 42.72 42.58 51.31 53.26 55.53 57.15 58.57 61.74 61.97 64.31 64.71 65.69 66.03 66.02
36.81 38.45 40.79 43.56 44.04 47.11 47.02 46.95 46.45 46.13 46.43 47.80 48.12 46.79 45.19 44.25 45.83 46.40 46.11 47.70 47.45 48.92 49.17 49.80 48.36 47.74 45.91 48.47 49.39 45.37 51.69 55.81 56.48 57.07 55.39 60.99 63.02 63.39 63.24 64.99 64.38 63.46 60.50
35.64 36.21 37.20 40.00 41.85 44.12 47.21 46.79 46.75 48.67 46.14 44.64 46.49 44.42 41.57 40.21 41.56 40.28 39.20 41.80 46.77 46.50 42.50 44.89 47.67 50.49 50.53 52.03 54.70 56.18 56.28 56.84 55.71 55.77 57.02 57.22 58.48 59.98 60.94 63.39 62.23 60.73 58.66
34.71 34.22 34.24 37.72 39.48 40.73 41.29 43.89 43.09 41.75 40.51 39.58 39.92 40.24 40.62 39.06 38.75 40.26 41.42 40.08 38.06 38.16 47.17 51.33 51.20 50.07 50.65 52.47 54.50 54.69 54.69 54.50 57.28 58.16 57.12 57.69 57.35 57.89 58.66 60.10 60.23 59.18 57.47
37.87 34.95 33.83 36.61 36.83 37.85 36.72 38.34 38.28 44.50 42.42 41.71 39.13 38.97 38.39 37.36 38.67 39.72 41.04 42.65 43.74 44.74 51.41 51.58 51.47 50.38 51.34 54.03 54.10 54.31 54.48 56.42 56.44 57.04 56.21 55.81 54.90 54.22 55.21 56.28 57.60 56.95 57.15
39.67 36.88 35.31 34.44 34.08 33.94 35.50 35.49 34.61 38.28 40.15 43.68 43.66 39.55 38.02 37.07 38.59 39.01 40.18 46.97 52.76 54.28 53.08 52.73 52.99 52.64 52.09 52.58 54.03 55.41 54.71 55.70 54.38 55.39 54.31 54.97 55.35 53.17 53.05 54.99 55.99 57.51 58.28
40.99 39.74 39.63 37.74 34.02 33.41 34.24 35.78 34.48 34.08 36.25 37.82 42.63 41.05 37.75 37.29 37.77 38.62 40.42 43.68 47.02 51.61 54.54 54.69 54.17 55.78 56.98 54.19 53.67 55.38 55.35 52.21 53.06 55.92 55.99 55.29 55.58 56.04 57.13 56.56 57.46 51.47 54.04
41.17 35.23 38.62 41.12 40.50 38.86 35.64 33.97 33.91 33.61 32.45 33.08 34.76 36.60 35.87 37.43 36.36 37.38 40.47 41.87 46.10 49.36 52.65 54.81 55.48 57.43 57.12 57.36 57.38 57.81 57.63 55.85 55.00 55.74 57.28 58.87 59.48 58.86 57.83 58.75 58.95 58.97 59.87
40.41 40.92 36.87 41.13 41.04 40.98 39.20 38.07 35.40 35.42 33.24 32.42 32.16 33.92 31.78 36.42 34.95 35.03 36.40 37.92 40.58 44.50 47.91 50.14 55.34 56.08 57.43 57.64 57.70 58.59 58.24 58.91 58.91 60.18 59.27 58.45 59.60 60.09 61.02 60.64 59.63 60.11 60.40
39.68 39.59 39.82 39.70 39.70 39.79 39.60 40.98 40.13 37.80 36.36 35.21 32.65 33.55 32.33 36.77 34.67 34.69 34.45 35.02 37.87 42.42 45.06 48.55 49.61 51.15 52.07 53.81 55.70 56.55 58.60 58.91 59.44 60.47 61.14 61.02 60.31 60.01 60.08 60.93 60.46 59.80 58.72
38.89 38.54 38.04 38.36 37.63 37.07 38.62 39.33 39.08 38.74 39.25 37.82 35.58 32.76 33.75 33.92 34.17 33.11 33.10 33.07 36.09 38.09 41.19 44.17 47.11 48.08 49.06 52.61 49.59 50.33 47.18 47.16 56.19 61.73 60.21 59.19 60.50 60.62 60.93 59.72 61.48 61.53 60.61
38.39 37.47 36.26 36.19 35.81 36.46 36.32 37.10 37.82 35.31 37.60 38.04 37.27 35.71 33.50 34.30 33.26 33.05 32.71 32.69 33.16 36.41 38.74 39.47 42.31 43.50 45.99 46.77 47.79 46.69 42.79 39.64 49.16 49.97 58.26 59.09 59.35 57.84 59.19 59.96 60.26 61.44 61.40
37.67 36.48 35.52 34.04 33.91 33.69 34.05 34.42 35.27 35.65 36.68 36.89 36.48 36.18 35.00 34.64 34.00 33.75 33.41 34.05 33.51 34.30 34.75 36.23 38.53 39.39 41.09 45.39 43.12 40.75 35.21 33.02 39.12 35.57 49.30 60.69 60.57 60.41 59.89 60.61 59.06 59.80 60.29
37.37 36.35 35.11 33.42 30.87 31.64 31.52 31.90 32.55 33.45 33.92 35.33 35.55 35.48 35.19 34.30 33.40 33.40 33.21 33.80 33.84 33.75 34.48 35.02 36.17 36.35 38.34 42.59 39.08 34.10 32.46 32.12 34.79 33.39 41.12 58.56 59.77 59.57 59.58 58.91 58.18 60.43 60.58

GFSGL_sfc_wetblb_108.txt.gz
Wetbulb
59.81 60.20 60.51 59.96 59.66 59.81 59.05 58.88 58.52 58.43 57.44 55.99 55.78 55.22 54.13 53.65 53.95 53.33 53.17 53.49 53.44 53.60 54.39 54.33 55.06 56.55 56.25 58.20 59.66 60.71 61.38 61.48 59.61 60.07 61.11 62.76 64.86 66.27 67.07 68.28 68.64 67.36 66.38
58.41 58.75 59.19 59.38 59.07 58.67 58.02 57.79 57.96 56.35 55.78 54.43 53.84 53.12 52.43 52.28 52.19 51.39 50.47 50.86 50.48 50.55 50.78 51.25 51.33 53.12 51.98 54.57 56.19 57.72 59.60 60.55 59.28 58.54 60.14 60.78 62.28 62.04 65.28 65.31 67.17 68.19 67.33
56.72 57.03 58.55 58.44 58.16 57.57 56.73 56.98 56.57 54.91 53.70 53.18 52.65 52.18 51.77 51.88 51.33 51.02 50.29 50.25 50.00 49.84 49.86 49.52 49.20 49.31 49.85 51.20 52.94 54.81 56.85 59.24 60.14 58.85 59.47 61.34 61.05 63.14 62.05 62.60 64.57 65.18 67.89
55.39 55.98 56.46 57.26 57.15 56.45 56.24 55.97 54.78 54.27 53.33 52.75 52.63 52.10 51.55 51.41 51.31 51.07 50.42 50.11 50.59 50.39 50.23 50.34 49.57 49.59 49.37 49.79 51.22 51.88 53.77 52.21 55.19 58.16 58.71 58.96 60.49 61.82 61.61 59.28 59.60 64.11 64.14
53.78 54.40 55.63 56.59 56.43 55.59 54.98 54.64 54.52 53.64 52.59 52.53 51.50 51.17 51.20 51.38 51.17 49.90 49.14 49.31 48.92 48.90 49.69 49.46 49.37 49.78 51.06 50.47 49.44 49.04 49.55 48.99 50.53 51.98 56.53 57.66 57.70 58.00 57.73 60.12 59.30 61.17 63.37
52.44 53.14 54.80 54.87 54.40 54.43 54.21 54.25 53.57 53.32 53.04 52.45 51.94 51.46 50.96 50.70 47.79 47.41 48.50 48.44 49.04 48.98 48.16 48.10 48.68 49.86 49.01 49.18 49.46 49.66 49.25 47.64 47.17 48.62 51.84 54.66 56.56 57.91 59.03 59.19 59.54 58.79 57.46
50.34 52.30 52.81 52.89 52.53 53.04 52.83 52.63 51.96 51.71 52.28 50.51 51.12 50.93 49.84 49.46 46.58 45.40 46.89 48.53 48.83 48.30 48.15 47.54 47.48 48.40 48.32 47.96 48.14 48.61 49.08 48.88 49.56 50.15 49.53 52.55 56.01 57.96 59.15 59.23 58.23 58.85 58.63
48.68 50.09 50.97 50.54 51.06 51.46 51.48 50.66 50.29 50.08 49.59 50.00 50.00 49.92 48.70 49.39 46.48 44.95 45.37 48.16 48.78 48.54 48.33 48.21 47.69 47.25 47.53 47.35 47.46 48.06 49.06 49.89 51.01 52.58 52.99 55.25 56.57 58.98 60.22 59.82 59.43 59.37 59.60
45.99 45.80 46.57 47.14 48.52 49.08 48.57 48.05 49.76 49.02 49.81 50.01 49.97 49.70 49.80 50.24 46.94 45.02 45.72 49.06 49.33 49.36 49.46 48.86 48.36 47.80 46.18 44.20 47.18 46.44 47.00 48.64 51.07 49.42 48.33 47.25 47.20 50.02 52.30 58.80 57.78 57.21 56.77
42.35 43.05 44.05 45.45 46.57 46.80 47.60 48.33 48.94 49.56 49.39 49.72 50.10 50.82 50.53 50.95 47.47 45.17 45.54 49.23 48.59 49.00 49.95 50.29 47.34 47.05 44.81 42.82 46.06 46.21 45.65 47.12 49.61 50.93 51.55 51.06 49.98 53.56 50.53 56.28 55.98 55.23 55.87
41.21 41.44 42.48 43.67 45.56 46.72 48.77 48.13 49.55 49.16 49.12 48.57 49.92 51.10 51.18 50.74 50.29 44.87 44.26 46.76 47.50 48.07 48.82 50.11 51.17 45.32 42.52 41.96 42.31 46.45 46.26 47.27 47.68 49.99 51.32 52.36 55.07 56.93 58.30 57.02 59.89 58.68 57.12
39.41 39.60 40.98 43.32 44.88 46.41 46.92 47.48 48.08 48.83 48.37 47.75 47.99 48.47 50.31 49.65 46.55 44.81 42.44 42.29 43.45 44.18 45.84 48.55 51.45 45.18 42.92 41.78 42.51 43.55 42.22 43.42 47.06 49.74 50.18 51.81 55.35 56.67 58.31 59.70 60.73 61.23 62.22
37.70 37.83 39.67 41.01 43.64 44.39 45.74 46.87 46.45 47.54 46.33 46.03 45.92 46.61 45.73 45.59 44.82 42.69 41.22 40.76 42.60 43.37 46.42 47.92 45.33 43.86 42.94 43.66 41.95 42.06 42.13 45.42 47.86 48.41 49.14 51.14 55.65 57.63 58.97 59.07 60.35 62.48 61.56
36.82 36.33 37.51 37.84 40.42 43.59 45.44 45.74 45.04 45.56 45.79 44.71 45.52 44.46 42.28 42.03 40.89 41.11 40.65 42.81 46.03 47.73 48.13 49.01 47.53 45.72 44.83 47.10 47.26 46.77 46.59 49.40 49.53 48.91 50.89 53.57 56.68 57.77 58.60 59.38 58.71 60.31 59.71
38.08 36.06 35.67 36.25 39.99 41.85 42.39 42.23 40.82 43.25 41.72 42.51 44.54 42.67 39.40 37.78 38.39 38.08 38.96 40.66 44.69 46.27 43.84 47.33 50.70 48.72 48.23 49.31 50.48 52.31 51.01 51.65 50.65 51.76 53.48 54.39 55.35 56.76 57.48 59.24 59.55 59.41 59.04
38.50 37.14 35.54 35.58 37.48 38.19 39.44 39.35 38.06 37.88 39.46 38.85 39.07 38.59 38.66 37.34 37.29 37.88 38.27 39.17 41.15 42.13 49.64 51.36 50.99 51.19 50.49 51.13 52.33 53.73 54.50 52.88 53.69 54.45 54.96 55.31 55.41 56.76 57.12 57.81 59.40 59.17 58.01
39.18 38.54 37.03 35.88 35.52 34.96 35.59 37.11 35.90 37.53 39.47 38.50 38.37 37.18 36.38 35.78 36.84 37.46 38.19 38.74 42.02 47.54 52.26 52.58 50.62 51.40 52.86 53.33 53.50 53.49 53.09 55.02 55.16 54.16 55.33 55.55 56.66 57.62 54.98 57.89 58.45 57.94 55.49
41.38 38.09 40.42 38.90 35.86 34.61 34.66 35.24 36.06 34.52 33.90 35.09 37.87 37.03 35.96 35.69 36.56 36.91 37.33 40.90 44.71 46.22 47.55 49.72 52.46 50.97 52.30 52.67 53.38 52.86 53.26 53.08 54.05 54.91 54.35 53.46 53.38 55.53 57.31 57.63 57.40 56.72 55.53
40.74 39.28 40.88 41.92 40.73 38.60 38.26 36.54 35.90 36.06 34.38 34.36 35.33 35.80 35.69 36.29 36.18 36.35 36.58 38.28 38.42 41.93 44.54 47.22 49.70 49.87 51.77 53.95 52.76 52.19 52.12 51.72 53.34 54.41 54.30 53.83 54.49 53.91 54.95 56.61 56.48 51.06 52.90
41.37 36.54 38.74 40.86 40.99 40.33 41.10 40.26 38.30 37.38 36.23 34.10 33.34 33.46 34.80 35.33 33.57 34.13 34.58 34.89 36.44 37.75 40.62 41.78 46.49 47.95 48.85 48.91 49.91 54.56 53.85 51.77 53.64 54.35 54.06 54.70 55.03 55.31 54.64 55.57 54.33 56.31 57.20
40.00 40.10 37.00 39.33 39.64 38.97 39.71 39.60 39.05 39.35 38.20 35.95 34.05 33.72 32.23 35.25 32.74 32.71 32.98 32.80 33.59 35.99 37.91 39.13 42.53 44.31 45.47 45.82 47.20 45.51 45.67 45.42 50.82 56.25 55.76 56.36 56.17 54.89 55.91 56.30 55.31 57.31 57.77
39.13 38.18 38.56 37.21 37.89 37.68 37.82 38.67 37.49 37.46 38.02 37.48 36.44 34.67 32.75 35.05 34.56 32.54 32.71 32.49 33.46 34.99 36.27 37.97 39.18 40.39 41.40 45.13 42.78 41.84 39.30 38.91 42.67 47.92 54.38 57.11 56.60 56.51 57.57 57.45 58.30 58.20 57.99
37.94 37.08 36.23 36.01 35.76 35.56 36.34 36.75 36.56 36.17 36.78 36.87 36.66 36.10 34.73 33.55 33.75 33.89 32.80 33.39 33.60 34.11 35.09 35.85 37.45 38.26 39.40 43.26 40.73 39.63 35.07 34.34 39.17 42.39 43.92 54.53 58.66 57.88 57.90 57.65 58.20 58.84 58.66
37.13 36.20 34.67 33.99 33.66 33.99 33.75 34.03 34.75 33.21 35.22 35.71 35.38 35.80 35.52 35.08 33.25 33.76 33.70 34.10 34.28 34.41 34.89 34.74 35.83 35.72 37.11 38.33 37.50 36.80 34.43 32.99 36.89 37.29 41.29 50.12 55.85 56.30 57.69 57.87 58.31 59.20 58.40
36.85 35.74 34.33 32.94 31.89 31.62 31.21 31.62 32.35 32.34 33.20 33.81 33.98 34.25 34.77 34.83 33.31 33.64 33.58 33.84 33.94 34.24 34.47 34.76 35.00 34.89 35.93 36.19 34.86 33.43 31.97 31.62 33.35 32.36 37.96 46.47 57.01 57.45 58.68 59.54 59.49 59.08 58.02
36.58 35.63 34.55 33.56 30.78 30.59 29.52 29.51 29.57 29.28 30.11 31.66 31.87 32.33 33.11 33.23 32.47 31.74 32.86 33.07 33.14 33.26 34.32 34.58 34.74 35.18 34.86 35.11 33.25 31.36 31.06 31.10 32.06 31.35 35.44 49.70 54.19 56.13 57.25 58.36 59.49 59.48 59.15

GFSGL_sfc_wetblb_111.txt.gz
Wetbulb
52.16 52.42 52.87 53.00 53.54 53.33 52.85 52.79 52.70 52.10 51.60 50.80 50.71 50.31 49.91 49.39 49.02 48.09 47.81 48.51 48.22 48.11 48.79 49.65 50.06 50.27 50.24 51.18 51.04 51.96 53.64 54.48 54.35 57.31 59.89 61.00 61.10 61.51 64.69 66.08 67.46 66.10 65.23
51.80 52.13 52.37 52.69 52.39 52.08 52.04 51.74 51.89 50.17 50.10 49.93 49.73 49.57 49.95 50.02 48.74 48.36 48.02 48.59 48.24 48.09 47.66 47.35 47.53 49.13 47.20 47.33 47.41 47.58 49.02 52.56 53.98 53.08 57.13 58.55 59.48 61.33 61.67 62.19 65.56 66.85 65.87
51.42 51.12 51.44 51.50 51.30 50.83 50.76 50.58 50.99 49.33 49.05 49.34 49.48 49.19 49.65 49.28 48.36 48.18 48.48 48.89 47.81 49.15 49.26 48.83 48.03 48.23 46.98 45.85 46.15 46.62 48.56 50.37 51.22 51.89 51.93 56.50 58.80 61.31 60.87 61.51 62.05 63.35 65.59
50.70 50.19 50.10 50.46 51.01 49.95 49.97 49.74 49.00 49.41 49.26 48.72 48.64 48.88 49.10 49.32 49.33 49.60 50.00 49.00 47.50 48.20 49.88 49.80 48.37 48.11 47.13 46.33 46.53 46.77 46.81 46.50 48.62 49.53 49.88 51.48 54.56 58.87 60.87 59.71 59.25 61.79 61.92
49.30 49.18 49.47 50.59 50.00 49.46 49.20 48.76 49.63 49.30 49.43 49.70 49.55 50.19 49.99 49.17 49.85 47.45 47.44 46.84 46.26 46.06 47.07 47.56 47.91 49.39 50.95 49.80 47.62 46.19 45.88 44.75 45.27 45.58 45.73 47.06 49.44 53.39 56.26 59.34 58.68 57.75 59.66
46.80 47.18 49.70 49.51 49.24 48.87 48.89 48.98 48.08 47.73 47.97 48.55 48.89 49.65 47.72 48.76 47.39 47.35 48.15 46.46 46.09 46.14 46.00 47.62 48.83 50.25 49.41 49.43 49.41 49.50 48.38 44.82 43.44 43.40 43.58 43.67 46.34 49.69 53.19 57.24 57.86 57.22 56.21
45.75 47.15 47.75 47.05 46.99 47.16 47.56 46.97 46.07 46.07 47.49 49.03 48.54 47.29 46.77 47.33 46.05 45.51 46.92 47.73 48.23 47.79 47.38 46.85 47.18 48.40 48.76 48.31 47.98 48.09 47.79 47.93 48.10 46.02 43.96 44.82 45.84 49.39 51.77 53.69 56.99 56.89 55.73
42.98 43.13 44.09 43.97 44.29 45.30 45.36 45.27 45.91 48.28 48.23 47.89 48.07 48.68 47.93 48.39 46.35 44.96 45.86 48.27 47.90 48.29 47.98 47.62 47.46 47.49 47.53 46.98 46.29 45.94 45.59 46.20 46.69 48.26 48.60 47.83 48.19 49.84 51.72 55.20 55.73 58.20 58.60
40.47 40.87 42.03 42.46 42.87 43.87 44.09 46.00 47.29 47.78 47.87 48.00 48.84 49.16 48.76 49.67 46.53 44.71 44.72 46.61 46.39 46.71 48.02 49.51 50.24 49.63 46.96 43.66 46.20 45.67 45.17 46.21 48.35 47.28 46.64 46.02 45.86 46.30 49.47 52.58 54.28 56.21 54.64
39.43 40.06 40.70 41.20 41.72 42.93 44.82 45.47 47.17 47.04 47.67 48.29 48.61 47.77 48.34 48.49 46.18 43.32 43.17 43.98 42.99 43.89 45.08 45.98 46.96 47.96 45.70 42.83 45.55 46.00 45.02 46.14 47.03 47.57 48.67 48.22 46.00 48.48 46.95 50.47 54.07 54.61 55.14
38.90 38.86 39.88 41.60 42.04 43.95 44.93 45.76 45.62 46.90 47.65 47.83 46.14 45.65 45.69 46.58 44.78 41.99 41.50 41.37 41.41 41.03 42.01 43.64 45.24 44.09 43.05 41.87 42.64 47.10 46.44 47.40 47.26 47.78 48.21 48.97 49.88 50.29 50.90 54.56 55.69 56.25 53.95
36.74 37.04 38.66 39.24 40.53 42.70 43.14 44.79 46.05 45.94 46.07 43.90 43.22 43.49 45.20 43.50 43.09 41.55 39.76 39.25 40.36 40.55 42.55 45.34 46.39 43.27 42.21 42.73 43.10 43.61 41.67 43.96 47.01 47.16 47.01 47.77 48.60 49.63 52.57 55.77 56.75 57.83 58.37
37.25 36.32 36.82 36.59 39.32 40.94 42.51 42.08 41.98 42.99 41.76 41.13 41.40 41.79 40.16 41.12 40.68 40.16 38.80 38.94 40.23 41.89 46.10 47.78 44.60 42.91 41.65 42.23 41.93 41.40 41.03 44.97 45.38 45.04 45.31 47.34 48.65 50.93 55.42 56.37 57.84 58.35 58.22
35.74 36.48 36.14 35.98 37.38 40.23 40.02 40.83 37.06 37.97 37.98 38.95 40.75 36.48 36.98 37.77 37.46 37.87 38.26 39.28 41.45 46.00 48.92 50.77 49.56 45.69 42.86 43.10 45.21 46.25 46.99 47.30 46.74 46.42 47.81 48.95 51.97 53.70 54.86 54.14 54.53 56.13 56.29
36.25 36.14 35.68 36.03 36.49 37.08 38.63 39.17 37.20 37.54 37.49 36.17 37.36 35.37 35.00 34.87 36.19 37.09 37.04 38.29 41.53 43.91 48.28 51.29 52.17 52.15 51.13 49.67 49.16 49.44 50.13 48.63 48.11 49.04 48.30 50.46 51.80 52.69 53.69 54.07 54.37 55.29 55.75
35.72 35.78 35.60 35.37 35.84 35.85 34.92 36.59 37.97 37.17 37.39 36.33 37.27 35.61 35.45 36.41 36.77 36.67 36.44 37.54 38.83 39.36 45.96 47.42 47.96 48.59 50.28 52.37 51.48 51.90 52.74 50.19 49.61 49.38 49.73 50.11 51.44 51.88 53.05 54.50 55.77 55.27 55.67
35.59 35.93 35.83 35.82 35.33 34.73 35.08 35.09 34.34 36.92 37.65 36.54 36.07 35.65 35.59 35.81 35.94 36.01 35.99 36.80 37.74 40.26 41.47 43.58 45.47 45.38 47.19 49.36 52.25 52.39 52.01 53.58 53.05 50.70 50.63 51.74 51.80 52.24 51.71 55.25 54.99 55.59 56.03
36.52 37.80 35.76 36.45 34.81 34.12 34.60 34.92 35.43 35.18 33.96 34.46 35.05 35.07 35.40 35.53 35.24 35.21 35.20 36.84 36.83 38.00 38.97 40.07 41.24 43.32 44.53 45.60 45.92 49.02 51.45 53.24 53.99 54.26 53.68 53.55 53.49 55.29 54.75 55.59 56.57 55.95 55.23
36.78 36.24 36.45 36.30 34.85 35.24 34.20 33.59 33.64 34.94 34.98 34.21 33.81 33.89 34.77 35.23 34.78 34.59 34.55 34.36 33.86 34.97 36.16 37.79 39.42 40.18 43.31 41.87 42.98 42.21 43.38 44.16 51.12 53.31 53.45 53.99 54.14 55.31 56.11 56.47 56.03 49.85 51.26
36.90 36.67 36.16 35.57 35.10 34.93 34.96 33.76 33.75 33.04 32.80 33.68 32.52 31.85 33.23 33.59 32.61 32.20 33.21 33.09 33.09 33.97 34.61 36.28 37.39 38.61 40.65 39.30 39.30 38.94 38.48 39.20 42.99 46.96 52.68 53.86 53.46 54.39 55.53 56.65 55.89 54.59 55.36
35.07 35.24 34.87 34.27 34.03 33.50 33.83 32.79 32.77 32.85 32.20 31.90 30.70 33.20 31.76 32.62 31.66 32.09 31.94 32.47 32.94 33.19 34.03 34.88 35.91 36.44 37.72 37.48 35.56 35.91 35.58 35.38 37.11 40.61 43.85 49.42 54.35 53.02 53.09 54.73 57.28 57.22 56.77
34.67 33.92 33.42 31.89 32.69 31.97 32.07 32.29 31.07 31.40 31.84 31.24 31.70 32.45 31.47 32.36 32.30 31.50 32.29 32.34 33.33 33.98 34.81 34.87 34.71 35.46 35.94 35.58 33.77 33.74 33.28 33.10 33.87 35.61 37.51 43.11 52.02 53.89 54.79 53.21 53.90 56.79 55.87
33.64 32.49 31.36 31.13 31.00 30.99 30.16 30.26 29.14 29.24 29.98 30.57 30.51 30.89 30.71 29.46 30.01 30.29 30.79 31.75 33.26 33.48 34.40 34.46 34.64 34.25 35.04 35.51 33.74 32.95 31.15 30.99 32.15 34.43 34.49 38.91 50.18 54.34 54.03 54.95 54.30 56.25 55.75
32.81 31.44 29.58 29.23 29.51 27.99 27.83 27.84 27.48 27.78 28.93 28.65 28.94 29.10 29.77 29.13 28.76 29.11 29.48 30.33 31.38 32.58 33.51 34.05 33.97 33.76 33.84 33.76 33.13 32.82 31.77 31.34 32.66 33.11 35.19 41.19 49.73 52.29 56.17 56.23 56.57 56.81 55.89
31.71 30.61 29.17 28.64 27.45 28.74 28.73 27.89 26.49 26.03 27.28 27.36 27.37 27.84 28.65 29.19 27.99 28.90 28.59 29.38 29.81 30.23 31.36 32.21 33.18 33.32 33.14 32.83 31.37 31.55 30.70 30.44 31.49 31.23 34.94 44.03 46.80 49.49 49.74 57.48 57.09 57.22 56.29
31.31 30.46 28.85 28.24 28.22 29.23 29.20 27.49 26.71 26.85 26.29 26.58 26.85 26.91 27.50 27.82 27.37 27.67 27.76 28.01 28.13 28.74 29.31 29.86 30.77 31.00 31.63 31.89 30.50 30.30 30.03 30.20 30.46 30.45 35.79 41.54 43.96 45.25 45.77 55.18 57.29 56.62 55.63

GFSGL_sfc_wetblb_114.txt.gz
Wetbulb
50.83 51.14 51.40 51.62 51.93 51.69 51.10 50.85 50.85 49.82 49.08 49.06 49.22 48.71 48.60 48.41 48.25 47.20 46.63 47.36 47.67 47.08 46.99 47.04 47.14 47.58 47.41 46.60 46.62 47.06 46.45 47.30 45.33 48.47 53.06 56.27 57.04 58.43 59.71 60.85 62.21 63.99 64.71
50.22 50.93 50.90 50.70 50.64 50.39 49.92 49.97 50.22 48.65 48.54 48.68 49.02 48.87 49.06 49.31 48.63 47.38 47.31 48.22 47.75 47.50 47.28 46.90 47.49 48.99 46.35 45.86 46.02 45.16 44.71 45.17 44.59 43.78 47.77 49.95 53.75 55.84 57.43 59.00 61.13 63.03 65.49
49.20 48.97 49.34 49.67 49.80 49.10 49.05 49.20 49.79 48.31 47.60 48.16 48.30 48.12 48.60 48.86 47.99 47.55 47.48 47.95 47.87 48.25 47.80 47.28 47.33 48.06 47.52 46.58 45.83 44.95 45.43 46.09 45.68 45.61 45.69 47.87 50.45 52.02 52.91 55.96 59.75 61.89 63.77
48.01 47.30 47.49 48.01 49.10 48.44 48.64 48.16 47.64 48.07 47.85 47.97 48.21 48.53 48.90 48.53 48.33 48.56 47.99 46.59 46.35 47.07 47.19 47.27 47.21 47.42 47.09 46.68 46.40 46.13 46.02 44.88 45.22 44.29 44.66 46.03 48.16 50.20 50.60 51.98 53.89 59.84 60.83
45.83 45.34 46.06 47.46 47.49 47.49 47.29 47.16 47.24 46.89 47.49 48.20 48.15 47.66 47.29 48.14 48.71 47.73 48.43 48.29 47.83 47.31 47.55 47.39 47.21 48.17 49.92 49.32 47.47 47.14 47.03 45.52 44.64 43.63 42.57 42.27 43.07 45.15 45.26 48.43 51.84 54.13 59.40
44.51 44.49 44.60 44.57 45.46 45.63 45.99 45.92 45.34 45.36 46.12 46.54 46.77 46.66 46.51 48.00 46.89 47.17 48.44 48.02 48.33 47.58 46.93 47.62 47.68 48.93 49.13 49.97 50.32 50.46 49.38 46.02 45.14 43.79 42.85 41.56 42.33 42.50 44.53 45.63 47.62 50.98 54.24
41.57 42.95 43.20 43.19 43.43 43.48 44.67 44.67 44.06 44.16 45.33 45.69 45.40 47.73 46.63 46.27 45.85 45.46 46.83 47.79 47.62 46.92 47.55 47.86 48.19 49.16 49.28 48.62 48.54 48.85 48.54 48.24 47.91 45.71 43.86 44.04 44.00 44.00 45.23 45.36 47.05 50.51 51.17
39.51 40.22 41.46 41.14 41.52 42.71 42.83 43.20 43.56 44.07 44.85 45.13 46.75 48.35 46.67 47.79 46.31 44.74 44.87 45.63 45.33 45.63 46.55 46.99 47.31 47.84 48.85 48.50 48.01 47.70 47.30 47.23 47.05 46.94 46.18 45.54 45.67 46.06 46.45 47.09 47.25 49.86 52.85
38.13 38.35 39.37 39.73 40.38 40.81 41.69 44.21 43.35 43.81 45.28 45.76 45.88 46.58 45.98 46.47 45.11 42.83 42.80 42.48 42.79 43.83 45.45 46.21 46.08 46.05 45.28 43.60 47.28 46.83 47.00 46.95 48.18 46.85 46.01 44.87 44.31 44.60 46.66 48.30 47.94 49.78 52.07
37.14 37.26 38.18 40.27 41.62 41.88 43.41 43.82 45.54 45.71 46.57 47.67 46.67 45.59 45.92 44.70 42.49 41.52 41.36 40.40 40.22 41.70 42.49 43.97 44.55 44.24 42.79 41.80 43.86 46.44 46.11 46.59 47.22 47.33 47.52 45.69 45.24 46.26 45.36 46.66 48.53 49.08 49.53
36.73 36.58 38.23 39.94 39.08 41.76 42.11 43.49 44.50 45.04 43.64 44.19 43.33 43.45 43.89 42.03 41.11 40.44 40.11 38.78 39.48 39.64 41.24 43.33 46.47 44.55 43.24 42.23 41.73 44.87 46.41 47.98 47.52 47.75 48.04 47.90 48.36 48.90 49.85 48.21 48.66 49.84 48.93
35.90 35.37 36.78 37.80 38.53 40.57 41.40 41.51 40.72 40.97 40.33 39.16 39.67 39.37 39.34 39.14 40.37 39.45 38.41 38.61 39.48 40.01 41.60 45.62 49.26 45.41 42.59 41.73 41.50 41.82 41.00 43.10 47.18 47.74 47.35 46.88 47.29 47.99 48.55 49.15 50.43 52.43 53.78
35.28 34.45 35.68 37.19 38.35 40.18 39.23 36.69 35.42 36.99 36.70 37.27 37.93 35.02 34.80 38.00 38.59 38.61 37.91 38.14 39.69 41.75 45.07 45.55 43.71 43.90 46.04 45.41 43.52 40.28 40.07 44.62 45.38 45.39 45.65 46.54 47.87 49.00 50.23 50.64 51.57 52.76 54.80
34.47 35.10 36.92 36.43 36.99 37.73 39.02 38.62 35.93 35.32 34.40 35.87 35.45 33.73 33.23 36.18 36.47 36.55 36.65 37.78 40.20 41.50 44.09 47.91 46.19 45.55 45.67 47.88 46.07 46.46 46.43 46.25 45.92 45.34 45.48 46.92 48.46 49.04 49.35 50.97 50.98 52.34 53.98
34.36 36.22 36.18 36.44 36.79 36.78 36.90 37.90 36.70 36.90 35.65 34.81 35.31 34.60 33.95 34.03 34.85 36.14 35.59 36.85 38.37 39.22 42.71 44.19 43.94 44.92 44.10 45.17 46.04 48.30 51.25 49.75 47.64 47.29 47.27 48.25 49.04 50.14 51.00 53.32 53.90 54.35 53.07
33.40 33.72 33.56 34.50 35.63 36.07 35.75 36.39 37.63 37.11 36.79 35.90 35.74 35.41 35.74 35.79 35.69 35.55 35.70 36.27 36.68 37.74 40.48 40.37 40.36 40.44 41.70 41.14 42.06 41.80 44.01 46.04 50.03 48.91 46.77 48.84 49.09 51.12 51.79 52.96 54.08 54.10 52.40
34.19 34.16 32.94 35.37 34.57 34.95 34.87 35.37 34.83 37.03 37.48 36.25 35.17 35.30 35.76 35.05 35.04 35.12 35.30 35.81 36.06 36.75 37.19 37.60 38.13 38.19 40.06 38.57 39.64 39.22 39.28 41.91 45.76 49.91 47.11 47.44 49.39 50.86 50.31 51.78 52.30 54.20 53.13
34.05 36.74 34.21 34.78 34.98 34.25 33.16 33.12 33.02 33.84 33.23 33.43 35.12 34.35 35.00 35.02 34.64 34.49 34.83 35.36 34.61 35.15 35.16 36.00 36.03 36.96 38.19 36.61 36.15 36.76 37.41 38.75 39.59 44.15 51.82 52.35 52.32 52.07 52.62 52.60 53.43 54.35 54.66
34.33 34.10 33.91 34.41 34.25 34.61 32.96 30.70 31.22 31.69 31.47 32.31 32.90 33.29 33.69 34.21 34.18 34.15 34.24 33.32 32.48 32.81 33.78 34.63 35.09 35.80 36.22 35.41 34.61 35.22 35.75 35.94 36.71 39.10 41.66 46.66 52.85 53.69 53.90 54.56 55.06 48.32 50.91
34.35 34.62 34.27 33.03 32.30 32.31 31.71 30.36 30.24 30.12 29.68 29.94 30.44 29.57 30.40 31.54 29.30 30.67 31.90 32.46 32.35 32.62 33.29 33.54 34.38 34.69 35.07 34.38 33.28 33.49 33.68 34.16 34.62 35.69 37.33 39.95 44.87 53.10 55.00 55.30 55.22 54.17 54.71
32.58 31.96 32.95 31.74 30.87 30.67 30.27 28.92 28.83 29.22 29.20 28.71 29.27 29.99 29.37 28.56 27.96 28.20 29.54 30.31 31.23 31.86 32.85 32.99 34.00 33.55 33.91 33.52 32.73 32.22 32.19 32.28 32.85 33.37 35.00 37.49 41.50 50.01 53.74 55.86 55.57 55.71 55.00
31.28 31.00 30.91 29.66 29.32 28.93 28.69 27.60 27.24 27.51 27.49 27.18 27.57 29.30 29.17 27.68 27.60 27.09 27.89 28.34 29.88 31.71 32.67 32.72 32.90 32.46 32.88 32.49 31.33 31.23 30.88 30.34 30.77 32.28 33.77 35.81 40.90 51.03 53.74 54.23 56.54 56.04 54.66
30.39 29.56 28.99 28.67 28.76 28.29 26.67 25.91 25.52 25.81 25.84 26.00 26.52 26.79 27.82 26.06 26.99 26.04 26.67 27.60 28.38 29.26 30.92 31.29 31.49 30.77 31.72 32.49 31.24 30.97 29.88 29.19 30.08 32.22 32.84 35.66 44.13 47.44 53.56 53.54 55.40 54.84 53.78
29.85 28.73 27.52 27.00 28.00 26.56 25.60 24.88 24.57 26.16 25.63 25.36 25.58 25.80 26.24 25.73 26.34 25.69 25.86 26.51 27.12 27.41 28.52 29.12 30.38 29.46 29.72 30.76 29.60 29.97 30.30 30.09 31.52 31.73 33.25 39.36 42.82 44.57 48.82 54.31 54.85 53.48 51.28
28.05 26.73 25.94 25.48 28.13 26.47 24.31 24.63 25.43 24.94 25.26 25.72 25.59 25.48 25.75 25.52 25.32 24.86 25.38 25.57 25.65 26.09 26.48 27.04 28.20 28.04 28.00 28.77 28.34 28.57 29.33 29.61 30.30 30.61 34.31 38.16 40.56 42.71 44.41 53.43 55.76 54.17 51.99
29.18 28.46 27.24 25.73 25.84 26.45 24.33 23.71 24.58 24.77 25.14 25.66 25.63 25.32 26.01 24.73 24.26 24.23 24.69 24.44 24.35 24.71 25.45 26.09 26.48 26.76 27.54 28.03 28.07 28.33 28.44 29.10 29.41 30.20 33.31 36.21 37.74 39.15 41.69 49.16 56.03 55.51 53.87

GFSGL_sfc_wetblb_117.txt.gz
Wetbulb
50.47 50.37 51.02 51.02 51.12 50.86 50.49 50.20 49.81 48.87 48.26 48.01 48.20 47.91 47.71 47.69 47.55 46.72 46.33 46.69 46.60 46.63 47.07 46.94 46.93 46.43 45.35 46.11 44.91 44.80 44.73 44.66 42.41 43.86 45.85 46.94 47.69 49.68 52.65 54.69 58.10 58.12 60.03
49.88 50.22 49.92 50.17 50.31 49.51 48.89 49.04 49.37 47.99 47.45 47.78 48.19 48.11 48.17 48.16 47.83 46.97 46.58 47.12 46.88 46.46 47.04 47.30 47.38 48.29 46.76 46.75 45.63 44.51 44.51 45.13 43.24 41.69 44.07 44.90 46.37 49.90 50.96 52.28 53.42 55.42 58.36
47.91 47.68 47.52 47.99 48.45 48.05 48.04 48.10 48.57 47.16 46.94 47.64 47.87 47.68 47.68 47.88 47.57 47.13 46.88 46.97 47.11 47.48 47.99 47.38 46.75 46.57 45.79 46.03 46.53 45.89 45.84 46.01 44.80 43.19 43.40 45.33 45.84 46.44 46.88 50.76 51.93 52.83 55.56
45.75 45.23 45.22 45.18 46.03 46.42 46.53 46.69 46.93 46.93 46.56 46.83 47.15 47.48 47.57 47.61 47.73 47.66 47.54 48.53 48.44 48.52 48.73 48.51 47.63 46.58 45.95 45.91 46.07 46.19 46.21 44.89 44.83 43.88 43.83 45.02 45.39 45.84 46.37 46.40 46.36 48.15 49.64
44.18 43.29 42.46 43.53 44.54 45.36 45.42 45.04 45.23 45.37 46.00 46.40 46.51 46.56 46.23 46.76 48.35 48.00 48.29 48.31 47.28 47.23 48.06 48.76 48.19 49.13 50.44 49.73 48.23 47.04 45.65 44.57 45.18 45.02 44.09 44.34 43.79 43.07 41.50 42.87 42.61 44.30 46.32
41.07 41.14 42.15 42.06 42.81 42.79 43.75 44.30 43.89 44.30 44.88 45.23 45.67 45.48 45.13 47.38 46.91 47.17 48.17 47.20 46.26 46.63 46.10 47.78 48.48 49.94 50.14 50.34 50.40 50.45 49.86 47.50 45.94 45.49 45.01 43.82 43.08 43.21 44.01 43.03 42.44 42.19 41.92
39.33 40.47 41.08 40.83 41.18 41.68 42.51 42.95 43.11 42.86 43.17 43.68 44.23 44.93 46.22 45.41 45.62 44.98 45.42 43.88 44.09 44.26 45.04 45.77 46.68 48.49 49.19 49.24 49.32 49.51 49.28 48.91 49.19 48.29 46.12 44.41 43.27 43.94 44.48 43.14 42.51 42.89 44.09
37.03 38.14 39.20 38.90 39.42 40.44 40.35 41.28 41.82 42.07 42.95 43.23 44.55 45.27 45.00 45.66 45.03 42.95 43.41 42.07 41.60 42.34 43.51 44.52 45.13 45.86 46.83 47.11 47.02 47.18 47.91 48.76 48.82 48.79 48.31 47.67 46.66 45.97 44.49 44.15 43.72 43.57 46.01
35.95 36.05 37.39 37.78 38.53 39.50 40.43 41.68 41.77 41.47 42.54 45.47 46.82 46.23 43.05 42.89 42.70 41.36 40.91 40.81 40.16 40.37 42.16 43.59 44.17 44.56 44.68 43.50 44.97 44.77 45.28 46.74 49.43 48.14 46.66 45.67 44.24 43.66 45.58 45.84 44.23 44.39 43.45
35.26 35.36 36.12 39.70 39.81 39.67 41.47 40.80 43.23 44.12 44.83 44.71 43.87 42.10 43.51 40.31 40.25 40.27 39.80 38.74 37.86 38.97 40.55 42.29 44.33 44.92 43.07 43.30 44.56 44.54 43.44 44.85 47.49 48.25 47.91 45.75 44.87 45.63 45.04 46.51 46.97 45.29 44.10
35.81 35.29 35.64 38.48 38.19 40.14 40.56 41.41 40.19 40.90 41.26 41.12 40.06 38.57 37.80 38.22 38.03 39.75 38.95 37.91 37.65 37.82 39.46 41.62 45.53 44.65 42.87 41.89 41.84 44.48 44.90 45.74 46.40 48.18 48.37 48.25 48.54 47.71 47.45 47.24 47.17 46.72 44.52
35.72 34.50 34.35 35.57 38.56 40.22 40.22 37.95 37.72 35.85 35.28 36.07 35.55 34.84 35.95 36.48 39.07 38.48 37.73 37.79 38.56 39.03 39.96 43.66 45.73 42.51 41.43 41.61 44.70 42.46 40.78 41.05 44.19 45.60 47.46 47.28 47.35 47.80 48.74 49.42 49.87 48.72 48.81
34.48 33.71 36.84 37.89 38.14 39.00 38.79 36.74 35.73 33.70 33.00 34.94 35.73 34.81 33.98 36.27 36.81 37.20 37.05 37.50 39.29 39.88 41.88 42.77 42.18 41.14 41.75 43.11 42.22 41.88 44.23 44.87 43.93 44.28 44.75 46.12 48.03 49.08 49.79 49.93 50.62 50.68 49.60
33.07 33.58 35.00 37.76 37.37 37.72 38.18 37.68 35.87 34.27 32.61 33.27 33.52 33.52 34.62 35.15 34.81 35.45 35.81 37.14 38.72 39.80 41.28 44.15 42.64 41.40 41.35 41.07 41.30 42.23 43.46 44.32 45.40 45.87 45.87 47.08 48.07 48.42 48.36 49.47 49.24 49.71 49.23
31.99 33.10 32.82 33.01 33.85 36.48 37.02 37.39 36.32 35.74 34.60 33.28 33.48 34.34 33.53 32.75 34.00 35.61 35.60 35.99 36.64 37.52 40.22 40.37 39.10 38.79 38.96 38.61 37.99 39.22 40.17 40.71 41.20 45.39 47.31 47.46 47.48 47.95 48.29 49.62 49.59 50.00 48.67
31.72 31.85 30.88 32.52 32.72 34.23 35.63 36.49 37.60 36.93 36.34 35.39 35.47 35.10 35.00 35.35 35.40 35.34 35.60 35.87 35.92 36.33 37.65 36.19 36.27 36.16 36.46 36.07 35.58 35.76 37.12 37.84 38.68 40.70 46.00 47.31 48.72 49.30 50.18 51.61 52.14 50.03 49.20
30.36 31.39 32.86 34.55 33.47 32.99 34.12 34.10 33.64 36.11 37.01 35.80 34.91 34.77 34.84 34.13 34.77 34.53 34.99 35.40 35.09 35.64 34.86 34.32 34.17 34.80 34.94 34.88 34.35 34.29 34.38 35.74 37.46 38.53 40.34 45.09 48.25 48.79 49.00 50.10 51.63 52.57 51.28
31.68 35.52 32.31 31.59 32.11 32.00 31.91 32.34 32.76 31.80 30.88 31.09 33.33 32.93 33.78 33.14 33.17 33.44 34.09 34.52 33.29 33.78 33.60 33.93 33.13 33.46 33.81 33.48 33.22 33.11 33.57 34.18 34.66 35.68 37.13 39.36 42.27 47.87 50.24 51.39 52.37 52.12 53.05
32.27 31.94 32.30 32.32 32.62 31.84 31.06 30.74 30.89 29.88 29.08 29.55 29.33 29.83 31.33 31.99 31.82 31.69 32.07 31.23 30.73 31.06 31.98 32.49 32.97 32.64 32.99 32.66 32.05 32.29 32.48 32.45 32.93 33.60 35.02 36.71 38.74 42.03 46.92 52.34 52.07 45.37 49.57
31.34 33.77 32.44 30.92 30.75 29.95 29.19 28.66 28.42 27.88 27.39 27.34 27.97 26.91 27.40 28.00 26.36 26.78 27.61 28.02 28.74 29.75 30.35 31.01 31.84 31.38 31.72 31.89 30.75 31.07 31.35 31.16 31.33 31.89 32.90 35.16 37.30 39.54 44.99 53.42 53.90 53.06 53.68
30.78 30.45 31.06 29.38 28.69 28.45 26.73 26.32 26.59 26.05 25.69 25.29 25.67 27.58 27.65 26.02 24.68 24.82 25.55 26.12 26.74 27.42 28.07 29.53 30.06 29.61 29.55 30.74 29.64 29.32 29.67 29.75 30.17 30.58 31.95 33.27 34.83 38.85 46.18 54.60 54.91 54.86 53.89
29.93 29.24 28.85 27.78 27.73 26.96 25.80 25.89 25.23 25.04 24.89 24.44 24.79 26.15 27.02 25.61 24.79 24.26 25.05 25.17 25.68 26.26 27.26 27.71 28.92 28.52 28.46 29.06 28.19 28.09 28.30 28.05 28.43 29.61 30.65 32.06 36.00 41.94 44.85 53.00 55.31 54.19 52.95
28.97 28.50 27.70 27.67 27.01 26.67 25.43 25.12 25.01 24.73 24.20 23.94 24.33 24.84 24.97 24.14 23.71 23.64 24.54 24.56 25.15 25.28 25.87 26.29 26.72 26.93 27.70 28.35 28.60 27.84 27.29 27.28 28.20 29.92 29.69 32.58 36.67 40.24 43.95 51.00 55.09 53.65 51.85
27.92 27.29 26.55 26.61 26.23 24.89 24.39 23.20 23.34 25.46 25.01 24.51 24.56 24.97 24.81 23.66 23.18 23.40 24.32 24.18 24.41 24.53 25.06 25.35 25.97 25.74 26.47 27.62 27.98 28.11 27.94 28.29 29.51 29.61 31.03 34.40 36.29 38.64 41.55 49.40 52.43 51.21 49.39
25.86 25.69 25.35 24.89 24.65 23.35 23.02 23.43 23.36 24.22 24.55 24.41 24.52 25.57 25.03 23.03 22.98 23.62 24.30 24.48 24.61 24.60 24.83 25.55 25.80 25.89 26.20 26.57 26.46 27.15 27.80 28.12 28.74 29.04 31.70 34.54 36.61 37.13 38.92 45.93 52.37 51.22 49.95
26.79 26.53 25.61 23.99 24.55 23.63 23.46 22.98 23.02 23.63 24.61 24.68 23.71 24.35 25.30 22.67 22.91 23.37 23.73 24.60 24.41 24.60 24.90 25.64 25.67 25.63 26.08 26.27 26.55 26.99 27.23 27.42 27.80 28.76 31.05 33.28 34.54 35.03 36.08 41.31 48.03 52.18 50.68

GFSGL_sfc_wetblb_120.txt.gz
Wetbulb
51.79 51.93 51.86 51.88 52.15 51.94 51.49 51.55 51.53 51.31 50.67 50.28 50.24 50.30 50.20 50.34 50.50 49.64 49.45 49.34 49.15 49.12 49.52 48.99 49.30 49.85 48.73 48.20 48.13 47.77 47.30 46.95 43.88 46.34 48.72 49.78 49.65 49.62 50.54 52.00 53.22 54.74 55.62
51.38 51.12 50.96 51.37 51.45 50.84 50.48 50.71 51.03 50.23 49.68 49.62 50.14 49.95 50.00 49.94 49.85 49.34 48.93 49.02 48.71 48.49 49.02 49.08 48.84 49.68 49.80 49.35 48.32 47.93 47.56 47.87 45.85 44.49 47.40 47.71 48.12 49.47 50.05 50.67 50.80 51.19 52.96
48.25 47.85 47.84 48.61 49.75 49.09 49.06 49.67 50.25 49.38 49.12 49.42 49.44 49.05 48.88 49.06 49.05 49.46 49.11 48.91 48.93 49.48 49.67 49.66 49.52 49.64 48.65 48.61 48.58 47.66 47.95 48.12 47.62 45.77 45.21 47.95 48.04 49.00 48.68 49.61 49.42 51.67 51.97
45.73 45.21 45.17 45.57 46.42 46.99 47.48 47.63 47.95 48.25 48.02 48.22 48.45 48.51 48.52 48.33 48.51 49.04 49.31 49.84 49.22 49.52 49.88 49.88 49.73 49.56 49.03 48.92 48.50 48.26 48.37 47.29 47.17 46.24 45.32 45.44 46.63 48.80 48.74 47.39 46.31 48.08 48.12
43.27 42.91 42.71 43.67 44.63 45.59 45.80 46.00 46.42 46.61 47.11 47.59 47.59 47.81 47.71 48.25 49.15 48.62 48.40 47.01 46.50 47.01 47.52 47.83 49.08 50.20 51.42 51.50 50.09 49.47 49.22 47.95 46.98 45.63 45.01 45.70 46.01 46.68 46.48 47.34 44.83 45.81 46.92
41.64 41.35 42.05 42.39 42.87 43.18 43.93 44.89 45.37 45.44 45.82 46.30 46.72 46.90 47.23 48.11 46.07 46.33 45.42 44.38 44.22 44.21 44.50 45.70 46.97 48.41 49.19 49.38 49.78 49.99 49.83 48.31 47.55 47.12 46.44 45.27 45.91 47.55 48.39 46.48 45.31 44.42 43.34
39.43 40.24 40.28 40.73 41.14 41.73 42.24 43.24 43.90 44.03 44.68 45.11 45.68 46.72 47.13 46.47 44.12 42.37 43.16 42.35 42.46 42.89 43.47 44.41 44.83 46.26 46.92 47.32 47.48 48.05 48.48 48.48 49.11 48.53 46.72 47.01 46.83 47.69 48.57 47.31 46.62 45.66 45.35
37.14 37.89 38.98 39.37 40.05 41.06 41.49 42.26 42.99 43.46 43.90 44.63 45.98 47.01 45.44 45.06 42.20 41.08 41.51 41.27 41.23 42.13 42.46 42.89 43.28 44.39 45.74 45.43 45.36 45.52 46.44 47.51 47.84 48.40 48.68 48.77 49.16 49.86 49.00 47.38 46.96 47.23 47.25
35.66 36.12 37.47 38.67 40.30 40.80 41.53 42.28 43.60 43.18 44.20 45.91 45.02 43.82 42.14 41.20 40.60 40.17 40.23 39.76 39.92 40.14 41.95 42.47 42.93 44.04 44.08 43.03 44.13 44.32 45.86 47.65 49.18 47.85 46.83 46.01 45.08 44.98 46.98 47.15 44.79 43.94 43.89
35.39 35.66 36.76 38.66 39.20 40.36 41.22 41.28 41.35 42.15 42.37 42.82 42.53 40.69 40.07 38.68 38.83 39.46 38.97 38.46 37.80 38.64 40.34 42.25 43.57 43.61 42.07 41.47 42.66 44.50 44.02 45.01 47.72 47.89 47.72 47.61 45.90 47.15 45.51 47.41 46.79 44.26 44.92
36.36 36.01 36.63 37.68 39.34 41.09 40.66 39.42 38.95 38.06 38.92 40.06 39.14 38.06 37.90 37.72 38.36 38.66 38.09 37.38 37.06 37.52 39.25 41.42 43.94 42.55 40.88 39.93 40.25 43.94 41.06 42.03 44.64 45.33 46.59 48.23 49.04 47.94 47.78 47.53 47.33 46.17 45.52
36.06 35.97 36.37 37.43 39.23 40.56 38.80 37.78 36.81 36.09 36.30 37.88 36.62 36.47 37.17 38.13 38.04 37.51 37.38 37.74 38.70 38.61 40.04 42.19 43.13 40.82 39.49 39.64 40.41 38.85 39.22 42.58 44.62 45.18 45.06 45.74 47.68 48.42 49.01 48.87 48.48 48.39 49.97
35.61 35.47 36.82 38.43 38.91 39.22 37.53 36.02 34.96 35.19 34.66 34.40 34.53 34.92 35.49 36.51 36.32 36.81 37.14 37.63 38.67 39.46 40.85 41.49 40.75 39.19 39.51 40.67 39.30 38.82 39.72 40.57 40.45 41.49 43.08 45.78 47.06 48.50 49.98 49.95 50.26 50.73 49.95
34.57 35.12 35.22 36.47 37.71 38.05 38.04 36.16 34.41 33.47 34.04 33.87 33.55 33.69 34.04 34.33 34.30 35.28 36.05 37.06 37.74 38.24 39.40 40.21 40.27 39.56 39.37 39.20 38.78 38.44 39.09 38.90 38.70 38.44 39.82 46.79 49.06 49.13 48.69 49.72 49.12 49.49 48.92
33.84 34.31 34.37 34.55 35.15 36.43 38.01 37.45 35.63 35.23 34.34 33.04 32.94 33.08 32.94 32.07 33.24 34.93 35.25 35.75 36.24 36.35 38.30 37.53 37.28 37.11 36.93 36.81 37.00 37.08 37.09 36.95 36.02 36.63 38.07 40.42 47.10 49.17 48.54 49.42 49.20 48.73 47.69
32.75 32.66 33.89 34.47 34.65 35.50 35.94 36.08 36.93 36.48 35.53 33.91 34.69 34.15 32.99 33.48 33.80 33.95 34.88 35.25 35.30 35.15 36.23 34.37 34.07 34.15 34.04 34.21 33.64 33.91 34.96 34.90 35.17 35.77 36.25 38.19 40.19 44.25 49.81 50.35 49.93 48.85 47.62
31.96 32.16 32.32 33.00 33.27 33.35 34.23 33.96 32.82 34.71 35.60 33.68 32.74 32.68 32.90 32.23 32.55 32.21 33.11 34.30 34.02 34.26 33.01 32.82 32.18 32.34 32.89 32.96 32.79 32.05 32.18 33.70 34.62 34.36 34.66 35.92 37.95 39.85 41.63 48.48 49.75 50.68 49.26
32.55 33.99 32.05 32.61 32.08 31.58 31.97 31.59 31.54 30.40 29.47 29.85 31.24 30.58 31.06 30.53 30.75 30.63 31.22 32.41 30.84 31.68 30.79 31.01 30.30 30.60 30.70 31.40 31.12 30.31 30.97 32.07 32.25 32.51 33.07 34.01 35.75 37.31 39.00 42.69 50.46 51.42 51.62
32.62 32.07 31.80 31.97 31.68 31.18 30.90 30.46 29.78 28.86 28.16 28.13 28.74 29.18 29.44 29.45 29.09 29.04 29.26 28.56 27.68 27.76 28.45 29.51 30.41 29.81 30.09 29.53 29.58 30.01 29.64 29.94 30.64 31.00 31.71 32.31 33.57 34.77 36.35 40.44 46.99 46.06 48.98
32.33 32.08 31.14 30.43 29.60 29.10 28.66 28.00 27.60 27.41 26.68 26.53 26.31 26.57 27.47 27.59 25.79 26.18 26.85 26.27 25.96 26.22 27.05 27.13 29.36 29.37 28.82 28.75 27.96 28.42 28.59 28.64 28.68 28.95 29.58 31.03 32.35 34.35 36.91 41.86 45.15 54.29 54.67
30.17 29.97 29.61 28.91 27.68 27.28 27.27 26.39 26.61 26.24 25.94 25.91 25.87 26.86 26.03 25.18 24.78 24.76 25.17 25.06 24.87 25.00 25.10 25.64 26.63 26.89 27.14 27.91 27.92 27.11 27.48 27.75 27.80 28.00 28.67 29.84 31.43 33.85 38.17 42.03 47.58 55.58 54.25
30.18 29.14 28.55 27.57 27.46 27.07 26.73 26.92 26.54 26.23 26.01 25.72 25.90 26.43 25.56 25.22 24.52 24.49 25.32 25.04 25.07 25.64 25.59 25.60 25.81 25.92 26.58 27.07 27.32 26.61 26.57 26.77 26.91 27.34 28.00 29.34 31.63 34.69 38.58 41.22 47.40 54.64 53.06
29.64 28.49 27.70 27.26 27.37 26.95 26.68 26.65 26.37 26.15 25.86 26.00 26.29 25.86 24.90 24.56 24.45 24.69 25.03 25.20 25.39 25.51 26.02 26.15 25.95 25.93 27.02 27.40 27.51 26.92 26.34 25.93 26.83 28.03 27.70 29.57 32.01 35.07 37.29 40.94 53.31 53.73 52.12
28.95 28.32 27.46 27.12 26.87 25.96 25.68 25.54 25.97 26.15 25.59 25.30 25.81 25.93 25.07 24.71 24.64 24.76 24.94 25.49 26.02 26.16 26.44 26.60 26.57 26.19 26.62 27.09 27.02 27.33 27.33 27.08 28.19 28.05 28.82 30.83 32.17 34.17 36.66 41.48 50.72 52.25 49.65
28.39 28.15 27.21 26.68 26.35 25.61 25.28 25.02 25.15 25.62 26.03 25.41 24.66 25.05 25.62 25.18 24.76 25.10 25.18 25.70 26.08 26.32 26.64 26.55 26.70 26.62 26.58 26.58 26.27 26.47 26.70 26.65 27.59 27.90 29.24 31.23 32.20 34.20 35.29 39.12 42.49 50.49 48.74
28.57 28.17 27.22 26.56 25.90 25.39 25.15 24.50 23.60 23.81 24.24 24.51 24.05 24.26 24.92 25.11 24.76 24.71 24.96 25.17 25.20 25.97 26.66 26.49 26.86 26.69 26.83 26.67 26.43 26.33 26.33 26.22 26.75 27.45 29.19 30.57 30.95 32.30 33.76 36.48 39.26 43.54 49.22